# Wetter Temperatur Luftdruck Luftfeuchtigkeit Sichtweite Windgeschwindigkeit Windrichtung Zeit
1 Clear 13 1014 76 10000 1 100 19:42 17.10.2019
2 Clear 14 1014 67 10000 1.5 120 19:20 17.10.2019
3 Clear 14 1014 67 10000 1.5 120 19:20 17.10.2019
4 Clear 14 1014 67 10000 1.5 120 19:20 17.10.2019
5 Clear 15 1014 67 10000 1.5 190 18:59 17.10.2019
6 Clear 15 1014 67 10000 1.5 190 18:38 17.10.2019
7 Clear 16 1014 63 10000 2.1 170 18:20 17.10.2019
8 Clouds 17 1014 63 10000 1.5 130 17:43 17.10.2019
9 Clouds 18 1014 63 10000 1.5 130 17:24 17.10.2019
10 Clouds 18 1014 63 10000 1 0 16:58 17.10.2019
11 Clouds 18 1014 55 10000 2.1 220 16:40 17.10.2019
12 Clouds 18 1014 55 10000 2.1 220 16:40 17.10.2019
13 Clouds 18 1014 59 10000 2.6 180 16:19 17.10.2019
14 -273 0 0 0 0 0 15:57 17.10.2019
15 Clouds 18 1015 55 10000 2.1 160 15:38 17.10.2019
16 Clouds 18 1015 59 10000 2.1 190 15:20 17.10.2019
17 -273 0 0 0 0 0 14:56 17.10.2019
18 Clouds 18 1015 55 10000 1.5 0 14:37 17.10.2019
19 Clouds 17 1015 59 10000 2.6 210 14:19 17.10.2019
20 Clouds 17 1016 59 10000 4.1 190 13:39 17.10.2019
21 Clouds 17 1016 59 10000 4.1 190 13:39 17.10.2019
22 Clouds 16 1016 63 10000 2.6 200 13:20 17.10.2019
23 -273 0 0 0 0 0 12:55 17.10.2019
24 Rain 15 1016 67 10000 1.5 170 12:37 17.10.2019
25 Clouds 14 1016 62 10000 2.6 150 12:18 17.10.2019
26 Clouds 14 1016 62 10000 2.6 150 12:18 17.10.2019
27 Clouds 13 1016 67 10000 3.1 140 11:41 17.10.2019
28 Clouds 13 1016 67 10000 3.1 140 11:41 17.10.2019
29 Clouds 13 1016 71 10000 2.6 130 11:22 17.10.2019
30 Clouds 12 1016 71 10000 2.6 130 10:59 17.10.2019
31 Clouds 12 1016 71 10000 2.1 140 10:41 17.10.2019
32 Clouds 12 1016 71 10000 2.6 130 10:19 17.10.2019
33 Clouds 11 1016 71 10000 3.1 120 09:55 17.10.2019
34 Clouds 11 1016 71 10000 3.1 120 09:55 17.10.2019
35 Clouds 11 1016 71 10000 3.1 120 09:37 17.10.2019
36 Clouds 10 1016 81 10000 3.1 120 09:19 17.10.2019
37 Clouds 9 1015 81 10000 3.6 100 08:46 17.10.2019
38 Clouds 9 1015 81 10000 3.6 100 08:26 17.10.2019
39 Clouds 9 1015 81 10000 3.1 110 07:58 17.10.2019
40 Clouds 9 1015 87 10000 3.6 110 07:40 17.10.2019
41 Clouds 9 1015 87 10000 4.6 110 07:20 17.10.2019
42 Clouds 8 1015 87 10000 3.6 110 06:40 17.10.2019
43 Clouds 8 1015 87 10000 4.1 100 06:21 17.10.2019
44 Clouds 8 1015 87 10000 4.1 100 05:58 17.10.2019
45 Clouds 8 1015 81 10000 4.1 100 05:34 17.10.2019
46 Clouds 7 1015 87 10000 3.6 100 04:57 17.10.2019
47 Clouds 8 1015 87 10000 1.5 90 03:55 17.10.2019
48 Clouds 8 1015 81 10000 3.6 100 02:53 17.10.2019
49 Clouds 9 1015 87 10000 4.1 110 01:55 17.10.2019
50 Clouds 9 1015 81 10000 3.6 120 00:41 17.10.2019
51 Clear 10 1015 81 10000 3.1 120 00:20 17.10.2019
52 Clear 10 1015 81 10000 3.1 120 00:20 17.10.2019
53 Clear 11 1015 76 10000 3.6 150 23:42 16.10.2019
54 Clear 10 1015 76 10000 2.6 130 23:21 16.10.2019
55 Clear 11 1015 81 10000 3.1 150 22:56 16.10.2019
56 Clear 11 1015 81 10000 3.1 150 22:38 16.10.2019
57 Clear 11 1015 76 10000 2.6 160 22:19 16.10.2019
58 Clear 11 1015 76 10000 2.6 160 21:58 16.10.2019
59 Clear 12 1015 76 10000 3.6 150 21:38 16.10.2019
60 Clouds 12 1015 76 10000 3.1 160 21:19 16.10.2019
61 Clouds 12 1015 76 10000 3.1 160 20:58 16.10.2019
62 Clouds 13 1015 71 10000 3.6 150 20:39 16.10.2019
63 Clouds 12 1015 71 10000 3.6 130 20:21 16.10.2019
64 Clouds 13 1015 71 10000 3.6 130 19:59 16.10.2019
65 Clouds 13 1015 76 10000 2.6 140 19:39 16.10.2019
66 Clouds 13 1015 76 10000 2.6 140 19:39 16.10.2019
67 Clouds 13 1015 71 10000 2.6 160 19:20 16.10.2019
68 -273 0 0 0 0 0 18:54 16.10.2019
69 Clouds 14 1015 67 10000 2.6 180 18:54 16.10.2019
70 Clouds 14 1015 67 10000 2.6 180 18:36 16.10.2019
71 Clouds 14 1014 62 10000 3.1 180 18:18 16.10.2019
72 Clouds 14 1014 62 10000 3.1 180 17:54 16.10.2019
73 Clouds 14 1015 62 10000 3.6 190 17:36 16.10.2019
74 Clouds 14 1015 62 10000 3.6 180 17:18 16.10.2019
75 Clouds 14 1015 62 10000 3.6 190 16:41 16.10.2019
76 Clouds 15 1015 62 10000 4.1 190 16:21 16.10.2019
77 Clouds 15 1015 62 10000 4.1 190 16:21 16.10.2019
78 Clouds 14 1015 62 10000 4.1 190 15:57 16.10.2019
79 Clouds 14 1015 58 10000 4.6 230 15:38 16.10.2019
80 Clouds 15 1015 58 10000 5.1 240 15:18 16.10.2019
81 Clouds 15 1015 58 10000 5.1 240 14:58 16.10.2019
82 Clouds 15 1015 58 10000 5.1 240 14:38 16.10.2019
83 Clouds 15 1015 58 10000 5.1 220 14:18 16.10.2019
84 Clouds 15 1015 58 10000 5.1 220 13:56 16.10.2019
85 Clouds 15 1015 58 10000 5.7 220 13:37 16.10.2019
86 Clouds 14 1016 62 10000 5.7 230 13:19 16.10.2019
87 Clouds 14 1016 62 10000 6.7 230 12:41 16.10.2019
88 Clouds 14 1016 67 10000 5.1 230 12:19 16.10.2019
89 Clouds 13 1016 71 10000 6.2 240 11:43 16.10.2019
90 Clouds 13 1016 76 10000 4.1 190 11:18 16.10.2019
91 Clouds 12 1016 76 10000 4.6 230 10:40 16.10.2019
92 Clouds 12 1016 76 10000 3.6 210 10:22 16.10.2019
93 Clouds 11 1016 76 10000 3.6 210 09:58 16.10.2019
94 Clouds 11 1015 81 10000 4.1 210 09:38 16.10.2019
95 Clouds 11 1016 87 10000 4.1 210 09:19 16.10.2019
96 Clouds 11 1015 81 10000 4.1 220 08:43 16.10.2019
97 Clouds 11 1015 81 10000 4.1 220 08:24 16.10.2019
98 Clouds 11 1015 81 10000 3.6 220 07:55 16.10.2019
99 Clouds 11 1014 87 10000 4.1 220 07:37 16.10.2019
100 Clouds 11 1015 87 10000 4.6 220 07:18 16.10.2019
101 Clouds 11 1014 81 10000 5.1 240 06:39 16.10.2019
102 Clouds 11 1014 81 10000 5.1 240 06:39 16.10.2019
103 Rain 11 1014 87 10000 3.6 240 05:54 16.10.2019
104 Rain 12 1012 87 10000 6.7 250 03:26 16.10.2019
105 Rain 12 1012 93 10000 2.6 230 02:49 16.10.2019
106 Rain 13 1011 100 10000 5.7 250 01:19 16.10.2019
107 Rain 13 1011 93 4000 3.6 220 00:50 16.10.2019
108 Rain 13 1011 100 10000 5.1 240 00:28 16.10.2019
109 Clouds 14 1009 87 10000 4.6 260 23:41 15.10.2019
110 Clouds 14 1009 87 10000 5.7 280 23:22 15.10.2019
111 Clouds 14 1009 100 10000 7.2 260 22:56 15.10.2019
112 Rain 14 1009 93 10000 5.1 270 22:38 15.10.2019
113 Rain 14 1009 100 10000 8.7 260 22:20 15.10.2019
114 -273 0 0 0 0 0 21:56 15.10.2019
115 Rain 14 1008 82 10000 7.7 280 21:56 15.10.2019
116 Rain 14 1008 82 10000 7.7 280 21:56 15.10.2019
117 Clouds 14 1008 82 10000 4.6 250 21:38 15.10.2019
118 Rain 14 1009 100 10000 6.7 250 21:20 15.10.2019
119 Rain 15 1007 87 10000 3.6 250 20:57 15.10.2019
120 Clouds 15 1007 87 10000 2.1 160 20:39 15.10.2019
121 Clouds 15 1007 87 10000 2.1 160 20:39 15.10.2019
122 Clouds 15 1007 87 10000 3.1 110 20:20 15.10.2019
123 Clouds 15 1007 87 10000 3.1 110 19:58 15.10.2019
124 Clouds 15 1006 82 10000 2.6 100 19:40 15.10.2019
125 Clouds 15 1006 82 10000 3.6 100 19:20 15.10.2019
126 Clouds 16 1006 77 10000 2.1 70 18:47 15.10.2019
127 Clouds 17 1006 77 10000 2.1 70 18:29 15.10.2019
128 Clouds 18 1006 72 10000 2.1 70 17:59 15.10.2019
129 Clouds 19 1006 68 10000 3.1 100 17:40 15.10.2019
130 Clouds 20 1005 68 10000 3.6 90 17:20 15.10.2019
131 Clouds 20 1005 68 10000 3.6 90 16:56 15.10.2019
132 Clouds 20 1005 64 10000 3.1 90 16:37 15.10.2019
133 Clouds 20 1005 68 10000 3.1 120 16:19 15.10.2019
134 Clouds 21 1006 64 10000 3.1 140 15:43 15.10.2019
135 Clouds 21 1006 60 10000 3.6 160 15:21 15.10.2019
136 Clouds 21 1006 60 10000 3.6 160 14:58 15.10.2019
137 Clouds 21 1006 60 10000 3.1 140 14:38 15.10.2019
138 Clouds 21 1006 60 10000 3.1 140 14:38 15.10.2019
139 Clouds 21 1006 60 10000 3.1 140 14:38 15.10.2019
140 Clouds 20 1007 60 10000 4.1 170 14:20 15.10.2019
141 Clouds 20 1007 60 10000 4.1 170 13:56 15.10.2019
142 Clouds 20 1007 60 10000 2.6 150 13:37 15.10.2019
143 Clouds 19 1007 64 10000 2.6 120 13:19 15.10.2019
144 Clouds 17 1008 68 10000 1.5 130 12:42 15.10.2019
145 Clear 17 1008 72 10000 2.1 160 12:21 15.10.2019
146 Clear 17 1008 72 10000 2.1 160 11:56 15.10.2019
147 Clear 17 1008 72 10000 2.1 160 11:56 15.10.2019
148 Clear 16 1008 77 10000 3.6 110 11:37 15.10.2019
149 Clear 16 1009 82 10000 3.1 120 11:18 15.10.2019
150 Mist 14 1009 82 10000 3.1 130 10:43 15.10.2019
151 Fog 13 1009 87 10000 2.6 140 10:19 15.10.2019
152 Mist 12 1009 87 10000 2.6 140 09:58 15.10.2019
153 Mist 12 1009 87 10000 2.1 140 09:37 15.10.2019
154 Mist 12 1009 87 10000 2.1 140 09:37 15.10.2019
155 Mist 11 1009 93 10000 2.1 140 09:19 15.10.2019
156 Mist 10 1009 100 10000 1.5 120 08:43 15.10.2019
157 Mist 9 1009 100 1800 2.6 150 08:22 15.10.2019
158 Mist 9 1009 100 10000 2.6 110 07:58 15.10.2019
159 Mist 9 1010 100 10000 2.1 130 07:39 15.10.2019
160 Mist 9 1010 100 10000 1.5 120 07:19 15.10.2019
161 Fog 10 1010 100 10000 2.1 100 06:45 15.10.2019
162 Fog 10 1010 100 10000 2.1 100 06:26 15.10.2019
163 Fog 10 1010 100 10000 2.1 110 05:41 15.10.2019
164 Fog 10 1011 100 10000 1 110 05:23 15.10.2019
165 Fog 10 1011 93 10000 1.5 150 04:32 15.10.2019
166 Mist 10 1011 93 10000 2.1 100 03:37 15.10.2019
167 Mist 10 1011 93 10000 2.1 100 03:37 15.10.2019
168 Mist 11 1011 93 10000 1.5 160 02:29 15.10.2019
169 Mist 11 1011 100 8000 2.1 100 01:48 15.10.2019
170 Mist 11 1012 100 10000 2.6 90 01:22 15.10.2019
171 Mist 12 1012 100 10000 1 110 00:49 15.10.2019
172 Mist 13 1012 93 10000 2.1 110 00:21 15.10.2019
173 Haze 13 1012 93 10000 2.1 110 23:44 14.10.2019
174 Haze 14 1012 87 10000 2.1 120 23:20 14.10.2019
175 Haze 14 1012 87 10000 2.1 120 22:57 14.10.2019
176 Haze 14 1012 93 10000 2.1 110 22:38 14.10.2019
177 Haze 14 1011 87 10000 4.6 110 22:18 14.10.2019
178 Mist 15 1012 87 10000 4.6 100 21:41 14.10.2019
179 Mist 16 1012 82 10000 3.1 100 21:22 14.10.2019
180 Mist 16 1012 82 10000 2.6 90 20:59 14.10.2019
181 Mist 16 1012 82 10000 2.6 90 20:40 14.10.2019
182 Mist 17 1012 82 10000 1 90 20:22 14.10.2019
183 Haze 17 1012 82 10000 1 90 19:59 14.10.2019
184 Clear 17 1013 72 10000 1.5 80 19:41 14.10.2019
185 Clear 18 1013 72 10000 1.5 80 19:23 14.10.2019
186 Haze 20 1013 68 10000 1.5 110 18:58 14.10.2019
187 Haze 20 1013 68 10000 1.5 110 18:58 14.10.2019
188 Haze 20 1013 68 10000 1.5 110 18:58 14.10.2019
189 Haze 21 1013 60 10000 2.6 90 18:38 14.10.2019
190 Haze 21 1013 64 10000 2.6 120 18:19 14.10.2019
191 Haze 23 1013 57 10000 2.6 90 17:44 14.10.2019
192 Haze 24 1013 57 10000 2.6 90 17:26 14.10.2019
193 Haze 24 1014 53 1600 2.1 140 16:59 14.10.2019
194 Haze 24 1014 53 1600 2.1 140 16:40 14.10.2019
195 Haze 24 1014 47 10000 1.5 140 16:21 14.10.2019
196 Haze 24 1014 47 10000 1.5 180 15:42 14.10.2019
197 Haze 24 1014 50 10000 2.1 150 15:22 14.10.2019
198 Haze 23 1015 50 10000 2.1 160 14:56 14.10.2019
199 Haze 24 1014 50 10000 2.1 150 14:56 14.10.2019
200 Haze 23 1015 50 10000 2.1 160 14:38 14.10.2019
201 Haze 23 1015 53 10000 1.5 150 14:19 14.10.2019
202 Haze 22 1015 53 10000 1 0 13:43 14.10.2019
203 Haze 22 1016 53 10000 1 0 13:21 14.10.2019
204 Haze 21 1016 60 10000 1 0 12:55 14.10.2019
205 Haze 21 1016 60 10000 1 0 12:37 14.10.2019
206 Haze 19 1017 64 10000 1.5 160 12:18 14.10.2019
207 Haze 20 1017 64 10000 1.5 160 12:18 14.10.2019
208 Clear 18 1017 68 10000 1.5 150 11:44 14.10.2019
209 Clear 17 1017 72 10000 2.1 150 11:24 14.10.2019
210 Mist 16 1017 72 10000 2.1 150 10:57 14.10.2019
211 Mist 16 1017 72 10000 2.1 150 10:37 14.10.2019
212 Mist 15 1017 77 10000 2.1 130 10:18 14.10.2019
213 Clear 13 1017 82 10000 2.1 120 09:42 14.10.2019
214 Clear 13 1017 82 10000 2.1 120 09:41 14.10.2019
215 Mist 11 1017 93 10000 1 110 09:21 14.10.2019
216 Mist 10 1017 93 10000 1 130 08:50 14.10.2019
217 Clear 10 1017 100 10000 2.1 110 08:23 14.10.2019
218 Clear 10 1016 100 10000 3.1 110 07:47 14.10.2019
219 Clear 10 1016 93 10000 3.6 110 07:25 14.10.2019
220 Clear 11 1017 93 10000 3.1 120 06:59 14.10.2019
221 Clear 11 1017 93 10000 2.1 120 06:28 14.10.2019
222 Clear 11 1016 100 10000 2.1 130 05:57 14.10.2019
223 Clear 11 1016 100 10000 2.6 120 05:27 14.10.2019
224 Clear 11 1016 93 10000 1.5 120 03:50 14.10.2019
225 Clear 13 1016 87 10000 2.6 120 03:26 14.10.2019
226 Clear 13 1016 87 10000 3.1 120 02:32 14.10.2019
227 Clear 13 1016 87 10000 4.1 110 01:21 14.10.2019
228 Clear 14 1016 87 10000 3.1 110 00:42 14.10.2019
229 Clear 15 1016 87 10000 2.6 130 00:18 14.10.2019
230 Clear 15 1016 82 10000 4.1 110 23:41 13.10.2019
231 Clear 15 1016 87 10000 3.6 120 23:20 13.10.2019
232 Clear 15 1016 82 10000 4.1 110 22:57 13.10.2019
233 Clear 15 1016 87 10000 3.6 120 22:57 13.10.2019
234 Clear 16 1016 82 10000 4.1 110 22:39 13.10.2019
235 Clear 16 1016 77 10000 3.1 110 22:20 13.10.2019
236 Clear 16 1016 77 10000 3.1 110 22:20 13.10.2019
237 Clear 16 1016 77 10000 3.1 110 21:57 13.10.2019
238 Clear 16 1016 82 10000 3.6 110 21:36 13.10.2019
239 Clear 17 1016 77 10000 4.1 120 21:18 13.10.2019
240 Clear 17 1016 77 10000 4.1 120 20:56 13.10.2019
241 Clear 17 1015 82 10000 3.1 120 20:37 13.10.2019
242 Clear 17 1015 82 10000 3.1 120 20:37 13.10.2019
243 Clear 18 1015 82 10000 3.1 120 20:37 13.10.2019
244 Clear 18 1015 82 10000 3.1 120 20:37 13.10.2019
245 Clear 18 1015 77 10000 4.1 110 20:18 13.10.2019
246 Clear 18 1015 68 10000 2.6 120 19:55 13.10.2019
247 Clear 18 1015 68 10000 2.6 120 19:36 13.10.2019
248 Clear 18 1015 68 10000 3.6 140 19:18 13.10.2019
249 Clear 21 1015 56 10000 4.6 140 18:41 13.10.2019
250 Clear 22 1015 49 10000 5.7 140 18:21 13.10.2019
251 Clear 22 1015 49 10000 5.7 140 17:59 13.10.2019
252 Clear 23 1015 49 10000 5.1 140 17:41 13.10.2019
253 Clear 23 1015 50 10000 5.1 140 17:23 13.10.2019
254 Clear 24 1015 47 10000 5.7 150 16:44 13.10.2019
255 Clear 24 1015 47 10000 5.7 150 16:44 13.10.2019
256 Clear 24 1015 50 10000 4.1 150 16:20 13.10.2019
257 Clear 24 1015 50 10000 4.1 150 16:20 13.10.2019
258 Clear 24 1015 50 10000 4.1 150 15:58 13.10.2019
259 Clear 24 1015 50 10000 4.6 160 15:39 13.10.2019
260 Haze 24 1015 53 10000 3.6 150 15:21 13.10.2019
261 Haze 24 1015 53 10000 3.6 150 14:58 13.10.2019
262 Haze 24 1015 53 10000 4.1 130 14:40 13.10.2019
263 Haze 24 1016 53 10000 3.6 140 14:21 13.10.2019
264 Haze 23 1016 56 10000 3.1 140 13:58 13.10.2019
265 Haze 23 1016 56 10000 3.1 140 13:37 13.10.2019
266 Clear 23 1016 56 10000 3.1 130 13:19 13.10.2019
267 Clear 23 1016 56 10000 3.1 130 12:56 13.10.2019
268 Clear 21 1016 60 10000 3.6 150 12:38 13.10.2019
269 Clear 20 1016 60 10000 3.6 150 12:18 13.10.2019
270 Clear 18 1016 64 10000 4.1 140 11:55 13.10.2019
271 Clear 18 1016 64 10000 4.1 140 11:55 13.10.2019
272 Clear 18 1016 64 10000 4.1 140 11:37 13.10.2019
273 Clear 18 1016 64 10000 4.1 140 11:37 13.10.2019
274 Clear 17 1017 68 10000 4.1 130 11:18 13.10.2019
275 Clear 17 1017 68 10000 4.1 130 11:18 13.10.2019
276 Mist 17 1017 68 10000 4.1 130 10:41 13.10.2019
277 Mist 17 1017 68 10000 4.1 130 10:41 13.10.2019
278 Mist 16 1017 72 10000 3.1 130 10:23 13.10.2019
279 Mist 16 1017 72 10000 3.1 130 10:23 13.10.2019
280 Mist 15 1017 77 10000 3.6 130 09:41 13.10.2019
281 Mist 14 1016 77 10000 3.6 130 09:21 13.10.2019
282 Mist 14 1016 77 10000 3.6 130 09:21 13.10.2019
283 Mist 13 1016 82 10000 4.1 130 08:58 13.10.2019
284 Mist 13 1016 77 10000 3.6 130 08:58 13.10.2019
285 Clear 13 1016 82 10000 4.1 130 08:38 13.10.2019
286 Clear 13 1016 87 10000 3.6 120 08:19 13.10.2019
287 Clear 12 1016 87 10000 4.1 110 07:46 13.10.2019
288 Mist 12 1016 87 10000 3.1 110 07:21 13.10.2019
289 Clear 13 1016 82 10000 3.1 120 06:41 13.10.2019
290 Clear 13 1016 87 10000 3.1 130 05:39 13.10.2019
291 Clear 13 1016 82 10000 3.1 120 04:46 13.10.2019
292 Clear 13 1016 82 10000 4.1 110 03:51 13.10.2019
293 Clear 14 1016 82 10000 2.6 130 02:41 13.10.2019
294 Clear 14 1016 82 10000 3.6 130 01:54 13.10.2019
295 Clear 14 1016 87 10000 3.6 140 01:30 13.10.2019
296 Clear 15 1016 82 10000 3.1 110 00:47 13.10.2019
297 Clear 15 1016 82 10000 3.1 110 00:47 13.10.2019
298 Clear 15 1016 77 10000 3.6 100 00:21 13.10.2019
299 Clear 16 1016 77 10000 3.6 100 23:56 12.10.2019
300 Clear 16 1016 77 10000 3.1 120 23:37 12.10.2019
301 Rain 16 1016 77 10000 2.6 130 23:19 12.10.2019
302 Clear 16 1016 77 10000 3.6 130 22:57 12.10.2019
303 Clear 16 1016 77 10000 3.6 130 22:38 12.10.2019
304 Clear 16 1016 77 10000 3.1 150 22:20 12.10.2019
305 Clear 15 1016 77 10000 3.1 150 21:54 12.10.2019
306 Clear 15 1016 82 10000 3.1 120 21:54 12.10.2019
307 Clear 15 1016 82 10000 3.1 120 21:36 12.10.2019
308 Clear 15 1016 82 10000 3.6 110 21:18 12.10.2019
309 Haze 16 1016 77 10000 3.6 110 20:40 12.10.2019
310 Clear 16 1016 77 10000 3.1 100 20:22 12.10.2019
311 Clear 16 1016 72 10000 3.1 110 19:38 12.10.2019
312 Clear 16 1016 72 10000 3.6 100 19:20 12.10.2019
313 Clear 18 1016 68 10000 1.5 160 18:56 12.10.2019
314 Clear 18 1016 68 10000 1.5 160 18:37 12.10.2019
315 Clear 19 1016 63 10000 3.1 170 18:19 12.10.2019
316 Clear 20 1016 64 10000 3.1 190 17:42 12.10.2019
317 Clear 20 1016 60 10000 4.1 190 17:19 12.10.2019
318 Rain 21 1015 64 10000 4.1 180 16:54 12.10.2019
319 Clear 21 1015 64 10000 4.1 180 16:36 12.10.2019
320 Clear 21 1015 49 10000 4.1 210 16:18 12.10.2019
321 Clear 22 1016 49 10000 4.6 220 15:40 12.10.2019
322 Clear 22 1016 49 10000 4.6 220 15:21 12.10.2019
323 Clear 22 1016 53 10000 4.1 200 14:41 12.10.2019
324 Clear 22 1016 53 10000 5.1 200 14:22 12.10.2019
325 Clear 22 1016 52 10000 5.1 210 13:53 12.10.2019
326 Clear 22 1016 52 10000 5.1 210 13:33 12.10.2019
327 Clear 21 1016 52 10000 4.6 200 12:59 12.10.2019
328 Clear 21 1016 52 10000 4.6 200 12:59 12.10.2019
329 Clear 20 1016 56 10000 4.6 190 12:38 12.10.2019
330 Clear 19 1016 59 10000 4.6 180 12:20 12.10.2019
331 Clear 18 1016 59 10000 4.6 180 11:56 12.10.2019
332 Clear 17 1016 59 10000 4.1 180 11:38 12.10.2019
333 Clear 17 1016 59 10000 4.1 180 11:38 12.10.2019
334 Clear 16 1016 67 10000 3.6 160 11:18 12.10.2019
335 Clear 15 1017 67 10000 3.1 150 10:40 12.10.2019
336 Clear 14 1016 76 10000 3.6 150 10:22 12.10.2019
337 Clear 13 1016 81 10000 2.6 150 09:57 12.10.2019
338 Clear 13 1016 81 10000 2.6 150 09:57 12.10.2019
339 Clear 12 1016 81 10000 2.6 150 09:39 12.10.2019
340 Clear 10 1016 81 10000 3.6 150 09:20 12.10.2019
341 Clear 9 1016 81 10000 4.1 160 08:55 12.10.2019
342 Clear 9 1016 81 10000 4.1 160 08:36 12.10.2019
343 Clear 8 1016 93 10000 4.1 150 08:18 12.10.2019
344 Clear 8 1016 93 10000 4.1 150 08:18 12.10.2019
345 Clear 7 1016 93 10000 3.6 120 07:32 12.10.2019
346 Clear 7 1016 93 10000 3.1 120 06:38 12.10.2019
347 -273 0 0 0 0 0 05:44 12.10.2019
348 Clear 8 1016 93 10000 3.1 110 04:47 12.10.2019
349 Clear 8 1016 87 10000 3.6 120 03:56 12.10.2019
350 Mist 8 1016 87 10000 3.1 110 02:54 12.10.2019
351 Clear 9 1016 93 10000 3.6 130 01:35 12.10.2019
352 Clear 9 1016 87 10000 3.6 120 00:57 12.10.2019
353 Clear 9 1016 87 10000 3.6 120 00:38 12.10.2019
354 Clear 9 1016 93 10000 3.1 120 23:55 11.10.2019
355 Clear 9 1016 87 10000 3.1 140 23:37 11.10.2019
356 Clear 10 1016 81 10000 2.6 140 23:18 11.10.2019
357 Clear 9 1016 87 10000 3.1 140 22:38 11.10.2019
358 Clear 10 1016 87 10000 2.6 120 22:19 11.10.2019
359 Clear 11 1016 87 10000 2.6 130 21:44 11.10.2019
360 Clear 11 1016 81 10000 2.6 140 21:22 11.10.2019
361 Clear 11 1016 81 10000 2.6 140 20:59 11.10.2019
362 Clear 11 1016 81 10000 2.6 140 20:59 11.10.2019
363 Clear 12 1016 81 10000 2.6 140 20:41 11.10.2019
364 Clear 12 1017 82 10000 2.1 130 20:23 11.10.2019
365 Clear 12 1017 82 10000 2.1 130 19:56 11.10.2019
366 Clouds 12 1016 76 10000 2.1 140 19:37 11.10.2019
367 Clouds 13 1017 72 10000 2.1 180 19:18 11.10.2019
368 Clouds 13 1017 72 10000 2.1 180 19:18 11.10.2019
369 Clouds 13 1017 72 10000 2.1 180 19:18 11.10.2019
370 Clouds 15 1017 72 10000 2.1 180 18:56 11.10.2019
371 Clouds 15 1017 72 10000 2.6 180 18:37 11.10.2019
372 Clouds 16 1017 67 10000 3.6 180 18:18 11.10.2019
373 Clouds 17 1017 67 10000 3.6 180 17:57 11.10.2019
374 Clouds 17 1017 63 10000 3.1 210 17:37 11.10.2019
375 Clouds 17 1017 59 10000 3.1 220 17:18 11.10.2019
376 Clouds 17 1017 59 10000 3.1 220 17:18 11.10.2019
377 Clouds 17 1018 63 10000 3.1 210 16:41 11.10.2019
378 Clouds 17 1018 59 10000 4.6 230 16:20 11.10.2019
379 Clouds 17 1018 59 10000 4.6 230 15:59 11.10.2019
380 Clouds 17 1018 59 10000 4.6 230 15:59 11.10.2019
381 Clouds 16 1018 63 10000 2.6 230 15:38 11.10.2019
382 Clouds 16 1018 63 10000 3.1 220 15:19 11.10.2019
383 Clouds 16 1018 63 10000 2.6 210 14:47 11.10.2019
384 Clouds 16 1018 63 10000 2.6 210 14:29 11.10.2019
385 Clouds 15 1019 67 10000 4.1 210 13:56 11.10.2019
386 Clouds 15 1019 67 10000 4.1 210 13:38 11.10.2019
387 Clouds 15 1019 63 10000 4.6 200 13:19 11.10.2019
388 Clouds 14 1020 67 10000 3.6 180 12:54 11.10.2019
389 Clouds 14 1020 67 10000 3.6 180 12:36 11.10.2019
390 Clouds 14 1020 72 0 4.1 160 12:18 11.10.2019
391 Clouds 12 1020 76 10000 4.1 180 11:41 11.10.2019
392 Clouds 12 1021 81 10000 4.1 190 11:22 11.10.2019
393 Clouds 11 1021 81 10000 4.1 190 10:56 11.10.2019
394 Clouds 11 1020 81 10000 3.6 160 10:38 11.10.2019
395 Clouds 10 1020 81 10000 3.6 160 10:20 11.10.2019
396 Clouds 10 1020 81 10000 3.6 160 10:20 11.10.2019
397 Clouds 9 1021 87 10000 4.1 160 09:55 11.10.2019
398 Clouds 9 1021 87 10000 4.1 160 09:37 11.10.2019
399 Clouds 8 1021 87 10000 3.1 140 09:18 11.10.2019
400 Clouds 8 1021 87 10000 3.1 140 09:18 11.10.2019
401 Clouds 7 1020 93 10000 2.6 150 08:40 11.10.2019
402 Clouds 7 1020 93 10000 2.1 160 08:21 11.10.2019
403 Clouds 7 1020 93 10000 2.1 160 07:59 11.10.2019
404 Mist 6 1020 93 10000 2.1 170 07:40 11.10.2019
405 Mist 6 1020 93 10000 2.6 150 07:20 11.10.2019
406 Clear 7 1020 93 10000 3.1 140 06:44 11.10.2019
407 Clear 7 1020 93 10000 3.1 160 06:21 11.10.2019
408 Clouds 7 1021 100 10000 2.6 150 05:37 11.10.2019
409 Clouds 7 1021 100 10000 2.6 120 04:59 11.10.2019
410 Clouds 7 1021 93 10000 2.1 190 04:24 11.10.2019
411 Clouds 8 1021 100 10000 2.6 130 01:58 11.10.2019
412 Clear 8 1021 93 10000 2.6 160 00:42 11.10.2019
413 Clear 8 1021 93 10000 2.6 160 00:42 11.10.2019
414 Clear 8 1021 93 10000 2.1 170 00:23 11.10.2019
415 Clear 8 1021 93 10000 2.1 170 00:23 11.10.2019
416 Clouds 9 1021 93 10000 2.1 160 23:42 10.10.2019
417 Clear 9 1021 93 10000 1.5 180 23:20 10.10.2019
418 Clear 9 1021 93 10000 1.5 180 22:57 10.10.2019
419 Clear 9 1020 93 10000 2.1 200 22:38 10.10.2019
420 Clear 9 1020 87 10000 2.6 210 22:19 10.10.2019
421 Clear 9 1020 87 10000 3.1 210 21:54 10.10.2019
422 Clear 9 1020 87 10000 3.1 210 21:36 10.10.2019
423 Clear 9 1020 87 10000 3.6 210 21:18 10.10.2019
424 Clouds 9 1019 87 10000 2.6 210 20:41 10.10.2019
425 Clouds 9 1019 81 10000 3.1 230 20:21 10.10.2019
426 Drizzle 10 1019 81 10000 3.1 230 19:58 10.10.2019
427 Drizzle 10 1019 81 10000 2.1 220 19:39 10.10.2019
428 Clouds 10 1018 81 10000 3.6 240 19:20 10.10.2019
429 Clouds 11 1018 81 10000 3.6 240 18:56 10.10.2019
430 Clouds 11 1018 81 10000 2.6 240 18:38 10.10.2019
431 Clouds 11 1018 76 10000 3.6 250 18:19 10.10.2019
432 Rain 12 1018 76 10000 5.1 240 17:41 10.10.2019
433 Rain 11 1018 76 10000 5.1 240 17:41 10.10.2019
434 Rain 12 1017 66 10000 5.7 250 17:20 10.10.2019
435 Rain 13 1017 66 10000 5.7 240 16:58 10.10.2019
436 Rain 13 1017 66 10000 5.7 240 16:40 10.10.2019
437 Rain 13 1017 62 10000 5.7 250 16:21 10.10.2019
438 Clouds 13 1017 66 10000 5.1 280 15:43 10.10.2019
439 Clouds 13 1017 66 10000 5.1 280 15:43 10.10.2019
440 Clouds 12 1017 71 10000 5.7 280 15:24 10.10.2019
441 Rain 12 1017 71 10000 5.7 280 14:59 10.10.2019
442 Clouds 12 1017 62 10000 7.7 270 14:37 10.10.2019
443 Clouds 12 1016 62 10000 8.7 270 14:19 10.10.2019
444 Clouds 12 1016 62 10000 8.7 270 14:19 10.10.2019
445 Clouds 12 1016 62 10000 8.7 270 13:59 10.10.2019
446 Clouds 12 1016 76 10000 6.2 260 13:39 10.10.2019
447 Rain 11 1016 76 10000 6.7 260 13:18 10.10.2019
448 Rain 11 1016 76 10000 6.7 260 13:18 10.10.2019
449 Clouds 11 1016 76 10000 8.2 270 12:55 10.10.2019
450 Clouds 11 1016 76 10000 8.2 270 12:37 10.10.2019
451 Clouds 11 1016 76 10000 8.2 260 12:18 10.10.2019
452 Rain 10 1015 81 10000 6.7 250 11:42 10.10.2019
453 Rain 10 1015 81 10000 6.7 250 11:42 10.10.2019
454 Rain 10 1015 81 10000 6.7 250 11:20 10.10.2019
455 Rain 10 1015 81 10000 6.7 250 10:59 10.10.2019
456 Rain 9 1014 87 10000 5.1 250 10:41 10.10.2019
457 Rain 9 1014 93 10000 3.6 260 10:22 10.10.2019
458 Rain 9 1013 93 10000 4.6 190 09:54 10.10.2019
459 Rain 9 1013 93 10000 4.6 190 09:36 10.10.2019
460 Rain 9 1012 93 10000 4.1 170 09:18 10.10.2019
461 Rain 9 1012 93 10000 4.1 170 08:41 10.10.2019
462 Rain 9 1012 87 10000 4.1 170 08:21 10.10.2019
463 Rain 9 1012 87 10000 4.1 170 07:58 10.10.2019
464 Rain 8 1012 87 10000 4.1 170 07:37 10.10.2019
465 Rain 8 1013 87 10000 3.6 180 07:19 10.10.2019
466 Rain 8 1013 93 10000 2.1 0 06:40 10.10.2019
467 Rain 8 1013 93 8000 2.6 170 05:57 10.10.2019
468 Rain 8 1013 93 10000 3.1 160 05:22 10.10.2019
469 Rain 8 1013 93 10000 3.6 180 04:36 10.10.2019
470 Rain 8 1013 93 10000 3.1 210 02:46 10.10.2019
471 Rain 9 1013 87 10000 5.1 240 01:39 10.10.2019
472 Rain 9 1013 87 10000 5.1 240 01:39 10.10.2019
473 Rain 9 1012 87 10000 4.6 250 01:21 10.10.2019
474 Rain 10 1012 87 10000 2.6 190 00:41 10.10.2019
475 Rain 10 1012 93 6000 4.6 200 23:57 09.10.2019
476 Rain 10 1012 93 6000 4.6 200 23:36 09.10.2019
477 Rain 10 1012 81 10000 4.1 220 23:18 09.10.2019
478 Rain 10 1012 81 10000 4.1 220 23:18 09.10.2019
479 Rain 10 1012 81 10000 4.1 230 22:41 09.10.2019
480 Rain 10 1012 81 10000 3.6 220 22:22 09.10.2019
481 Clouds 10 1012 81 10000 3.6 230 21:58 09.10.2019
482 Clouds 10 1012 81 10000 3.6 230 21:39 09.10.2019
483 Rain 10 1012 81 10000 3.6 220 21:19 09.10.2019
484 Clouds 10 1011 81 10000 5.1 220 20:55 09.10.2019
485 Clouds 11 1011 81 10000 5.1 220 20:37 09.10.2019
486 Rain 11 1011 81 10000 4.6 210 20:18 09.10.2019
487 Rain 11 1011 81 10000 4.6 210 20:18 09.10.2019
488 Clouds 11 1011 81 10000 3.6 190 19:44 09.10.2019
489 Clouds 11 1011 81 10000 3.1 220 19:23 09.10.2019
490 Clouds 11 1010 87 10000 4.1 220 18:40 09.10.2019
491 Rain 12 1010 87 10000 3.6 210 18:21 09.10.2019
492 Rain 12 1010 87 10000 3.6 210 17:59 09.10.2019
493 Rain 12 1010 87 10000 4.1 190 17:40 09.10.2019
494 Rain 12 1010 87 10000 3.1 190 17:22 09.10.2019
495 Rain 12 1010 81 10000 2.6 180 16:57 09.10.2019
496 Rain 12 1010 81 10000 2.6 180 16:39 09.10.2019
497 Clouds 12 1011 81 10000 3.1 180 16:21 09.10.2019
498 Clouds 12 1011 81 10000 3.1 180 16:21 09.10.2019
499 Clouds 12 1010 81 10000 2.1 180 15:57 09.10.2019
500 Clouds 12 1010 81 10000 2.1 180 15:38 09.10.2019
501 Clouds 12 1011 81 10000 4.6 190 15:19 09.10.2019
502 Clouds 13 1010 81 10000 2.6 190 14:55 09.10.2019
503 Clouds 13 1010 81 10000 2.6 190 14:36 09.10.2019
504 Clouds 13 1010 81 10000 2.6 190 14:36 09.10.2019
505 Clouds 13 1011 76 10000 3.6 190 14:18 09.10.2019
506 Clouds 13 1011 76 10000 4.1 200 13:38 09.10.2019
507 Clouds 13 1011 76 10000 3.6 190 13:19 09.10.2019
508 Clouds 13 1011 76 10000 3.6 190 12:55 09.10.2019
509 Clouds 13 1011 76 10000 3.1 170 12:37 09.10.2019
510 Clouds 12 1012 82 10000 2.1 190 12:18 09.10.2019
511 Clouds 12 1012 82 10000 1.5 200 11:40 09.10.2019
512 Clouds 12 1013 87 10000 2.1 250 11:21 09.10.2019
513 Clouds 12 1013 87 10000 2.1 240 10:59 09.10.2019
514 Clouds 12 1013 87 10000 2.1 240 10:40 09.10.2019
515 Rain 12 1013 87 10000 3.1 200 10:19 09.10.2019
516 Mist 11 1013 87 10000 2.1 210 09:43 09.10.2019
517 Mist 11 1014 87 10000 1 0 09:21 09.10.2019
518 Mist 10 1014 87 10000 1 0 08:58 09.10.2019
519 Mist 10 1013 100 10000 1 0 08:39 09.10.2019
520 Fog 9 1013 93 10000 1.5 170 08:19 09.10.2019
521 Fog 9 1013 100 10000 2.1 190 07:47 09.10.2019
522 Clouds 9 1013 93 10000 2.6 220 07:25 09.10.2019
523 Clouds 10 1013 93 10000 2.6 220 06:58 09.10.2019
524 Clouds 10 1013 93 10000 2.6 230 06:35 09.10.2019
525 Clouds 11 1012 93 10000 3.1 250 05:52 09.10.2019
526 Clouds 11 1012 93 10000 2.6 260 04:56 09.10.2019
527 Rain 12 1011 93 10000 3.1 270 03:47 09.10.2019
528 Rain 13 1011 93 10000 5.1 280 02:27 09.10.2019
529 Rain 13 1010 100 9000 2.6 260 01:39 09.10.2019
530 Rain 13 1009 100 9000 2.1 230 01:18 09.10.2019
531 Rain 13 1009 100 4500 1.5 190 00:41 09.10.2019
532 Rain 13 1009 100 4200 1 0 00:23 09.10.2019
533 Rain 13 1009 100 4200 1 0 23:58 08.10.2019
534 Rain 13 1009 100 9000 2.1 180 23:38 08.10.2019
535 Rain 13 1009 100 9000 2.1 150 23:18 08.10.2019
536 Rain 13 1009 100 9000 2.1 150 23:18 08.10.2019
537 Rain 13 1009 100 9000 2.6 150 22:41 08.10.2019
538 Rain 13 1009 100 9000 2.1 160 22:22 08.10.2019
539 Drizzle 13 1009 100 9000 2.1 160 21:58 08.10.2019
540 Drizzle 13 1009 100 10000 2.6 150 21:39 08.10.2019
541 Drizzle 12 1009 100 10000 2.1 140 21:20 08.10.2019
542 Drizzle 12 1009 100 10000 2.1 140 20:58 08.10.2019
543 Drizzle 12 1010 100 10000 3.1 170 20:58 08.10.2019
544 Drizzle 13 1010 100 10000 3.1 170 20:39 08.10.2019
545 Rain 13 1010 100 8000 2.6 150 20:21 08.10.2019
546 Rain 13 1010 100 8000 2.6 150 20:21 08.10.2019
547 Mist 12 1010 100 8000 2.6 150 19:59 08.10.2019
548 Rain 12 1010 93 4500 2.6 160 19:41 08.10.2019
549 Rain 12 1010 93 5000 2.6 170 19:23 08.10.2019
550 Rain 12 1010 93 6000 3.1 190 18:57 08.10.2019
551 Rain 12 1010 93 6000 3.1 190 18:39 08.10.2019
552 Rain 12 1010 93 6000 3.6 200 18:19 08.10.2019
553 Drizzle 12 1010 93 9000 2.6 200 17:55 08.10.2019
554 Drizzle 12 1010 93 9000 2.6 200 17:36 08.10.2019
555 Rain 12 1010 93 6000 3.1 170 17:18 08.10.2019
556 Rain 12 1011 93 4000 3.6 190 16:40 08.10.2019
557 Rain 12 1011 93 4700 3.6 200 16:22 08.10.2019
558 Rain 12 1011 100 3700 3.1 190 15:56 08.10.2019
559 Rain 12 1011 100 3700 3.1 190 15:37 08.10.2019
560 Rain 12 1011 100 8000 2.6 180 15:19 08.10.2019
561 Rain 12 1011 93 8000 3.6 180 14:42 08.10.2019
562 Rain 11 1012 93 4000 3.6 180 14:21 08.10.2019
563 Rain 12 1012 93 4000 3.6 180 13:57 08.10.2019
564 Rain 11 1012 100 8000 4.6 170 13:39 08.10.2019
565 Rain 11 1012 93 4000 4.1 170 13:19 08.10.2019
566 Rain 11 1012 93 4000 4.1 170 12:59 08.10.2019
567 Rain 11 1012 93 10000 4.6 170 12:38 08.10.2019
568 Rain 11 1013 93 7000 4.1 180 12:18 08.10.2019
569 Rain 11 1013 93 4000 4.1 200 11:43 08.10.2019
570 Rain 11 1013 81 10000 4.6 190 11:24 08.10.2019
571 Rain 11 1013 81 10000 4.1 180 10:58 08.10.2019
572 Rain 11 1013 81 10000 4.1 180 10:38 08.10.2019
573 Rain 11 1014 87 10000 4.1 170 10:20 08.10.2019
574 Rain 10 1014 87 10000 3.6 180 09:56 08.10.2019
575 Rain 10 1014 87 10000 3.6 180 09:56 08.10.2019
576 Rain 10 1014 87 10000 3.6 180 09:38 08.10.2019
577 Rain 10 1014 93 10000 3.6 170 09:19 08.10.2019
578 Mist 10 1014 93 10000 3.6 160 08:42 08.10.2019
579 Mist 10 1014 93 10000 3.1 160 08:23 08.10.2019
580 Rain 9 1014 100 10000 3.1 170 07:45 08.10.2019
581 Rain 9 1015 100 10000 2.6 160 07:21 08.10.2019
582 Mist 9 1015 93 10000 3.6 170 06:53 08.10.2019
583 Mist 9 1015 93 10000 3.1 160 06:29 08.10.2019
584 Rain 9 1016 93 10000 2.1 170 05:55 08.10.2019
585 Rain 9 1016 93 10000 2.1 170 05:36 08.10.2019
586 Clouds 8 1016 93 10000 2.6 160 04:31 08.10.2019
587 Mist 8 1017 100 10000 3.6 140 03:28 08.10.2019
588 Clouds 8 1017 93 10000 2.6 140 02:37 08.10.2019
589 Clouds 8 1018 93 10000 3.1 140 01:47 08.10.2019
590 Clouds 8 1018 93 10000 3.6 130 01:27 08.10.2019
591 Clouds 8 1018 93 10000 2.6 140 00:46 08.10.2019
592 Clouds 8 1019 100 10000 2.6 130 00:21 08.10.2019
593 Clouds 8 1019 93 10000 3.1 130 23:40 07.10.2019
594 Clouds 8 1019 100 10000 3.1 120 23:20 07.10.2019
595 Clouds 7 1019 100 10000 3.1 120 22:56 07.10.2019
596 Clouds 7 1019 93 10000 3.1 100 22:56 07.10.2019
597 Mist 7 1019 93 10000 3.1 100 22:38 07.10.2019
598 Mist 7 1019 93 10000 3.1 100 22:38 07.10.2019
599 Mist 7 1019 93 10000 2.6 100 22:20 07.10.2019
600 Clouds 7 1019 100 10000 3.1 100 21:56 07.10.2019
601 Clouds 7 1019 100 10000 3.1 100 21:37 07.10.2019
602 Clouds 7 1019 100 10000 1 0 21:19 07.10.2019
603 Mist 8 1019 100 10000 1 0 20:57 07.10.2019
604 Mist 8 1019 100 10000 0.5 0 20:39 07.10.2019
605 Clear 8 1019 93 10000 1.5 160 20:20 07.10.2019
606 Clear 8 1019 93 10000 1.5 160 19:57 07.10.2019
607 Clouds 8 1019 93 10000 1.5 100 19:39 07.10.2019
608 Clouds 9 1019 93 10000 3.1 90 19:18 07.10.2019
609 Clouds 9 1019 93 10000 3.1 90 18:56 07.10.2019
610 Clouds 9 1019 87 10000 2.6 100 18:38 07.10.2019
611 Clouds 9 1019 87 10000 2.1 120 18:18 07.10.2019
612 Clouds 9 1019 87 10000 1 0 17:42 07.10.2019
613 Clouds 10 1019 87 10000 2.1 180 17:19 07.10.2019
614 Clouds 10 1020 87 10000 2.1 180 16:55 07.10.2019
615 Clouds 10 1020 87 10000 2.1 180 16:37 07.10.2019
616 Clouds 9 1019 81 10000 2.1 180 16:19 07.10.2019
617 Clouds 9 1020 81 10000 2.1 160 15:42 07.10.2019
618 Clouds 10 1019 81 10000 2.6 130 15:24 07.10.2019
619 Clouds 10 1019 81 10000 2.6 130 14:42 07.10.2019
620 Clouds 10 1019 81 10000 1.5 100 14:23 07.10.2019
621 Clouds 10 1019 81 10000 1.5 100 13:59 07.10.2019
622 Clouds 10 1020 81 10000 1.5 110 13:40 07.10.2019
623 Clouds 10 1020 81 10000 1.5 110 13:18 07.10.2019
624 Clouds 9 1020 81 10000 1.5 90 12:54 07.10.2019
625 Mist 9 1020 81 10000 1.5 90 12:36 07.10.2019
626 Mist 9 1020 81 10000 1.5 90 12:36 07.10.2019
627 Mist 9 1019 81 10000 2.1 80 12:18 07.10.2019
628 Mist 8 1019 87 10000 2.6 90 11:56 07.10.2019
629 Mist 8 1019 87 10000 2.6 90 11:36 07.10.2019
630 Mist 8 1019 87 10000 3.6 100 11:18 07.10.2019
631 Mist 7 1019 93 10000 2.1 70 10:40 07.10.2019
632 Clouds 7 1018 93 10000 2.1 60 10:20 07.10.2019
633 Clouds 7 1018 93 10000 2.1 70 09:42 07.10.2019
634 Clouds 7 1017 93 10000 2.1 80 09:23 07.10.2019
635 Clouds 7 1017 93 10000 2.1 80 08:55 07.10.2019
636 Clouds 7 1017 93 10000 1.5 80 08:37 07.10.2019
637 Rain 7 1017 93 10000 1.5 80 08:18 07.10.2019
638 Rain 6 1017 93 8000 1 0 07:40 07.10.2019
639 Rain 6 1016 93 8000 1.5 60 07:20 07.10.2019
640 Rain 7 1016 93 9000 2.1 30 06:44 07.10.2019
641 Drizzle 7 1016 93 9000 1.5 20 06:23 07.10.2019
642 Clouds 7 1015 93 10000 1.5 360 05:30 07.10.2019
643 Rain 7 1015 93 10000 1 0 04:58 07.10.2019
644 Rain 7 1014 93 10000 1 0 04:20 07.10.2019
645 Clouds 7 1014 93 10000 1.5 30 03:44 07.10.2019
646 Clouds 7 1014 93 10000 1.5 30 03:44 07.10.2019
647 Rain 7 1013 93 10000 2.1 70 03:19 07.10.2019
648 Rain 7 1013 93 10000 2.1 60 02:20 07.10.2019
649 Rain 7 1012 93 10000 2.6 80 01:47 07.10.2019
650 Rain 7 1012 93 10000 3.1 70 01:19 07.10.2019
651 Rain 7 1012 93 10000 3.6 80 00:38 07.10.2019
652 Rain 7 1012 100 10000 4.1 70 00:19 07.10.2019
653 Rain 7 1012 100 10000 3.1 60 23:42 06.10.2019
654 Rain 7 1012 100 10000 2.6 50 23:21 06.10.2019
655 Rain 7 1012 100 10000 2.6 50 22:58 06.10.2019
656 Rain 7 1012 93 10000 2.6 70 22:40 06.10.2019
657 Rain 8 1012 87 10000 2.1 90 22:21 06.10.2019
658 Rain 7 1012 93 10000 3.6 90 21:57 06.10.2019
659 Rain 7 1012 93 10000 3.6 90 21:37 06.10.2019
660 Rain 7 1012 93 10000 3.6 90 21:37 06.10.2019
661 Rain 7 1012 93 10000 3.6 90 21:37 06.10.2019
662 Rain 7 1012 93 10000 3.1 80 21:19 06.10.2019
663 Rain 8 1012 93 10000 3.1 80 20:57 06.10.2019
664 Rain 8 1012 93 10000 4.1 80 20:38 06.10.2019
665 Rain 8 1013 93 10000 2.6 90 20:20 06.10.2019
666 Rain 8 1013 93 10000 3.1 90 19:57 06.10.2019
667 Rain 8 1013 93 10000 3.1 90 19:37 06.10.2019
668 Rain 8 1013 93 10000 3.6 80 19:19 06.10.2019
669 Rain 9 1013 87 10000 3.1 80 18:56 06.10.2019
670 Rain 8 1013 93 10000 3.6 80 18:56 06.10.2019
671 Rain 9 1013 87 10000 3.1 80 18:37 06.10.2019
672 Rain 9 1013 87 10000 2.1 90 18:18 06.10.2019
673 Rain 10 1013 81 10000 3.6 110 17:43 06.10.2019
674 Rain 10 1014 81 10000 4.6 120 17:20 06.10.2019
675 Rain 10 1014 81 10000 4.6 120 16:56 06.10.2019
676 Rain 10 1014 71 10000 5.1 130 16:38 06.10.2019
677 Rain 10 1014 66 10000 5.7 120 16:19 06.10.2019
678 Rain 10 1015 62 10000 5.7 110 15:44 06.10.2019
679 Rain 10 1015 62 10000 5.7 110 15:44 06.10.2019
680 Rain 10 1015 66 10000 4.6 130 15:22 06.10.2019
681 Rain 10 1015 66 10000 4.6 130 14:57 06.10.2019
682 Rain 10 1016 62 10000 4.1 140 14:39 06.10.2019
683 Rain 10 1016 71 10000 4.1 120 14:20 06.10.2019
684 -273 0 0 0 0 0 13:54 06.10.2019
685 -273 0 0 0 0 0 13:54 06.10.2019
686 -273 0 0 0 0 0 13:54 06.10.2019
687 Clouds 10 1016 71 10000 5.7 120 13:36 06.10.2019
688 Clouds 10 1016 71 10000 5.7 120 13:36 06.10.2019
689 Clouds 10 1017 71 10000 4.6 110 13:18 06.10.2019
690 Clouds 10 1017 71 10000 4.6 110 13:18 06.10.2019
691 Clouds 10 1017 71 10000 4.6 110 12:54 06.10.2019
692 Clouds 9 1017 71 10000 5.1 110 12:54 06.10.2019
693 Clouds 9 1017 71 10000 5.1 110 12:36 06.10.2019
694 Clouds 9 1017 71 10000 5.1 110 12:36 06.10.2019
695 Clouds 9 1018 81 10000 4.1 110 12:18 06.10.2019
696 Clouds 8 1018 87 10000 2.6 100 11:41 06.10.2019
697 Clouds 7 1018 87 10000 2.6 130 11:23 06.10.2019
698 Clear 6 1018 93 10000 2.6 100 10:56 06.10.2019
699 Clear 6 1018 93 10000 2.6 100 10:37 06.10.2019
700 Clear 6 1019 87 10000 2.1 130 10:19 06.10.2019
701 Clear 6 1019 87 10000 2.1 130 10:19 06.10.2019
702 Clear 5 1019 93 10000 2.1 150 09:41 06.10.2019
703 Clear 5 1019 93 10000 2.1 150 09:41 06.10.2019
704 Clear 5 1019 100 10000 1.5 110 09:19 06.10.2019
705 Clear 5 1019 100 10000 1.5 110 09:19 06.10.2019
706 Clear 4 1019 93 10000 2.1 90 08:48 06.10.2019
707 Clear 3 1018 100 10000 2.1 80 08:22 06.10.2019
708 Clear 3 1018 100 10000 2.1 80 07:58 06.10.2019
709 Clear 3 1019 93 10000 2.1 80 07:39 06.10.2019
710 Clear 3 1019 100 10000 1 0 06:50 06.10.2019
711 Mist 3 1019 100 10000 0.5 0 05:41 06.10.2019
712 Mist 3 1019 100 10000 0.5 0 05:41 06.10.2019
713 Mist 3 1019 100 10000 1 0 04:35 06.10.2019
714 Mist 4 1020 93 10000 1 350 02:53 06.10.2019
715 Clear 4 1020 93 10000 1 350 02:30 06.10.2019
716 Clear 4 1020 100 10000 0.5 0 01:48 06.10.2019
717 Clear 4 1020 100 10000 0.5 0 01:30 06.10.2019
718 Clear 5 1020 100 10000 1.5 40 00:59 06.10.2019
719 Clear 5 1020 100 10000 0.5 0 00:33 06.10.2019
720 Clouds 6 1019 93 10000 1.5 10 23:59 05.10.2019
721 Clouds 6 1019 100 10000 1 10 23:40 05.10.2019
722 Clouds 6 1019 100 10000 1 10 23:40 05.10.2019
723 Clouds 6 1019 87 10000 0.5 0 23:19 05.10.2019
724 Clouds 7 1019 93 10000 1.5 360 22:54 05.10.2019
725 Clouds 7 1019 93 10000 1.5 360 22:54 05.10.2019
726 Clouds 7 1019 93 10000 1.5 360 22:36 05.10.2019
727 Clouds 7 1019 81 10000 1 360 22:18 05.10.2019
728 Clouds 7 1019 81 10000 1 360 22:18 05.10.2019
729 Clouds 8 1019 87 10000 1 40 21:41 05.10.2019
730 Clouds 8 1019 87 10000 2.1 10 21:22 05.10.2019
731 Clouds 8 1019 81 10000 2.1 30 20:57 05.10.2019
732 Clouds 8 1019 81 10000 2.1 30 20:39 05.10.2019
733 Clouds 8 1018 81 10000 1.5 350 20:19 05.10.2019
734 Clouds 8 1018 81 10000 1.5 350 20:19 05.10.2019
735 Clouds 9 1018 81 10000 2.1 340 19:41 05.10.2019
736 Clouds 9 1018 81 10000 2.6 360 19:22 05.10.2019
737 Clouds 9 1017 81 10000 2.6 10 18:58 05.10.2019
738 Clouds 9 1017 81 10000 2.6 10 18:39 05.10.2019
739 Clouds 10 1017 76 10000 3.6 350 18:21 05.10.2019
740 Clouds 10 1016 71 10000 4.1 360 17:56 05.10.2019
741 Clouds 10 1016 71 10000 4.1 360 17:37 05.10.2019
742 Clouds 10 1016 66 10000 5.1 340 17:19 05.10.2019
743 Clouds 10 1015 71 10000 3.6 330 16:42 05.10.2019
744 Clouds 10 1015 66 10000 4.6 340 16:22 05.10.2019
745 Clouds 10 1015 66 10000 4.6 340 15:58 05.10.2019
746 Clouds 11 1014 71 10000 5.1 320 15:40 05.10.2019
747 Drizzle 11 1014 71 10000 4.6 330 15:21 05.10.2019
748 Drizzle 11 1014 71 10000 4.6 330 15:21 05.10.2019
749 Clouds 10 1014 71 10000 4.6 330 14:57 05.10.2019
750 Clouds 10 1014 71 10000 5.1 310 14:38 05.10.2019
751 Clouds 10 1014 71 10000 5.7 330 14:20 05.10.2019
752 Clouds 10 1013 71 10000 5.1 330 13:42 05.10.2019
753 Clouds 10 1013 76 10000 5.7 330 13:22 05.10.2019
754 Clouds 10 1012 76 10000 5.7 330 12:46 05.10.2019
755 Clouds 10 1012 81 10000 6.2 310 12:21 05.10.2019
756 Clouds 10 1012 81 10000 6.2 310 11:59 05.10.2019
757 Clouds 10 1011 81 10000 6.7 320 11:37 05.10.2019
758 Clouds 10 1011 81 10000 7.2 320 11:18 05.10.2019
759 Clouds 10 1011 81 10000 7.2 320 11:18 05.10.2019
760 Clouds 9 1010 81 10000 6.7 330 10:45 05.10.2019
761 Drizzle 9 1009 81 10000 7.7 320 10:26 05.10.2019
762 Clouds 9 1009 81 10000 7.7 320 09:59 05.10.2019
763 Rain 9 1009 81 10000 5.7 320 09:39 05.10.2019
764 Rain 9 1008 81 10000 7.2 310 09:20 05.10.2019
765 Rain 9 1007 93 10000 5.7 310 08:40 05.10.2019
766 Rain 10 1007 93 10000 7.2 310 08:20 05.10.2019
767 Rain 10 1007 93 10000 7.2 310 07:57 05.10.2019
768 Rain 10 1006 93 10000 5.1 270 07:34 05.10.2019
769 Rain 10 1006 93 10000 5.7 260 06:59 05.10.2019
770 Rain 11 1006 93 10000 5.7 260 06:28 05.10.2019
771 Rain 11 1006 93 10000 4.6 260 05:51 05.10.2019
772 Rain 11 1006 93 10000 4.1 240 03:57 05.10.2019
773 Rain 10 1006 93 10000 4.1 240 03:28 05.10.2019
774 Rain 10 1007 93 10000 5.1 240 01:41 05.10.2019
775 Rain 10 1007 93 10000 4.1 230 01:20 05.10.2019
776 Rain 10 1007 93 10000 4.6 240 00:43 05.10.2019
777 Rain 10 1007 93 10000 4.6 230 00:23 05.10.2019
778 Rain 10 1007 93 10000 4.1 240 23:44 04.10.2019
779 Rain 10 1007 93 10000 4.1 240 23:25 04.10.2019
780 Rain 10 1007 93 10000 4.1 240 23:25 04.10.2019
781 Rain 10 1007 93 10000 4.1 220 22:59 04.10.2019
782 Rain 10 1007 93 10000 3.6 210 22:39 04.10.2019
783 Rain 10 1007 93 10000 3.6 200 22:20 04.10.2019
784 Rain 10 1007 93 10000 3.6 200 21:56 04.10.2019
785 Rain 10 1007 100 10000 2.6 170 21:38 04.10.2019
786 Rain 10 1007 100 10000 2.1 200 21:19 04.10.2019
787 Rain 10 1007 93 10000 2.1 220 20:54 04.10.2019
788 Rain 10 1007 93 10000 2.1 220 20:36 04.10.2019
789 Rain 10 1007 93 10000 1.5 180 20:18 04.10.2019
790 Drizzle 10 1007 93 10000 2.1 170 19:41 04.10.2019
791 Rain 10 1007 93 10000 2.1 190 19:23 04.10.2019
792 Mist 10 1007 93 10000 2.1 190 18:56 04.10.2019
793 Mist 10 1006 93 10000 3.1 190 18:37 04.10.2019
794 Rain 10 1007 93 10000 2.6 190 18:19 04.10.2019
795 Rain 10 1007 93 5000 3.1 180 17:41 04.10.2019
796 Drizzle 10 1007 93 5000 3.6 180 17:22 04.10.2019
797 Drizzle 10 1007 93 5000 3.6 180 16:59 04.10.2019
798 Drizzle 10 1007 87 8000 5.7 200 16:41 04.10.2019
799 Clouds 11 1007 71 10000 5.7 190 16:19 04.10.2019
800 Clouds 11 1007 71 10000 5.7 190 16:19 04.10.2019
801 Rain 11 1007 66 10000 5.7 190 15:58 04.10.2019
802 Clouds 12 1007 66 10000 5.7 190 15:39 04.10.2019
803 Clouds 12 1008 66 10000 5.7 170 15:20 04.10.2019
804 Clouds 12 1008 62 10000 6.2 160 14:57 04.10.2019
805 Clouds 12 1008 62 10000 6.2 160 14:39 04.10.2019
806 Rain 12 1008 62 10000 6.2 170 14:21 04.10.2019
807 Rain 11 1009 66 10000 5.7 170 13:45 04.10.2019
808 Rain 12 1009 62 10000 6.7 160 13:23 04.10.2019
809 Rain 12 1010 62 10000 5.7 160 12:56 04.10.2019
810 Clear 12 1010 62 10000 5.7 160 12:37 04.10.2019
811 Clear 11 1010 62 10000 6.2 160 12:18 04.10.2019
812 Clear 10 1011 66 10000 6.2 140 11:42 04.10.2019
813 Clear 10 1011 66 10000 6.2 140 11:42 04.10.2019
814 Clear 10 1011 66 10000 6.2 140 11:42 04.10.2019
815 Clear 10 1011 71 10000 4.1 130 11:21 04.10.2019
816 Clear 10 1011 71 10000 4.1 130 11:21 04.10.2019
817 Clouds 9 1012 76 10000 4.1 140 10:42 04.10.2019
818 Clouds 8 1013 76 10000 4.6 160 10:21 04.10.2019
819 Clouds 7 1013 93 10000 3.1 140 09:58 04.10.2019
820 Clouds 8 1013 76 10000 4.6 160 09:58 04.10.2019
821 Clouds 7 1013 93 10000 3.1 140 09:40 04.10.2019
822 Clouds 7 1013 93 10000 3.1 140 09:40 04.10.2019
823 Clouds 7 1013 93 10000 3.1 100 09:22 04.10.2019
824 Clouds 7 1013 93 10000 2.1 110 08:45 04.10.2019
825 Clouds 7 1013 100 10000 2.6 120 08:26 04.10.2019
826 Clouds 7 1013 93 10000 3.1 110 07:47 04.10.2019
827 -273 0 0 0 0 0 07:24 04.10.2019
828 Clouds 7 1013 93 10000 3.6 100 06:56 04.10.2019
829 Clouds 6 1013 93 10000 3.6 100 06:56 04.10.2019
830 Clouds 6 1013 93 10000 3.6 100 06:37 04.10.2019
831 Clear 6 1014 100 10000 3.6 110 06:18 04.10.2019
832 Clear 6 1014 100 10000 3.6 110 06:18 04.10.2019
833 Clouds 7 1015 93 10000 2.1 100 05:19 04.10.2019
834 Clouds 7 1015 93 10000 2.1 130 04:35 04.10.2019
835 Clouds 7 1015 93 10000 1.5 120 02:56 04.10.2019
836 Clouds 7 1015 93 10000 1.5 120 02:37 04.10.2019
837 Clouds 7 1015 93 10000 1.5 120 02:37 04.10.2019
838 Clouds 7 1016 93 10000 1.5 140 01:43 04.10.2019
839 Clouds 8 1016 93 10000 1.5 140 01:25 04.10.2019
840 Clear 8 1017 87 10000 1.5 170 00:32 04.10.2019
841 Clear 8 1017 87 10000 1 0 23:39 03.10.2019
842 Clouds 8 1017 87 10000 1 0 23:20 03.10.2019
843 Clouds 8 1017 87 10000 1 0 22:57 03.10.2019
844 Clouds 8 1018 87 10000 0.5 0 22:39 03.10.2019
845 Clouds 8 1018 87 10000 0.5 0 22:39 03.10.2019
846 Clouds 8 1018 87 10000 1.5 290 22:21 03.10.2019
847 Clouds 9 1018 87 10000 0.5 0 21:56 03.10.2019
848 Clouds 9 1018 87 10000 0.5 0 21:38 03.10.2019
849 Clouds 9 1017 87 10000 1 0 21:19 03.10.2019
850 Clouds 9 1017 81 10000 2.1 250 20:57 03.10.2019
851 Clouds 9 1017 81 10000 2.1 250 20:37 03.10.2019
852 Clouds 9 1017 81 10000 2.1 250 20:37 03.10.2019
853 Rain 9 1017 76 10000 2.6 240 20:19 03.10.2019
854 Clouds 10 1017 71 10000 2.6 230 19:55 03.10.2019
855 Clouds 10 1017 71 10000 2.6 230 19:36 03.10.2019
856 Drizzle 10 1017 71 10000 3.6 230 19:18 03.10.2019
857 Clouds 10 1017 71 10000 1.5 220 18:54 03.10.2019
858 Clouds 10 1017 71 10000 1.5 220 18:36 03.10.2019
859 Clear 11 1017 71 10000 1.5 220 18:18 03.10.2019
860 Clear 11 1017 71 10000 1.5 230 17:42 03.10.2019
861 Clouds 11 1017 71 10000 1 0 17:20 03.10.2019
862 Clouds 11 1017 66 10000 3.6 290 16:54 03.10.2019
863 Clouds 11 1017 66 10000 3.6 290 16:54 03.10.2019
864 Clouds 11 1017 66 10000 3.6 290 16:36 03.10.2019
865 Clouds 11 1017 71 10000 3.6 300 16:18 03.10.2019
866 Clouds 11 1018 66 10000 3.6 290 15:42 03.10.2019
867 Clouds 11 1018 71 10000 5.7 290 15:23 03.10.2019
868 Clouds 11 1018 71 10000 5.7 290 14:56 03.10.2019
869 Clouds 11 1018 71 10000 6.2 290 14:56 03.10.2019
870 Clouds 11 1018 71 10000 6.2 290 14:36 03.10.2019
871 Clouds 11 1018 71 10000 5.1 300 14:18 03.10.2019
872 Clouds 10 1018 66 10000 5.7 270 13:43 03.10.2019
873 Clouds 10 1018 71 10000 5.7 280 13:22 03.10.2019
874 Clouds 10 1018 71 10000 5.7 280 12:58 03.10.2019
875 Clouds 9 1018 71 10000 5.7 270 12:39 03.10.2019
876 Clouds 9 1018 71 10000 5.7 270 12:39 03.10.2019
877 Clouds 9 1019 81 10000 5.1 280 12:19 03.10.2019
878 Clouds 9 1019 81 10000 5.1 280 12:19 03.10.2019
879 Clouds 9 1019 81 10000 4.1 270 11:56 03.10.2019
880 Clouds 9 1019 81 10000 4.1 270 11:56 03.10.2019
881 Clouds 9 1019 81 10000 4.1 270 11:56 03.10.2019
882 Clouds 9 1019 81 10000 4.1 270 11:37 03.10.2019
883 Clouds 8 1019 81 10000 5.1 260 11:19 03.10.2019
884 Clouds 8 1019 81 10000 5.7 270 10:41 03.10.2019
885 Clouds 8 1018 87 10000 4.6 270 10:19 03.10.2019
886 Clouds 7 1018 87 10000 4.6 270 09:59 03.10.2019
887 Clouds 7 1018 87 10000 2.6 230 09:40 03.10.2019
888 Clouds 7 1018 87 10000 3.1 220 09:21 03.10.2019
889 Clouds 6 1018 93 10000 2.6 210 08:55 03.10.2019
890 Clouds 6 1018 93 10000 2.6 210 08:36 03.10.2019
891 Clouds 6 1017 93 10000 2.1 220 08:18 03.10.2019
892 Clouds 6 1017 93 10000 3.6 250 07:41 03.10.2019
893 Clouds 6 1017 93 10000 4.6 250 07:19 03.10.2019
894 Clouds 6 1017 87 10000 4.1 250 06:51 03.10.2019
895 Clouds 6 1016 87 10000 4.1 250 06:25 03.10.2019
896 Clouds 6 1016 93 10000 2.1 270 05:47 03.10.2019
897 Clouds 5 1016 93 10000 3.1 240 05:20 03.10.2019
898 Fog 5 1017 93 10000 2.6 250 04:39 03.10.2019
899 Fog 5 1017 93 10000 2.6 280 03:24 03.10.2019
900 Fog 5 1017 93 10000 2.1 250 02:43 03.10.2019
901 Fog 6 1017 93 10000 1 0 01:59 03.10.2019
902 Fog 6 1016 93 10000 3.1 280 01:37 03.10.2019
903 Fog 6 1016 87 10000 3.1 260 00:51 03.10.2019
904 Fog 5 1016 87 10000 1.5 280 00:23 03.10.2019
905 Rain 6 1016 93 10000 1.5 230 23:44 02.10.2019
906 Rain 6 1016 87 10000 2.1 200 23:22 02.10.2019
907 Fog 6 1015 87 10000 2.6 220 22:47 02.10.2019
908 Clouds 6 1015 87 10000 1.5 230 22:23 02.10.2019
909 Rain 7 1014 93 10000 2.6 240 21:58 02.10.2019
910 Rain 7 1014 93 10000 2.6 240 21:58 02.10.2019
911 Rain 7 1014 93 10000 2.6 240 21:39 02.10.2019
912 Clouds 7 1013 87 10000 1.5 240 21:20 02.10.2019
913 Rain 7 1013 87 10000 1 0 20:57 02.10.2019
914 Rain 7 1013 87 10000 1 0 20:39 02.10.2019
915 Rain 7 1012 93 8000 6.2 320 20:20 02.10.2019
916 Rain 8 1011 87 10000 2.1 270 19:56 02.10.2019
917 Rain 8 1011 87 10000 2.1 270 19:38 02.10.2019
918 Clouds 9 1011 87 10000 2.1 280 19:19 02.10.2019
919 Clouds 9 1011 81 10000 2.6 320 18:56 02.10.2019
920 Clouds 10 1011 81 10000 2.6 320 18:38 02.10.2019
921 Clouds 10 1010 81 10000 2.6 330 18:19 02.10.2019
922 Rain 10 1010 87 10000 2.1 360 17:43 02.10.2019
923 Rain 10 1010 87 10000 3.6 360 17:21 02.10.2019
924 Rain 10 1010 87 10000 3.6 360 17:21 02.10.2019
925 Rain 10 1010 87 10000 3.6 360 17:21 02.10.2019
926 Rain 10 1010 87 10000 3.6 360 16:59 02.10.2019
927 Drizzle 10 1009 87 10000 5.1 330 16:41 02.10.2019
928 Drizzle 10 1009 93 10000 5.1 320 16:21 02.10.2019
929 Drizzle 10 1009 93 10000 5.1 320 15:57 02.10.2019
930 Rain 10 1008 87 10000 6.2 330 15:38 02.10.2019
931 Rain 10 1008 87 10000 6.2 330 15:18 02.10.2019
932 Rain 11 1008 93 10000 6.7 330 14:55 02.10.2019
933 Rain 11 1007 93 10000 5.7 320 14:36 02.10.2019
934 Rain 11 1007 93 10000 5.7 320 14:18 02.10.2019
935 Rain 12 1005 87 10000 5.1 280 13:42 02.10.2019
936 Rain 12 1005 87 10000 5.1 280 13:22 02.10.2019
937 Rain 13 1005 82 10000 7.2 250 12:56 02.10.2019
938 Rain 13 1005 82 10000 6.7 250 12:37 02.10.2019
939 Rain 13 1005 82 10000 6.7 250 12:37 02.10.2019
940 Rain 14 1005 82 10000 6.7 250 12:18 02.10.2019
941 Rain 14 1004 82 10000 5.1 250 11:42 02.10.2019
942 Rain 14 1004 82 10000 5.1 250 11:21 02.10.2019
943 Rain 14 1004 82 10000 4.6 240 10:41 02.10.2019
944 Rain 14 1004 82 10000 4.1 240 10:19 02.10.2019
945 Rain 14 1004 82 10000 4.1 240 10:19 02.10.2019
946 Clouds 14 1004 93 10000 5.1 250 09:42 02.10.2019
947 Clouds 14 1004 93 10000 5.1 250 09:20 02.10.2019
948 Clouds 14 1004 87 10000 3.6 220 08:57 02.10.2019
949 Clouds 14 1003 87 10000 3.1 210 08:39 02.10.2019
950 Clouds 14 1003 87 10000 3.1 210 08:20 02.10.2019
951 Clouds 14 1003 87 10000 3.1 220 07:55 02.10.2019
952 Clouds 14 1003 87 10000 4.1 210 07:36 02.10.2019
953 Clouds 14 1003 87 10000 4.1 210 07:36 02.10.2019
954 Clouds 13 1003 87 10000 2.6 210 07:18 02.10.2019
955 Clouds 13 1003 93 10000 5.1 240 06:27 02.10.2019
956 Clouds 14 1003 93 10000 3.6 210 05:51 02.10.2019
957 Clouds 14 1003 100 10000 3.6 230 05:21 02.10.2019
958 Rain 14 1003 93 10000 1.5 170 04:18 02.10.2019
959 Clouds 14 1003 87 10000 3.1 220 03:45 02.10.2019
960 Rain 14 1004 93 10000 2.6 200 02:38 02.10.2019
961 Rain 14 1004 93 10000 2.6 200 02:20 02.10.2019
962 Clouds 14 1004 93 10000 4.1 170 00:53 02.10.2019
963 Clear 14 1004 93 10000 2.6 170 00:30 02.10.2019
964 Rain 15 1004 87 10000 2.6 180 23:56 01.10.2019
965 Rain 14 1004 87 10000 1.5 210 23:37 01.10.2019
966 Rain 15 1004 87 10000 1.5 210 23:19 01.10.2019
967 Rain 15 1004 82 10000 2.6 230 22:58 01.10.2019
968 Rain 15 1005 87 10000 2.6 200 22:37 01.10.2019
969 Rain 15 1005 87 10000 4.1 290 22:18 01.10.2019
970 Rain 16 1004 87 10000 2.1 120 21:43 01.10.2019
971 Rain 16 1004 87 10000 2.1 120 21:22 01.10.2019
972 Rain 16 1004 87 10000 2.1 110 20:58 01.10.2019
973 Rain 16 1004 82 10000 0.5 0 20:39 01.10.2019
974 Rain 17 1004 82 10000 0.5 0 20:20 01.10.2019
975 Clouds 17 1005 82 10000 2.1 290 19:58 01.10.2019
976 Clouds 17 1005 82 10000 2.1 280 19:39 01.10.2019
977 Clouds 17 1005 82 10000 2.1 280 19:21 01.10.2019
978 Clouds 18 1005 77 10000 2.6 250 18:56 01.10.2019
979 Clouds 18 1005 72 10000 2.6 260 18:38 01.10.2019
980 Clouds 18 1005 72 10000 3.6 250 18:19 01.10.2019
981 Clouds 18 1005 68 10000 5.1 230 17:43 01.10.2019
982 Clouds 18 1005 68 10000 5.1 230 17:21 01.10.2019
983 Clouds 18 1005 72 10000 2.6 250 16:59 01.10.2019
984 -273 0 0 0 0 0 16:40 01.10.2019
985 Rain 18 1006 72 10000 5.1 280 16:22 01.10.2019
986 Drizzle 18 1006 68 10000 7.2 260 15:48 01.10.2019
987 Rain 18 1006 72 10000 2.6 290 15:24 01.10.2019
988 Clouds 19 1006 68 10000 2.6 260 14:58 01.10.2019
989 Rain 18 1006 72 10000 3.1 260 14:38 01.10.2019
990 Rain 18 1006 72 10000 3.1 260 14:19 01.10.2019
991 Rain 18 1007 72 10000 4.1 260 13:56 01.10.2019
992 Clouds 17 1007 68 10000 2.6 240 13:37 01.10.2019
993 Clouds 17 1007 68 10000 2.6 240 13:18 01.10.2019
994 Clouds 17 1007 59 10000 4.6 210 12:54 01.10.2019
995 Rain 17 1008 63 10000 4.1 180 12:36 01.10.2019
996 Clouds 16 1008 67 10000 3.6 170 12:18 01.10.2019
997 Clouds 16 1008 67 10000 3.6 170 11:54 01.10.2019
998 Clouds 15 1008 72 10000 3.6 140 11:36 01.10.2019
999 Clouds 15 1008 72 10000 3.6 140 11:18 01.10.2019
1000 Clouds 14 1009 81 10000 4.1 150 10:43 01.10.2019
1001 Clouds 13 1009 81 10000 4.1 150 10:24 01.10.2019
1002 Clear 12 1009 81 10000 3.6 160 09:44 01.10.2019
1003 Clear 12 1009 81 10000 3.6 160 09:25 01.10.2019
1004 Clear 12 1009 81 10000 3.6 160 09:25 01.10.2019
1005 Clear 10 1009 87 10000 3.6 160 08:44 01.10.2019
1006 Clear 10 1009 87 10000 3.6 160 08:25 01.10.2019
1007 Clear 9 1009 87 10000 3.6 150 07:49 01.10.2019
1008 Clear 9 1010 87 10000 3.1 150 07:26 01.10.2019
1009 Clear 9 1010 87 10000 3.1 140 06:51 01.10.2019
1010 Clear 9 1010 87 10000 3.1 140 06:51 01.10.2019
1011 Clear 9 1011 87 10000 3.1 140 06:25 01.10.2019
1012 Clear 9 1011 87 10000 3.1 150 05:50 01.10.2019
1013 Clear 9 1011 87 10000 2.6 120 05:20 01.10.2019
1014 Clear 9 1012 93 10000 3.1 140 04:40 01.10.2019
1015 Clear 9 1013 93 10000 2.1 160 03:32 01.10.2019
1016 Clear 9 1013 87 10000 2.1 150 02:19 01.10.2019
1017 Clear 9 1014 87 10000 2.6 180 01:41 01.10.2019
1018 Clear 10 1014 87 10000 2.1 170 00:42 01.10.2019
1019 Clear 10 1014 87 10000 2.1 170 00:24 01.10.2019
1020 Clear 11 1014 87 10000 2.6 160 23:42 30.09.2019
1021 Clear 11 1014 87 10000 2.6 160 23:22 30.09.2019
1022 Clear 11 1014 81 10000 1.5 170 22:46 30.09.2019
1023 Clear 11 1014 87 10000 1 0 22:27 30.09.2019
1024 Clear 12 1014 81 10000 0.5 0 21:58 30.09.2019
1025 Clear 12 1015 76 10000 1.5 270 21:40 30.09.2019
1026 Clear 12 1015 76 10000 1.5 270 21:20 30.09.2019
1027 Clear 12 1014 76 10000 3.1 260 20:58 30.09.2019
1028 Clouds 13 1014 71 10000 3.1 240 20:40 30.09.2019
1029 Clouds 13 1014 71 10000 3.1 240 20:21 30.09.2019
1030 Clouds 14 1014 71 10000 2.6 240 19:58 30.09.2019
1031 Clouds 13 1014 67 10000 4.6 260 19:40 30.09.2019
1032 Clouds 15 1014 67 10000 4.6 260 19:20 30.09.2019
1033 Clouds 15 1014 67 10000 5.1 270 18:58 30.09.2019
1034 Clouds 15 1014 63 10000 7.7 250 18:40 30.09.2019
1035 Clouds 15 1014 63 10000 7.7 250 18:20 30.09.2019
1036 Clouds 15 1014 63 10000 5.1 260 17:55 30.09.2019
1037 Clouds 15 1014 63 10000 6.7 260 17:37 30.09.2019
1038 Clouds 15 1014 63 10000 6.7 260 17:18 30.09.2019
1039 Clouds 16 1014 63 10000 7.2 250 16:42 30.09.2019
1040 Clouds 15 1014 67 10000 8.2 250 16:20 30.09.2019
1041 Clouds 15 1013 67 10000 7.7 250 15:59 30.09.2019
1042 Clouds 15 1013 67 10000 7.7 250 15:59 30.09.2019
1043 Clouds 15 1013 67 10000 8.7 250 15:38 30.09.2019
1044 Clouds 15 1013 67 10000 8.7 250 15:19 30.09.2019
1045 Clouds 15 1013 59 10000 8.7 250 14:58 30.09.2019
1046 Clouds 15 1013 63 10000 8.7 250 14:38 30.09.2019
1047 Clouds 15 1013 63 10000 8.7 250 14:19 30.09.2019
1048 Rain 15 1013 62 10000 7.7 250 13:58 30.09.2019
1049 Rain 15 1012 59 10000 8.2 260 13:40 30.09.2019
1050 Rain 15 1012 59 10000 8.2 260 13:21 30.09.2019
1051 Rain 15 1012 59 10000 10.3 260 12:44 30.09.2019
1052 Rain 15 1012 62 10000 9.3 270 12:25 30.09.2019
1053 Clouds 15 1011 59 10000 9.8 260 11:59 30.09.2019
1054 Clouds 15 1011 59 10000 9.8 260 11:59 30.09.2019
1055 Clouds 15 1012 71 10000 9.8 260 11:40 30.09.2019
1056 Clouds 15 1012 71 10000 9.8 260 11:20 30.09.2019
1057 Rain 14 1010 71 10000 8.2 260 10:55 30.09.2019
1058 Rain 14 1010 71 10000 7.2 260 10:37 30.09.2019
1059 Rain 14 1009 76 10000 8.7 260 10:18 30.09.2019
1060 Rain 13 1010 87 6000 9.3 280 09:40 30.09.2019
1061 Rain 13 1010 87 6000 9.3 280 09:40 30.09.2019
1062 Rain 13 1010 87 6000 9.3 280 09:21 30.09.2019
1063 Rain 13 1008 76 10000 8.2 250 08:51 30.09.2019
1064 Rain 14 1008 76 10000 10.3 260 08:33 30.09.2019
1065 Rain 14 1007 72 10000 9.8 240 07:47 30.09.2019
1066 Rain 14 1007 76 10000 12.3 240 07:29 30.09.2019
1067 Clouds 14 1007 76 10000 11.8 240 06:59 30.09.2019
1068 Clouds 14 1006 67 10000 9.3 250 06:41 30.09.2019
1069 Clouds 14 1005 72 10000 8.7 250 05:56 30.09.2019
1070 Clouds 14 1005 72 10000 8.7 250 05:56 30.09.2019
1071 Rain 14 1005 67 10000 9.8 250 05:38 30.09.2019
1072 Rain 16 1002 77 10000 5.1 230 02:50 30.09.2019
1073 Rain 16 1002 77 10000 1.5 280 01:50 30.09.2019
1074 Rain 16 1003 72 10000 7.2 230 00:57 30.09.2019
1075 Rain 16 1003 72 10000 7.2 230 00:57 30.09.2019
1076 Rain 16 1003 72 10000 5.1 210 00:37 30.09.2019
1077 Rain 17 1003 72 10000 5.1 210 00:18 30.09.2019
1078 Clear 17 1003 63 10000 5.7 200 23:40 29.09.2019
1079 Clear 18 1003 63 10000 5.7 200 23:20 29.09.2019
1080 Drizzle 18 1004 55 10000 4.6 180 22:44 29.09.2019
1081 Drizzle 18 1004 55 10000 4.6 180 22:25 29.09.2019
1082 Drizzle 18 1004 55 10000 4.6 180 22:25 29.09.2019
1083 Clear 18 1004 52 10000 4.1 180 21:59 29.09.2019
1084 Clear 18 1004 52 10000 4.1 190 21:39 29.09.2019
1085 Clear 17 1004 52 10000 4.1 190 21:20 29.09.2019
1086 Clear 18 1005 48 10000 3.1 200 20:59 29.09.2019
1087 Clear 18 1005 52 10000 5.1 210 20:41 29.09.2019
1088 Clear 18 1005 52 10000 5.1 210 20:19 29.09.2019
1089 Clear 18 1005 63 10000 3.1 180 19:55 29.09.2019
1090 Rain 18 1005 77 10000 2.1 130 19:36 29.09.2019
1091 Clear 18 1005 68 10000 2.1 190 19:18 29.09.2019
1092 Clear 18 1005 68 10000 2.1 190 18:55 29.09.2019
1093 Drizzle 18 1005 55 10000 2.6 230 18:36 29.09.2019
1094 Drizzle 18 1005 55 10000 2.6 230 18:18 29.09.2019
1095 Clear 19 1006 45 10000 2.1 210 17:54 29.09.2019
1096 Clear 19 1006 45 10000 2.1 210 17:54 29.09.2019
1097 Clear 19 1006 45 10000 2.1 210 17:54 29.09.2019
1098 Clear 19 1006 45 10000 2.1 210 17:54 29.09.2019
1099 Rain 20 1006 43 10000 3.6 240 17:36 29.09.2019
1100 Clear 20 1006 43 10000 3.6 240 17:18 29.09.2019
1101 Clear 21 1007 49 10000 5.7 210 16:41 29.09.2019
1102 Clear 21 1007 49 10000 5.7 210 16:20 29.09.2019
1103 Clear 21 1007 52 10000 5.7 200 15:59 29.09.2019
1104 Clear 21 1008 49 10000 5.1 210 15:38 29.09.2019
1105 Clear 21 1008 49 10000 5.1 210 15:19 29.09.2019
1106 Clear 21 1008 52 10000 6.7 180 14:58 29.09.2019
1107 Clear 21 1009 52 10000 4.6 200 14:38 29.09.2019
1108 Clear 21 1009 52 10000 4.6 200 14:19 29.09.2019
1109 Clear 20 1009 52 10000 4.6 220 13:56 29.09.2019
1110 Clear 20 1010 52 10000 5.7 210 13:37 29.09.2019
1111 Clear 20 1010 52 10000 5.7 210 13:18 29.09.2019
1112 Clear 19 1010 52 10000 5.7 210 12:56 29.09.2019
1113 Clouds 18 1011 55 10000 5.1 180 12:38 29.09.2019
1114 Clouds 19 1011 55 10000 5.1 180 12:20 29.09.2019
1115 Clear 17 1012 59 10000 4.6 190 11:41 29.09.2019
1116 Clear 17 1012 59 10000 4.6 190 11:20 29.09.2019
1117 Clear 16 1012 67 10000 5.1 180 10:58 29.09.2019
1118 Clear 16 1012 67 10000 5.1 180 10:40 29.09.2019
1119 Clear 15 1013 67 10000 3.6 160 10:20 29.09.2019
1120 Clear 15 1013 67 10000 3.6 160 10:20 29.09.2019
1121 Clear 14 1013 76 10000 4.1 170 09:57 29.09.2019
1122 Clear 13 1013 81 10000 3.1 150 09:39 29.09.2019
1123 Clear 13 1013 81 10000 3.1 150 09:19 29.09.2019
1124 Clear 12 1013 87 10000 3.1 150 08:43 29.09.2019
1125 Clear 12 1013 81 10000 2.6 140 08:22 29.09.2019
1126 Clear 11 1014 87 10000 3.1 150 07:44 29.09.2019
1127 Clouds 11 1014 87 10000 2.6 140 07:44 29.09.2019
1128 Clouds 11 1014 87 10000 2.6 140 07:26 29.09.2019
1129 Clouds 11 1014 87 10000 2.1 120 06:50 29.09.2019
1130 Rain 11 1015 87 10000 2.1 140 05:59 29.09.2019
1131 Clear 11 1015 93 10000 2.6 110 04:46 29.09.2019
1132 Clear 11 1015 93 10000 2.1 130 04:23 29.09.2019
1133 Clear 12 1016 87 10000 2.6 150 02:58 29.09.2019
1134 Clear 12 1017 87 10000 2.1 170 02:19 29.09.2019
1135 Clear 12 1017 81 10000 1.5 190 01:42 29.09.2019
1136 Clear 12 1017 82 10000 2.1 190 00:59 29.09.2019
1137 Clear 12 1017 82 10000 2.1 190 00:59 29.09.2019
1138 Clear 12 1017 82 10000 2.1 180 00:40 29.09.2019
1139 Clear 12 1017 87 10000 2.1 180 00:19 29.09.2019
1140 Clear 12 1017 82 10000 2.1 180 00:19 29.09.2019
1141 Clear 12 1017 87 10000 2.6 180 23:38 28.09.2019
1142 Clear 12 1017 87 10000 2.6 180 23:19 28.09.2019
1143 Clear 13 1017 82 10000 1.5 200 22:40 28.09.2019
1144 Clear 13 1017 82 10000 1.5 200 22:21 28.09.2019
1145 Clear 13 1017 82 10000 2.6 220 21:58 28.09.2019
1146 Clear 13 1017 76 10000 2.1 210 21:40 28.09.2019
1147 Clear 13 1017 76 10000 2.1 210 21:21 28.09.2019
1148 Clear 14 1017 72 10000 3.1 230 20:58 28.09.2019
1149 Clear 14 1017 72 10000 3.1 230 20:58 28.09.2019
1150 Clear 14 1017 72 10000 3.1 240 20:39 28.09.2019
1151 Clear 15 1017 72 10000 3.1 240 20:20 28.09.2019
1152 Clouds 15 1017 72 10000 3.6 240 19:56 28.09.2019
1153 Clouds 15 1017 67 10000 6.2 240 19:38 28.09.2019
1154 Clouds 16 1017 67 10000 6.2 240 19:20 28.09.2019
1155 Clouds 16 1017 67 10000 5.1 250 18:57 28.09.2019
1156 Clouds 15 1017 63 10000 5.7 250 18:38 28.09.2019
1157 Clouds 16 1017 63 10000 5.7 250 18:20 28.09.2019
1158 Clouds 16 1017 67 10000 7.2 250 17:55 28.09.2019
1159 Clouds 16 1017 67 10000 7.2 250 17:55 28.09.2019
1160 Clouds 16 1017 63 10000 8.2 250 17:37 28.09.2019
1161 Clouds 16 1017 63 10000 8.2 250 17:18 28.09.2019
1162 Clouds 17 1017 63 10000 7.7 250 16:41 28.09.2019
1163 Clouds 17 1017 63 10000 7.7 250 16:23 28.09.2019
1164 Clouds 17 1017 63 10000 6.7 250 15:41 28.09.2019
1165 Clouds 17 1017 63 10000 6.7 250 15:23 28.09.2019
1166 Clouds 17 1017 67 10000 6.2 250 14:57 28.09.2019
1167 Rain 16 1017 72 10000 5.7 250 14:38 28.09.2019
1168 Rain 16 1017 72 10000 5.7 250 14:20 28.09.2019
1169 Clouds 16 1017 77 10000 5.1 260 13:56 28.09.2019
1170 Clouds 16 1017 77 10000 5.7 260 13:37 28.09.2019
1171 Clouds 16 1017 77 10000 5.7 260 13:37 28.09.2019
1172 Rain 15 1017 87 10000 5.7 250 13:19 28.09.2019
1173 Rain 15 1017 87 10000 5.7 270 12:40 28.09.2019
1174 Clouds 15 1017 72 10000 6.7 230 12:19 28.09.2019
1175 Clouds 15 1017 72 10000 6.7 230 11:55 28.09.2019
1176 Clouds 16 1017 72 10000 6.2 240 11:36 28.09.2019
1177 Clouds 16 1017 72 10000 6.2 240 11:18 28.09.2019
1178 Clouds 14 1017 87 10000 6.7 240 10:40 28.09.2019
1179 Clouds 14 1017 87 10000 6.7 240 10:20 28.09.2019
1180 Rain 14 1016 87 10000 3.6 220 09:54 28.09.2019
1181 Clouds 14 1016 87 10000 3.1 220 09:36 28.09.2019
1182 Clouds 14 1016 87 10000 3.1 220 09:18 28.09.2019
1183 Rain 13 1016 100 10000 5.1 230 08:42 28.09.2019
1184 Rain 13 1016 100 10000 5.1 230 08:23 28.09.2019
1185 Rain 12 1016 93 10000 2.1 200 07:45 28.09.2019
1186 Rain 12 1016 93 10000 2.6 220 07:21 28.09.2019
1187 Rain 12 1016 100 10000 2.6 230 06:53 28.09.2019
1188 Rain 12 1016 100 10000 2.6 230 06:31 28.09.2019
1189 Rain 12 1015 93 10000 1.5 130 05:47 28.09.2019
1190 Drizzle 12 1016 100 10000 2.6 210 05:20 28.09.2019
1191 Clear 12 1015 100 10000 3.1 100 04:39 28.09.2019
1192 Rain 11 1015 100 10000 2.6 110 03:56 28.09.2019
1193 Mist 11 1015 100 10000 2.6 110 03:22 28.09.2019
1194 Mist 11 1015 100 10000 2.1 130 02:48 28.09.2019
1195 Fog 11 1015 100 10000 2.6 150 02:30 28.09.2019
1196 Fog 11 1015 93 10000 2.1 130 01:48 28.09.2019
1197 Fog 12 1014 93 10000 1.5 160 01:26 28.09.2019
1198 Clear 12 1015 93 10000 1.5 150 00:52 28.09.2019
1199 Clear 12 1015 100 10000 1.5 170 00:31 28.09.2019
1200 Clear 12 1015 93 10000 2.6 170 23:58 27.09.2019
1201 Clear 12 1015 93 10000 2.1 180 23:37 27.09.2019
1202 Clear 12 1015 93 10000 2.1 180 23:19 27.09.2019
1203 Clear 12 1015 93 10000 1 0 22:45 27.09.2019
1204 Clouds 13 1015 87 10000 3.1 260 22:19 27.09.2019
1205 Clouds 13 1014 93 10000 3.1 250 21:56 27.09.2019
1206 Clouds 14 1014 87 10000 5.7 240 21:37 27.09.2019
1207 Rain 14 1013 93 10000 2.1 250 21:19 27.09.2019
1208 Rain 14 1013 93 10000 2.1 250 20:55 27.09.2019
1209 Rain 14 1013 93 10000 3.6 280 20:37 27.09.2019
1210 Rain 14 1012 100 10000 3.6 160 20:18 27.09.2019
1211 Rain 14 1012 100 10000 3.6 160 19:43 27.09.2019
1212 Rain 15 1012 100 10000 3.1 150 19:23 27.09.2019
1213 Rain 15 1013 100 10000 3.6 200 18:58 27.09.2019
1214 Rain 15 1012 87 10000 1.5 180 18:39 27.09.2019
1215 Rain 15 1012 87 10000 1.5 180 18:20 27.09.2019
1216 Drizzle 15 1013 87 10000 2.1 210 18:20 27.09.2019
1217 Rain 15 1012 87 10000 1.5 180 18:20 27.09.2019
1218 Drizzle 15 1013 87 10000 2.1 210 17:54 27.09.2019
1219 Rain 15 1013 93 10000 2.1 220 17:36 27.09.2019
1220 Rain 15 1013 93 10000 2.1 220 17:18 27.09.2019
1221 Rain 15 1013 93 10000 3.6 230 16:42 27.09.2019
1222 Rain 15 1013 93 10000 3.6 230 16:20 27.09.2019
1223 Rain 15 1013 93 9000 3.1 230 15:58 27.09.2019
1224 Rain 15 1014 100 6000 2.6 250 15:39 27.09.2019
1225 Rain 16 1013 100 9000 2.1 240 15:19 27.09.2019
1226 Rain 16 1014 93 9000 5.1 260 14:56 27.09.2019
1227 -273 0 0 0 0 0 14:37 27.09.2019
1228 Rain 17 1014 93 10000 4.6 260 14:18 27.09.2019
1229 Rain 18 1013 63 10000 4.1 230 13:55 27.09.2019
1230 Rain 18 1014 82 10000 5.7 250 13:37 27.09.2019
1231 Rain 18 1014 82 10000 5.7 250 13:18 27.09.2019
1232 Clouds 18 1013 63 10000 5.7 210 12:42 27.09.2019
1233 Clouds 18 1013 63 10000 5.7 210 12:21 27.09.2019
1234 Clouds 18 1013 72 10000 4.1 180 11:40 27.09.2019
1235 Clouds 18 1013 72 10000 4.1 180 11:40 27.09.2019
1236 Clouds 18 1013 72 10000 4.1 180 11:22 27.09.2019
1237 Clouds 17 1013 77 10000 3.6 160 10:58 27.09.2019
1238 Clouds 17 1013 77 10000 3.6 160 10:58 27.09.2019
1239 Clouds 17 1013 82 10000 4.1 160 10:40 27.09.2019
1240 Clouds 17 1013 82 10000 4.1 160 10:20 27.09.2019
1241 Clouds 16 1014 87 10000 4.1 170 09:43 27.09.2019
1242 Clouds 16 1014 87 10000 3.6 170 09:22 27.09.2019
1243 Clouds 15 1013 87 10000 3.6 170 08:58 27.09.2019
1244 Clouds 15 1013 87 10000 3.6 160 08:39 27.09.2019
1245 Clouds 15 1013 87 10000 3.6 160 08:20 27.09.2019
1246 Clouds 15 1014 93 10000 2.6 170 07:46 27.09.2019
1247 Clouds 15 1014 93 10000 3.1 170 07:23 27.09.2019
1248 Clear 15 1014 87 10000 3.6 170 06:43 27.09.2019
1249 Clear 15 1014 87 10000 3.6 170 06:24 27.09.2019
1250 Clouds 15 1014 93 10000 3.1 150 05:51 27.09.2019
1251 Clouds 15 1014 93 10000 2.1 160 05:32 27.09.2019
1252 Mist 14 1014 93 10000 2.6 160 03:56 27.09.2019
1253 Clear 15 1015 87 10000 2.1 170 02:59 27.09.2019
1254 Rain 15 1015 93 10000 3.1 190 01:47 27.09.2019
1255 Rain 15 1015 87 10000 1.5 200 01:27 27.09.2019
1256 Clouds 15 1015 93 10000 3.6 190 00:22 27.09.2019
1257 Drizzle 15 1015 93 4000 2.1 240 23:56 26.09.2019
1258 Rain 15 1016 100 10000 6.2 240 23:38 26.09.2019
1259 Rain 15 1016 100 10000 6.2 240 23:18 26.09.2019
1260 Rain 15 1016 100 10000 4.1 220 22:56 26.09.2019
1261 Rain 15 1016 100 10000 2.1 180 22:38 26.09.2019
1262 Rain 15 1016 100 10000 2.1 180 22:18 26.09.2019
1263 Rain 15 1015 93 5000 2.6 180 21:55 26.09.2019
1264 Rain 15 1015 100 5000 3.6 190 21:36 26.09.2019
1265 Rain 15 1015 100 5000 3.6 190 21:18 26.09.2019
1266 Rain 15 1015 93 8000 3.1 150 20:56 26.09.2019
1267 Rain 16 1015 100 4000 4.1 220 20:38 26.09.2019
1268 Rain 16 1015 100 4000 4.1 220 20:38 26.09.2019
1269 Drizzle 16 1015 100 4000 4.1 220 20:20 26.09.2019
1270 Rain 16 1015 93 10000 1.5 210 19:40 26.09.2019
1271 Rain 16 1014 87 10000 2.1 180 19:19 26.09.2019
1272 Rain 16 1014 87 10000 2.1 180 18:59 26.09.2019
1273 Rain 16 1014 87 10000 2.1 180 18:59 26.09.2019
1274 Rain 16 1014 87 10000 2.1 180 18:59 26.09.2019
1275 Rain 16 1014 82 10000 4.1 200 18:39 26.09.2019
1276 Rain 16 1014 82 10000 4.1 200 18:21 26.09.2019
1277 Rain 16 1014 82 10000 4.1 210 17:56 26.09.2019
1278 Rain 16 1015 100 10000 2.6 190 17:37 26.09.2019
1279 Rain 17 1015 93 10000 3.1 210 17:18 26.09.2019
1280 Rain 17 1015 93 10000 3.1 210 17:18 26.09.2019
1281 Rain 17 1015 87 10000 3.6 210 16:40 26.09.2019
1282 Rain 17 1015 87 10000 3.6 210 16:40 26.09.2019
1283 Rain 17 1015 87 10000 3.6 210 16:21 26.09.2019
1284 Rain 17 1015 87 10000 3.6 210 16:21 26.09.2019
1285 Rain 17 1014 72 10000 3.6 210 15:59 26.09.2019
1286 Rain 17 1014 72 10000 4.6 210 15:38 26.09.2019
1287 Rain 18 1014 72 10000 4.6 210 15:20 26.09.2019
1288 Clouds 18 1014 68 10000 4.6 230 14:57 26.09.2019
1289 Clouds 18 1015 82 10000 5.1 220 14:38 26.09.2019
1290 Clouds 18 1015 82 10000 5.1 220 14:38 26.09.2019
1291 Clouds 18 1015 82 10000 5.1 220 14:20 26.09.2019
1292 Clouds 18 1015 82 10000 4.1 220 13:41 26.09.2019
1293 Clouds 18 1014 63 10000 3.6 210 13:20 26.09.2019
1294 Clouds 18 1014 63 10000 3.6 210 13:20 26.09.2019
1295 Clouds 18 1015 77 10000 4.1 210 12:59 26.09.2019
1296 Clouds 18 1015 72 10000 3.6 220 12:41 26.09.2019
1297 Clouds 18 1015 72 10000 3.6 220 12:41 26.09.2019
1298 Clouds 17 1015 72 10000 3.6 220 12:21 26.09.2019
1299 Clouds 17 1014 72 10000 3.1 200 11:42 26.09.2019
1300 Clouds 16 1014 72 10000 2.6 190 11:23 26.09.2019
1301 Mist 16 1014 77 10000 2.1 180 10:58 26.09.2019
1302 Mist 15 1014 82 10000 2.6 190 10:40 26.09.2019
1303 Mist 15 1014 82 10000 2.6 190 10:20 26.09.2019
1304 Mist 15 1014 82 10000 2.6 190 10:20 26.09.2019
1305 Mist 15 1014 82 10000 2.6 190 10:20 26.09.2019
1306 Rain 14 1014 87 10000 2.1 180 09:44 26.09.2019
1307 Mist 14 1013 87 10000 1.5 180 09:26 26.09.2019
1308 Mist 13 1013 93 10000 2.1 170 08:57 26.09.2019
1309 Mist 13 1013 100 10000 1.5 130 08:39 26.09.2019
1310 Mist 13 1013 100 10000 1.5 130 08:21 26.09.2019
1311 Mist 12 1013 100 10000 1.5 140 07:43 26.09.2019
1312 Mist 12 1012 100 10000 1.5 160 07:21 26.09.2019
1313 Mist 12 1012 100 10000 1.5 150 06:44 26.09.2019
1314 Mist 13 1012 93 10000 1.5 170 06:25 26.09.2019
1315 Clouds 13 1012 93 10000 2.1 180 05:44 26.09.2019
1316 Clouds 13 1012 93 10000 2.1 200 05:24 26.09.2019
1317 Rain 13 1011 93 10000 2.1 210 02:51 26.09.2019
1318 Rain 13 1011 93 10000 1.5 200 01:53 26.09.2019
1319 Rain 13 1011 93 10000 2.1 190 01:28 26.09.2019
1320 Rain 13 1011 93 10000 1.5 210 00:56 26.09.2019
1321 Rain 13 1012 100 10000 2.6 220 00:37 26.09.2019
1322 Rain 12 1011 100 10000 2.1 210 23:57 25.09.2019
1323 Rain 13 1011 100 10000 1.5 200 23:38 25.09.2019
1324 Rain 12 1011 100 10000 1.5 200 23:18 25.09.2019
1325 Rain 13 1011 76 10000 2.1 210 22:41 25.09.2019
1326 Rain 13 1011 76 10000 2.1 210 22:20 25.09.2019
1327 Rain 13 1011 76 10000 2.6 220 21:57 25.09.2019
1328 Mist 13 1011 76 10000 2.6 230 21:39 25.09.2019
1329 Mist 13 1011 76 10000 2.6 230 21:19 25.09.2019
1330 Rain 14 1010 67 10000 3.6 240 20:58 25.09.2019
1331 Clouds 14 1010 67 10000 4.1 250 20:39 25.09.2019
1332 Clouds 14 1010 67 10000 4.1 250 20:21 25.09.2019
1333 Rain 14 1010 63 10000 5.7 250 19:54 25.09.2019
1334 Rain 14 1010 67 10000 3.1 270 19:36 25.09.2019
1335 Rain 15 1010 67 10000 3.1 270 19:18 25.09.2019
1336 Rain 15 1009 63 10000 5.7 260 18:55 25.09.2019
1337 Rain 16 1009 59 10000 6.2 250 18:36 25.09.2019
1338 Rain 16 1009 59 10000 6.2 250 18:18 25.09.2019
1339 Clouds 17 1009 55 10000 7.2 250 17:38 25.09.2019
1340 Clouds 17 1009 55 10000 7.2 250 17:19 25.09.2019
1341 Clouds 17 1009 55 10000 7.2 250 17:19 25.09.2019
1342 Rain 17 1009 59 10000 5.1 230 16:45 25.09.2019
1343 Rain 17 1009 59 10000 5.1 220 16:27 25.09.2019
1344 Rain 17 1009 63 10000 4.6 230 15:59 25.09.2019
1345 Clouds 16 1009 77 10000 4.1 210 15:41 25.09.2019
1346 Rain 17 1009 77 10000 4.1 210 15:22 25.09.2019
1347 Rain 16 1009 77 10000 8.2 220 14:56 25.09.2019
1348 Rain 16 1009 77 10000 8.2 220 14:56 25.09.2019
1349 Rain 17 1009 59 10000 6.2 270 14:38 25.09.2019
1350 Rain 17 1009 59 10000 6.2 270 14:20 25.09.2019
1351 Rain 18 1010 67 10000 6.7 250 13:41 25.09.2019
1352 Rain 18 1010 67 10000 6.7 250 13:22 25.09.2019
1353 Clouds 18 1010 67 10000 6.2 250 12:59 25.09.2019
1354 Clouds 17 1010 67 10000 6.2 250 12:39 25.09.2019
1355 Clouds 16 1010 67 10000 6.2 250 12:21 25.09.2019
1356 -273 0 0 0 0 0 11:55 25.09.2019
1357 Clouds 16 1010 67 10000 6.7 250 11:36 25.09.2019
1358 Clouds 16 1010 67 10000 6.7 250 11:18 25.09.2019
1359 Clouds 15 1009 72 10000 6.2 250 10:41 25.09.2019
1360 Clouds 15 1009 72 10000 6.2 250 10:23 25.09.2019
1361 Clouds 15 1009 77 10000 5.1 240 09:56 25.09.2019
1362 Clouds 14 1009 82 10000 4.1 220 09:36 25.09.2019
1363 Clouds 14 1009 82 10000 4.1 220 09:18 25.09.2019
1364 Clouds 14 1009 82 10000 3.1 220 08:42 25.09.2019
1365 Clouds 14 1008 82 10000 4.6 210 08:21 25.09.2019
1366 Clouds 14 1009 100 10000 5.7 220 07:56 25.09.2019
1367 Clouds 14 1008 87 10000 2.1 180 07:37 25.09.2019
1368 Clouds 14 1008 87 10000 2.1 180 07:19 25.09.2019
1369 Drizzle 14 1008 93 10000 2.6 190 06:38 25.09.2019
1370 Rain 14 1008 93 10000 2.6 200 06:18 25.09.2019
1371 Rain 14 1009 100 10000 5.7 220 05:27 25.09.2019
1372 Clouds 13 1008 87 10000 3.1 180 04:49 25.09.2019
1373 Rain 14 1009 100 10000 3.1 210 02:18 25.09.2019
1374 Rain 14 1010 93 10000 1.5 150 00:44 25.09.2019
1375 Rain 14 1010 93 10000 1.5 150 00:24 25.09.2019
1376 Rain 14 1010 93 10000 2.6 110 23:55 24.09.2019
1377 Rain 14 1010 93 10000 2.6 110 23:36 24.09.2019
1378 Rain 14 1010 93 10000 2.6 110 23:18 24.09.2019
1379 Clouds 14 1010 93 10000 2.1 100 22:39 24.09.2019
1380 Rain 14 1010 87 10000 2.1 100 22:20 24.09.2019
1381 Rain 14 1010 87 10000 2.1 100 21:56 24.09.2019
1382 Rain 15 1011 77 10000 1.5 140 21:37 24.09.2019
1383 Rain 15 1011 77 10000 1.5 140 21:19 24.09.2019
1384 Clouds 15 1011 72 10000 1.5 210 20:57 24.09.2019
1385 Drizzle 15 1012 87 10000 2.1 200 20:38 24.09.2019
1386 Drizzle 15 1012 87 10000 2.1 200 20:20 24.09.2019
1387 Rain 16 1010 67 10000 2.1 190 19:43 24.09.2019
1388 Rain 16 1010 67 10000 2.1 190 19:21 24.09.2019
1389 Clouds 17 1010 63 10000 2.6 190 18:59 24.09.2019
1390 Clouds 17 1011 68 10000 1.5 150 18:40 24.09.2019
1391 Haze 18 1011 68 10000 1.5 150 18:21 24.09.2019
1392 Haze 18 1011 68 10000 2.6 150 17:57 24.09.2019
1393 Haze 18 1011 63 10000 2.6 150 17:38 24.09.2019
1394 Haze 18 1011 63 10000 2.6 150 17:20 24.09.2019
1395 Clouds 18 1011 63 10000 2.6 140 16:56 24.09.2019
1396 Clouds 18 1011 59 10000 1.5 160 16:38 24.09.2019
1397 Clouds 19 1011 59 10000 1.5 160 16:18 24.09.2019
1398 Clouds 19 1012 55 10000 1 0 15:41 24.09.2019
1399 Haze 19 1012 55 10000 1 0 15:23 24.09.2019
1400 Haze 19 1012 55 10000 1.5 0 14:43 24.09.2019
1401 Haze 19 1013 59 10000 3.1 160 14:20 24.09.2019
1402 Clouds 19 1013 59 10000 1.5 0 13:56 24.09.2019
1403 Clouds 18 1014 68 10000 1.5 0 13:37 24.09.2019
1404 Clouds 17 1014 72 10000 1.5 90 13:19 24.09.2019
1405 Clouds 17 1014 72 10000 2.1 0 12:39 24.09.2019
1406 Clouds 16 1014 72 10000 2.1 0 12:19 24.09.2019
1407 Clouds 15 1015 77 10000 2.6 120 11:43 24.09.2019
1408 Clouds 15 1015 77 10000 2.6 90 11:43 24.09.2019
1409 Clouds 15 1015 77 10000 2.6 120 11:22 24.09.2019
1410 Clouds 14 1016 100 10000 1.73 169.319 10:58 24.09.2019
1411 Mist 13 1016 100 6000 2.1 140 10:38 24.09.2019
1412 Mist 13 1016 100 6000 2.1 140 10:19 24.09.2019
1413 Mist 12 1016 100 2600 2.1 210 09:46 24.09.2019
1414 Mist 12 1016 100 2600 2.1 210 09:46 24.09.2019
1415 Fog 12 1016 93 10000 1 0 09:27 24.09.2019
1416 Fog 11 1016 93 10000 1.5 100 08:58 24.09.2019
1417 Fog 11 1016 100 10000 1.5 190 08:40 24.09.2019
1418 Fog 11 1016 100 10000 1.5 190 08:21 24.09.2019
1419 Fog 11 1016 100 500 2.1 100 07:57 24.09.2019
1420 Fog 11 1016 100 200 1.5 150 07:37 24.09.2019
1421 Fog 11 1016 100 1000 1.5 180 07:18 24.09.2019
1422 Fog 11 1016 100 800 1.5 230 06:37 24.09.2019
1423 Fog 11 1016 100 800 1.5 230 06:37 24.09.2019
1424 Fog 12 1017 100 3200 1.5 270 05:53 24.09.2019
1425 Fog 12 1017 93 10000 1 0 05:20 24.09.2019
1426 Clouds 13 1017 93 10000 1 0 03:46 24.09.2019
1427 Clouds 13 1017 93 10000 1 0 03:20 24.09.2019
1428 Rain 13 1017 87 10000 1 0 02:43 24.09.2019
1429 Rain 13 1017 93 10000 1 0 01:40 24.09.2019
1430 Rain 13 1017 93 10000 1 0 00:40 24.09.2019
1431 Rain 13 1017 93 10000 1 0 00:21 24.09.2019
1432 Rain 14 1017 93 10000 1.5 240 23:41 23.09.2019
1433 Rain 14 1017 93 10000 1.5 240 23:22 23.09.2019
1434 Rain 14 1018 93 10000 1.5 280 22:40 23.09.2019
1435 Rain 14 1018 93 10000 1.5 280 22:21 23.09.2019
1436 Rain 14 1018 87 10000 2.6 260 21:59 23.09.2019
1437 Rain 14 1017 87 10000 1.5 270 21:41 23.09.2019
1438 Rain 14 1017 87 10000 1.5 270 21:20 23.09.2019
1439 Clouds 14 1017 87 10000 1.5 270 21:20 23.09.2019
1440 Rain 14 1017 87 10000 1.5 270 21:20 23.09.2019
1441 Clouds 15 1017 87 10000 1.5 270 20:56 23.09.2019
1442 Rain 15 1017 87 10000 2.1 260 20:37 23.09.2019
1443 Rain 15 1017 87 10000 2.1 260 20:18 23.09.2019
1444 Rain 15 1017 82 10000 2.6 290 19:40 23.09.2019
1445 Rain 15 1017 82 10000 2.6 290 19:21 23.09.2019
1446 Rain 15 1016 82 10000 3.1 290 18:58 23.09.2019
1447 Rain 15 1017 87 10000 4.1 280 18:40 23.09.2019
1448 Rain 15 1016 82 10000 3.1 280 18:18 23.09.2019
1449 Rain 15 1016 82 10000 3.1 280 17:56 23.09.2019
1450 Rain 15 1017 93 10000 4.1 260 17:37 23.09.2019
1451 Rain 15 1017 93 10000 4.1 260 17:19 23.09.2019
1452 Rain 15 1016 93 10000 2.1 260 16:54 23.09.2019
1453 Rain 15 1016 93 10000 3.1 300 16:36 23.09.2019
1454 Rain 15 1016 93 10000 3.1 300 16:18 23.09.2019
1455 Rain 15 1016 93 10000 2.1 300 15:54 23.09.2019
1456 Rain 15 1016 93 10000 3.1 300 15:36 23.09.2019
1457 Rain 15 1016 93 10000 3.1 300 15:18 23.09.2019
1458 Rain 15 1016 100 10000 4.1 290 14:39 23.09.2019
1459 Rain 15 1016 100 10000 4.1 290 14:20 23.09.2019
1460 Rain 15 1015 93 10000 4.1 280 13:58 23.09.2019
1461 Rain 14 1015 93 10000 4.6 270 13:37 23.09.2019
1462 Rain 14 1015 93 10000 4.6 270 13:18 23.09.2019
1463 Rain 14 1015 93 8000 5.1 270 12:43 23.09.2019
1464 Rain 14 1015 93 9000 5.1 280 12:22 23.09.2019
1465 Rain 14 1015 93 9000 5.1 280 11:55 23.09.2019
1466 Rain 15 1015 93 10000 4.6 270 11:37 23.09.2019
1467 Rain 15 1015 93 10000 4.6 270 11:19 23.09.2019
1468 Rain 14 1015 93 10000 6.2 280 10:48 23.09.2019
1469 Rain 14 1015 93 10000 5.1 280 10:21 23.09.2019
1470 Rain 14 1014 93 10000 5.7 270 09:55 23.09.2019
1471 Rain 14 1015 100 10000 5.1 270 09:37 23.09.2019
1472 Rain 13 1015 100 10000 5.1 270 09:19 23.09.2019
1473 Rain 12 1013 93 10000 1 0 08:39 23.09.2019
1474 -273 0 0 0 0 0 08:20 23.09.2019
1475 Rain 11 1013 100 10000 6.7 270 07:44 23.09.2019
1476 Rain 10 1012 93 10000 1 0 07:23 23.09.2019
1477 Clear 10 1012 93 10000 1 0 06:20 23.09.2019
1478 Clear 10 1012 87 10000 1.5 140 05:46 23.09.2019
1479 Clear 10 1011 87 10000 2.1 90 05:18 23.09.2019
1480 Clear 11 1011 81 10000 2.1 90 04:52 23.09.2019
1481 Clear 13 1011 71 10000 1 100 01:29 23.09.2019
1482 Clear 14 1011 67 10000 2.1 100 00:40 23.09.2019
1483 Clear 14 1011 67 10000 2.1 100 00:21 23.09.2019
1484 Clear 15 1011 63 10000 3.1 90 23:44 22.09.2019
1485 Clear 15 1011 63 10000 3.1 90 23:44 22.09.2019
1486 Clear 15 1011 63 10000 3.1 90 23:26 22.09.2019
1487 Clear 15 1011 59 10000 3.1 100 22:56 22.09.2019
1488 Clear 15 1011 59 10000 2.6 100 22:37 22.09.2019
1489 Clear 15 1011 59 10000 2.6 100 22:19 22.09.2019
1490 Clear 15 1011 55 10000 2.6 100 21:43 22.09.2019
1491 Clear 17 1011 52 10000 3.1 120 21:21 22.09.2019
1492 Clear 17 1011 52 10000 3.6 130 20:46 22.09.2019
1493 Clear 18 1011 48 10000 3.6 130 20:28 22.09.2019
1494 Clear 19 1011 48 10000 3.6 130 20:00 22.09.2019
1495 Clear 18 1011 45 10000 4.1 120 19:41 22.09.2019
1496 Clear 19 1011 45 10000 4.1 120 19:22 22.09.2019
1497 Clear 20 1011 46 10000 3.6 130 18:58 22.09.2019
1498 Clear 20 1011 46 10000 3.6 130 18:38 22.09.2019
1499 Clear 21 1011 46 10000 3.6 130 18:19 22.09.2019
1500 Clear 22 1011 46 10000 3.6 140 17:56 22.09.2019
1501 Clear 22 1011 43 10000 4.1 140 17:37 22.09.2019
1502 Clear 22 1011 43 10000 4.1 140 17:18 22.09.2019
1503 Clear 23 1011 40 10000 3.1 130 16:42 22.09.2019
1504 Clear 23 1011 40 10000 3.1 130 16:23 22.09.2019
1505 Clear 23 1011 38 10000 2.6 110 15:47 22.09.2019
1506 Clear 23 1011 38 10000 3.6 170 15:28 22.09.2019
1507 Haze 22 1011 38 10000 3.1 140 14:58 22.09.2019
1508 Clear 22 1012 37 10000 2.6 0 14:40 22.09.2019
1509 Clear 22 1012 37 10000 2.6 0 14:21 22.09.2019
1510 Clear 22 1012 37 10000 2.6 90 13:55 22.09.2019
1511 Clear 21 1012 40 10000 3.6 130 13:36 22.09.2019
1512 Clear 21 1012 40 10000 3.6 130 13:36 22.09.2019
1513 Clear 21 1012 40 10000 3.6 130 13:18 22.09.2019
1514 Clear 20 1013 45 10000 3.6 100 12:42 22.09.2019
1515 Clear 18 1013 45 10000 3.6 110 12:22 22.09.2019
1516 Clear 18 1013 45 10000 3.6 110 11:56 22.09.2019
1517 Clear 18 1014 48 10000 3.6 120 11:38 22.09.2019
1518 Clear 17 1014 48 10000 3.6 120 11:19 22.09.2019
1519 Clear 16 1014 51 10000 3.6 100 10:43 22.09.2019
1520 Clear 14 1014 58 10000 4.1 90 10:20 22.09.2019
1521 Clear 12 1014 58 10000 4.6 100 09:56 22.09.2019
1522 Clear 12 1014 66 10000 3.1 90 09:37 22.09.2019
1523 Clear 9 1014 81 10000 2.1 100 09:19 22.09.2019
1524 Clear 8 1014 81 10000 2.1 100 08:42 22.09.2019
1525 Clear 7 1014 93 10000 0.5 0 08:22 22.09.2019
1526 Clear 6 1014 100 10000 1 0 07:49 22.09.2019
1527 Clear 6 1014 100 10000 1 0 07:31 22.09.2019
1528 Clear 6 1014 93 10000 0.5 340 06:59 22.09.2019
1529 Clear 6 1014 93 10000 0.5 0 06:38 22.09.2019
1530 Clear 6 1015 93 10000 1 0 05:19 22.09.2019
1531 Clear 9 1016 76 10000 1.5 80 02:45 22.09.2019
1532 Clear 9 1016 76 10000 1.5 80 02:25 22.09.2019
1533 Clear 9 1016 76 10000 1.5 100 01:45 22.09.2019
1534 Clear 10 1016 81 10000 1 310 00:54 22.09.2019
1535 Clear 10 1017 87 10000 1.5 320 00:32 22.09.2019
1536 Clear 11 1017 81 10000 1 0 23:54 21.09.2019
1537 Clear 11 1017 58 10000 1.5 100 23:36 21.09.2019
1538 Clear 12 1017 58 10000 1.5 90 22:47 21.09.2019
1539 Clear 13 1017 62 10000 1.5 80 22:26 21.09.2019
1540 Clear 13 1017 58 10000 1.5 70 21:59 21.09.2019
1541 Clear 13 1018 58 10000 4.1 80 21:41 21.09.2019
1542 Clear 14 1017 51 10000 3.1 80 21:19 21.09.2019
1543 Clear 15 1017 48 10000 3.6 80 20:56 21.09.2019
1544 Clear 16 1018 48 10000 3.1 80 20:36 21.09.2019
1545 Clear 16 1018 48 10000 3.1 80 20:18 21.09.2019
1546 Clear 19 1018 42 10000 2.6 80 19:45 21.09.2019
1547 Clear 19 1018 42 10000 2.6 80 19:45 21.09.2019
1548 Clear 21 1018 37 10000 3.1 90 19:21 21.09.2019
1549 Clear 21 1018 33 10000 4.6 100 18:40 21.09.2019
1550 Clear 21 1018 33 10000 4.6 100 18:21 21.09.2019
1551 Clear 23 1019 31 10000 4.1 100 17:43 21.09.2019
1552 Clear 22 1019 31 10000 4.1 100 17:23 21.09.2019
1553 Clear 22 1019 31 10000 4.1 60 16:57 21.09.2019
1554 Clear 23 1019 31 10000 3.1 90 16:38 21.09.2019
1555 Clear 22 1019 31 10000 3.1 90 16:19 21.09.2019
1556 Clear 22 1020 33 10000 2.6 100 15:44 21.09.2019
1557 Clear 22 1020 30 10000 4.1 140 15:22 21.09.2019
1558 Clear 21 1021 30 10000 3.1 130 14:48 21.09.2019
1559 Clear 21 1021 28 10000 4.1 120 14:30 21.09.2019
1560 Clear 21 1021 30 10000 3.6 110 13:54 21.09.2019
1561 Clear 20 1022 32 10000 4.1 140 13:36 21.09.2019
1562 Clear 19 1022 36 10000 3.1 120 13:18 21.09.2019
1563 Clear 19 1023 39 10000 2.6 0 12:41 21.09.2019
1564 Clear 18 1023 39 10000 2.6 0 12:22 21.09.2019
1565 Clear 16 1023 41 10000 3.1 110 11:59 21.09.2019
1566 Clear 16 1023 41 10000 4.1 110 11:41 21.09.2019
1567 Clear 13 1023 44 10000 2.1 120 11:21 21.09.2019
1568 Clear 13 1024 54 10000 1 0 10:41 21.09.2019
1569 Clear 12 1024 54 10000 1 0 10:23 21.09.2019
1570 Clear 10 1024 66 10000 1 0 09:57 21.09.2019
1571 Clear 9 1024 75 10000 1 0 09:38 21.09.2019
1572 Clear 7 1024 75 10000 1 0 09:20 21.09.2019
1573 Clear 5 1024 81 10000 1 0 08:51 21.09.2019
1574 Clear 4 1024 86 10000 1 350 08:26 21.09.2019
1575 Clear 3 1023 93 10000 1 270 07:41 21.09.2019
1576 Clear 3 1023 86 10000 0.5 0 07:22 21.09.2019
1577 Clear 3 1023 86 10000 0.5 0 06:49 21.09.2019
1578 Clear 3 1024 86 10000 1 270 06:30 21.09.2019
1579 Clear 4 1024 86 10000 0.5 0 04:50 21.09.2019
1580 Clear 4 1024 86 10000 0.5 0 04:50 21.09.2019
1581 Clear 4 1024 86 10000 0.5 0 04:32 21.09.2019
1582 Clear 5 1025 86 10000 0.5 0 02:30 21.09.2019
1583 Clear 6 1025 75 10000 2.1 100 01:53 21.09.2019
1584 Clear 6 1025 75 10000 2.1 100 01:34 21.09.2019
1585 Clear 6 1026 81 10000 1.5 70 00:39 21.09.2019
1586 Clear 7 1026 70 10000 2.1 100 00:18 21.09.2019
1587 Clear 7 1026 81 10000 1.5 70 00:18 21.09.2019
1588 Clear 7 1026 65 10000 2.1 100 23:42 20.09.2019
1589 Clear 7 1026 65 10000 2.1 100 23:42 20.09.2019
1590 Clear 6 1026 65 10000 2.1 100 23:22 20.09.2019
1591 Clear 7 1026 66 10000 2.1 100 22:41 20.09.2019
1592 Clear 7 1026 66 10000 2.1 100 22:41 20.09.2019
1593 Clear 8 1026 66 10000 2.1 100 22:23 20.09.2019
1594 Clear 9 1026 61 10000 2.6 100 21:56 20.09.2019
1595 Clear 9 1026 61 10000 1 90 21:37 20.09.2019
1596 Clear 11 1026 62 10000 1 0 21:18 20.09.2019
1597 Clear 11 1026 62 10000 1 0 20:55 20.09.2019
1598 Clear 11 1026 44 10000 1.5 100 20:36 20.09.2019
1599 Clear 12 1026 44 10000 1.5 100 20:18 20.09.2019
1600 Clear 14 1026 38 10000 2.1 90 19:42 20.09.2019
1601 Clear 15 1026 38 10000 2.1 90 19:21 20.09.2019
1602 Clear 16 1026 39 10000 1.5 70 18:56 20.09.2019
1603 Clear 16 1026 34 10000 1 0 18:36 20.09.2019
1604 Clear 17 1026 34 10000 1 0 18:18 20.09.2019
1605 Clear 17 1027 34 10000 1.5 0 17:43 20.09.2019
1606 Clear 17 1027 34 10000 1.5 0 17:25 20.09.2019
1607 Clear 18 1027 36 10000 2.1 330 16:43 20.09.2019
1608 Clear 17 1027 36 10000 2.1 330 16:21 20.09.2019
1609 Clear 17 1027 33 10000 2.6 60 15:58 20.09.2019
1610 Clear 18 1028 39 10000 3.1 0 15:40 20.09.2019
1611 Clear 17 1028 39 10000 3.1 0 15:21 20.09.2019
1612 Clear 17 1028 36 10000 2.6 0 14:42 20.09.2019
1613 Clear 16 1028 44 10000 1.5 80 14:19 20.09.2019
1614 Clear 17 1028 38 10000 2.1 0 13:48 20.09.2019
1615 Clear 17 1028 38 10000 2.1 0 13:48 20.09.2019
1616 Clouds 16 1029 41 10000 2.1 0 13:28 20.09.2019
1617 Clouds 15 1029 41 10000 2.1 0 12:58 20.09.2019
1618 Clouds 14 1029 41 10000 2.1 0 12:37 20.09.2019
1619 Clouds 14 1029 41 10000 2.1 0 12:19 20.09.2019
1620 Clouds 14 1029 41 10000 2.1 0 12:19 20.09.2019
1621 Clouds 13 1029 50 10000 1.5 270 12:19 20.09.2019
1622 Clouds 13 1029 58 10000 1 0 11:49 20.09.2019
1623 Clouds 12 1029 58 10000 1 0 11:21 20.09.2019
1624 Clear 11 1030 62 10000 1 0 10:57 20.09.2019
1625 Clear 10 1030 66 10000 1 0 10:39 20.09.2019
1626 Clear 9 1030 66 10000 1 0 10:19 20.09.2019
1627 Clear 6 1029 81 10000 0.5 0 09:38 20.09.2019
1628 Clear 6 1029 81 10000 0.5 0 09:18 20.09.2019
1629 Clear 4 1029 86 10000 0.5 60 08:43 20.09.2019
1630 Clear 2 1029 76 10000 1.48 51.625 08:25 20.09.2019
1631 Clear 1 1029 76 10000 0.5 0 07:47 20.09.2019
1632 Clear 1 1029 76 10000 1 0 07:28 20.09.2019
1633 Clear 1 1029 76 10000 1.5 360 06:45 20.09.2019
1634 Clear 1 1029 76 10000 0.5 0 06:27 20.09.2019
1635 Clear 1 1029 100 10000 0.5 0 05:50 20.09.2019
1636 Clear 2 1029 93 10000 0.5 340 03:46 20.09.2019
1637 Clear 2 1029 86 10000 1 120 03:21 20.09.2019
1638 Clear 3 1029 86 10000 0.5 0 01:45 20.09.2019
1639 Clear 4 1029 86 10000 0.5 0 01:18 20.09.2019
1640 Clear 5 1029 80 10000 0.5 0 00:26 20.09.2019
1641 Clear 5 1030 70 10000 1.5 110 23:45 19.09.2019
1642 Clear 5 1029 75 10000 1.5 40 23:22 19.09.2019
1643 Clear 6 1029 65 10000 1.5 70 22:57 19.09.2019
1644 Clear 6 1029 65 10000 1.5 70 22:57 19.09.2019
1645 Clear 7 1029 65 10000 2.6 60 22:37 19.09.2019
1646 Clear 7 1029 65 10000 2.6 60 22:19 19.09.2019
1647 Clear 7 1029 61 10000 2.6 50 21:56 19.09.2019
1648 Clear 7 1029 61 10000 3.1 60 21:37 19.09.2019
1649 Clear 10 1029 57 10000 2.6 50 21:18 19.09.2019
1650 Clear 10 1029 57 10000 2.6 50 20:43 19.09.2019
1651 Clear 10 1028 53 10000 2.1 50 20:22 19.09.2019
1652 Clear 11 1028 46 10000 2.1 40 19:55 19.09.2019
1653 Clear 12 1028 43 10000 2.1 50 19:37 19.09.2019
1654 Clear 13 1028 62 10000 2.6 40 19:19 19.09.2019
1655 Clear 13 1028 38 10000 2.6 70 18:42 19.09.2019
1656 Clear 14 1028 38 10000 2.6 70 18:24 19.09.2019
1657 Clear 15 1028 41 10000 3.6 60 17:54 19.09.2019
1658 Clear 15 1028 36 10000 3.1 20 17:36 19.09.2019
1659 Clear 15 1028 36 10000 2.6 10 17:18 19.09.2019
1660 Clear 15 1028 36 10000 2.6 10 16:56 19.09.2019
1661 Clear 15 1028 38 10000 1.5 0 16:37 19.09.2019
1662 Clear 16 1028 38 10000 1.5 0 16:18 19.09.2019
1663 Clear 15 1028 38 10000 4.1 360 15:38 19.09.2019
1664 Clear 15 1028 38 10000 4.1 360 15:18 19.09.2019
1665 Clear 15 1028 38 10000 4.1 20 14:41 19.09.2019
1666 Clear 15 1028 38 10000 4.1 320 14:23 19.09.2019
1667 Clouds 15 1029 38 10000 2.6 340 13:58 19.09.2019
1668 Clouds 14 1029 44 10000 3.1 350 13:38 19.09.2019
1669 Clouds 14 1029 44 10000 3.1 350 13:38 19.09.2019
1670 Clouds 14 1029 43 10000 3.1 320 13:19 19.09.2019
1671 Clouds 14 1029 44 10000 3.1 350 13:19 19.09.2019
1672 Clouds 14 1029 43 10000 4.1 340 12:38 19.09.2019
1673 Clouds 13 1029 43 10000 4.1 340 12:18 19.09.2019
1674 Clouds 13 1029 53 10000 4.1 340 11:56 19.09.2019
1675 Clouds 12 1029 54 10000 2.6 0 11:37 19.09.2019
1676 Clouds 12 1029 62 10000 1 0 11:18 19.09.2019
1677 Clouds 11 1029 61 10000 1 0 10:40 19.09.2019
1678 Clear 10 1028 70 10000 1.5 350 10:21 19.09.2019
1679 Clear 10 1028 70 10000 1.5 350 10:21 19.09.2019
1680 Clear 9 1028 70 10000 1.5 350 09:58 19.09.2019
1681 Clear 8 1028 75 10000 0.5 0 09:40 19.09.2019
1682 Clear 5 1028 86 10000 1 0 09:20 19.09.2019
1683 Clear 5 1028 86 10000 1 0 08:51 19.09.2019
1684 Clear 3 1028 100 10000 0.5 340 08:26 19.09.2019
1685 Mist 3 1027 81 10000 2.04 9.993 07:45 19.09.2019
1686 Mist 2 1027 81 10000 0.5 0 07:23 19.09.2019
1687 Clear 3 1027 100 10000 0.5 0 06:58 19.09.2019
1688 Clear 3 1027 93 10000 0.5 0 06:38 19.09.2019
1689 Clear 3 1027 93 10000 0.5 0 06:19 19.09.2019
1690 Clear 3 1027 93 10000 1.5 100 05:48 19.09.2019
1691 Clear 4 1027 93 10000 0.5 0 04:19 19.09.2019
1692 Clear 4 1026 86 10000 0.5 120 03:20 19.09.2019
1693 Clear 4 1026 80 10000 1 90 01:40 19.09.2019
1694 Clear 5 1026 80 10000 1 90 01:19 19.09.2019
1695 Clear 5 1026 80 10000 0.5 0 00:42 19.09.2019
1696 Clear 7 1026 80 10000 0.5 0 00:18 19.09.2019
1697 Clear 7 1025 75 10000 1 0 23:37 18.09.2019
1698 Clear 7 1025 75 10000 1 0 23:19 18.09.2019
1699 Clear 8 1025 75 10000 1.5 350 22:38 18.09.2019
1700 Clear 9 1025 70 10000 1.5 360 22:19 18.09.2019
1701 Clear 9 1025 70 10000 1.5 360 21:57 18.09.2019
1702 Clear 10 1025 70 10000 1.5 350 21:39 18.09.2019
1703 Clear 11 1025 70 10000 1.5 350 21:18 18.09.2019
1704 Clear 11 1024 62 10000 1 360 20:57 18.09.2019
1705 Clear 11 1024 62 10000 1 360 20:57 18.09.2019
1706 Clear 12 1024 58 10000 1.5 360 20:39 18.09.2019
1707 Clear 13 1024 58 10000 1.5 360 20:20 18.09.2019
1708 Clear 13 1024 58 10000 1.5 360 20:20 18.09.2019
1709 Clear 14 1024 47 10000 1.5 360 19:56 18.09.2019
1710 Clear 14 1024 41 10000 2.6 340 19:37 18.09.2019
1711 Clear 15 1024 41 10000 2.6 350 19:18 18.09.2019
1712 Clear 15 1024 41 10000 2.6 350 19:18 18.09.2019
1713 Clear 15 1024 41 10000 2.6 350 18:54 18.09.2019
1714 Clear 15 1024 38 10000 3.6 360 18:36 18.09.2019
1715 Clear 16 1024 38 10000 3.6 360 18:18 18.09.2019
1716 Clear 16 1024 38 10000 3.6 330 17:54 18.09.2019
1717 Clear 17 1024 41 10000 2.1 340 17:36 18.09.2019
1718 -273 0 0 0 0 0 17:18 18.09.2019
1719 Clear 17 1024 39 10000 4.1 320 16:42 18.09.2019
1720 Clear 17 1024 39 10000 4.1 320 16:22 18.09.2019
1721 Clear 16 1024 41 10000 3.6 10 15:57 18.09.2019
1722 Clear 16 1024 41 10000 4.1 350 15:39 18.09.2019
1723 Clear 16 1024 41 10000 4.1 350 15:20 18.09.2019
1724 Clear 16 1025 41 10000 3.1 310 14:58 18.09.2019
1725 Clear 16 1025 41 10000 2.1 0 14:40 18.09.2019
1726 Clear 16 1025 41 10000 2.1 0 14:21 18.09.2019
1727 Clouds 15 1025 44 10000 2.6 0 13:58 18.09.2019
1728 Clouds 15 1025 44 10000 2.6 0 13:58 18.09.2019
1729 Clouds 16 1025 44 10000 1.5 0 13:37 18.09.2019
1730 Clouds 15 1025 44 10000 1.5 0 13:18 18.09.2019
1731 Clouds 15 1025 44 10000 2.6 0 13:18 18.09.2019
1732 Clouds 14 1026 47 10000 1.5 0 12:42 18.09.2019
1733 Clouds 15 1026 47 10000 1.5 0 12:22 18.09.2019
1734 Clouds 14 1026 58 10000 1.5 0 11:40 18.09.2019
1735 Clouds 14 1026 58 10000 1.5 0 11:40 18.09.2019
1736 Clouds 13 1026 58 10000 1.5 0 11:20 18.09.2019
1737 Clouds 13 1026 62 10000 1 0 10:58 18.09.2019
1738 Clouds 13 1026 66 10000 2.1 340 10:39 18.09.2019
1739 Clouds 11 1026 66 10000 2.1 340 10:20 18.09.2019
1740 Clear 11 1025 66 10000 1.5 350 09:55 18.09.2019
1741 Clear 10 1025 70 10000 1 0 09:37 18.09.2019
1742 Clear 9 1025 70 10000 1 0 09:18 18.09.2019
1743 Clear 6 1025 86 10000 1 360 08:41 18.09.2019
1744 Clear 5 1025 86 10000 1 360 08:21 18.09.2019
1745 Clear 6 1025 86 10000 1.5 120 07:44 18.09.2019
1746 Clear 5 1024 93 10000 0.5 70 07:23 18.09.2019
1747 Clear 5 1024 93 10000 1 330 06:54 18.09.2019
1748 Clear 5 1024 87 10000 0.5 310 06:26 18.09.2019
1749 Clear 6 1024 81 10000 1.5 330 05:33 18.09.2019
1750 Clear 9 1023 66 10000 4.6 330 03:42 18.09.2019
1751 Clear 10 1022 62 10000 5.1 340 02:40 18.09.2019
1752 Clear 11 1022 66 10000 4.6 350 01:50 18.09.2019
1753 Clouds 12 1022 66 10000 4.1 310 00:56 18.09.2019
1754 Clouds 11 1021 66 10000 2.6 300 00:33 18.09.2019
1755 Clear 13 1021 58 10000 4.1 290 23:48 17.09.2019
1756 Clear 13 1021 58 10000 4.1 290 23:48 17.09.2019
1757 Clear 13 1021 58 10000 4.1 290 23:25 17.09.2019
1758 Clear 13 1021 58 10000 4.1 290 23:25 17.09.2019
1759 Clear 13 1020 58 10000 4.1 290 22:59 17.09.2019
1760 Clear 13 1020 58 10000 4.6 290 22:41 17.09.2019
1761 Clear 13 1020 58 10000 4.6 290 22:22 17.09.2019
1762 Clear 14 1020 54 10000 4.6 290 21:54 17.09.2019
1763 Clear 14 1020 51 10000 5.7 300 21:36 17.09.2019
1764 Clear 15 1020 51 10000 5.7 300 21:18 17.09.2019
1765 Clear 15 1019 54 10000 4.6 300 20:56 17.09.2019
1766 Clear 15 1019 54 10000 4.6 300 20:56 17.09.2019
1767 Clear 15 1019 51 10000 5.7 310 20:38 17.09.2019
1768 Clear 16 1019 51 10000 5.7 310 20:19 17.09.2019
1769 Clear 16 1018 48 10000 7.2 310 20:19 17.09.2019
1770 Clear 16 1018 48 10000 7.2 310 19:54 17.09.2019
1771 Clear 16 1018 48 10000 7.2 310 19:54 17.09.2019
1772 Clear 16 1018 51 10000 6.7 290 19:36 17.09.2019
1773 Clear 17 1018 51 10000 6.7 290 19:18 17.09.2019
1774 Clear 18 1018 45 10000 7.2 300 18:42 17.09.2019
1775 Clear 18 1018 45 10000 7.2 300 18:22 17.09.2019
1776 Clouds 19 1018 39 10000 7.2 280 17:55 17.09.2019
1777 Clouds 19 1018 39 10000 7.2 280 17:37 17.09.2019
1778 Clouds 19 1018 39 10000 7.2 280 17:18 17.09.2019
1779 -273 0 0 0 0 0 16:41 17.09.2019
1780 Clouds 19 1018 42 10000 5.7 280 16:41 17.09.2019
1781 Clouds 19 1018 42 10000 5.7 280 16:41 17.09.2019
1782 Clouds 19 1018 42 10000 5.7 280 16:22 17.09.2019
1783 Clouds 20 1018 48 10000 4.1 250 15:56 17.09.2019
1784 Clouds 20 1018 48 10000 5.7 280 15:37 17.09.2019
1785 Clouds 18 1018 48 10000 5.7 280 15:19 17.09.2019
1786 Clouds 18 1018 59 10000 4.6 260 14:55 17.09.2019
1787 Clouds 19 1018 55 10000 4.6 270 14:37 17.09.2019
1788 Clouds 19 1018 55 10000 4.6 270 14:18 17.09.2019
1789 Clouds 18 1019 67 10000 4.6 260 13:41 17.09.2019
1790 Clouds 18 1019 67 10000 4.6 260 13:23 17.09.2019
1791 Clouds 17 1019 67 10000 3.6 270 12:55 17.09.2019
1792 Clouds 16 1019 63 10000 3.6 260 12:37 17.09.2019
1793 Clouds 16 1019 62 10000 2.6 300 12:18 17.09.2019
1794 Clouds 16 1019 62 10000 3.1 300 11:41 17.09.2019
1795 Clouds 15 1019 62 10000 3.1 300 11:19 17.09.2019
1796 Clouds 15 1020 100 10000 3.6 340 10:42 17.09.2019
1797 Clouds 14 1019 71 10000 4.6 320 10:23 17.09.2019
1798 Clouds 14 1019 71 10000 4.6 320 09:59 17.09.2019
1799 Drizzle 14 1020 93 10000 2.1 340 09:40 17.09.2019
1800 Drizzle 14 1020 93 10000 2.1 340 09:40 17.09.2019
1801 Drizzle 14 1020 93 10000 2.1 340 09:20 17.09.2019
1802 Clouds 14 1019 76 10000 2.6 330 08:44 17.09.2019
1803 Clouds 14 1019 76 10000 2.6 330 08:25 17.09.2019
1804 Clouds 14 1019 76 10000 2.6 330 08:25 17.09.2019
1805 Rain 14 1019 76 10000 2.1 350 07:55 17.09.2019
1806 Clouds 14 1018 76 10000 3.6 360 07:36 17.09.2019
1807 Clouds 14 1019 100 10000 2.1 30 07:18 17.09.2019
1808 Clouds 14 1019 93 10000 3.1 290 06:45 17.09.2019
1809 Clouds 14 1019 93 10000 3.1 290 06:19 17.09.2019
1810 Rain 15 1018 82 10000 3.6 340 05:35 17.09.2019
1811 Rain 15 1018 77 10000 3.6 320 04:26 17.09.2019
1812 Clouds 16 1018 67 10000 3.1 310 02:41 17.09.2019
1813 Clouds 16 1018 67 10000 3.1 310 01:55 17.09.2019
1814 Clear 17 1018 67 10000 2.1 270 00:59 17.09.2019
1815 Clear 17 1018 67 10000 1.5 280 00:22 17.09.2019
1816 Clouds 17 1018 67 10000 2.1 270 23:36 16.09.2019
1817 Clouds 17 1018 67 10000 2.1 270 23:18 16.09.2019
1818 Clouds 18 1018 59 10000 2.6 250 22:42 16.09.2019
1819 Clouds 18 1018 59 10000 2.6 250 22:42 16.09.2019
1820 Clouds 18 1018 59 10000 2.6 250 22:24 16.09.2019
1821 Clouds 18 1018 59 10000 2.6 260 21:59 16.09.2019
1822 Clouds 18 1018 59 10000 2.6 260 21:59 16.09.2019
1823 Clouds 18 1018 55 10000 2.6 280 21:38 16.09.2019
1824 Clouds 19 1018 55 10000 2.6 280 21:20 16.09.2019
1825 Rain 19 1018 55 10000 2.1 300 20:55 16.09.2019
1826 Rain 19 1018 49 10000 2.1 310 20:37 16.09.2019
1827 Clear 19 1018 49 10000 2.1 290 20:18 16.09.2019
1828 Clear 19 1018 49 10000 2.1 290 19:54 16.09.2019
1829 Clear 19 1018 49 10000 2.1 290 19:54 16.09.2019
1830 Clear 20 1017 43 10000 1.5 280 19:36 16.09.2019
1831 Clear 20 1017 43 10000 1.5 280 19:36 16.09.2019
1832 Clouds 21 1018 43 10000 3.6 310 19:18 16.09.2019
1833 Clear 21 1018 37 10000 4.6 290 18:42 16.09.2019
1834 Clear 21 1018 37 10000 4.6 290 18:24 16.09.2019
1835 Clear 22 1018 28 10000 4.6 300 17:43 16.09.2019
1836 Clear 22 1018 28 10000 4.6 300 17:24 16.09.2019
1837 Clear 23 1018 33 10000 4.6 300 16:59 16.09.2019
1838 Clear 23 1018 33 10000 5.1 290 16:40 16.09.2019
1839 Clear 23 1018 33 10000 5.1 290 16:21 16.09.2019
1840 Clear 23 1018 36 10000 5.1 280 15:57 16.09.2019
1841 Clear 23 1019 33 10000 2.1 270 15:38 16.09.2019
1842 Clear 23 1019 33 10000 2.1 270 15:20 16.09.2019
1843 Clear 23 1019 38 10000 2.1 260 14:57 16.09.2019
1844 Clear 23 1019 40 10000 1.5 250 14:38 16.09.2019
1845 Clear 23 1019 40 10000 1.5 250 14:19 16.09.2019
1846 Haze 23 1020 43 10000 1.5 0 13:40 16.09.2019
1847 Clear 22 1020 52 10000 1.5 0 13:21 16.09.2019
1848 Clear 21 1020 52 10000 1.5 0 12:48 16.09.2019
1849 Clear 21 1020 52 10000 1.5 0 12:29 16.09.2019
1850 Rain 20 1021 59 10000 1 0 11:58 16.09.2019
1851 Rain 19 1021 63 10000 0.5 0 11:40 16.09.2019
1852 Rain 18 1021 63 10000 0.5 0 11:21 16.09.2019
1853 Haze 17 1021 72 10000 0.5 0 10:40 16.09.2019
1854 Haze 17 1021 72 10000 0.5 0 10:40 16.09.2019
1855 Haze 16 1021 72 10000 0.5 0 10:21 16.09.2019
1856 Clear 14 1021 82 10000 1 0 09:58 16.09.2019
1857 Clear 14 1021 82 10000 1 0 09:40 16.09.2019
1858 Clear 14 1021 82 10000 1 0 09:40 16.09.2019
1859 Clear 12 1021 82 10000 1 0 09:20 16.09.2019
1860 Clear 10 1021 100 10000 0.5 0 08:47 16.09.2019
1861 Clear 10 1021 100 10000 0.5 0 08:28 16.09.2019
1862 Mist 9 1020 100 10000 2.6 130 07:56 16.09.2019
1863 Mist 9 1020 100 10000 2.6 130 07:56 16.09.2019
1864 Mist 9 1021 100 10000 0.5 0 07:38 16.09.2019
1865 Mist 9 1021 100 10000 0.5 0 07:38 16.09.2019
1866 Clouds 9 1021 100 10000 0.5 0 07:20 16.09.2019
1867 Clear 9 1020 93 10000 2.1 90 06:46 16.09.2019
1868 Clear 9 1020 93 10000 2.1 90 06:27 16.09.2019
1869 Clear 10 1021 93 10000 1.5 90 05:51 16.09.2019
1870 Clear 10 1021 93 10000 2.1 110 05:29 16.09.2019
1871 Clear 10 1021 93 10000 2.6 90 04:38 16.09.2019
1872 Clear 12 1021 87 10000 2.1 120 02:36 16.09.2019
1873 Clear 13 1022 87 10000 0.5 0 00:44 16.09.2019
1874 Clear 14 1022 87 10000 0.5 0 00:26 16.09.2019
1875 Clear 15 1022 77 10000 1 120 23:44 15.09.2019
1876 Clear 15 1022 77 10000 1 120 23:21 15.09.2019
1877 Clear 16 1021 72 10000 0.5 0 22:56 15.09.2019
1878 Clear 16 1022 77 10000 1.5 300 22:36 15.09.2019
1879 Clear 16 1022 77 10000 1.5 300 22:18 15.09.2019
1880 Clear 17 1021 68 10000 1.5 310 21:55 15.09.2019
1881 Clear 18 1021 68 10000 1.5 310 21:55 15.09.2019
1882 Clear 19 1021 60 10000 1 230 21:36 15.09.2019
1883 Clear 19 1021 60 10000 1 230 21:18 15.09.2019
1884 Clear 20 1021 53 10000 2.1 280 20:42 15.09.2019
1885 Clear 20 1021 53 10000 2.1 280 20:24 15.09.2019
1886 Clear 23 1021 53 10000 2.6 280 19:46 15.09.2019
1887 Clear 23 1021 50 10000 3.1 270 19:26 15.09.2019
1888 Clear 25 1021 47 10000 4.6 260 18:55 15.09.2019
1889 Clear 26 1021 41 10000 3.6 270 18:36 15.09.2019
1890 Clear 26 1022 41 10000 3.6 270 18:18 15.09.2019
1891 Clear 26 1021 39 10000 4.6 260 17:41 15.09.2019
1892 Clear 26 1021 39 10000 4.6 260 17:21 15.09.2019
1893 Clear 26 1021 39 10000 5.1 240 16:55 15.09.2019
1894 Clear 26 1022 42 10000 4.6 290 16:36 15.09.2019
1895 Clear 26 1022 42 10000 4.6 290 16:18 15.09.2019
1896 Clear 26 1022 42 10000 3.6 220 15:41 15.09.2019
1897 Clear 26 1022 42 10000 3.6 220 15:21 15.09.2019
1898 Clouds 26 1023 44 10000 3.1 220 14:58 15.09.2019
1899 Clouds 26 1023 50 10000 3.1 240 14:40 15.09.2019
1900 Clouds 25 1023 50 10000 2.6 200 14:20 15.09.2019
1901 Clouds 25 1023 50 10000 2.6 200 13:47 15.09.2019
1902 Clouds 24 1024 57 10000 2.1 280 13:24 15.09.2019
1903 Rain 24 1024 60 10000 1 0 12:57 15.09.2019
1904 Clouds 23 1025 60 10000 1 0 12:39 15.09.2019
1905 Clouds 23 1025 60 10000 1 0 12:18 15.09.2019
1906 Clouds 21 1025 68 10000 1.5 180 11:42 15.09.2019
1907 Clouds 20 1025 68 10000 1.5 180 11:22 15.09.2019
1908 Clear 19 1025 72 10000 2.1 190 10:58 15.09.2019
1909 Clouds 18 1025 72 10000 1.5 150 10:40 15.09.2019
1910 Clouds 17 1025 72 10000 1.5 150 10:21 15.09.2019
1911 Clear 15 1025 87 10000 2.6 130 09:42 15.09.2019
1912 Clear 13 1025 87 10000 2.6 130 09:20 15.09.2019
1913 Clear 12 1026 87 10000 2.1 110 08:55 15.09.2019
1914 Clear 11 1026 93 10000 1.5 140 08:30 15.09.2019
1915 Clear 10 1026 100 10000 2.1 110 07:57 15.09.2019
1916 Clear 10 1026 93 10000 2.6 110 07:39 15.09.2019
1917 Clear 9 1026 93 10000 2.6 110 06:43 15.09.2019
1918 Clear 10 1026 93 10000 2.1 110 04:59 15.09.2019
1919 Clear 11 1027 100 10000 0.5 70 03:18 15.09.2019
1920 Clear 12 1028 87 10000 2.1 110 01:58 15.09.2019
1921 Clear 12 1028 87 10000 2.1 110 01:58 15.09.2019
1922 Clear 12 1028 87 10000 2.1 110 01:35 15.09.2019
1923 Clear 12 1028 87 10000 1 0 00:56 15.09.2019
1924 Clear 12 1028 93 10000 0.5 0 00:36 15.09.2019
1925 Clear 12 1028 93 10000 0.5 0 00:18 15.09.2019
1926 Clear 12 1028 93 10000 0.5 40 23:54 14.09.2019
1927 Clear 12 1028 93 10000 0.5 40 23:54 14.09.2019
1928 Clear 13 1029 87 10000 0.5 0 23:36 14.09.2019
1929 Clear 13 1029 87 10000 0.5 0 23:18 14.09.2019
1930 Clear 13 1029 82 10000 0.5 0 22:55 14.09.2019
1931 Clear 14 1029 77 10000 1.5 80 22:36 14.09.2019
1932 Clear 14 1029 77 10000 1.5 80 22:18 14.09.2019
1933 Clear 15 1029 82 10000 1 0 21:40 14.09.2019
1934 Clear 16 1029 82 10000 1 0 21:20 14.09.2019
1935 Clear 18 1029 68 10000 2.1 40 20:56 14.09.2019
1936 Clear 18 1029 63 10000 2.1 40 20:38 14.09.2019
1937 Clear 18 1029 63 10000 2.1 40 20:19 14.09.2019
1938 Clear 20 1029 56 10000 2.1 30 19:45 14.09.2019
1939 Clear 21 1028 53 10000 1.5 20 19:21 14.09.2019
1940 Clear 22 1028 49 10000 2.1 340 18:57 14.09.2019
1941 Rain 22 1029 52 10000 2.6 70 18:37 14.09.2019
1942 Clear 23 1029 46 10000 1.5 60 18:19 14.09.2019
1943 Clear 22 1029 44 10000 3.1 50 17:44 14.09.2019
1944 Clear 23 1029 44 10000 3.1 50 17:23 14.09.2019
1945 Clear 23 1029 44 10000 1.5 0 16:48 14.09.2019
1946 Clear 23 1029 44 10000 2.6 0 16:28 14.09.2019
1947 Clouds 23 1030 52 10000 2.6 70 15:59 14.09.2019
1948 Rain 22 1030 49 0 4.1 350 15:40 14.09.2019
1949 Rain 22 1030 49 0 4.1 350 15:21 14.09.2019
1950 Clouds 22 1031 49 10000 3.1 20 14:44 14.09.2019
1951 Clouds 22 1031 49 10000 3.1 20 14:19 14.09.2019
1952 Clouds 22 1031 56 10000 2.6 50 13:55 14.09.2019
1953 Clouds 22 1031 53 10000 1.5 0 13:37 14.09.2019
1954 Clouds 21 1031 53 10000 1.5 0 13:18 14.09.2019
1955 Clouds 21 1032 64 10000 2.1 340 12:40 14.09.2019
1956 Clouds 20 1032 64 10000 2.1 340 12:18 14.09.2019
1957 Clouds 19 1032 68 10000 2.1 100 11:40 14.09.2019
1958 Clouds 18 1032 68 10000 2.1 100 11:20 14.09.2019
1959 Clouds 17 1032 77 10000 2.1 50 10:39 14.09.2019
1960 Clouds 16 1032 77 10000 2.1 50 10:21 14.09.2019
1961 Clouds 15 1033 77 10000 1 0 09:57 14.09.2019
1962 Clouds 15 1033 87 10000 1.5 330 09:39 14.09.2019
1963 Clouds 14 1033 87 10000 1.5 330 09:19 14.09.2019
1964 Fog 13 1032 100 10000 0.5 0 08:47 14.09.2019
1965 Fog 12 1032 100 10000 0.5 0 08:25 14.09.2019
1966 Fog 12 1032 100 10000 1.5 350 07:48 14.09.2019
1967 Fog 12 1032 100 10000 1 350 07:28 14.09.2019
1968 Fog 12 1032 100 10000 1 350 07:28 14.09.2019
1969 Fog 12 1032 100 10000 1 350 06:52 14.09.2019
1970 Fog 11 1032 100 10000 0.5 0 06:29 14.09.2019
1971 Fog 12 1032 100 10000 0.5 0 05:26 14.09.2019
1972 Clear 13 1032 100 10000 1 0 03:46 14.09.2019
1973 Clear 13 1032 100 10000 1.5 10 02:55 14.09.2019
1974 Clear 13 1032 100 10000 1 0 01:55 14.09.2019
1975 Clouds 14 1032 100 10000 1 350 01:23 14.09.2019
1976 Clouds 14 1032 100 10000 1 350 01:23 14.09.2019
1977 Clouds 14 1032 93 10000 0.5 40 00:59 14.09.2019
1978 Clear 14 1032 100 10000 1 0 00:39 14.09.2019
1979 Clear 14 1032 100 10000 1 0 00:20 14.09.2019
1980 Clear 14 1032 93 10000 1 360 23:38 13.09.2019
1981 Clear 15 1032 93 10000 1 350 23:19 13.09.2019
1982 Clear 15 1032 93 10000 1 350 22:59 13.09.2019
1983 Clear 15 1032 93 10000 1 350 22:38 13.09.2019
1984 Clear 16 1032 87 10000 0.5 340 22:20 13.09.2019
1985 Clear 17 1032 87 10000 0.5 340 21:54 13.09.2019
1986 Clear 17 1032 82 10000 1.5 20 21:36 13.09.2019
1987 Clear 17 1032 82 10000 1.5 20 21:18 13.09.2019
1988 Clouds 19 1031 68 10000 1.5 340 20:41 13.09.2019
1989 Clouds 19 1031 68 10000 1.5 340 20:21 13.09.2019
1990 Clouds 20 1031 68 10000 2.6 330 19:58 13.09.2019
1991 Clouds 20 1031 64 10000 3.1 340 19:40 13.09.2019
1992 Drizzle 20 1031 64 10000 3.1 340 19:19 13.09.2019
1993 Drizzle 21 1032 64 10000 3.1 340 18:57 13.09.2019
1994 Clouds 21 1031 60 10000 3.1 340 18:37 13.09.2019
1995 Clouds 21 1031 60 10000 3.1 340 18:18 13.09.2019
1996 Clouds 21 1031 60 10000 3.1 340 18:18 13.09.2019
1997 Clouds 22 1031 60 10000 3.6 310 17:41 13.09.2019
1998 Clouds 22 1031 60 10000 3.6 310 17:19 13.09.2019
1999 Clouds 22 1031 56 10000 3.6 310 16:43 13.09.2019
2000 Clouds 22 1031 56 10000 3.6 310 16:23 13.09.2019
2001 Clouds 22 1031 56 10000 4.1 290 15:59 13.09.2019
2002 Clouds 22 1031 53 10000 3.1 240 15:40 13.09.2019
2003 Clouds 22 1031 53 10000 3.1 240 15:20 13.09.2019
2004 Clouds 22 1031 56 10000 3.6 260 14:44 13.09.2019
2005 Clouds 22 1031 56 10000 3.6 260 14:22 13.09.2019
2006 Clouds 22 1032 60 10000 2.6 310 13:56 13.09.2019
2007 Clouds 22 1032 60 10000 2.6 280 13:37 13.09.2019
2008 Clouds 21 1032 60 10000 2.6 280 13:19 13.09.2019
2009 Clouds 21 1032 64 10000 3.6 290 12:41 13.09.2019
2010 Clouds 21 1032 64 10000 3.6 290 12:23 13.09.2019
2011 Clouds 20 1032 68 10000 2.6 310 11:56 13.09.2019
2012 Clouds 20 1032 68 10000 1.5 290 11:20 13.09.2019
2013 Clouds 18 1032 82 10000 1.5 120 10:41 13.09.2019
2014 Clouds 18 1032 82 10000 1.5 120 10:20 13.09.2019
2015 Clouds 16 1032 87 10000 2.1 100 09:47 13.09.2019
2016 Clouds 15 1031 93 10000 2.6 100 09:25 13.09.2019
2017 Clouds 13 1031 93 10000 3.1 100 08:59 13.09.2019
2018 Clouds 13 1031 100 10000 3.1 100 08:41 13.09.2019
2019 Clouds 12 1031 100 10000 3.1 100 08:21 13.09.2019
2020 Clouds 12 1031 93 10000 3.1 110 07:56 13.09.2019
2021 Clear 11 1031 100 10000 3.1 100 07:38 13.09.2019
2022 Clear 11 1031 100 10000 2.6 110 06:49 13.09.2019
2023 Clear 11 1031 93 10000 3.1 110 05:50 13.09.2019
2024 Clear 11 1031 93 10000 3.1 100 05:18 13.09.2019
2025 Clouds 12 1031 93 10000 3.1 100 03:41 13.09.2019
2026 Mist 13 1031 93 10000 3.1 110 02:48 13.09.2019
2027 Mist 13 1031 87 10000 3.1 110 02:18 13.09.2019
2028 Clouds 13 1031 93 10000 2.6 110 01:35 13.09.2019
2029 Clear 13 1031 87 10000 1 0 00:58 13.09.2019
2030 Clear 14 1031 87 10000 1 140 00:31 13.09.2019
2031 Clear 14 1031 82 10000 1 0 23:40 12.09.2019
2032 Clear 14 1031 82 10000 1 0 23:20 12.09.2019
2033 Clear 14 1031 82 10000 0.5 0 22:43 12.09.2019
2034 Clear 15 1031 82 10000 0.5 0 22:24 12.09.2019
2035 Clear 16 1031 82 10000 0.5 0 21:57 12.09.2019
2036 Clouds 17 1030 72 10000 1 250 21:38 12.09.2019
2037 Clear 17 1030 72 10000 1 250 21:20 12.09.2019
2038 Clear 18 1030 72 10000 1 250 20:56 12.09.2019
2039 Clouds 18 1030 64 10000 2.1 280 20:38 12.09.2019
2040 Clouds 20 1030 60 10000 2.6 280 20:20 12.09.2019
2041 Clouds 19 1030 64 10000 2.1 280 20:20 12.09.2019
2042 Clouds 20 1030 60 10000 2.6 280 19:54 12.09.2019
2043 Clouds 20 1030 56 10000 2.6 290 19:36 12.09.2019
2044 Clouds 21 1030 56 10000 2.6 290 19:18 12.09.2019
2045 Clouds 22 1030 60 10000 3.1 250 18:38 12.09.2019
2046 Clouds 22 1030 60 10000 3.1 250 18:19 12.09.2019
2047 Clouds 22 1030 60 10000 3.1 290 17:56 12.09.2019
2048 Clouds 22 1030 56 10000 3.6 280 17:38 12.09.2019
2049 Clouds 22 1030 56 10000 3.6 280 17:19 12.09.2019
2050 Clouds 22 1030 56 10000 4.6 280 16:42 12.09.2019
2051 Clouds 22 1030 56 10000 4.6 280 16:22 12.09.2019
2052 Clouds 22 1030 53 10000 3.6 260 15:45 12.09.2019
2053 Clouds 22 1030 53 10000 3.6 260 15:27 12.09.2019
2054 Clouds 22 1030 56 10000 4.1 270 14:58 12.09.2019
2055 Clouds 22 1031 53 10000 4.6 260 14:40 12.09.2019
2056 Clouds 22 1031 53 10000 4.6 260 14:40 12.09.2019
2057 Clouds 22 1031 53 10000 4.6 260 14:21 12.09.2019
2058 Clouds 21 1031 52 10000 5.1 240 13:39 12.09.2019
2059 Clouds 21 1031 52 10000 5.1 240 13:39 12.09.2019
2060 Clouds 20 1031 52 10000 5.1 240 13:21 12.09.2019
2061 Clouds 21 1031 52 10000 4.6 240 12:49 12.09.2019
2062 Clouds 19 1031 49 10000 3.6 250 12:20 12.09.2019
2063 Clouds 19 1031 49 10000 3.6 250 12:20 12.09.2019
2064 Clouds 19 1031 49 10000 4.6 240 11:58 12.09.2019
2065 Clouds 20 1030 52 10000 3.6 200 11:40 12.09.2019
2066 Clouds 19 1030 52 10000 3.6 200 11:21 12.09.2019
2067 Clouds 18 1030 55 10000 2.6 220 10:54 12.09.2019
2068 Clouds 18 1030 59 10000 2.6 240 10:36 12.09.2019
2069 Clouds 18 1030 59 10000 2.6 240 10:18 12.09.2019
2070 Clouds 16 1029 63 10000 1.5 180 09:42 12.09.2019
2071 Clouds 16 1029 63 10000 1.5 180 09:20 12.09.2019
2072 Clouds 15 1029 67 10000 1.5 150 08:44 12.09.2019
2073 Clouds 14 1029 72 10000 2.6 120 08:23 12.09.2019
2074 Clouds 14 1029 76 10000 2.1 130 07:55 12.09.2019
2075 Drizzle 14 1028 76 10000 2.6 110 07:36 12.09.2019
2076 Clouds 14 1028 76 10000 2.6 110 07:18 12.09.2019
2077 Clouds 14 1028 76 10000 2.6 110 06:45 12.09.2019
2078 Clouds 14 1028 76 10000 2.6 120 05:59 12.09.2019
2079 Clouds 14 1028 76 10000 2.6 140 05:39 12.09.2019
2080 Clouds 14 1028 76 10000 2.6 120 04:47 12.09.2019
2081 Clouds 14 1028 76 10000 1.5 200 03:23 12.09.2019
2082 Clear 13 1027 71 10000 1.5 180 01:43 12.09.2019
2083 Clear 13 1027 67 10000 1.5 160 01:23 12.09.2019
2084 Clear 13 1027 67 10000 1.5 180 00:48 12.09.2019
2085 Clear 13 1027 62 10000 1.5 190 00:28 12.09.2019
2086 Clear 13 1026 66 10000 1.5 160 23:43 11.09.2019
2087 Clear 13 1026 66 10000 1.5 160 23:25 11.09.2019
2088 Clear 13 1026 62 10000 2.1 190 22:58 11.09.2019
2089 Clear 13 1026 62 10000 1 0 22:38 11.09.2019
2090 Clear 13 1026 62 10000 1 0 22:19 11.09.2019
2091 Clear 14 1026 58 10000 1.5 200 21:57 11.09.2019
2092 Clear 14 1025 55 10000 1 240 21:39 11.09.2019
2093 Clear 15 1025 55 10000 1 240 21:20 11.09.2019
2094 Clear 16 1025 51 10000 2.1 250 20:54 11.09.2019
2095 Clear 16 1025 51 10000 2.1 250 20:36 11.09.2019
2096 Clear 17 1025 51 10000 2.1 250 20:18 11.09.2019
2097 Clear 18 1024 45 10000 3.6 260 19:55 11.09.2019
2098 Clear 18 1024 42 10000 3.6 260 19:37 11.09.2019
2099 Clear 20 1024 42 10000 3.6 260 19:18 11.09.2019
2100 Clear 20 1024 37 10000 3.6 240 18:42 11.09.2019
2101 Clear 21 1024 37 10000 3.6 240 18:22 11.09.2019
2102 Clear 21 1024 40 10000 3.1 220 17:58 11.09.2019
2103 Clear 21 1024 40 10000 3.6 240 17:39 11.09.2019
2104 Clear 21 1024 40 10000 3.6 240 17:20 11.09.2019
2105 Clear 21 1024 40 10000 1 0 16:54 11.09.2019
2106 Clear 21 1023 37 10000 2.6 310 16:36 11.09.2019
2107 Clear 21 1023 37 10000 2.6 310 16:18 11.09.2019
2108 Clear 21 1024 37 10000 3.1 250 15:45 11.09.2019
2109 Clear 21 1024 37 10000 2.1 240 15:22 11.09.2019
2110 Clear 21 1024 40 10000 2.6 170 14:57 11.09.2019
2111 Clouds 21 1024 37 10000 1 0 14:37 11.09.2019
2112 Clouds 20 1024 37 10000 1 0 14:18 11.09.2019
2113 Clouds 20 1024 37 10000 1 0 13:40 11.09.2019
2114 Clouds 20 1024 37 10000 1 0 13:22 11.09.2019
2115 Clouds 20 1024 42 10000 1 0 12:59 11.09.2019
2116 Clouds 20 1024 42 10000 1 0 12:59 11.09.2019
2117 Clouds 20 1024 52 10000 1.5 0 12:38 11.09.2019
2118 Clouds 19 1024 52 10000 1.5 0 12:20 11.09.2019
2119 Clear 17 1024 67 10000 1 0 11:40 11.09.2019
2120 Clear 16 1024 67 10000 1 0 11:21 11.09.2019
2121 Rain 16 1024 71 10000 1 0 10:57 11.09.2019
2122 Clear 15 1024 71 10000 0.5 0 10:39 11.09.2019
2123 Clear 13 1024 76 10000 0.5 0 10:20 11.09.2019
2124 Clear 10 1024 81 10000 0.5 0 09:40 11.09.2019
2125 Mist 8 1023 93 10000 0.5 0 09:20 11.09.2019
2126 Mist 8 1023 93 10000 0.5 0 08:56 11.09.2019
2127 Fog 7 1023 100 10000 0.5 0 08:38 11.09.2019
2128 Fog 6 1023 100 10000 0.5 0 08:20 11.09.2019
2129 Fog 5 1023 100 10000 0.5 0 07:40 11.09.2019
2130 Fog 5 1023 100 10000 0.5 0 07:22 11.09.2019
2131 Fog 5 1023 100 10000 0.5 0 06:48 11.09.2019
2132 Fog 5 1022 100 10000 0.5 0 06:29 11.09.2019
2133 Fog 5 1022 100 10000 1 360 05:37 11.09.2019
2134 Fog 5 1022 100 10000 1 360 05:19 11.09.2019
2135 Fog 6 1022 100 10000 0.5 0 04:23 11.09.2019
2136 Fog 6 1022 93 10000 0.5 80 03:31 11.09.2019
2137 Fog 7 1022 100 10000 0.5 80 02:41 11.09.2019
2138 Mist 7 1021 100 10000 1 0 01:50 11.09.2019
2139 Fog 8 1021 93 10000 1 110 00:49 11.09.2019
2140 Clear 9 1021 93 10000 0.5 0 00:20 11.09.2019
2141 Clear 8 1021 93 10000 1 0 23:41 10.09.2019
2142 Clear 9 1021 93 10000 1 0 23:22 10.09.2019
2143 Clear 9 1021 93 10000 1 0 23:22 10.09.2019
2144 Clear 10 1021 87 10000 2.1 100 22:59 10.09.2019
2145 Clear 10 1021 81 10000 2.6 100 22:41 10.09.2019
2146 Clear 10 1021 81 10000 2.6 100 22:19 10.09.2019
2147 Clear 10 1021 76 10000 1.5 110 21:55 10.09.2019
2148 Clear 11 1020 81 10000 1.5 50 21:37 10.09.2019
2149 Clear 12 1020 81 10000 1.5 50 21:18 10.09.2019
2150 Clear 13 1020 76 10000 2.1 70 20:57 10.09.2019
2151 Clear 13 1019 62 10000 2.1 50 20:38 10.09.2019
2152 Clear 13 1019 62 10000 2.1 50 20:38 10.09.2019
2153 Clear 13 1019 62 10000 2.1 50 20:19 10.09.2019
2154 Clear 15 1019 59 10000 1.5 50 19:55 10.09.2019
2155 Clear 15 1019 63 10000 1.5 30 19:36 10.09.2019
2156 Clear 16 1019 63 10000 1.5 30 19:18 10.09.2019
2157 Clouds 17 1019 52 10000 2.6 30 18:45 10.09.2019
2158 Clouds 18 1018 48 10000 2.1 40 18:23 10.09.2019
2159 Clouds 18 1018 48 10000 2.1 330 17:59 10.09.2019
2160 Clouds 18 1018 48 10000 1 0 17:40 10.09.2019
2161 Clouds 18 1018 48 10000 1 0 17:20 10.09.2019
2162 Clouds 18 1018 45 10000 1.5 200 16:57 10.09.2019
2163 Clouds 18 1018 42 10000 1.5 0 16:38 10.09.2019
2164 Clouds 18 1018 42 10000 1.5 0 16:19 10.09.2019
2165 Clear 18 1018 42 10000 1 0 15:44 10.09.2019
2166 Clouds 18 1018 48 10000 1 0 15:23 10.09.2019
2167 Clouds 18 1018 51 10000 1 0 14:58 10.09.2019
2168 Clouds 18 1018 48 10000 1.5 0 14:39 10.09.2019
2169 Clouds 18 1018 48 10000 1.5 0 14:21 10.09.2019
2170 Drizzle 17 1019 67 10000 1.5 120 13:47 10.09.2019
2171 Drizzle 17 1019 67 10000 1.5 120 13:47 10.09.2019
2172 Drizzle 17 1019 67 10000 1.5 120 13:23 10.09.2019
2173 Rain 16 1018 63 10000 1.5 0 12:54 10.09.2019
2174 Clouds 15 1019 72 10000 2.1 90 12:36 10.09.2019
2175 Mist 15 1019 77 0 1.5 0 12:18 10.09.2019
2176 Mist 13 1018 76 10000 1.5 100 11:41 10.09.2019
2177 Mist 13 1018 76 10000 1.5 100 11:22 10.09.2019
2178 Mist 12 1018 76 10000 2.1 110 10:54 10.09.2019
2179 Fog 11 1018 81 9000 1.5 80 10:36 10.09.2019
2180 Fog 10 1018 87 8000 1.5 130 10:18 10.09.2019
2181 Fog 10 1018 93 8000 2.6 110 09:43 10.09.2019
2182 Mist 10 1018 93 8000 2.6 110 09:20 10.09.2019
2183 Mist 8 1017 93 8000 2.6 100 08:48 10.09.2019
2184 Fog 8 1017 100 8000 2.1 120 08:29 10.09.2019
2185 Fog 8 1017 100 8000 2.1 120 08:29 10.09.2019
2186 Fog 7 1017 100 1000 0.98 144.889 07:59 10.09.2019
2187 Mist 7 1017 100 4000 0.98 144.889 07:41 10.09.2019
2188 Mist 7 1017 100 4000 0.98 144.889 07:41 10.09.2019
2189 Mist 7 1017 100 4000 0.98 144.889 07:23 10.09.2019
2190 Mist 7 1016 100 1800 0.98 144.889 06:40 10.09.2019
2191 Mist 7 1016 100 1800 0.98 144.889 06:40 10.09.2019
2192 Mist 7 1016 100 6000 3.1 100 06:20 10.09.2019
2193 Mist 7 1016 100 1600 0.59 187.185 04:19 10.09.2019
2194 Fog 8 1016 100 10000 2.1 100 02:39 10.09.2019
2195 Fog 8 1016 100 10000 2.1 100 02:39 10.09.2019
2196 Fog 8 1016 100 10000 2.1 100 02:39 10.09.2019
2197 Fog 8 1016 100 10000 2.1 100 02:39 10.09.2019
2198 Fog 8 1016 100 10000 2.1 100 02:39 10.09.2019
2199 Fog 8 1016 100 10000 2.1 100 02:20 10.09.2019
2200 Fog 8 1016 100 10000 2.1 100 02:20 10.09.2019
2201 Fog 8 1016 100 10000 2.1 100 02:20 10.09.2019
2202 Mist 9 1016 100 10000 1 0 01:50 10.09.2019
2203 Mist 9 1016 93 10000 1.5 180 01:22 10.09.2019
2204 Clear 9 1016 93 10000 1.5 150 00:36 10.09.2019
2205 Mist 9 1016 100 10000 1 160 23:58 09.09.2019
2206 Mist 9 1016 93 10000 1.5 140 23:40 09.09.2019
2207 Mist 10 1015 93 10000 1 0 23:18 09.09.2019
2208 Mist 10 1015 93 10000 1 0 22:54 09.09.2019
2209 Mist 10 1015 93 10000 0.5 0 22:36 09.09.2019
2210 Rain 11 1016 87 10000 1.5 240 22:18 09.09.2019
2211 Rain 11 1016 87 10000 1.5 240 21:55 09.09.2019
2212 Rain 11 1016 87 10000 1.5 240 21:55 09.09.2019
2213 Rain 11 1015 81 10000 1.5 230 21:36 09.09.2019
2214 Clouds 12 1015 81 10000 1.5 230 21:18 09.09.2019
2215 Clouds 12 1015 87 10000 2.6 250 20:55 09.09.2019
2216 Clouds 12 1015 87 10000 2.6 250 20:55 09.09.2019
2217 Rain 12 1015 82 10000 3.1 270 20:36 09.09.2019
2218 Rain 13 1015 82 10000 3.1 270 20:18 09.09.2019
2219 Rain 13 1015 76 10000 3.1 250 19:55 09.09.2019
2220 Rain 13 1015 76 10000 3.1 250 19:37 09.09.2019
2221 Clouds 13 1014 76 10000 5.7 240 19:18 09.09.2019
2222 Clouds 13 1014 76 10000 5.7 240 19:18 09.09.2019
2223 Clouds 14 1014 76 10000 5.7 240 18:54 09.09.2019
2224 Clouds 14 1014 72 10000 4.6 250 18:36 09.09.2019
2225 Clouds 14 1014 72 10000 4.6 250 18:36 09.09.2019
2226 Clouds 14 1014 72 10000 3.6 270 18:18 09.09.2019
2227 Clouds 14 1014 72 10000 5.1 260 17:41 09.09.2019
2228 Clouds 14 1014 72 10000 5.1 260 17:41 09.09.2019
2229 Clouds 14 1014 72 10000 5.1 260 17:22 09.09.2019
2230 Clouds 14 1014 72 10000 5.7 260 16:59 09.09.2019
2231 Clouds 14 1015 82 10000 4.6 260 16:40 09.09.2019
2232 Clouds 14 1014 76 10000 6.2 280 16:21 09.09.2019
2233 Clouds 14 1015 87 10000 3.6 270 15:56 09.09.2019
2234 Rain 14 1015 87 10000 4.1 280 15:38 09.09.2019
2235 Rain 13 1014 82 10000 6.2 270 15:19 09.09.2019
2236 Rain 13 1015 87 10000 5.7 270 14:57 09.09.2019
2237 Rain 13 1015 87 10000 5.1 290 14:38 09.09.2019
2238 Rain 13 1014 87 10000 4.6 280 14:20 09.09.2019
2239 Rain 12 1014 87 10000 5.1 280 13:45 09.09.2019
2240 Rain 12 1015 93 10000 4.6 280 13:21 09.09.2019
2241 Rain 12 1015 93 10000 4.6 280 12:58 09.09.2019
2242 Rain 12 1015 93 10000 4.6 280 12:58 09.09.2019
2243 Rain 12 1015 93 10000 4.1 280 12:40 09.09.2019
2244 Rain 12 1015 93 10000 4.1 280 12:40 09.09.2019
2245 Drizzle 12 1015 93 10000 3.1 290 12:20 09.09.2019
2246 Rain 12 1014 87 10000 4.6 280 11:48 09.09.2019
2247 Drizzle 11 1013 93 10000 4.1 280 11:24 09.09.2019
2248 Rain 11 1013 93 10000 4.1 280 10:59 09.09.2019
2249 Rain 11 1014 100 10000 3.6 280 10:41 09.09.2019
2250 Drizzle 11 1013 93 9000 4.6 280 10:21 09.09.2019
2251 Drizzle 11 1013 93 10000 4.6 290 09:57 09.09.2019
2252 Drizzle 11 1013 93 10000 4.6 290 09:57 09.09.2019
2253 Drizzle 11 1014 100 10000 3.6 280 09:38 09.09.2019
2254 Drizzle 11 1013 93 10000 3.6 300 09:19 09.09.2019
2255 Mist 11 1014 100 10000 3.6 290 08:39 09.09.2019
2256 Mist 11 1014 100 10000 3.6 290 08:39 09.09.2019
2257 Mist 11 1013 93 10000 4.1 300 08:20 09.09.2019
2258 Mist 11 1013 93 10000 4.1 300 08:20 09.09.2019
2259 Mist 11 1013 93 10000 4.1 300 08:20 09.09.2019
2260 Clouds 11 1013 93 10000 3.1 290 07:46 09.09.2019
2261 Clouds 11 1013 93 10000 3.1 290 07:23 09.09.2019
2262 Clouds 11 1014 100 10000 3.1 290 06:57 09.09.2019
2263 Clouds 11 1014 100 10000 3.1 290 06:57 09.09.2019
2264 Rain 11 1014 100 10000 2.1 310 06:35 09.09.2019
2265 Rain 11 1013 93 10000 4.1 300 04:56 09.09.2019
2266 Rain 11 1014 93 10000 2.6 300 02:54 09.09.2019
2267 Rain 11 1014 93 10000 3.6 320 02:34 09.09.2019
2268 Rain 11 1015 100 10000 2.1 290 00:43 09.09.2019
2269 Rain 11 1015 100 10000 2.1 320 00:22 09.09.2019
2270 Rain 11 1016 100 10000 1.5 270 23:45 08.09.2019
2271 Rain 11 1016 100 10000 1.5 270 23:24 08.09.2019
2272 Rain 11 1016 100 10000 2.6 270 22:56 08.09.2019
2273 Rain 11 1015 93 10000 1.5 320 22:37 08.09.2019
2274 Rain 11 1015 93 10000 1.5 320 22:19 08.09.2019
2275 Rain 11 1017 100 10000 2.6 260 21:42 08.09.2019
2276 Rain 12 1016 100 10000 2.1 190 21:23 08.09.2019
2277 Rain 11 1016 100 10000 2.1 190 20:58 08.09.2019
2278 Rain 12 1016 100 10000 1 0 20:39 08.09.2019
2279 Rain 12 1016 93 10000 2.6 90 20:20 08.09.2019
2280 Rain 12 1016 93 10000 2.6 90 19:58 08.09.2019
2281 Rain 12 1016 87 10000 3.6 80 19:37 08.09.2019
2282 Rain 12 1016 87 10000 3.6 80 19:19 08.09.2019
2283 Rain 13 1016 82 10000 4.6 80 18:57 08.09.2019
2284 Rain 13 1016 82 10000 2.1 60 18:38 08.09.2019
2285 Rain 14 1015 77 10000 1.5 70 18:18 08.09.2019
2286 Rain 15 1015 77 10000 1.5 70 17:54 08.09.2019
2287 Rain 15 1016 67 10000 0.86 268.928 17:36 08.09.2019
2288 Rain 15 1015 63 10000 1 0 17:18 08.09.2019
2289 Rain 16 1016 63 10000 0.5 0 16:42 08.09.2019
2290 Rain 16 1016 63 10000 0.5 0 16:21 08.09.2019
2291 Rain 16 1016 63 10000 1.5 110 15:57 08.09.2019
2292 Rain 16 1016 63 10000 1.5 110 15:57 08.09.2019
2293 Rain 16 1016 63 0 1 0 15:39 08.09.2019
2294 Rain 16 1016 63 0 1 0 15:20 08.09.2019
2295 Clouds 16 1016 63 10000 1.5 80 14:41 08.09.2019
2296 Clouds 16 1016 67 10000 1.5 80 14:23 08.09.2019
2297 Clouds 16 1016 67 10000 1.5 80 13:59 08.09.2019
2298 Clouds 16 1017 72 10000 1 0 13:40 08.09.2019
2299 Clouds 16 1017 72 10000 1 0 13:22 08.09.2019
2300 Clouds 16 1017 77 10000 0.5 0 12:59 08.09.2019
2301 Clouds 16 1017 72 10000 1.5 310 12:41 08.09.2019
2302 Clouds 15 1017 72 10000 1.5 310 12:22 08.09.2019
2303 Clouds 16 1017 72 10000 1.5 310 12:22 08.09.2019
2304 Clouds 14 1017 82 10000 0.5 0 11:57 08.09.2019
2305 Clouds 14 1017 82 10000 0.5 0 11:38 08.09.2019
2306 Clear 13 1017 82 10000 1 0 11:19 08.09.2019
2307 Mist 13 1017 87 10000 1 0 10:43 08.09.2019
2308 Mist 12 1017 93 10000 1 0 10:23 08.09.2019
2309 Mist 12 1017 93 10000 1 0 09:58 08.09.2019
2310 Mist 12 1018 100 5000 0.59 357.485 09:38 08.09.2019
2311 Mist 11 1017 93 10000 0.5 0 09:19 08.09.2019
2312 Fog 10 1017 93 10000 1 20 08:40 08.09.2019
2313 Fog 10 1017 93 10000 1 20 08:19 08.09.2019
2314 Fog 9 1017 100 10000 1 220 07:59 08.09.2019
2315 Fog 9 1017 93 10000 0.5 90 07:37 08.09.2019
2316 Fog 9 1017 100 10000 1.5 60 07:19 08.09.2019
2317 Fog 9 1017 100 10000 1.5 60 06:44 08.09.2019
2318 Mist 10 1017 100 10000 0.5 0 05:45 08.09.2019
2319 Mist 10 1017 100 10000 0.5 0 05:27 08.09.2019
2320 Mist 10 1018 93 10000 0.5 0 03:30 08.09.2019
2321 Mist 10 1018 93 10000 0.5 0 02:51 08.09.2019
2322 Mist 11 1018 81 10000 0.5 100 01:57 08.09.2019
2323 Mist 11 1018 81 10000 0.5 0 01:34 08.09.2019
2324 Mist 11 1019 82 10000 1 0 00:50 08.09.2019
2325 Mist 12 1019 82 10000 1 0 00:32 08.09.2019
2326 Mist 12 1019 76 10000 0.5 0 23:59 07.09.2019
2327 Mist 12 1019 67 10000 0.5 0 23:37 07.09.2019
2328 Mist 12 1019 67 10000 0.5 0 23:19 07.09.2019
2329 Mist 12 1019 67 10000 1.5 100 22:44 07.09.2019
2330 Mist 12 1020 100 5000 1.25 279.032 22:25 07.09.2019
2331 Mist 12 1020 100 3200 1.25 279.032 21:59 07.09.2019
2332 Mist 12 1019 62 10000 0.5 0 21:39 07.09.2019
2333 Mist 13 1019 62 10000 0.5 0 21:21 07.09.2019
2334 Mist 13 1018 58 10000 2.1 250 20:41 07.09.2019
2335 Rain 14 1018 58 10000 2.1 250 20:22 07.09.2019
2336 Rain 14 1018 51 10000 2.1 260 19:57 07.09.2019
2337 Rain 14 1018 51 10000 1.5 270 19:38 07.09.2019
2338 Rain 15 1018 51 10000 1.5 270 19:20 07.09.2019
2339 Rain 15 1018 48 10000 1.5 270 18:59 07.09.2019
2340 Rain 15 1018 51 10000 3.6 290 18:40 07.09.2019
2341 Rain 16 1018 51 10000 3.6 290 18:20 07.09.2019
2342 Rain 16 1018 51 10000 3.6 290 17:59 07.09.2019
2343 Rain 16 1018 51 10000 5.1 280 17:39 07.09.2019
2344 Rain 16 1018 51 10000 4.6 280 17:18 07.09.2019
2345 Rain 16 1018 51 10000 4.6 280 16:56 07.09.2019
2346 Rain 16 1018 51 10000 2.6 310 16:38 07.09.2019
2347 Rain 17 1018 51 10000 2.6 310 16:18 07.09.2019
2348 Clouds 17 1018 51 10000 3.1 260 15:44 07.09.2019
2349 Clouds 17 1018 51 10000 3.1 260 15:25 07.09.2019
2350 Clouds 18 1018 55 10000 3.1 160 14:56 07.09.2019
2351 Clouds 18 1018 55 10000 3.1 160 14:36 07.09.2019
2352 Clouds 18 1018 55 10000 3.1 160 14:36 07.09.2019
2353 Clouds 18 1018 55 10000 3.1 160 14:18 07.09.2019
2354 Clouds 18 1018 55 10000 2.1 0 13:55 07.09.2019
2355 Clouds 18 1018 55 10000 2.1 0 13:55 07.09.2019
2356 Clouds 18 1019 59 10000 3.1 180 13:37 07.09.2019
2357 Clouds 18 1019 59 10000 3.1 180 13:18 07.09.2019
2358 Clouds 18 1019 59 10000 3.1 180 13:18 07.09.2019
2359 Clouds 17 1019 63 10000 2.6 150 12:42 07.09.2019
2360 Clouds 17 1019 63 10000 2.6 150 12:23 07.09.2019
2361 Rain 15 1019 77 10000 2.1 190 11:41 07.09.2019
2362 Rain 15 1019 82 10000 2.1 190 11:22 07.09.2019
2363 Rain 14 1019 76 10000 2.1 180 10:56 07.09.2019
2364 Rain 14 1019 76 10000 2.1 180 10:37 07.09.2019
2365 Drizzle 14 1019 82 10000 2.1 170 10:18 07.09.2019
2366 Rain 13 1019 87 10000 1 0 09:42 07.09.2019
2367 Rain 13 1019 87 10000 1 0 09:22 07.09.2019
2368 Rain 13 1019 87 10000 1 0 09:22 07.09.2019
2369 Rain 12 1019 93 10000 1 0 08:55 07.09.2019
2370 Rain 12 1019 87 10000 1.5 180 08:36 07.09.2019
2371 Rain 12 1019 93 10000 1.5 100 08:18 07.09.2019
2372 Rain 12 1019 93 10000 0.5 0 07:43 07.09.2019
2373 Rain 12 1019 93 10000 0.5 0 07:22 07.09.2019
2374 Rain 12 1019 87 10000 2.1 90 06:42 07.09.2019
2375 Rain 13 1019 82 10000 1 100 05:40 07.09.2019
2376 Rain 13 1019 87 10000 0.5 0 04:26 07.09.2019
2377 Rain 13 1019 87 10000 0.5 360 03:41 07.09.2019
2378 Rain 14 1020 76 10000 0.5 0 02:22 07.09.2019
2379 Rain 14 1020 76 10000 0.5 0 01:29 07.09.2019
2380 Rain 14 1020 82 10000 0.5 330 00:55 07.09.2019
2381 Drizzle 14 1020 76 10000 0.5 0 00:36 07.09.2019
2382 Clear 15 1020 82 10000 0.5 0 00:18 07.09.2019
2383 Clear 15 1020 72 10000 1 60 23:38 06.09.2019
2384 Clear 15 1020 72 10000 1 320 23:19 06.09.2019
2385 Clear 15 1020 72 10000 1 320 22:56 06.09.2019
2386 Clear 15 1020 72 10000 0.5 0 22:36 06.09.2019
2387 Clouds 15 1021 67 10000 1.5 130 22:18 06.09.2019
2388 Clouds 15 1021 67 10000 1.5 130 22:18 06.09.2019
2389 Clouds 16 1021 67 10000 1.5 130 21:54 06.09.2019
2390 Clear 16 1021 59 10000 0.5 20 21:36 06.09.2019
2391 Clear 16 1021 59 10000 0.5 20 21:36 06.09.2019
2392 Clear 16 1020 63 10000 0.5 360 21:18 06.09.2019
2393 Clear 16 1020 59 10000 1 360 20:41 06.09.2019
2394 Clear 16 1020 59 10000 1 360 20:22 06.09.2019
2395 Clear 17 1021 59 10000 0.5 0 19:59 06.09.2019
2396 Clear 17 1021 52 10000 0.5 0 19:41 06.09.2019
2397 Clear 17 1021 52 10000 0.5 0 19:41 06.09.2019
2398 Clear 18 1021 52 10000 1 0 19:21 06.09.2019
2399 Clear 18 1021 52 10000 1 0 18:55 06.09.2019
2400 Clear 18 1021 48 10000 1.5 10 18:37 06.09.2019
2401 Clear 18 1021 48 10000 1.5 10 18:37 06.09.2019
2402 Clear 18 1021 48 10000 1 0 18:18 06.09.2019
2403 Clear 18 1021 48 10000 1.5 10 17:39 06.09.2019
2404 Clear 18 1021 48 10000 1.5 10 17:20 06.09.2019
2405 Clear 18 1022 48 10000 1.5 30 16:43 06.09.2019
2406 Clear 19 1022 52 10000 2.1 20 16:20 06.09.2019
2407 Clear 19 1022 52 10000 2.1 20 15:59 06.09.2019
2408 Clear 19 1022 48 10000 1.5 10 15:41 06.09.2019
2409 Clear 20 1022 45 10000 2.1 350 15:22 06.09.2019
2410 Clouds 20 1023 48 10000 1.5 320 14:46 06.09.2019
2411 Clouds 19 1023 48 10000 2.1 310 14:19 06.09.2019
2412 Clouds 19 1023 52 10000 1.5 0 13:44 06.09.2019
2413 Clouds 18 1023 52 10000 1.5 0 13:23 06.09.2019
2414 Clouds 17 1023 52 10000 1 0 12:57 06.09.2019
2415 Clouds 17 1024 55 10000 1.5 0 12:37 06.09.2019
2416 Clouds 16 1024 55 10000 1.5 0 12:18 06.09.2019
2417 Clear 15 1024 62 10000 2.1 0 11:41 06.09.2019
2418 Clear 15 1024 62 10000 2.1 0 11:23 06.09.2019
2419 Clear 14 1024 67 10000 2.1 30 10:56 06.09.2019
2420 Clear 14 1024 67 10000 2.1 30 10:56 06.09.2019
2421 Clear 14 1024 67 10000 1 0 10:38 06.09.2019
2422 Clear 13 1024 67 10000 1 0 10:18 06.09.2019
2423 Clear 12 1024 76 10000 2.1 340 09:38 06.09.2019
2424 Clear 11 1024 76 10000 2.1 340 09:20 06.09.2019
2425 Clear 11 1025 81 10000 2.6 350 08:55 06.09.2019
2426 Clear 11 1025 81 10000 2.6 350 08:55 06.09.2019
2427 Clear 10 1025 87 10000 1.5 360 08:37 06.09.2019
2428 Clear 10 1025 93 10000 1.5 20 08:18 06.09.2019
2429 Clear 10 1025 93 10000 1.5 20 08:18 06.09.2019
2430 Clear 9 1024 93 10000 1 350 07:42 06.09.2019
2431 Clear 9 1024 93 10000 1 350 07:42 06.09.2019
2432 Clear 9 1024 93 10000 1 350 07:23 06.09.2019
2433 Clear 9 1024 87 10000 0.5 0 06:43 06.09.2019
2434 Clear 9 1024 93 10000 1 0 05:58 06.09.2019
2435 Clear 9 1024 93 10000 0.5 0 04:57 06.09.2019
2436 Clear 9 1024 93 10000 1 320 04:33 06.09.2019
2437 Clear 10 1024 87 10000 1 0 03:29 06.09.2019
2438 Clear 11 1024 76 10000 2.6 350 01:47 06.09.2019
2439 Clear 12 1023 66 10000 1 260 00:23 06.09.2019
2440 Clear 12 1023 76 10000 2.1 330 00:23 06.09.2019
2441 Clear 13 1023 66 10000 0.5 0 23:43 05.09.2019
2442 Clear 13 1023 66 10000 0.5 0 23:23 05.09.2019
2443 Clear 13 1022 62 10000 0.5 0 22:47 05.09.2019
2444 Clear 13 1022 62 10000 0.5 0 22:28 05.09.2019
2445 Clear 14 1022 58 10000 1 0 21:58 05.09.2019
2446 Clear 14 1021 58 10000 2.1 310 21:40 05.09.2019
2447 Clear 15 1021 58 10000 2.1 310 21:20 05.09.2019
2448 Clear 16 1021 55 10000 2.1 290 20:58 05.09.2019
2449 Clear 16 1021 55 10000 2.1 290 20:58 05.09.2019
2450 Clear 16 1021 48 10000 3.1 310 20:40 05.09.2019
2451 Clear 17 1021 48 10000 3.1 310 20:22 05.09.2019
2452 Clear 17 1020 45 10000 4.1 310 19:59 05.09.2019
2453 Clear 17 1020 45 10000 4.1 310 19:41 05.09.2019
2454 Clear 18 1020 45 10000 4.1 310 19:22 05.09.2019
2455 Clear 18 1020 42 10000 6.2 310 18:56 05.09.2019
2456 Clear 18 1020 45 10000 4.6 310 18:38 05.09.2019
2457 Clear 19 1020 42 10000 6.2 310 18:18 05.09.2019
2458 Clouds 20 1019 40 0 5.1 300 17:40 05.09.2019
2459 Clouds 20 1019 40 0 5.1 300 17:40 05.09.2019
2460 Clouds 20 1019 40 0 5.1 300 17:22 05.09.2019
2461 Clear 19 1019 42 10000 5.1 280 16:58 05.09.2019
2462 Clear 19 1019 45 10000 4.1 320 16:40 05.09.2019
2463 Clear 20 1019 45 10000 4.1 320 16:19 05.09.2019
2464 Clear 20 1019 39 10000 5.7 290 15:40 05.09.2019
2465 Clear 20 1019 39 10000 5.7 290 15:40 05.09.2019
2466 Clear 20 1019 39 10000 5.7 290 15:19 05.09.2019
2467 Clear 20 1019 42 10000 6.2 290 14:58 05.09.2019
2468 Clear 20 1018 45 10000 5.7 310 14:40 05.09.2019
2469 Clear 20 1018 42 10000 6.2 300 14:19 05.09.2019
2470 Clouds 20 1018 45 10000 6.2 300 13:43 05.09.2019
2471 Clouds 19 1018 45 10000 6.2 300 13:21 05.09.2019
2472 Clouds 19 1018 59 10000 5.7 270 12:47 05.09.2019
2473 Clouds 18 1018 63 10000 4.6 290 12:27 05.09.2019
2474 Clouds 18 1018 63 10000 4.6 290 11:58 05.09.2019
2475 Clouds 18 1018 67 10000 5.7 290 11:40 05.09.2019
2476 Clouds 17 1018 67 10000 4.6 300 11:19 05.09.2019
2477 Clouds 17 1018 67 10000 5.7 290 11:19 05.09.2019
2478 Clouds 17 1017 72 10000 5.1 290 10:42 05.09.2019
2479 Rain 17 1017 72 10000 5.1 290 10:22 05.09.2019
2480 Clouds 17 1017 77 10000 4.6 290 09:58 05.09.2019
2481 Clouds 17 1017 77 10000 4.6 290 09:58 05.09.2019
2482 -273 0 0 0 0 0 09:40 05.09.2019
2483 Clouds 16 1017 82 10000 2.6 290 09:18 05.09.2019
2484 Clouds 15 1016 82 10000 2.1 290 08:46 05.09.2019
2485 Clouds 15 1016 82 10000 2.1 290 08:26 05.09.2019
2486 Clouds 14 1016 87 10000 1.5 270 07:46 05.09.2019
2487 Clouds 14 1016 87 10000 1.5 270 07:28 05.09.2019
2488 Clouds 13 1016 87 10000 1.5 270 06:58 05.09.2019
2489 Clear 13 1015 82 10000 1 0 06:31 05.09.2019
2490 Clear 13 1015 82 10000 1 0 06:31 05.09.2019
2491 Clear 13 1015 76 10000 0.5 0 05:51 05.09.2019
2492 Clear 13 1015 76 10000 0.5 0 05:32 05.09.2019
2493 Clear 13 1015 82 10000 1 0 04:53 05.09.2019
2494 Clear 13 1015 76 10000 1 0 04:28 05.09.2019
2495 Clear 13 1015 81 10000 1 0 03:40 05.09.2019
2496 Clear 13 1014 76 10000 3.1 100 02:51 05.09.2019
2497 Clear 13 1014 71 10000 3.1 100 02:27 05.09.2019
2498 Clear 13 1014 71 10000 3.1 110 01:37 05.09.2019
2499 Clear 14 1014 67 10000 3.1 120 00:46 05.09.2019
2500 Clear 14 1014 67 10000 3.1 120 00:21 05.09.2019
2501 Clear 14 1014 71 10000 2.6 120 23:56 04.09.2019
2502 Clear 14 1014 67 10000 1 0 23:37 04.09.2019
2503 Clear 15 1014 63 10000 0.5 0 23:18 04.09.2019
2504 Clear 16 1014 59 10000 0.5 0 22:41 04.09.2019
2505 Clear 17 1014 59 10000 0.5 0 22:19 04.09.2019
2506 Clear 18 1014 52 10000 1.5 250 21:40 04.09.2019
2507 Clear 20 1014 40 10000 1.5 230 21:20 04.09.2019
2508 Clear 20 1014 40 10000 1.5 230 21:20 04.09.2019
2509 Clear 18 1014 52 10000 1.5 250 21:20 04.09.2019
2510 Clear 20 1014 40 10000 1.5 230 20:57 04.09.2019
2511 Clear 21 1014 40 10000 2.6 200 20:39 04.09.2019
2512 Clear 22 1014 38 10000 2.6 200 20:19 04.09.2019
2513 Clear 23 1014 38 10000 2.6 200 19:57 04.09.2019
2514 Clear 24 1014 38 10000 2.6 200 19:38 04.09.2019
2515 Clear 24 1014 33 10000 2.6 190 19:19 04.09.2019
2516 Clear 25 1014 31 10000 4.1 200 18:39 04.09.2019
2517 Clear 26 1014 27 10000 3.1 230 18:20 04.09.2019
2518 Clear 26 1014 27 10000 3.1 230 17:54 04.09.2019
2519 Clear 26 1015 29 10000 4.6 180 17:36 04.09.2019
2520 Clear 26 1015 29 10000 4.6 180 17:36 04.09.2019
2521 Clear 26 1015 29 10000 4.6 180 17:18 04.09.2019
2522 Clear 26 1015 29 10000 4.6 220 16:42 04.09.2019
2523 Clear 26 1015 29 10000 4.6 220 16:24 04.09.2019
2524 Clear 25 1016 31 0 4.6 0 15:56 04.09.2019
2525 Clear 26 1016 31 10000 2.6 220 15:38 04.09.2019
2526 Clear 25 1017 33 10000 3.6 180 15:20 04.09.2019
2527 Clear 25 1017 33 10000 3.6 180 15:20 04.09.2019
2528 Clear 26 1017 33 10000 3.6 180 14:55 04.09.2019
2529 Clear 26 1017 33 10000 3.6 180 14:55 04.09.2019
2530 Clear 25 1017 36 10000 3.1 190 14:37 04.09.2019
2531 Clear 24 1017 36 10000 3.1 200 14:18 04.09.2019
2532 Clear 24 1018 36 10000 4.1 190 13:40 04.09.2019
2533 Clear 24 1018 38 10000 4.1 160 13:22 04.09.2019
2534 Clear 24 1018 38 10000 4.1 160 12:57 04.09.2019
2535 Clear 24 1019 38 10000 4.6 170 12:38 04.09.2019
2536 Clear 24 1019 38 10000 4.6 170 12:38 04.09.2019
2537 Clear 23 1019 37 10000 3.6 200 12:19 04.09.2019
2538 Clear 21 1019 43 10000 3.6 160 11:41 04.09.2019
2539 Clear 21 1019 43 10000 3.6 160 11:21 04.09.2019
2540 Clear 20 1020 45 10000 3.6 160 10:59 04.09.2019
2541 Clear 19 1020 45 10000 3.6 160 10:59 04.09.2019
2542 Clear 19 1020 52 10000 2.1 130 10:41 04.09.2019
2543 Clear 18 1020 52 10000 2.1 130 10:23 04.09.2019
2544 Clear 16 1020 59 10000 3.1 120 09:47 04.09.2019
2545 Clear 14 1020 62 10000 3.6 120 09:27 04.09.2019
2546 Clear 13 1021 66 10000 2.6 120 08:59 04.09.2019
2547 Clear 11 1020 81 10000 3.1 110 08:40 04.09.2019
2548 Clear 10 1020 81 10000 3.1 110 08:21 04.09.2019
2549 Clear 9 1020 81 10000 2.6 120 07:48 04.09.2019
2550 Clear 8 1020 81 10000 2.6 120 07:29 04.09.2019
2551 Clear 8 1021 87 10000 2.6 120 06:39 04.09.2019
2552 Clear 8 1021 87 10000 2.6 110 05:19 04.09.2019
2553 Clear 9 1021 81 10000 3.1 110 04:51 04.09.2019
2554 Clear 9 1022 76 10000 3.6 100 03:45 04.09.2019
2555 Clear 11 1023 76 10000 4.1 100 01:27 04.09.2019
2556 Clear 11 1023 76 10000 4.1 100 01:27 04.09.2019
2557 Clear 11 1023 76 10000 4.1 100 00:54 04.09.2019
2558 Clear 11 1023 71 10000 3.1 110 00:32 04.09.2019
2559 Clear 12 1023 66 10000 3.1 100 23:54 03.09.2019
2560 Clear 13 1023 66 10000 3.6 100 23:28 03.09.2019
2561 Clear 13 1023 54 10000 3.1 100 22:59 03.09.2019
2562 Clear 14 1023 62 10000 1.5 110 22:40 03.09.2019
2563 Clear 14 1023 62 10000 1.5 110 22:21 03.09.2019
2564 Clear 15 1023 54 10000 1.5 100 21:56 03.09.2019
2565 Clear 15 1023 54 10000 1.5 100 21:56 03.09.2019
2566 Clear 15 1023 42 10000 1 110 21:36 03.09.2019
2567 Clear 18 1023 45 10000 0.5 0 21:18 03.09.2019
2568 Clear 18 1023 45 10000 0.5 0 20:42 03.09.2019
2569 Clear 19 1023 45 10000 0.5 0 20:24 03.09.2019
2570 Clear 19 1023 45 10000 0.5 0 20:24 03.09.2019
2571 Clear 20 1023 40 10000 2.1 280 19:56 03.09.2019
2572 Clear 20 1023 40 10000 2.1 280 19:56 03.09.2019
2573 Clear 21 1023 37 10000 2.6 280 19:38 03.09.2019
2574 Clear 21 1023 33 10000 3.1 290 19:19 03.09.2019
2575 Clear 22 1023 31 10000 3.1 260 18:45 03.09.2019
2576 Clear 23 1023 31 10000 3.1 260 18:27 03.09.2019
2577 Clear 23 1023 31 10000 3.6 280 17:59 03.09.2019
2578 Clear 23 1023 29 10000 3.6 280 17:40 03.09.2019
2579 Clear 23 1023 28 10000 3.1 290 17:19 03.09.2019
2580 Clear 23 1023 28 10000 3.1 290 16:58 03.09.2019
2581 Clear 23 1024 28 10000 3.1 250 16:38 03.09.2019
2582 Clear 23 1024 27 10000 2.6 230 16:19 03.09.2019
2583 Clear 23 1024 30 10000 2.6 230 15:40 03.09.2019
2584 Clear 23 1024 30 10000 2.6 230 15:21 03.09.2019
2585 Clear 22 1024 31 10000 2.1 0 14:58 03.09.2019
2586 Clear 22 1025 30 10000 2.1 0 14:40 03.09.2019
2587 Clear 22 1025 33 10000 2.6 210 14:20 03.09.2019
2588 Clear 22 1025 33 10000 2.6 210 14:20 03.09.2019
2589 Clear 22 1025 33 10000 2.6 210 13:56 03.09.2019
2590 Clear 22 1025 35 10000 1.5 0 13:37 03.09.2019
2591 Clear 21 1025 35 10000 1.5 0 13:19 03.09.2019
2592 Clear 21 1025 35 10000 1.5 0 13:19 03.09.2019
2593 Clear 21 1025 32 10000 2.1 0 12:49 03.09.2019
2594 Clear 22 1025 32 10000 2.1 0 12:30 03.09.2019
2595 Clear 19 1026 39 10000 2.1 260 11:59 03.09.2019
2596 Clear 19 1026 48 10000 1 0 11:38 03.09.2019
2597 Clear 18 1026 48 10000 1 0 11:19 03.09.2019
2598 Clear 18 1026 51 10000 0.5 0 10:55 03.09.2019
2599 Clear 18 1026 55 10000 1 0 10:36 03.09.2019
2600 Clear 15 1026 62 10000 1.5 130 10:18 03.09.2019
2601 Clear 13 1026 71 10000 1.5 100 09:42 03.09.2019
2602 Clear 12 1026 71 10000 1.5 100 09:24 03.09.2019
2603 Clear 9 1025 81 10000 2.6 100 08:41 03.09.2019
2604 Clear 7 1025 93 10000 3.1 100 08:22 03.09.2019
2605 Clear 6 1025 93 10000 3.1 100 07:57 03.09.2019
2606 Clear 6 1025 87 10000 2.1 90 07:37 03.09.2019
2607 Clear 6 1025 87 10000 2.1 90 07:37 03.09.2019
2608 Clear 6 1025 87 10000 3.1 90 07:18 03.09.2019
2609 Clear 6 1025 87 10000 3.1 90 06:41 03.09.2019
2610 Clear 7 1025 93 10000 1 90 03:57 03.09.2019
2611 Clear 7 1025 87 10000 1.5 90 03:33 03.09.2019
2612 Clear 8 1025 81 10000 1 0 02:40 03.09.2019
2613 Clear 8 1025 87 10000 0.5 0 02:21 03.09.2019
2614 Clear 9 1025 87 10000 0.5 0 01:45 03.09.2019
2615 Clear 9 1025 87 10000 0.5 0 01:45 03.09.2019
2616 Clear 9 1025 81 10000 1.5 100 01:25 03.09.2019
2617 Clear 10 1025 76 10000 0.5 0 00:31 03.09.2019
2618 Clear 10 1025 71 10000 0.5 0 23:58 02.09.2019
2619 Clear 11 1024 66 10000 0.5 0 23:37 02.09.2019
2620 Clear 12 1024 71 10000 0.5 330 23:19 02.09.2019
2621 Clear 12 1024 71 10000 0.5 330 22:55 02.09.2019
2622 Clear 12 1024 71 10000 0.5 330 22:55 02.09.2019
2623 Clear 12 1024 71 10000 0.5 330 22:55 02.09.2019
2624 Clear 12 1024 62 10000 0.5 0 22:36 02.09.2019
2625 Clear 13 1024 66 10000 0.5 340 22:18 02.09.2019
2626 Clear 14 1024 66 10000 0.5 340 21:55 02.09.2019
2627 Clear 15 1023 58 10000 1.5 350 21:36 02.09.2019
2628 Clear 16 1023 48 10000 2.1 360 21:18 02.09.2019
2629 Clear 17 1023 48 10000 2.1 10 20:41 02.09.2019
2630 Clear 18 1023 48 10000 2.1 10 20:22 02.09.2019
2631 Clear 18 1023 48 10000 2.1 10 20:22 02.09.2019
2632 Clear 18 1023 48 10000 2.1 10 19:57 02.09.2019
2633 Clear 18 1023 48 10000 2.1 10 19:57 02.09.2019
2634 Clear 19 1022 37 10000 3.1 340 19:39 02.09.2019
2635 Clear 19 1022 37 10000 3.1 340 19:39 02.09.2019
2636 Clear 19 1022 32 10000 3.6 340 19:21 02.09.2019
2637 Clear 20 1022 30 10000 3.1 320 18:42 02.09.2019
2638 Clear 20 1022 30 10000 3.1 320 18:23 02.09.2019
2639 Clear 21 1022 34 10000 4.6 320 17:59 02.09.2019
2640 Clear 21 1022 32 10000 2.6 270 17:40 02.09.2019
2641 Clear 21 1022 35 10000 3.6 340 17:21 02.09.2019
2642 Clear 21 1022 35 10000 3.6 340 16:59 02.09.2019
2643 Clear 21 1022 35 10000 5.1 310 16:38 02.09.2019
2644 Clear 21 1022 37 10000 4.6 300 16:20 02.09.2019
2645 Clear 21 1022 37 10000 3.6 0 15:45 02.09.2019
2646 Clear 20 1022 37 10000 3.6 0 15:26 02.09.2019
2647 Clear 21 1022 40 10000 5.1 330 14:57 02.09.2019
2648 Clear 20 1022 37 10000 3.6 280 14:38 02.09.2019
2649 Clear 20 1022 40 10000 3.6 320 14:20 02.09.2019
2650 Clear 20 1022 40 10000 3.6 320 13:55 02.09.2019
2651 Clouds 20 1022 42 10000 3.1 330 13:36 02.09.2019
2652 Clouds 20 1022 42 10000 3.1 330 13:36 02.09.2019
2653 Clouds 20 1022 42 10000 3.6 0 13:18 02.09.2019
2654 Clouds 20 1022 45 10000 3.6 350 12:43 02.09.2019
2655 Clouds 19 1022 45 10000 3.6 350 12:24 02.09.2019
2656 Clouds 19 1022 52 10000 2.6 330 11:58 02.09.2019
2657 Clouds 19 1022 52 10000 2.6 330 11:38 02.09.2019
2658 Clouds 19 1022 52 10000 3.6 10 11:20 02.09.2019
2659 Clouds 19 1022 52 10000 2.6 330 11:20 02.09.2019
2660 Clouds 19 1022 52 10000 3.6 10 10:56 02.09.2019
2661 Clouds 18 1022 63 10000 2.6 330 10:37 02.09.2019
2662 Clear 17 1021 72 10000 2.6 340 10:18 02.09.2019
2663 Clear 16 1021 77 10000 2.6 340 09:43 02.09.2019
2664 Clear 15 1021 77 10000 2.6 340 09:22 02.09.2019
2665 Clear 15 1021 76 10000 2.1 340 08:44 02.09.2019
2666 Clear 14 1021 76 10000 2.1 340 08:23 02.09.2019
2667 Clear 14 1020 87 10000 2.1 330 07:58 02.09.2019
2668 Clouds 13 1020 87 0 2.1 330 07:39 02.09.2019
2669 Clouds 13 1020 87 0 2.1 330 07:21 02.09.2019
2670 Clear 14 1020 76 10000 2.1 320 06:43 02.09.2019
2671 Clear 14 1020 76 10000 2.1 320 06:43 02.09.2019
2672 Clear 14 1020 76 10000 2.1 310 05:54 02.09.2019
2673 Clear 14 1020 76 10000 2.1 310 05:54 02.09.2019
2674 Clear 14 1020 76 10000 2.1 310 05:54 02.09.2019
2675 Clear 15 1019 72 10000 2.6 340 05:26 02.09.2019
2676 Clear 15 1019 72 10000 2.6 340 04:53 02.09.2019
2677 Clear 16 1018 67 10000 3.1 320 02:42 02.09.2019
2678 Clear 17 1018 72 10000 3.6 320 01:43 02.09.2019
2679 Clouds 17 1018 72 10000 2.6 310 00:46 02.09.2019
2680 Clouds 17 1018 72 10000 2.6 310 00:26 02.09.2019
2681 Clear 18 1017 72 10000 4.1 330 23:39 01.09.2019
2682 Clear 18 1017 63 10000 3.1 330 23:20 01.09.2019
2683 Clear 18 1017 63 10000 3.1 330 22:57 01.09.2019
2684 Clear 19 1017 63 10000 3.1 330 22:57 01.09.2019
2685 Clear 19 1016 68 10000 2.1 290 22:39 01.09.2019
2686 Clear 19 1016 63 10000 1 0 22:18 01.09.2019
2687 Clear 19 1016 63 10000 1 0 21:54 01.09.2019
2688 Clear 20 1016 60 10000 2.1 320 21:36 01.09.2019
2689 Clear 20 1015 56 10000 3.1 320 21:18 01.09.2019
2690 Clear 20 1015 56 10000 3.1 320 20:55 01.09.2019
2691 Clear 21 1015 56 10000 3.1 320 20:36 01.09.2019
2692 Clear 21 1015 52 10000 4.6 310 20:18 01.09.2019
2693 Clear 22 1014 49 10000 5.7 310 19:41 01.09.2019
2694 Clear 22 1014 60 10000 2.1 240 19:21 01.09.2019
2695 Clear 22 1014 60 10000 2.1 240 19:21 01.09.2019
2696 Clear 23 1014 60 10000 2.1 240 18:57 01.09.2019
2697 Clear 23 1014 56 10000 1.5 240 18:38 01.09.2019
2698 Clear 24 1014 56 10000 2.6 240 18:20 01.09.2019
2699 Clear 24 1014 56 10000 2.6 240 17:54 01.09.2019
2700 Clear 24 1014 53 10000 5.1 270 17:36 01.09.2019
2701 Clear 24 1014 50 10000 5.1 270 17:18 01.09.2019
2702 Clear 24 1014 50 10000 7.7 250 16:39 01.09.2019
2703 Clear 25 1014 47 10000 7.2 270 16:18 01.09.2019
2704 Clouds 25 1014 53 10000 6.2 280 15:45 01.09.2019
2705 Clouds 25 1014 53 10000 6.2 280 15:26 01.09.2019
2706 Clouds 27 1013 44 10000 6.2 240 14:55 01.09.2019
2707 Clouds 27 1014 47 10000 5.1 260 14:37 01.09.2019
2708 Clouds 27 1014 54 10000 5.1 260 14:18 01.09.2019
2709 Clouds 27 1013 54 10000 5.1 240 13:41 01.09.2019
2710 Clouds 27 1013 54 10000 5.1 240 13:23 01.09.2019
2711 Clouds 26 1013 54 10000 5.1 270 12:45 01.09.2019
2712 Clouds 26 1013 54 10000 5.1 270 12:26 01.09.2019
2713 Clouds 25 1013 57 10000 4.6 260 11:59 01.09.2019
2714 Clouds 25 1013 54 10000 3.6 280 11:39 01.09.2019
2715 Clouds 25 1013 54 10000 3.6 280 11:19 01.09.2019
2716 Clouds 25 1013 54 10000 3.6 280 11:19 01.09.2019
2717 Clear 24 1013 64 10000 2.6 200 10:45 01.09.2019
2718 Clear 23 1013 64 10000 2.6 200 10:23 01.09.2019
2719 Clear 23 1013 73 10000 2.6 170 09:56 01.09.2019
2720 Clear 22 1013 73 10000 1.5 190 09:38 01.09.2019
2721 Clear 21 1012 77 10000 2.1 160 09:19 01.09.2019
2722 Clear 20 1012 88 10000 1.5 140 08:42 01.09.2019
2723 Clear 19 1012 88 10000 1.5 140 08:21 01.09.2019
2724 Mist 16 1011 93 10000 4.1 100 07:42 01.09.2019
2725 Clear 17 1011 93 10000 4.1 100 07:21 01.09.2019
2726 Clear 17 1012 93 10000 3.6 100 06:39 01.09.2019
2727 Clear 17 1011 93 10000 4.1 100 05:59 01.09.2019
2728 Clear 17 1011 93 10000 4.1 100 05:59 01.09.2019
2729 Clear 17 1011 93 10000 4.1 100 05:59 01.09.2019
2730 Clear 17 1011 88 10000 4.1 100 04:53 01.09.2019
2731 Haze 17 1011 88 10000 3.6 100 03:50 01.09.2019
2732 Clear 17 1011 88 10000 3.6 110 03:32 01.09.2019
2733 Clear 18 1011 82 10000 3.6 100 02:40 01.09.2019
2734 Clear 18 1012 82 10000 3.6 100 02:19 01.09.2019
2735 Clear 19 1012 82 10000 4.1 100 01:29 01.09.2019
2736 Clear 19 1012 77 10000 4.6 100 00:57 01.09.2019
2737 Clear 19 1012 77 10000 4.6 100 00:38 01.09.2019
2738 Clear 20 1012 77 10000 3.6 100 00:19 01.09.2019
2739 Clear 20 1012 68 10000 2.6 100 23:41 31.08.2019
2740 Clear 20 1012 68 10000 2.6 100 23:21 31.08.2019
2741 Clear 20 1013 68 10000 3.1 100 22:55 31.08.2019
2742 Clear 20 1013 68 10000 3.1 100 22:55 31.08.2019
2743 Clear 21 1013 64 10000 2.1 100 22:37 31.08.2019
2744 Clear 22 1013 64 10000 2.1 100 22:19 31.08.2019
2745 Clear 23 1013 57 10000 2.1 100 21:42 31.08.2019
2746 Clear 23 1013 57 10000 2.1 100 21:22 31.08.2019
2747 Clear 24 1013 50 10000 1.5 110 20:59 31.08.2019
2748 Clear 25 1012 50 10000 2.1 140 20:41 31.08.2019
2749 Clear 25 1012 50 10000 2.1 140 20:22 31.08.2019
2750 Clear 27 1012 45 10000 2.6 140 19:41 31.08.2019
2751 Clear 28 1012 45 10000 2.6 140 19:22 31.08.2019
2752 Clear 29 1012 45 10000 2.6 140 18:55 31.08.2019
2753 Clear 29 1013 42 10000 3.1 110 18:37 31.08.2019
2754 Clear 30 1013 37 10000 4.1 160 18:18 31.08.2019
2755 Clear 30 1013 37 10000 4.1 160 17:54 31.08.2019
2756 Clear 30 1013 40 10000 3.1 110 17:36 31.08.2019
2757 Clear 30 1013 40 10000 3.1 110 17:36 31.08.2019
2758 Clouds 30 1015 51 10000 2.6 140 17:18 31.08.2019
2759 Clear 30 1014 40 10000 4.1 130 16:42 31.08.2019
2760 Clear 30 1014 40 10000 4.1 130 16:23 31.08.2019
2761 Clear 30 1015 40 10000 2.6 160 15:59 31.08.2019
2762 Clear 29 1015 40 10000 4.1 140 15:40 31.08.2019
2763 Clear 29 1015 40 10000 4.1 140 15:18 31.08.2019
2764 Clear 30 1016 42 10000 5.1 140 14:42 31.08.2019
2765 Clear 30 1016 42 10000 5.1 140 14:24 31.08.2019
2766 Clear 29 1016 45 10000 3.6 110 13:57 31.08.2019
2767 Clear 30 1016 45 10000 3.6 110 13:57 31.08.2019
2768 Clear 29 1016 45 10000 3.6 130 13:37 31.08.2019
2769 Clouds 29 1017 48 10000 2.6 160 13:18 31.08.2019
2770 Clouds 28 1017 54 10000 1.5 180 12:42 31.08.2019
2771 Clouds 28 1017 54 10000 1.5 180 12:42 31.08.2019
2772 Clouds 27 1017 54 10000 1.5 180 12:21 31.08.2019
2773 Clear 26 1017 57 10000 1.5 240 11:59 31.08.2019
2774 Clear 26 1018 65 10000 1.5 210 11:40 31.08.2019
2775 Clear 25 1018 65 10000 1.5 210 11:22 31.08.2019
2776 Clear 26 1018 69 10000 0.5 0 10:55 31.08.2019
2777 Clear 25 1018 73 10000 1 0 10:36 31.08.2019
2778 Clear 23 1018 73 10000 1 0 10:18 31.08.2019
2779 Clear 22 1019 82 10000 1 0 09:40 31.08.2019
2780 Clear 22 1019 82 10000 1 0 09:40 31.08.2019
2781 Clear 18 1019 88 10000 0.5 0 09:21 31.08.2019
2782 Clear 18 1019 93 10000 0.5 0 08:45 31.08.2019
2783 Clear 17 1019 93 10000 0.5 0 08:27 31.08.2019
2784 Fog 15 1019 93 10000 0.5 0 07:43 31.08.2019
2785 Fog 15 1019 93 10000 0.5 0 07:23 31.08.2019
2786 Fog 15 1019 93 10000 0.5 0 06:59 31.08.2019
2787 Fog 15 1019 93 10000 1.5 40 06:23 31.08.2019
2788 Clear 16 1019 93 10000 1 110 05:49 31.08.2019
2789 Clear 16 1019 100 10000 1.5 90 05:27 31.08.2019
2790 Mist 16 1020 93 10000 1.5 120 04:28 31.08.2019
2791 Mist 17 1020 82 10000 2.1 110 03:42 31.08.2019
2792 Clear 18 1021 88 10000 1 0 02:20 31.08.2019
2793 Clear 18 1021 88 10000 1 0 02:20 31.08.2019
2794 Clear 18 1021 88 10000 1 0 01:42 31.08.2019
2795 Clear 18 1021 88 10000 1 0 01:23 31.08.2019
2796 Clear 18 1021 88 10000 1 0 00:44 31.08.2019
2797 Clear 18 1021 88 10000 1 0 00:44 31.08.2019
2798 Clear 18 1021 88 10000 1 0 00:25 31.08.2019
2799 Clear 20 1021 88 10000 2.6 110 23:48 30.08.2019
2800 Clear 20 1021 88 10000 2.6 110 23:19 30.08.2019
2801 Clear 20 1021 88 10000 2.6 110 23:19 30.08.2019
2802 Clear 20 1021 88 10000 0.5 0 22:56 30.08.2019
2803 Clear 20 1021 83 10000 1 110 22:37 30.08.2019
2804 Clear 21 1021 83 10000 1 80 22:19 30.08.2019
2805 Clear 21 1021 83 10000 1 80 21:55 30.08.2019
2806 Clear 22 1021 73 10000 0.5 110 21:36 30.08.2019
2807 Clear 23 1021 69 10000 0.5 0 21:18 30.08.2019
2808 Clear 24 1021 61 10000 1.5 280 20:42 30.08.2019
2809 Clear 26 1021 61 10000 1.5 280 20:22 30.08.2019
2810 Clear 26 1021 65 10000 1.5 290 19:59 30.08.2019
2811 Clear 26 1021 65 10000 1.5 290 19:40 30.08.2019
2812 Clear 27 1021 65 10000 1.5 290 19:21 30.08.2019
2813 Clear 27 1021 61 10000 1.5 280 18:58 30.08.2019
2814 Clear 27 1021 57 10000 2.6 290 18:39 30.08.2019
2815 Rain 28 1021 57 10000 3.6 260 18:18 30.08.2019
2816 Rain 28 1021 57 10000 3.6 260 17:55 30.08.2019
2817 Clouds 29 1021 42 10000 3.1 220 17:37 30.08.2019
2818 Clouds 29 1021 42 10000 1.5 0 17:18 30.08.2019
2819 Clouds 29 1021 42 10000 2.1 190 16:43 30.08.2019
2820 Clouds 29 1021 42 10000 2.1 190 16:24 30.08.2019
2821 Clouds 29 1023 51 10000 2.66 315.625 15:45 30.08.2019
2822 Clouds 29 1023 51 10000 0.68 232.555 15:25 30.08.2019
2823 Clear 29 1022 42 10000 1 0 14:58 30.08.2019
2824 Clouds 28 1022 42 10000 2.1 0 14:40 30.08.2019
2825 Clouds 28 1022 42 10000 2.1 0 14:22 30.08.2019
2826 Drizzle 29 1023 54 10000 2.6 190 13:43 30.08.2019
2827 Drizzle 29 1023 54 10000 2.6 190 13:23 30.08.2019
2828 Clouds 28 1023 54 10000 2.6 210 12:58 30.08.2019
2829 Clear 28 1023 54 10000 2.1 0 12:39 30.08.2019
2830 Clear 25 1023 57 10000 2.1 180 12:21 30.08.2019
2831 Rain 26 1024 65 10000 1.5 210 11:41 30.08.2019
2832 Clear 24 1023 64 10000 1 0 11:23 30.08.2019
2833 Clear 24 1023 73 10000 1 0 10:40 30.08.2019
2834 Clear 24 1023 73 10000 1 0 10:22 30.08.2019
2835 Clear 22 1023 73 10000 1.5 130 09:58 30.08.2019
2836 Clear 22 1023 73 10000 1.5 130 09:58 30.08.2019
2837 Clear 21 1023 82 10000 3.1 110 09:39 30.08.2019
2838 Clear 18 1023 88 10000 2.1 90 09:19 30.08.2019
2839 Clear 18 1023 88 10000 2.1 90 09:19 30.08.2019
2840 Clear 18 1023 88 10000 2.1 90 08:44 30.08.2019
2841 Clear 16 1023 93 10000 3.1 100 08:25 30.08.2019
2842 Clear 16 1023 93 10000 3.1 100 07:59 30.08.2019
2843 Clear 16 1023 100 10000 3.1 100 07:39 30.08.2019
2844 Clear 16 1022 93 10000 2.6 100 07:21 30.08.2019
2845 Clear 16 1022 100 10000 3.1 110 06:44 30.08.2019
2846 Clear 15 1022 100 10000 3.1 110 06:26 30.08.2019
2847 Clear 16 1022 93 10000 3.1 100 05:43 30.08.2019
2848 Clear 17 1022 93 10000 2.1 110 03:58 30.08.2019
2849 Clear 17 1021 93 10000 4.1 100 03:38 30.08.2019
2850 Clear 17 1021 93 10000 3.6 100 02:49 30.08.2019
2851 Clear 17 1022 93 10000 2.6 100 02:24 30.08.2019
2852 Clear 17 1022 88 10000 3.1 100 01:28 30.08.2019
2853 Clear 19 1022 88 10000 3.1 100 00:27 30.08.2019
2854 Clear 19 1021 88 10000 2.1 100 23:57 29.08.2019
2855 Clear 19 1021 88 10000 1 0 23:38 29.08.2019
2856 Clear 20 1021 88 10000 1 0 23:20 29.08.2019
2857 Clear 19 1021 88 10000 1 0 23:20 29.08.2019
2858 Clear 20 1021 83 10000 1 20 22:43 29.08.2019
2859 Clear 20 1021 83 10000 1 20 22:24 29.08.2019
2860 Clear 21 1021 88 10000 2.1 320 21:55 29.08.2019
2861 Clear 21 1021 88 10000 2.1 320 21:55 29.08.2019
2862 Clear 21 1020 78 10000 0.5 110 21:36 29.08.2019
2863 Clear 22 1020 69 10000 1 0 21:18 29.08.2019
2864 Clear 22 1020 69 10000 1 0 20:42 29.08.2019
2865 Rain 23 1020 73 10000 0.5 0 20:20 29.08.2019
2866 Clouds 24 1020 69 10000 2.6 290 19:58 29.08.2019
2867 Clouds 24 1020 69 10000 2.6 290 19:58 29.08.2019
2868 Clouds 25 1020 69 10000 2.6 290 19:39 29.08.2019
2869 Thunderstorm 25 1019 65 10000 3.6 150 19:21 29.08.2019
2870 Clouds 26 1019 61 10000 3.6 130 18:42 29.08.2019
2871 Clouds 26 1019 57 10000 2.1 160 18:21 29.08.2019
2872 Clouds 28 1020 48 10000 2.1 160 17:56 29.08.2019
2873 Clouds 28 1020 48 10000 2.1 160 17:38 29.08.2019
2874 Clear 29 1020 48 10000 1.5 220 17:19 29.08.2019
2875 Thunderstorm 29 1020 48 10000 1.5 220 16:57 29.08.2019
2876 Clear 28 1019 54 10000 3.6 220 16:38 29.08.2019
2877 Clear 27 1019 54 10000 3.6 220 16:20 29.08.2019
2878 Clear 27 1020 61 10000 2.1 200 15:39 29.08.2019
2879 Clouds 27 1020 65 10000 2.1 190 15:20 29.08.2019
2880 Clouds 27 1020 65 10000 2.1 190 14:50 29.08.2019
2881 Clouds 26 1020 69 10000 3.1 180 14:24 29.08.2019
2882 Clouds 26 1020 69 10000 3.1 180 13:59 29.08.2019
2883 Clouds 26 1020 69 10000 4.1 160 13:39 29.08.2019
2884 Clouds 26 1020 69 10000 4.1 140 13:20 29.08.2019
2885 Clouds 26 1020 69 10000 4.1 140 12:59 29.08.2019
2886 Rain 25 1020 78 10000 3.6 150 12:39 29.08.2019
2887 Rain 24 1020 78 10000 3.6 150 12:21 29.08.2019
2888 Thunderstorm 24 1020 88 10000 1.5 190 11:59 29.08.2019
2889 Thunderstorm 24 1020 68 10000 5.7 270 11:39 29.08.2019
2890 Rain 23 1019 69 10000 2.6 160 11:19 29.08.2019
2891 Clear 23 1019 73 10000 1.5 180 10:45 29.08.2019
2892 Clear 23 1019 73 10000 1.5 180 10:25 29.08.2019
2893 Clear 22 1019 77 10000 1.5 140 09:56 29.08.2019
2894 Clear 21 1019 77 10000 3.1 120 09:38 29.08.2019
2895 Clear 20 1019 77 10000 3.1 120 09:18 29.08.2019
2896 Clear 19 1018 88 10000 3.1 100 08:40 29.08.2019
2897 Clear 18 1018 88 10000 3.1 100 08:22 29.08.2019
2898 Clear 17 1018 88 10000 3.6 110 07:50 29.08.2019
2899 Clear 17 1018 88 10000 3.6 110 07:27 29.08.2019
2900 Clear 16 1017 88 10000 3.6 100 06:48 29.08.2019
2901 Clear 16 1017 88 10000 3.6 100 06:30 29.08.2019
2902 Clear 17 1017 82 10000 2.6 90 05:43 29.08.2019
2903 Clear 17 1017 82 10000 2.6 90 04:51 29.08.2019
2904 Clear 17 1017 82 10000 2.6 90 04:29 29.08.2019
2905 Clear 18 1017 82 10000 3.1 100 03:35 29.08.2019
2906 Clear 18 1017 77 10000 2.6 90 01:49 29.08.2019
2907 Clear 18 1017 77 10000 2.6 90 01:30 29.08.2019
2908 Clear 19 1017 77 10000 2.1 100 00:42 29.08.2019
2909 Clear 20 1017 77 10000 3.6 100 00:21 29.08.2019
2910 Clear 20 1017 73 10000 1 0 23:44 28.08.2019
2911 Clear 21 1017 73 10000 1 0 23:25 28.08.2019
2912 Clear 21 1017 64 10000 3.1 100 22:59 28.08.2019
2913 Clear 21 1016 64 10000 3.6 100 22:39 28.08.2019
2914 Clear 21 1017 57 10000 1.5 280 22:18 28.08.2019
2915 Clear 22 1016 57 10000 2.6 100 21:57 28.08.2019
2916 Clear 22 1017 57 10000 1.5 280 21:39 28.08.2019
2917 Clear 24 1016 50 10000 0.5 0 21:20 28.08.2019
2918 Clear 25 1016 48 10000 0.5 0 20:42 28.08.2019
2919 Clear 27 1016 48 10000 0.5 0 20:24 28.08.2019
2920 Clear 28 1016 40 10000 0.5 0 19:57 28.08.2019
2921 Clear 28 1016 40 10000 0.5 0 19:39 28.08.2019
2922 Clear 28 1016 48 10000 1 0 19:20 28.08.2019
2923 Clear 29 1016 40 10000 0.5 0 18:42 28.08.2019
2924 Clear 30 1016 35 10000 1 0 18:21 28.08.2019
2925 Clear 30 1016 35 10000 1 0 17:55 28.08.2019
2926 Clear 31 1016 35 10000 1.5 240 17:37 28.08.2019
2927 Clear 31 1016 35 10000 1.5 0 17:19 28.08.2019
2928 Clear 31 1016 37 10000 1 0 16:42 28.08.2019
2929 Drizzle 31 1016 35 10000 1.5 140 16:18 28.08.2019
2930 Drizzle 31 1016 35 10000 1.5 140 15:57 28.08.2019
2931 Clear 30 1017 40 10000 2.1 230 15:36 28.08.2019
2932 Clear 30 1017 42 10000 1.5 0 15:18 28.08.2019
2933 Clear 30 1017 45 10000 1.5 0 14:55 28.08.2019
2934 Clear 30 1017 45 10000 1.5 0 14:37 28.08.2019
2935 Clear 30 1017 45 10000 1.5 0 14:37 28.08.2019
2936 Clear 30 1017 48 10000 1.5 0 14:18 28.08.2019
2937 Clear 29 1017 48 10000 1.5 0 13:56 28.08.2019
2938 Rain 29 1017 54 10000 1 0 13:36 28.08.2019
2939 Rain 28 1017 54 10000 1 0 13:18 28.08.2019
2940 Clear 27 1018 61 10000 2.1 190 12:40 28.08.2019
2941 Clear 25 1018 69 10000 2.1 200 12:21 28.08.2019
2942 Clear 25 1018 69 10000 2.1 170 11:41 28.08.2019
2943 Clear 24 1018 69 10000 2.6 190 11:22 28.08.2019
2944 Clear 24 1018 69 10000 2.6 190 10:58 28.08.2019
2945 Clear 23 1017 73 10000 2.1 120 10:40 28.08.2019
2946 Clear 22 1017 77 10000 2.1 140 10:20 28.08.2019
2947 Clear 21 1017 82 10000 3.1 130 09:42 28.08.2019
2948 Clear 21 1017 82 10000 3.1 130 09:22 28.08.2019
2949 Clear 20 1017 88 10000 2.6 130 08:59 28.08.2019
2950 Clear 19 1017 93 10000 2.6 130 08:38 28.08.2019
2951 Clear 18 1017 88 10000 1 0 08:19 28.08.2019
2952 Clear 18 1017 93 10000 1.5 140 07:39 28.08.2019
2953 Clear 17 1017 93 10000 1.5 140 07:20 28.08.2019
2954 Clear 17 1017 93 10000 3.1 110 06:50 28.08.2019
2955 Clear 18 1017 93 10000 3.1 110 06:31 28.08.2019
2956 Clear 18 1017 93 10000 2.1 100 05:24 28.08.2019
2957 Clear 19 1017 82 10000 3.1 90 02:20 28.08.2019
2958 Clear 19 1017 88 10000 2.6 120 01:31 28.08.2019
2959 Clear 20 1017 77 10000 2.6 110 00:52 28.08.2019
2960 Clear 20 1017 77 10000 2.1 100 00:33 28.08.2019
2961 Clear 21 1017 77 10000 3.1 100 23:58 27.08.2019
2962 Clear 21 1017 73 10000 4.1 100 23:38 27.08.2019
2963 Clear 21 1017 78 10000 3.6 100 23:19 27.08.2019
2964 Clear 21 1017 73 10000 2.6 100 22:42 27.08.2019
2965 Clear 21 1017 73 10000 2.6 100 22:23 27.08.2019
2966 Clear 22 1017 73 10000 1 90 21:57 27.08.2019
2967 Clear 22 1016 64 10000 1.5 100 21:38 27.08.2019
2968 Clear 22 1016 64 10000 1.5 100 21:38 27.08.2019
2969 Clear 24 1016 64 10000 1.5 100 21:20 27.08.2019
2970 Clear 25 1016 61 10000 2.1 100 20:58 27.08.2019
2971 Clear 25 1017 57 10000 1.5 90 20:39 27.08.2019
2972 Clear 26 1017 57 10000 1.5 90 20:19 27.08.2019
2973 Clear 26 1016 54 10000 3.1 140 19:44 27.08.2019
2974 Thunderstorm 27 1016 54 10000 3.1 140 19:26 27.08.2019
2975 Clear 27 1016 54 10000 3.1 140 18:58 27.08.2019
2976 Clear 28 1016 51 10000 2.6 120 18:39 27.08.2019
2977 Clear 29 1016 51 10000 3.6 120 18:18 27.08.2019
2978 Clear 28 1016 51 10000 3.6 120 17:55 27.08.2019
2979 Clear 28 1016 54 10000 3.6 140 17:37 27.08.2019
2980 Clear 29 1017 51 10000 3.1 110 17:18 27.08.2019
2981 Clear 29 1017 48 10000 3.1 130 16:42 27.08.2019
2982 Clear 29 1017 48 10000 3.1 130 16:23 27.08.2019
2983 Clouds 29 1017 45 10000 2.6 130 15:54 27.08.2019
2984 Clouds 29 1017 48 10000 2.6 140 15:36 27.08.2019
2985 Clouds 29 1017 48 10000 2.6 140 15:18 27.08.2019
2986 Clouds 29 1018 48 10000 2.6 140 15:18 27.08.2019
2987 Clouds 29 1018 54 10000 3.1 130 14:42 27.08.2019
2988 Clouds 29 1018 54 10000 3.1 130 14:23 27.08.2019
2989 Drizzle 28 1019 57 10000 2.6 160 13:43 27.08.2019
2990 Clouds 27 1018 57 10000 2.6 130 13:24 27.08.2019
2991 Clouds 27 1019 61 10000 3.1 110 12:58 27.08.2019
2992 Clear 26 1019 57 10000 2.6 120 12:39 27.08.2019
2993 Clear 26 1019 61 10000 3.1 130 12:19 27.08.2019
2994 Clear 25 1019 64 10000 2.6 130 11:46 27.08.2019
2995 Clear 25 1019 64 10000 2.6 130 11:26 27.08.2019
2996 Clear 23 1019 73 10000 3.6 130 10:46 27.08.2019
2997 Clear 23 1019 73 10000 3.6 130 10:27 27.08.2019
2998 Clear 22 1019 83 10000 2.1 140 09:59 27.08.2019
2999 Clear 22 1019 82 10000 3.1 110 09:39 27.08.2019
3000 Mist 20 1018 88 10000 3.1 100 09:21 27.08.2019
3001 Mist 18 1018 88 10000 3.1 100 08:56 27.08.2019
3002 Mist 18 1019 100 6000 1.14 148.778 08:37 27.08.2019
3003 Mist 16 1018 93 10000 1.5 160 08:18 27.08.2019
3004 Mist 16 1018 100 10000 1.5 100 07:41 27.08.2019
3005 Mist 16 1018 100 10000 1.5 100 07:41 27.08.2019
3006 Fog 16 1018 93 10000 0.5 0 07:20 27.08.2019
3007 Fog 16 1018 93 10000 0.5 0 06:54 27.08.2019
3008 Mist 15 1018 100 10000 1 0 06:26 27.08.2019
3009 Mist 16 1018 100 10000 2.1 100 05:42 27.08.2019
3010 Clear 16 1018 93 10000 1 120 04:43 27.08.2019
3011 Clear 17 1018 100 10000 1.08 131.872 03:35 27.08.2019
3012 Clear 17 1018 100 10000 1 0 02:23 27.08.2019
3013 Clear 18 1018 93 10000 0.5 0 01:40 27.08.2019
3014 Clear 18 1019 82 10000 1.15 35.102 01:21 27.08.2019
3015 Clear 18 1018 93 10000 0.5 0 00:41 27.08.2019
3016 Clear 18 1018 93 10000 0.5 0 00:22 27.08.2019
3017 Clear 19 1018 82 10000 1 0 23:38 26.08.2019
3018 Clear 20 1018 77 10000 2.1 90 23:19 26.08.2019
3019 Clear 20 1018 88 10000 2.1 120 22:40 26.08.2019
3020 Clear 21 1018 88 10000 2.1 120 22:20 26.08.2019
3021 Clear 21 1018 83 10000 2.1 110 21:58 26.08.2019
3022 Clear 21 1018 83 10000 2.1 110 21:38 26.08.2019
3023 Clear 22 1018 83 10000 1 0 21:19 26.08.2019
3024 Clear 23 1018 78 10000 0.5 0 20:56 26.08.2019
3025 Clear 23 1018 78 10000 0.5 0 20:37 26.08.2019
3026 Clear 23 1018 78 10000 0.5 0 20:37 26.08.2019
3027 Clear 23 1018 78 10000 0.5 0 20:37 26.08.2019
3028 Clear 23 1018 78 10000 0.5 0 20:37 26.08.2019
3029 Clear 23 1018 78 10000 1 0 20:18 26.08.2019
3030 Clear 24 1018 78 10000 1.5 160 19:42 26.08.2019
3031 Clear 25 1018 73 10000 1.5 100 19:19 26.08.2019
3032 Thunderstorm 24 1018 69 10000 1.5 90 18:58 26.08.2019
3033 Thunderstorm 24 1018 69 10000 1.5 90 18:58 26.08.2019
3034 Thunderstorm 25 1018 69 10000 1.5 90 18:38 26.08.2019
3035 Thunderstorm 25 1018 73 10000 0.5 0 18:19 26.08.2019
3036 Rain 26 1018 78 10000 1.5 130 17:44 26.08.2019
3037 Rain 26 1018 65 10000 2.6 130 17:20 26.08.2019
3038 Rain 26 1018 65 10000 1 0 16:57 26.08.2019
3039 Thunderstorm 27 1018 61 10000 2.1 170 16:39 26.08.2019
3040 Thunderstorm 26 1018 61 10000 2.1 170 16:18 26.08.2019
3041 Thunderstorm 26 1019 69 10000 3.6 130 15:54 26.08.2019
3042 Rain 28 1019 61 10000 4.6 120 15:36 26.08.2019
3043 Rain 28 1019 61 10000 4.6 120 15:18 26.08.2019
3044 Drizzle 29 1019 57 10000 2.6 40 14:42 26.08.2019
3045 Drizzle 28 1020 57 10000 2.6 70 14:22 26.08.2019
3046 Drizzle 29 1019 51 10000 2.1 0 13:44 26.08.2019
3047 Drizzle 28 1019 54 10000 1.5 0 13:23 26.08.2019
3048 Clouds 28 1020 54 10000 2.1 0 12:57 26.08.2019
3049 Clouds 28 1020 54 10000 2.1 0 12:39 26.08.2019
3050 Clouds 26 1020 61 10000 1.5 160 12:20 26.08.2019
3051 Clear 25 1020 61 10000 1.5 110 11:39 26.08.2019
3052 Clear 25 1020 61 10000 1.5 0 11:21 26.08.2019
3053 Clear 24 1020 64 10000 2.1 160 10:58 26.08.2019
3054 Clear 24 1020 64 10000 2.1 160 10:39 26.08.2019
3055 Clear 24 1020 64 10000 1.5 130 10:19 26.08.2019
3056 Clear 21 1020 73 10000 1.5 150 09:43 26.08.2019
3057 Clear 20 1020 77 10000 2.1 90 09:24 26.08.2019
3058 Mist 19 1020 88 10000 2.1 90 08:58 26.08.2019
3059 Mist 18 1020 88 10000 1.5 110 08:39 26.08.2019
3060 Mist 18 1020 88 10000 1.5 110 08:21 26.08.2019
3061 Mist 16 1020 93 10000 0.5 0 07:44 26.08.2019
3062 Mist 15 1020 100 10000 0.5 0 07:25 26.08.2019
3063 Fog 16 1019 100 10000 1 110 06:57 26.08.2019
3064 Fog 16 1019 93 10000 1 20 06:38 26.08.2019
3065 Fog 16 1019 93 10000 1 20 06:18 26.08.2019
3066 Mist 16 1019 93 10000 1.5 100 04:54 26.08.2019
3067 Mist 16 1019 93 10000 2.1 100 04:22 26.08.2019
3068 Clear 17 1019 93 10000 1 0 02:38 26.08.2019
3069 Clear 18 1020 88 10000 3.6 100 01:23 26.08.2019
3070 Clear 19 1020 88 10000 2.1 100 00:45 26.08.2019
3071 Clear 19 1020 88 10000 1.5 120 00:26 26.08.2019
3072 Clear 19 1020 88 10000 2.1 110 23:45 25.08.2019
3073 Clear 20 1020 88 10000 1.5 80 23:20 25.08.2019
3074 Haze 20 1020 83 10000 1.5 110 22:59 25.08.2019
3075 Haze 20 1020 83 10000 1.5 110 22:40 25.08.2019
3076 Haze 21 1020 78 10000 1.5 110 22:20 25.08.2019
3077 Clouds 22 1020 78 10000 1 100 21:58 25.08.2019
3078 Clouds 22 1019 69 10000 1 0 21:39 25.08.2019
3079 Clouds 23 1019 69 10000 1 0 21:19 25.08.2019
3080 Clear 24 1019 73 10000 1 330 20:55 25.08.2019
3081 Clear 24 1019 73 10000 1 330 20:55 25.08.2019
3082 Clear 25 1019 65 10000 2.1 240 20:36 25.08.2019
3083 Clear 25 1019 65 10000 2.1 240 20:18 25.08.2019
3084 Rain 25 1019 61 10000 2.1 210 19:40 25.08.2019
3085 Rain 25 1019 61 10000 2.6 180 19:21 25.08.2019
3086 Thunderstorm 26 1018 57 10000 2.1 150 18:59 25.08.2019
3087 Rain 26 1020 73 10000 2.1 250 18:59 25.08.2019
3088 Clouds 27 1018 54 10000 2.1 140 18:40 25.08.2019
3089 Clouds 28 1018 54 10000 2.1 140 18:22 25.08.2019
3090 Clouds 29 1018 51 10000 3.6 150 17:56 25.08.2019
3091 Rain 29 1018 51 10000 3.6 150 17:38 25.08.2019
3092 Thunderstorm 29 1018 42 10000 2.1 30 17:19 25.08.2019
3093 Clouds 30 1018 45 10000 1 0 16:40 25.08.2019
3094 Clear 29 1018 48 10000 1.5 0 16:22 25.08.2019
3095 Clouds 29 1018 48 10000 2.1 0 15:47 25.08.2019
3096 Clouds 29 1019 51 10000 2.6 310 15:26 25.08.2019
3097 Drizzle 30 1019 54 10000 2.6 0 14:56 25.08.2019
3098 Drizzle 29 1019 54 10000 2.6 0 14:38 25.08.2019
3099 Drizzle 29 1019 51 10000 1.5 0 14:19 25.08.2019
3100 Drizzle 29 1019 54 10000 1.5 0 13:43 25.08.2019
3101 Clouds 29 1019 54 10000 1.5 0 13:21 25.08.2019
3102 Clear 28 1019 57 10000 1.5 170 12:54 25.08.2019
3103 Clear 28 1019 57 10000 1.5 0 12:36 25.08.2019
3104 Clear 27 1019 57 10000 1.5 0 12:18 25.08.2019
3105 Clear 26 1020 61 10000 1.5 0 11:54 25.08.2019
3106 Clear 26 1020 61 10000 1.5 0 11:36 25.08.2019
3107 Clear 25 1020 61 10000 1.5 0 11:18 25.08.2019
3108 Clear 24 1020 73 10000 2.1 120 10:40 25.08.2019
3109 Clear 23 1020 73 10000 2.1 0 10:20 25.08.2019
3110 Clear 23 1020 73 10000 0.5 0 09:56 25.08.2019
3111 Clear 22 1020 78 10000 0.5 0 09:37 25.08.2019
3112 Clear 21 1020 78 10000 0.5 0 09:19 25.08.2019
3113 Clear 19 1020 82 10000 0.5 0 08:42 25.08.2019
3114 Clear 18 1020 93 10000 0.5 0 08:21 25.08.2019
3115 Mist 17 1019 100 10000 0.5 0 07:35 25.08.2019
3116 Clear 16 1019 100 10000 1 0 06:51 25.08.2019
3117 Mist 16 1019 100 10000 0.5 360 05:47 25.08.2019
3118 Clear 17 1019 93 10000 1.5 50 04:35 25.08.2019
3119 Clear 17 1019 93 10000 0.66 104.478 03:31 25.08.2019
3120 Clear 18 1019 88 10000 0.5 0 02:39 25.08.2019
3121 Clear 19 1019 82 10000 0.5 0 01:24 25.08.2019
3122 Clear 19 1019 82 10000 1 340 00:39 25.08.2019
3123 Clear 20 1019 77 10000 1 0 00:20 25.08.2019
3124 Clear 20 1019 73 10000 2.1 90 23:50 24.08.2019
3125 Clear 20 1019 73 10000 2.1 80 23:22 24.08.2019
3126 Clear 21 1019 73 10000 2.1 90 22:55 24.08.2019
3127 Clear 21 1019 73 10000 2.1 90 22:37 24.08.2019
3128 Clear 21 1019 69 10000 2.1 80 22:19 24.08.2019
3129 Clear 22 1019 64 10000 2.1 80 21:55 24.08.2019
3130 Clear 23 1019 64 10000 2.1 80 21:36 24.08.2019
3131 Clear 23 1019 64 10000 2.6 90 21:18 24.08.2019
3132 Drizzle 24 1019 61 10000 2.1 80 20:42 24.08.2019
3133 Clear 25 1019 61 10000 1.5 70 20:21 24.08.2019
3134 Clear 26 1019 54 10000 2.6 90 19:59 24.08.2019
3135 Clear 26 1019 54 10000 2.6 90 19:41 24.08.2019
3136 Clear 26 1019 57 10000 3.1 90 19:22 24.08.2019
3137 Clear 27 1019 51 10000 2.6 70 18:59 24.08.2019
3138 Clear 27 1019 51 10000 1.5 50 18:38 24.08.2019
3139 Clear 28 1019 51 10000 1.5 50 18:19 24.08.2019
3140 Clear 28 1019 54 10000 3.1 50 17:43 24.08.2019
3141 Clear 28 1019 48 10000 1.5 0 17:24 24.08.2019
3142 Clouds 28 1020 51 10000 3.1 80 16:44 24.08.2019
3143 Clouds 28 1020 45 10000 2.1 0 16:20 24.08.2019
3144 Clouds 28 1020 51 10000 2.6 100 15:57 24.08.2019
3145 Clouds 28 1020 51 10000 2.1 150 15:38 24.08.2019
3146 Clouds 28 1020 51 10000 2.1 150 15:20 24.08.2019
3147 Clouds 28 1020 54 10000 2.1 90 14:42 24.08.2019
3148 Clouds 28 1021 54 10000 2.1 0 14:21 24.08.2019
3149 Clear 27 1021 54 10000 1.5 150 13:56 24.08.2019
3150 Clear 27 1021 54 10000 1.5 150 13:37 24.08.2019
3151 Clear 27 1021 54 10000 2.1 0 13:18 24.08.2019
3152 Clear 26 1021 57 10000 2.1 0 12:42 24.08.2019
3153 Clear 24 1021 60 10000 2.6 120 12:24 24.08.2019
3154 Clear 24 1022 60 10000 3.1 120 11:57 24.08.2019
3155 Clear 24 1022 60 10000 4.1 110 11:38 24.08.2019
3156 Clear 23 1022 60 10000 4.1 110 11:18 24.08.2019
3157 Clear 22 1022 60 10000 2.6 80 10:43 24.08.2019
3158 Clear 21 1022 64 10000 1 0 10:22 24.08.2019
3159 Clear 19 1022 68 10000 1 0 09:44 24.08.2019
3160 Clear 18 1022 72 10000 1 0 09:20 24.08.2019
3161 Clear 17 1022 72 10000 1 0 08:56 24.08.2019
3162 Clear 16 1022 82 10000 1 0 08:36 24.08.2019
3163 Clear 16 1022 82 10000 1 0 08:18 24.08.2019
3164 Clear 14 1022 87 10000 1.5 340 07:41 24.08.2019
3165 Clear 14 1022 93 10000 1 0 07:22 24.08.2019
3166 Clear 13 1022 93 10000 1.5 340 06:24 24.08.2019
3167 Clouds 13 1022 100 10000 1 330 05:40 24.08.2019
3168 Clear 14 1022 87 10000 1 0 03:54 24.08.2019
3169 Clear 14 1023 87 10000 1 310 03:34 24.08.2019
3170 Clear 14 1023 93 10000 1.5 340 02:24 24.08.2019
3171 Clear 15 1023 82 10000 1 0 01:30 24.08.2019
3172 Clear 15 1023 82 10000 1.5 60 00:49 24.08.2019
3173 Clear 16 1023 77 10000 2.1 60 00:24 24.08.2019
3174 Clear 16 1023 77 10000 1.5 70 23:49 23.08.2019
3175 Clear 16 1023 77 10000 1.5 80 23:24 23.08.2019
3176 Clear 17 1024 72 10000 1.5 80 22:59 23.08.2019
3177 Clear 18 1024 72 10000 1.5 80 22:41 23.08.2019
3178 Clear 18 1024 68 10000 1 90 22:20 23.08.2019
3179 Clear 20 1024 60 10000 2.6 100 21:38 23.08.2019
3180 Clear 21 1024 56 10000 2.1 100 21:19 23.08.2019
3181 Clear 22 1023 56 10000 2.1 100 20:53 23.08.2019
3182 Clear 22 1023 56 10000 2.1 100 20:35 23.08.2019
3183 Clear 24 1023 53 10000 3.1 90 19:55 23.08.2019
3184 Clear 24 1023 53 10000 3.1 90 19:55 23.08.2019
3185 Clear 25 1023 50 10000 3.1 100 19:36 23.08.2019
3186 Clear 25 1023 50 10000 3.1 100 19:18 23.08.2019
3187 Clear 25 1023 50 10000 3.1 100 19:18 23.08.2019
3188 Clear 26 1023 47 10000 2.1 80 18:42 23.08.2019
3189 Clear 26 1023 44 10000 2.6 100 18:24 23.08.2019
3190 Clear 26 1024 44 10000 2.6 0 17:46 23.08.2019
3191 Clear 26 1024 44 10000 2.1 120 17:28 23.08.2019
3192 Clear 26 1024 44 10000 4.1 100 16:59 23.08.2019
3193 Clear 26 1024 44 10000 4.1 100 16:40 23.08.2019
3194 Rain 26 1024 44 10000 4.6 110 16:22 23.08.2019
3195 Clear 26 1024 47 10000 3.6 0 15:41 23.08.2019
3196 Clear 26 1025 44 0 4.1 90 15:22 23.08.2019
3197 Clear 26 1025 47 10000 3.1 100 14:58 23.08.2019
3198 Clear 26 1025 47 10000 3.1 100 14:40 23.08.2019
3199 Clear 26 1025 47 10000 2.6 0 14:20 23.08.2019
3200 Clear 25 1025 47 10000 2.1 100 13:56 23.08.2019
3201 Rain 25 1025 47 10000 2.1 100 13:37 23.08.2019
3202 Rain 25 1026 47 10000 2.6 130 13:19 23.08.2019
3203 Rain 25 1026 47 10000 2.6 130 13:19 23.08.2019
3204 Rain 24 1026 44 10000 2.1 100 12:42 23.08.2019
3205 Clouds 24 1026 49 10000 2.1 100 12:24 23.08.2019
3206 Clouds 23 1026 46 10000 3.1 70 11:59 23.08.2019
3207 Clouds 22 1026 46 10000 3.1 70 11:40 23.08.2019
3208 Clouds 22 1026 53 10000 1 0 11:20 23.08.2019
3209 Clear 21 1027 60 10000 0.5 170 10:57 23.08.2019
3210 Clear 20 1027 72 10000 1 0 10:39 23.08.2019
3211 Clear 20 1027 72 10000 1 0 10:20 23.08.2019
3212 Clear 18 1027 72 10000 1 0 09:44 23.08.2019
3213 Clear 17 1027 77 10000 1 0 09:25 23.08.2019
3214 Clear 15 1027 77 10000 0.5 0 08:56 23.08.2019
3215 Clear 13 1027 87 10000 0.5 0 08:37 23.08.2019
3216 Clear 13 1027 87 10000 0.5 0 08:18 23.08.2019
3217 Clear 10 1027 93 10000 0.5 340 07:41 23.08.2019
3218 Fog 10 1026 100 10000 0.5 0 07:23 23.08.2019
3219 Fog 10 1026 100 10000 0.5 0 06:43 23.08.2019
3220 Fog 10 1026 100 10000 1 0 06:22 23.08.2019
3221 Fog 10 1026 93 10000 1.5 90 05:45 23.08.2019
3222 Fog 10 1026 100 10000 1 0 05:25 23.08.2019
3223 Clear 11 1026 100 10000 1 0 03:57 23.08.2019
3224 Clear 12 1026 100 10000 0.5 0 02:39 23.08.2019
3225 Clear 12 1026 87 10000 1 110 02:21 23.08.2019
3226 Clear 12 1026 87 10000 0.5 0 01:30 23.08.2019
3227 Clear 13 1026 87 10000 0.5 100 00:42 23.08.2019
3228 Clear 13 1026 82 10000 1 0 00:18 23.08.2019
3229 Clear 14 1026 77 10000 2.1 100 23:43 22.08.2019
3230 Clear 14 1026 82 10000 3.1 110 23:22 22.08.2019
3231 Clear 15 1026 67 10000 3.6 100 22:43 22.08.2019
3232 Clear 15 1026 67 10000 3.6 100 22:43 22.08.2019
3233 Clear 16 1026 63 10000 2.6 100 22:24 22.08.2019
3234 Clear 17 1026 72 10000 1 0 21:59 22.08.2019
3235 Clear 17 1026 72 10000 1 0 21:40 22.08.2019
3236 Clear 18 1025 56 10000 2.1 90 21:22 22.08.2019
3237 Clear 20 1025 49 10000 2.1 100 20:58 22.08.2019
3238 Clear 20 1025 49 10000 2.1 100 20:40 22.08.2019
3239 Clear 20 1025 49 10000 2.1 100 20:40 22.08.2019
3240 Clear 22 1025 46 10000 1 70 20:20 22.08.2019
3241 Clear 22 1025 43 10000 2.1 90 19:57 22.08.2019
3242 Clear 23 1025 41 10000 2.1 20 19:38 22.08.2019
3243 Clear 23 1025 41 10000 2.1 20 19:38 22.08.2019
3244 Clear 23 1025 41 10000 2.1 20 19:20 22.08.2019
3245 Clear 23 1025 41 10000 2.6 40 18:57 22.08.2019
3246 Clear 24 1025 41 10000 2.1 70 18:39 22.08.2019
3247 Clear 24 1025 41 10000 2.1 70 18:19 22.08.2019
3248 Clear 24 1025 36 10000 3.1 20 17:54 22.08.2019
3249 Clear 24 1025 38 10000 2.6 80 17:36 22.08.2019
3250 Clear 24 1025 36 10000 3.6 40 17:18 22.08.2019
3251 Clear 24 1025 36 10000 3.6 40 16:56 22.08.2019
3252 Clear 24 1025 36 10000 3.6 40 16:37 22.08.2019
3253 Clear 25 1025 44 10000 2.1 0 16:18 22.08.2019
3254 Clear 25 1025 44 10000 2.1 0 16:18 22.08.2019
3255 Clear 25 1025 44 10000 2.1 0 16:18 22.08.2019
3256 Clear 25 1025 38 10000 3.1 30 15:41 22.08.2019
3257 Clear 25 1025 38 10000 3.1 30 15:41 22.08.2019
3258 Clear 25 1025 38 10000 3.1 30 15:41 22.08.2019
3259 Clear 24 1025 41 10000 3.6 90 15:22 22.08.2019
3260 Clear 24 1025 43 10000 2.6 20 14:57 22.08.2019
3261 Clear 24 1025 43 10000 2.6 20 14:39 22.08.2019
3262 Rain 24 1026 43 10000 3.1 70 14:19 22.08.2019
3263 Clear 23 1026 46 10000 3.6 60 13:56 22.08.2019
3264 Clouds 23 1026 46 10000 4.1 60 13:38 22.08.2019
3265 Clouds 23 1026 46 10000 4.1 60 13:18 22.08.2019
3266 Clouds 22 1027 52 10000 5.1 100 12:40 22.08.2019
3267 Clouds 22 1027 52 10000 5.1 100 12:22 22.08.2019
3268 Clouds 21 1027 52 10000 6.7 100 11:57 22.08.2019
3269 Clouds 21 1027 56 10000 6.7 90 11:39 22.08.2019
3270 Clouds 20 1027 56 10000 6.7 90 11:19 22.08.2019
3271 Clear 20 1027 59 10000 6.7 90 10:57 22.08.2019
3272 Clear 19 1027 59 10000 6.7 90 10:37 22.08.2019
3273 Clear 19 1027 63 10000 5.1 90 10:19 22.08.2019
3274 Clear 19 1027 63 10000 4.6 80 09:54 22.08.2019
3275 Clear 18 1027 63 10000 4.6 80 09:36 22.08.2019
3276 Clear 18 1027 63 10000 4.6 80 09:36 22.08.2019
3277 Clear 15 1027 67 10000 0.5 0 09:18 22.08.2019
3278 Clear 13 1027 82 10000 1 0 08:40 22.08.2019
3279 Clear 12 1027 82 10000 1 0 08:21 22.08.2019
3280 Mist 10 1027 100 10000 2.1 120 07:43 22.08.2019
3281 Mist 10 1027 100 10000 2.1 120 07:24 22.08.2019
3282 Clear 10 1027 100 10000 1.5 340 06:59 22.08.2019
3283 Clear 10 1027 100 10000 1.5 340 06:59 22.08.2019
3284 Clear 10 1027 100 10000 1.5 340 06:41 22.08.2019
3285 Clear 10 1027 100 10000 1 0 06:19 22.08.2019
3286 Clear 10 1027 100 10000 1 0 04:42 22.08.2019
3287 Clear 12 1027 93 10000 0.5 0 02:56 22.08.2019
3288 Clear 12 1027 93 10000 0.5 0 02:35 22.08.2019
3289 Clear 12 1027 93 10000 0.5 0 01:27 22.08.2019
3290 Clear 13 1027 87 10000 2.1 110 00:49 22.08.2019
3291 Clear 13 1028 87 10000 0.5 0 00:30 22.08.2019
3292 Clear 13 1028 87 10000 0.5 0 23:58 21.08.2019
3293 Clear 14 1027 82 10000 2.1 90 23:39 21.08.2019
3294 Clear 13 1027 82 10000 2.1 90 23:20 21.08.2019
3295 Clear 14 1027 76 10000 1.5 90 22:56 21.08.2019
3296 Clear 14 1027 76 10000 1.5 90 22:38 21.08.2019
3297 Clear 15 1027 77 10000 1 0 22:19 21.08.2019
3298 Clear 15 1027 77 10000 1.5 110 21:55 21.08.2019
3299 Clear 15 1027 77 10000 1.5 110 21:37 21.08.2019
3300 Clear 17 1028 77 10000 0.5 0 21:18 21.08.2019
3301 Clear 18 1027 72 10000 1 20 20:43 21.08.2019
3302 Clear 18 1027 72 10000 1 20 20:43 21.08.2019
3303 Clear 19 1027 60 10000 1 30 20:24 21.08.2019
3304 Clear 20 1027 49 10000 1 0 19:58 21.08.2019
3305 Clear 20 1027 49 10000 1 0 19:39 21.08.2019
3306 Clear 20 1027 49 10000 1 0 19:39 21.08.2019
3307 Clear 22 1027 38 10000 0.5 0 19:20 21.08.2019
3308 Clear 22 1027 43 10000 2.1 80 18:56 21.08.2019
3309 Clear 21 1027 56 10000 1.5 30 18:37 21.08.2019
3310 Clear 21 1027 56 10000 1.5 30 18:37 21.08.2019
3311 Clear 22 1027 56 10000 1.5 30 18:19 21.08.2019
3312 Clear 22 1027 46 10000 1.5 0 17:42 21.08.2019
3313 Clear 22 1027 46 10000 1.5 0 17:42 21.08.2019
3314 Clear 22 1028 46 10000 2.6 110 17:20 21.08.2019
3315 Clear 23 1028 43 10000 1.5 0 16:55 21.08.2019
3316 Clear 22 1028 43 10000 1.5 0 16:36 21.08.2019
3317 Clear 22 1028 49 10000 2.1 70 16:18 21.08.2019
3318 Clouds 22 1028 46 10000 2.6 350 15:42 21.08.2019
3319 Clouds 22 1028 52 10000 1.5 60 15:22 21.08.2019
3320 Haze 21 1028 56 10000 2.1 10 14:59 21.08.2019
3321 Haze 21 1028 56 10000 2.1 10 14:39 21.08.2019
3322 Haze 21 1028 56 10000 2.1 0 14:21 21.08.2019
3323 Haze 21 1029 59 10000 3.1 0 13:58 21.08.2019
3324 Clouds 21 1029 59 10000 3.1 0 13:40 21.08.2019
3325 Clouds 20 1029 59 10000 2.6 20 13:19 21.08.2019
3326 Mist 20 1029 63 10000 2.1 50 12:57 21.08.2019
3327 Mist 19 1029 72 10000 2.6 360 12:38 21.08.2019
3328 Mist 19 1029 72 10000 2.6 360 12:18 21.08.2019
3329 Mist 19 1029 72 10000 2.6 360 12:18 21.08.2019
3330 Mist 18 1029 77 10000 2.1 0 11:43 21.08.2019
3331 Mist 16 1029 82 10000 1.5 40 11:22 21.08.2019
3332 Mist 17 1029 82 10000 1.5 340 10:58 21.08.2019
3333 Mist 15 1029 82 10000 1 0 10:38 21.08.2019
3334 Mist 15 1029 82 10000 1 0 10:20 21.08.2019
3335 Mist 14 1029 82 10000 0.5 0 09:57 21.08.2019
3336 Mist 13 1029 82 10000 0.5 170 09:37 21.08.2019
3337 Mist 13 1029 82 10000 0.5 170 09:18 21.08.2019
3338 Mist 13 1029 82 10000 0.5 170 09:18 21.08.2019
3339 Mist 12 1030 93 1600 1 270 08:46 21.08.2019
3340 Fog 11 1029 93 10000 0.5 0 08:24 21.08.2019
3341 Fog 11 1029 93 10000 1 0 07:44 21.08.2019
3342 Fog 10 1029 100 10000 0.5 0 07:24 21.08.2019
3343 Fog 10 1029 100 8000 1 0 06:50 21.08.2019
3344 Fog 10 1028 100 9000 1 190 06:32 21.08.2019
3345 Fog 11 1028 100 10000 1 0 05:56 21.08.2019
3346 Fog 11 1028 100 10000 1.5 130 05:28 21.08.2019
3347 Fog 12 1028 93 10000 0.5 0 04:26 21.08.2019
3348 Drizzle 13 1027 100 10000 1 0 01:55 21.08.2019
3349 Rain 13 1028 100 10000 1.5 240 01:23 21.08.2019
3350 Rain 13 1027 100 10000 1 0 00:38 21.08.2019
3351 Rain 13 1027 93 10000 1 270 00:18 21.08.2019
3352 Rain 14 1027 93 10000 1 0 23:44 20.08.2019
3353 Rain 14 1027 93 10000 0.5 0 23:19 20.08.2019
3354 Rain 14 1027 100 10000 1.5 300 22:58 20.08.2019
3355 Rain 14 1027 100 10000 1.5 300 22:39 20.08.2019
3356 Rain 14 1026 93 10000 2.1 280 22:21 20.08.2019
3357 Rain 14 1026 93 10000 2.6 300 21:57 20.08.2019
3358 Rain 14 1026 93 10000 2.6 300 21:38 20.08.2019
3359 Rain 14 1026 93 9000 2.6 310 21:19 20.08.2019
3360 Rain 14 1026 93 9000 2.6 310 21:19 20.08.2019
3361 Rain 14 1025 93 9000 4.6 300 20:56 20.08.2019
3362 Rain 14 1025 93 10000 4.1 300 20:36 20.08.2019
3363 Rain 14 1025 93 9000 4.6 300 20:36 20.08.2019
3364 Rain 14 1025 93 10000 4.1 300 20:18 20.08.2019
3365 Rain 15 1024 93 10000 4.1 300 19:39 20.08.2019
3366 Rain 15 1024 93 10000 4.6 300 19:21 20.08.2019
3367 Rain 16 1023 82 10000 4.6 320 18:56 20.08.2019
3368 Rain 16 1023 82 10000 4.6 320 18:38 20.08.2019
3369 Rain 17 1023 77 10000 2.1 310 18:19 20.08.2019
3370 Rain 18 1023 77 10000 2.1 300 17:55 20.08.2019
3371 Rain 18 1023 77 10000 2.1 300 17:37 20.08.2019
3372 Rain 19 1023 77 10000 2.1 300 17:18 20.08.2019
3373 Rain 19 1022 77 10000 1.5 20 16:42 20.08.2019
3374 Rain 19 1022 72 10000 2.1 330 16:23 20.08.2019
3375 Rain 20 1023 72 10000 2.6 330 15:42 20.08.2019
3376 Rain 20 1022 72 10000 2.6 330 15:19 20.08.2019
3377 Rain 20 1022 72 10000 2.6 330 14:57 20.08.2019
3378 Rain 20 1023 63 10000 3.6 300 14:39 20.08.2019
3379 Rain 20 1023 63 10000 3.6 300 14:20 20.08.2019
3380 Drizzle 20 1022 72 10000 3.1 320 13:56 20.08.2019
3381 Rain 20 1022 72 10000 3.1 340 13:37 20.08.2019
3382 Clear 20 1022 68 10000 2.6 330 13:19 20.08.2019
3383 Clear 20 1022 72 10000 2.1 330 12:50 20.08.2019
3384 Clear 20 1022 72 10000 2.1 330 12:25 20.08.2019
3385 Clear 20 1022 72 10000 2.6 300 12:25 20.08.2019
3386 Clear 20 1022 72 10000 2.6 300 11:56 20.08.2019
3387 Clear 20 1022 72 10000 1.5 320 11:38 20.08.2019
3388 Clear 20 1022 72 10000 1.5 320 11:18 20.08.2019
3389 Clear 19 1021 77 10000 1.5 10 10:56 20.08.2019
3390 Clear 19 1021 77 10000 2.6 330 10:37 20.08.2019
3391 Clear 18 1021 77 10000 2.6 330 10:19 20.08.2019
3392 Clear 17 1021 82 10000 1 0 09:43 20.08.2019
3393 Clear 17 1021 82 10000 1 0 09:24 20.08.2019
3394 Fog 15 1021 93 10000 1 10 08:43 20.08.2019
3395 Fog 15 1021 93 10000 1 10 08:43 20.08.2019
3396 Fog 15 1021 93 10000 1 10 08:25 20.08.2019
3397 Clear 14 1021 93 10000 1.5 350 07:59 20.08.2019
3398 Clear 14 1021 100 10000 1 0 07:41 20.08.2019
3399 Clear 14 1021 100 10000 1 0 07:22 20.08.2019
3400 Clear 14 1021 100 10000 0.5 100 06:56 20.08.2019
3401 Clear 14 1020 93 10000 1 340 06:24 20.08.2019
3402 Clear 14 1020 100 10000 0.77 338.379 05:49 20.08.2019
3403 Clear 14 1020 100 10000 1 270 04:57 20.08.2019
3404 Clear 15 1020 100 10000 1 0 03:52 20.08.2019
3405 Clear 15 1020 93 10000 0.39 116.045 02:36 20.08.2019
3406 Clear 16 1020 93 10000 0.5 20 01:36 20.08.2019
3407 Clear 16 1020 87 10000 0.5 10 00:51 20.08.2019
3408 Clear 16 1020 87 10000 0.5 10 00:31 20.08.2019
3409 Clear 16 1020 93 10000 1.5 330 23:57 19.08.2019
3410 Clear 16 1019 82 10000 1.5 100 23:38 19.08.2019
3411 Clear 17 1019 82 10000 1 0 23:18 19.08.2019
3412 Clear 17 1019 77 10000 1 0 22:41 19.08.2019
3413 Clear 19 1019 68 10000 1.5 190 22:22 19.08.2019
3414 Clear 19 1019 68 10000 1.5 190 21:58 19.08.2019
3415 Clear 19 1019 64 10000 1 190 21:39 19.08.2019
3416 Clear 20 1019 64 10000 1.5 180 21:21 19.08.2019
3417 Clear 21 1019 64 10000 1.5 180 20:59 19.08.2019
3418 Rain 21 1018 60 10000 1.5 190 20:39 19.08.2019
3419 Clouds 22 1018 56 10000 2.6 230 20:20 19.08.2019
3420 Clouds 22 1018 56 10000 2.6 230 19:58 19.08.2019
3421 Clouds 23 1018 56 10000 2.6 230 19:39 19.08.2019
3422 Clouds 23 1018 56 10000 2.1 220 19:19 19.08.2019
3423 Clouds 23 1018 56 10000 2.1 220 19:19 19.08.2019
3424 Clouds 23 1018 56 10000 2.6 190 18:44 19.08.2019
3425 Clouds 23 1018 56 10000 2.1 140 18:26 19.08.2019
3426 Clouds 24 1018 56 10000 2.1 140 17:58 19.08.2019
3427 Clouds 24 1018 56 10000 1.5 150 17:40 19.08.2019
3428 Clouds 23 1018 56 10000 1 0 17:20 19.08.2019
3429 Clouds 23 1018 56 10000 1 0 16:58 19.08.2019
3430 Clouds 24 1018 56 10000 1 0 16:37 19.08.2019
3431 Clouds 24 1018 56 10000 1 0 16:18 19.08.2019
3432 Clouds 24 1018 56 10000 1 0 15:45 19.08.2019
3433 Rain 23 1018 56 10000 1.5 0 15:20 19.08.2019
3434 Clouds 23 1018 60 10000 1 0 14:58 19.08.2019
3435 Clouds 23 1018 64 10000 2.1 260 14:38 19.08.2019
3436 Clouds 23 1018 64 10000 2.1 260 14:20 19.08.2019
3437 Clouds 23 1018 64 10000 1.5 0 13:57 19.08.2019
3438 Clouds 23 1018 64 10000 1.5 0 13:57 19.08.2019
3439 Clouds 23 1018 64 10000 1.5 0 13:37 19.08.2019
3440 Clouds 23 1018 64 10000 1.5 0 13:37 19.08.2019
3441 Clouds 22 1018 68 10000 1 0 13:19 19.08.2019
3442 Clouds 22 1018 72 10000 2.1 360 12:44 19.08.2019
3443 Clouds 21 1018 82 10000 3.6 330 12:24 19.08.2019
3444 Clouds 20 1018 77 10000 2.6 250 11:57 19.08.2019
3445 Clouds 20 1018 77 10000 2.6 250 11:37 19.08.2019
3446 Clouds 19 1017 82 10000 3.1 230 11:18 19.08.2019
3447 Clouds 19 1017 88 10000 3.1 200 10:40 19.08.2019
3448 Rain 19 1017 93 10000 3.1 180 10:19 19.08.2019
3449 Clouds 18 1017 93 10000 2.6 180 09:57 19.08.2019
3450 Clouds 18 1017 93 10000 2.6 180 09:39 19.08.2019
3451 Clouds 18 1017 93 10000 2.6 180 09:39 19.08.2019
3452 Rain 18 1017 88 10000 2.6 190 09:21 19.08.2019
3453 Rain 18 1016 93 10000 2.6 170 08:46 19.08.2019
3454 Rain 18 1016 93 10000 2.6 190 08:25 19.08.2019
3455 Rain 18 1016 93 10000 2.1 170 07:58 19.08.2019
3456 Clouds 18 1016 93 10000 2.1 170 07:39 19.08.2019
3457 Clouds 18 1016 93 10000 1.5 170 07:19 19.08.2019
3458 Rain 18 1016 93 10000 3.1 170 06:40 19.08.2019
3459 Rain 18 1015 93 10000 3.1 180 05:28 19.08.2019
3460 Rain 18 1015 93 10000 2.6 170 04:34 19.08.2019
3461 Rain 19 1015 88 10000 3.1 190 03:58 19.08.2019
3462 Rain 19 1015 88 10000 3.1 190 03:18 19.08.2019
3463 Rain 19 1014 93 10000 2.1 120 01:45 19.08.2019
3464 Rain 19 1013 93 10000 1 0 00:59 19.08.2019
3465 Rain 19 1013 93 10000 1 0 00:37 19.08.2019
3466 Rain 19 1012 93 10000 2.1 130 00:18 19.08.2019
3467 Rain 19 1012 88 10000 2.1 350 23:39 18.08.2019
3468 Rain 20 1012 88 10000 2.1 350 23:20 18.08.2019
3469 Clear 20 1012 88 10000 2.6 320 22:40 18.08.2019
3470 Rain 20 1011 93 10000 1.5 50 22:21 18.08.2019
3471 Rain 21 1011 100 10000 1 0 21:57 18.08.2019
3472 Rain 21 1011 100 10000 1 0 21:57 18.08.2019
3473 Rain 21 1011 100 10000 1 0 21:39 18.08.2019
3474 Rain 21 1010 93 10000 2.1 110 21:20 18.08.2019
3475 Rain 22 1010 88 10000 1 0 20:57 18.08.2019
3476 Rain 23 1010 88 10000 1 0 20:38 18.08.2019
3477 Rain 23 1010 82 10000 4.6 130 20:20 18.08.2019
3478 Thunderstorm 26 1010 78 10000 5.1 200 19:42 18.08.2019
3479 Clouds 27 1008 51 10000 2.6 10 19:23 18.08.2019
3480 Clear 30 1009 45 10000 3.6 290 18:57 18.08.2019
3481 Clear 30 1009 45 10000 3.6 290 18:39 18.08.2019
3482 Clear 30 1009 40 10000 5.7 270 18:21 18.08.2019
3483 Clear 31 1009 40 10000 4.1 250 17:54 18.08.2019
3484 Clear 31 1009 40 10000 4.1 250 17:36 18.08.2019
3485 Clear 31 1009 38 10000 4.1 230 17:18 18.08.2019
3486 Clear 30 1009 38 10000 5.7 250 16:43 18.08.2019
3487 Clear 30 1009 40 10000 5.1 240 16:23 18.08.2019
3488 Clear 30 1010 40 10000 4.6 220 15:59 18.08.2019
3489 Clear 30 1010 40 10000 4.6 220 15:39 18.08.2019
3490 Clear 30 1010 40 10000 4.6 210 15:20 18.08.2019
3491 Clear 30 1010 40 10000 4.6 210 15:20 18.08.2019
3492 Clear 29 1010 45 10000 5.7 230 14:57 18.08.2019
3493 Clear 29 1010 45 10000 5.7 230 14:57 18.08.2019
3494 Clear 29 1010 45 10000 5.7 230 14:38 18.08.2019
3495 Clear 29 1010 45 10000 4.1 230 14:19 18.08.2019
3496 Clear 29 1010 45 10000 3.6 250 13:56 18.08.2019
3497 Clouds 27 1010 47 10000 3.6 220 13:37 18.08.2019
3498 Clouds 27 1010 47 10000 3.6 220 13:19 18.08.2019
3499 Clouds 26 1011 51 10000 4.1 210 12:41 18.08.2019
3500 Clouds 26 1011 57 10000 3.6 210 12:22 18.08.2019
3501 Clouds 25 1011 54 10000 4.6 240 11:55 18.08.2019
3502 Clouds 25 1011 54 10000 4.6 240 11:36 18.08.2019
3503 Clouds 25 1011 57 10000 3.6 0 11:18 18.08.2019
3504 Clear 23 1011 60 10000 3.6 210 10:41 18.08.2019
3505 Clear 23 1011 64 10000 4.1 200 10:21 18.08.2019
3506 Clear 21 1011 64 10000 3.6 190 09:51 18.08.2019
3507 Clear 20 1011 72 10000 4.6 170 09:23 18.08.2019
3508 Clear 18 1011 72 10000 3.6 160 08:55 18.08.2019
3509 Clear 18 1011 72 10000 3.6 160 08:37 18.08.2019
3510 Clear 18 1011 77 10000 3.6 150 08:18 18.08.2019
3511 Clear 17 1011 77 10000 3.6 150 07:44 18.08.2019
3512 Clear 16 1011 82 10000 2.6 170 07:25 18.08.2019
3513 Clear 16 1011 93 10000 2.6 130 05:48 18.08.2019
3514 Clear 16 1011 93 10000 3.1 140 04:53 18.08.2019
3515 Clouds 16 1012 87 10000 2.6 120 03:36 18.08.2019
3516 Clouds 17 1012 88 10000 2.6 140 02:46 18.08.2019
3517 Rain 17 1013 88 10000 2.6 160 02:23 18.08.2019
3518 Drizzle 17 1013 88 10000 2.6 140 01:30 18.08.2019
3519 Clouds 17 1013 88 10000 2.6 150 00:56 18.08.2019
3520 Clouds 17 1014 82 10000 2.1 250 00:37 18.08.2019
3521 Clouds 17 1014 82 10000 2.1 250 00:18 18.08.2019
3522 Rain 17 1014 82 10000 3.1 220 23:56 17.08.2019
3523 Clouds 17 1014 82 10000 3.1 220 23:36 17.08.2019
3524 Clouds 17 1013 82 10000 3.1 210 23:18 17.08.2019
3525 Clouds 18 1013 82 10000 3.1 210 23:18 17.08.2019
3526 Rain 18 1014 82 10000 1.5 210 22:41 17.08.2019
3527 Rain 18 1014 77 10000 2.1 260 22:23 17.08.2019
3528 Rain 18 1014 77 10000 3.1 250 21:59 17.08.2019
3529 Rain 18 1014 77 10000 3.1 250 21:40 17.08.2019
3530 Rain 18 1014 93 10000 0.5 0 21:21 17.08.2019
3531 Rain 19 1013 82 10000 0.5 0 20:40 17.08.2019
3532 Rain 20 1013 64 10000 1 0 20:21 17.08.2019
3533 Rain 21 1013 60 10000 1.5 200 19:58 17.08.2019
3534 Rain 21 1013 60 10000 1.5 200 19:39 17.08.2019
3535 Rain 21 1013 60 10000 1 0 19:20 17.08.2019
3536 Clouds 21 1014 64 10000 1.5 290 18:41 17.08.2019
3537 Clouds 21 1014 64 10000 1.5 290 18:19 17.08.2019
3538 Rain 22 1014 53 10000 2.1 250 17:58 17.08.2019
3539 Rain 22 1014 53 10000 2.1 250 17:40 17.08.2019
3540 Clear 22 1013 49 10000 3.1 240 17:21 17.08.2019
3541 Clear 23 1013 46 10000 4.6 220 16:45 17.08.2019
3542 Clear 23 1013 53 10000 3.6 220 16:26 17.08.2019
3543 Clear 23 1013 49 10000 4.1 210 15:59 17.08.2019
3544 Clear 23 1013 49 10000 4.1 210 15:40 17.08.2019
3545 Clear 23 1014 53 10000 3.1 200 15:21 17.08.2019
3546 Clear 23 1014 56 10000 4.1 200 14:43 17.08.2019
3547 Clear 23 1014 56 10000 4.6 180 14:24 17.08.2019
3548 Rain 22 1014 56 10000 3.1 180 13:56 17.08.2019
3549 Rain 21 1015 64 10000 3.6 190 13:37 17.08.2019
3550 Rain 22 1015 64 10000 3.6 190 13:18 17.08.2019
3551 Clear 21 1015 60 10000 2.6 210 12:42 17.08.2019
3552 Rain 21 1015 64 10000 2.6 180 12:19 17.08.2019
3553 Drizzle 20 1015 64 10000 2.1 170 11:57 17.08.2019
3554 Clear 20 1015 68 10000 3.1 160 11:36 17.08.2019
3555 Clear 20 1015 68 10000 3.1 160 11:18 17.08.2019
3556 Clear 19 1015 63 10000 3.1 180 10:39 17.08.2019
3557 Clear 18 1015 68 10000 3.6 170 10:19 17.08.2019
3558 Clear 17 1014 68 10000 3.6 160 09:50 17.08.2019
3559 Clear 17 1014 72 10000 3.1 160 09:31 17.08.2019
3560 Clear 16 1014 77 10000 3.1 140 08:54 17.08.2019
3561 Clear 16 1014 77 10000 3.1 130 08:26 17.08.2019
3562 Clear 15 1014 82 10000 3.1 120 07:53 17.08.2019
3563 Clear 14 1014 77 10000 2.1 110 07:22 17.08.2019
3564 Clear 14 1014 77 10000 2.1 110 07:22 17.08.2019
3565 Clear 14 1014 82 10000 3.1 110 06:55 17.08.2019
3566 Clear 14 1014 87 10000 2.6 120 05:57 17.08.2019
3567 Clear 12 1015 87 10000 3.6 110 04:31 17.08.2019
3568 Clear 12 1015 87 10000 3.6 110 03:36 17.08.2019
3569 Clear 12 1016 87 10000 3.1 120 01:48 17.08.2019
3570 Clear 12 1016 87 10000 2.6 120 01:29 17.08.2019
3571 Clear 13 1016 82 10000 2.6 120 00:55 17.08.2019
3572 Clear 13 1016 87 10000 2.6 120 00:31 17.08.2019
3573 Clear 14 1017 87 10000 1.5 110 23:52 16.08.2019
3574 Clear 14 1016 82 10000 3.6 110 23:30 16.08.2019
3575 Clear 15 1016 77 10000 3.1 100 22:58 16.08.2019
3576 Clear 15 1016 77 10000 1.5 110 22:39 16.08.2019
3577 Clear 15 1016 77 10000 1.5 110 22:19 16.08.2019
3578 Clear 16 1017 67 10000 1 110 21:42 16.08.2019
3579 Clear 18 1016 63 10000 1 10 21:21 16.08.2019
3580 Clear 19 1016 59 10000 0.5 0 20:56 16.08.2019
3581 Clear 20 1016 52 10000 2.1 280 20:38 16.08.2019
3582 Clear 20 1016 52 10000 2.1 280 20:19 16.08.2019
3583 Clear 21 1016 49 10000 2.1 290 19:44 16.08.2019
3584 Clear 21 1017 46 10000 3.1 280 19:23 16.08.2019
3585 Clear 22 1017 43 10000 3.1 270 18:54 16.08.2019
3586 Clear 22 1017 43 10000 3.1 260 18:36 16.08.2019
3587 Clear 22 1017 43 10000 3.1 260 18:36 16.08.2019
3588 Clear 22 1017 43 10000 3.1 260 18:18 16.08.2019
3589 Clear 23 1017 40 10000 3.6 260 17:43 16.08.2019
3590 Clear 22 1017 43 10000 3.6 230 17:24 16.08.2019
3591 Clear 22 1017 46 10000 3.1 240 16:56 16.08.2019
3592 Clear 22 1017 46 10000 3.1 240 16:37 16.08.2019
3593 Clear 22 1017 46 10000 1.5 0 16:18 16.08.2019
3594 Clouds 22 1018 49 10000 2.6 310 15:40 16.08.2019
3595 Clouds 22 1018 49 10000 1 0 15:21 16.08.2019
3596 Clouds 22 1018 49 10000 1 0 15:21 16.08.2019
3597 Clouds 22 1018 52 10000 1.5 0 14:58 16.08.2019
3598 Clouds 21 1018 52 10000 1.5 0 14:39 16.08.2019
3599 Clouds 21 1018 52 10000 1.5 0 14:39 16.08.2019
3600 Clouds 21 1019 56 10000 1.5 280 14:19 16.08.2019
3601 Clouds 21 1019 60 10000 1 180 13:42 16.08.2019
3602 Clouds 21 1019 63 10000 1.5 50 13:23 16.08.2019
3603 Clouds 20 1019 68 10000 2.1 340 12:58 16.08.2019
3604 Clouds 20 1019 68 10000 2.1 340 12:37 16.08.2019
3605 Clouds 19 1020 68 10000 2.1 0 12:19 16.08.2019
3606 Clouds 19 1020 72 10000 1 0 11:42 16.08.2019
3607 Clouds 18 1020 77 10000 1.5 330 11:24 16.08.2019
3608 Clouds 18 1020 77 10000 1.5 290 10:43 16.08.2019
3609 Clouds 18 1020 77 10000 3.1 280 10:25 16.08.2019
3610 Clouds 16 1020 82 10000 3.6 250 09:56 16.08.2019
3611 Clouds 16 1020 82 10000 3.6 250 09:37 16.08.2019
3612 Clouds 16 1020 82 10000 3.6 250 09:37 16.08.2019
3613 Clouds 16 1020 82 10000 2.6 250 09:18 16.08.2019
3614 Clouds 16 1020 82 10000 2.6 250 09:18 16.08.2019
3615 Clouds 16 1020 82 10000 2.6 250 09:18 16.08.2019
3616 Clouds 15 1020 82 10000 3.1 240 08:41 16.08.2019
3617 Clouds 15 1019 82 10000 2.1 230 08:21 16.08.2019
3618 Clouds 15 1019 82 10000 2.1 240 07:54 16.08.2019
3619 Clouds 14 1019 82 10000 2.1 240 07:33 16.08.2019
3620 Clouds 14 1019 82 10000 2.6 250 06:57 16.08.2019
3621 Clouds 14 1019 87 10000 2.1 240 06:31 16.08.2019
3622 Clouds 14 1019 87 10000 1 0 05:41 16.08.2019
3623 Clouds 14 1019 82 10000 4.6 260 04:28 16.08.2019
3624 Clouds 15 1018 77 10000 3.1 270 02:40 16.08.2019
3625 Rain 15 1017 77 10000 3.6 270 01:33 16.08.2019
3626 Clouds 15 1017 77 10000 3.1 260 00:59 16.08.2019
3627 Clear 15 1017 87 10000 2.6 290 00:40 16.08.2019
3628 Rain 15 1017 87 10000 2.6 290 00:20 16.08.2019
3629 Drizzle 15 1017 87 10000 2.1 310 23:44 15.08.2019
3630 Rain 16 1017 87 10000 3.1 340 23:21 15.08.2019
3631 Clouds 16 1016 82 10000 2.1 330 22:57 15.08.2019
3632 Clouds 16 1016 82 10000 2.1 330 22:39 15.08.2019
3633 Clouds 16 1016 82 10000 2.1 330 22:39 15.08.2019
3634 Clouds 16 1016 82 10000 2.1 330 22:39 15.08.2019
3635 Clouds 16 1016 82 10000 2.1 330 22:39 15.08.2019
3636 Clouds 17 1016 77 10000 4.1 320 22:20 15.08.2019
3637 Clouds 17 1015 68 10000 1.5 230 21:54 15.08.2019
3638 Clouds 17 1015 68 10000 2.1 240 21:36 15.08.2019
3639 Clouds 17 1015 68 10000 2.1 240 21:18 15.08.2019
3640 Rain 18 1015 68 10000 2.6 260 20:42 15.08.2019
3641 Rain 18 1014 64 10000 3.1 250 20:21 15.08.2019
3642 Rain 18 1014 64 10000 3.1 250 20:21 15.08.2019
3643 Rain 18 1014 64 10000 3.1 250 20:21 15.08.2019
3644 Clouds 19 1014 64 10000 4.1 260 19:57 15.08.2019
3645 Rain 19 1014 64 10000 4.1 260 19:38 15.08.2019
3646 Rain 20 1014 64 10000 2.6 240 19:20 15.08.2019
3647 Clouds 20 1014 72 10000 0.5 0 18:46 15.08.2019
3648 Clouds 20 1014 68 10000 3.1 350 18:23 15.08.2019
3649 Drizzle 20 1014 68 10000 3.6 340 17:57 15.08.2019
3650 Clouds 21 1014 68 10000 3.6 340 17:37 15.08.2019
3651 Clouds 20 1014 64 10000 1 0 17:19 15.08.2019
3652 Clouds 20 1014 68 10000 1 0 16:48 15.08.2019
3653 Clouds 20 1014 72 10000 2.6 200 16:27 15.08.2019
3654 Rain 19 1014 72 10000 3.6 190 15:59 15.08.2019
3655 Rain 19 1014 72 10000 3.6 190 15:38 15.08.2019
3656 Rain 19 1014 72 10000 4.1 180 15:19 15.08.2019
3657 Rain 18 1015 82 10000 3.1 180 14:43 15.08.2019
3658 Rain 17 1015 82 10000 3.6 200 14:23 15.08.2019
3659 Rain 16 1015 82 10000 4.1 190 13:58 15.08.2019
3660 Rain 17 1015 82 10000 4.1 190 13:40 15.08.2019
3661 Rain 17 1015 87 10000 3.1 180 13:21 15.08.2019
3662 Rain 17 1015 82 10000 3.1 200 12:57 15.08.2019
3663 Rain 17 1015 82 10000 3.1 200 12:39 15.08.2019
3664 Rain 17 1015 72 10000 3.6 190 12:19 15.08.2019
3665 Rain 17 1015 72 10000 4.1 230 11:57 15.08.2019
3666 Rain 17 1015 72 10000 4.1 230 11:36 15.08.2019
3667 Rain 17 1015 63 10000 1 0 11:18 15.08.2019
3668 Clear 17 1015 63 10000 2.1 200 10:54 15.08.2019
3669 Rain 17 1015 63 10000 3.6 180 10:36 15.08.2019
3670 Rain 17 1015 63 10000 3.6 180 10:18 15.08.2019
3671 Clear 16 1015 63 10000 3.6 160 09:41 15.08.2019
3672 Clear 16 1015 67 10000 3.6 160 09:21 15.08.2019
3673 Clear 15 1015 77 10000 3.1 130 08:38 15.08.2019
3674 Clear 14 1015 82 10000 3.6 130 08:19 15.08.2019
3675 Clear 13 1015 87 10000 2.1 120 07:50 15.08.2019
3676 Clear 11 1015 93 10000 2.1 130 07:32 15.08.2019
3677 Clear 11 1015 93 10000 3.1 110 06:57 15.08.2019
3678 Clear 10 1015 93 10000 3.1 110 06:39 15.08.2019
3679 Clear 10 1015 93 10000 3.1 110 06:21 15.08.2019
3680 Clear 10 1016 87 10000 3.1 110 05:29 15.08.2019
3681 Clear 10 1016 93 10000 3.6 100 04:50 15.08.2019
3682 Clear 10 1017 93 10000 3.1 110 03:48 15.08.2019
3683 Clear 10 1017 87 10000 4.1 100 02:47 15.08.2019
3684 Clear 10 1017 87 10000 3.6 110 01:58 15.08.2019
3685 Clear 10 1017 87 10000 3.6 110 01:38 15.08.2019
3686 Clear 11 1018 87 10000 4.1 100 00:42 15.08.2019
3687 Clear 12 1018 82 10000 3.6 100 00:22 15.08.2019
3688 Clear 12 1018 82 10000 3.6 110 23:59 14.08.2019
3689 Clear 12 1018 82 10000 3.6 110 23:40 14.08.2019
3690 Clear 13 1018 76 10000 3.1 100 23:19 14.08.2019
3691 Clear 13 1018 76 10000 3.1 100 22:57 14.08.2019
3692 Clear 13 1018 76 10000 3.1 100 22:57 14.08.2019
3693 Clear 14 1018 76 10000 3.1 100 22:39 14.08.2019
3694 Clear 14 1018 72 10000 2.6 100 22:21 14.08.2019
3695 Clear 15 1018 67 10000 1.5 110 21:56 14.08.2019
3696 Clear 15 1018 67 10000 0.5 70 21:37 14.08.2019
3697 Clear 16 1018 67 10000 0.5 70 21:18 14.08.2019
3698 Clear 18 1018 63 10000 0.5 0 20:42 14.08.2019
3699 Clear 19 1018 55 10000 1 0 20:22 14.08.2019
3700 Clear 19 1018 52 10000 2.6 320 19:56 14.08.2019
3701 Clear 20 1018 52 10000 2.6 320 19:38 14.08.2019
3702 Clear 20 1018 49 10000 2.6 310 19:20 14.08.2019
3703 Clear 20 1018 49 10000 3.1 310 18:57 14.08.2019
3704 Clear 20 1018 49 10000 3.1 310 18:38 14.08.2019
3705 Clear 20 1018 49 10000 3.6 330 18:20 14.08.2019
3706 Rain 20 1018 52 10000 3.6 280 17:56 14.08.2019
3707 Rain 20 1018 52 10000 3.6 280 17:37 14.08.2019
3708 Rain 20 1018 49 10000 3.1 240 17:19 14.08.2019
3709 Clear 20 1019 55 10000 3.1 300 16:43 14.08.2019
3710 Clear 20 1019 49 10000 5.1 250 16:20 14.08.2019
3711 Clear 19 1019 49 10000 5.7 250 15:55 14.08.2019
3712 Clear 19 1019 49 10000 5.7 250 15:55 14.08.2019
3713 Clear 19 1019 49 10000 3.6 280 15:36 14.08.2019
3714 Clear 19 1019 49 10000 3.6 280 15:18 14.08.2019
3715 Clouds 19 1019 46 10000 4.6 240 14:40 14.08.2019
3716 Clouds 19 1019 45 10000 5.1 250 14:19 14.08.2019
3717 Clouds 19 1020 52 10000 4.6 270 13:56 14.08.2019
3718 Clouds 19 1020 52 10000 4.6 270 13:56 14.08.2019
3719 Clouds 19 1020 52 10000 4.6 270 13:38 14.08.2019
3720 Clouds 19 1020 52 10000 4.6 290 13:20 14.08.2019
3721 Rain 18 1020 55 10000 3.1 290 12:56 14.08.2019
3722 Clouds 18 1020 55 10000 3.1 260 12:37 14.08.2019
3723 Rain 18 1020 55 10000 3.1 290 12:37 14.08.2019
3724 Clouds 18 1020 55 10000 3.1 260 12:19 14.08.2019
3725 Rain 17 1020 55 10000 2.1 230 11:45 14.08.2019
3726 Rain 17 1020 55 10000 1 0 11:23 14.08.2019
3727 Rain 16 1020 59 10000 1 0 10:58 14.08.2019
3728 Clouds 16 1020 59 10000 1 0 10:38 14.08.2019
3729 Clear 16 1020 63 10000 1.5 280 10:20 14.08.2019
3730 Clear 14 1020 71 10000 1 0 09:44 14.08.2019
3731 Clear 14 1020 82 10000 1.5 110 09:21 14.08.2019
3732 Clear 14 1020 82 10000 1.5 110 09:21 14.08.2019
3733 Clear 11 1020 87 10000 1 0 08:45 14.08.2019
3734 Clear 11 1020 87 10000 2.6 100 08:27 14.08.2019
3735 Clear 9 1019 93 10000 2.6 100 07:57 14.08.2019
3736 Clear 9 1019 93 10000 2.6 100 07:37 14.08.2019
3737 Clear 9 1019 93 10000 2.6 100 07:37 14.08.2019
3738 Mist 9 1019 93 10000 2.6 120 06:53 14.08.2019
3739 Mist 8 1019 93 10000 3.1 100 06:35 14.08.2019
3740 Clear 9 1019 93 10000 3.6 110 05:33 14.08.2019
3741 Clear 11 1019 87 10000 3.1 100 03:58 14.08.2019
3742 Clear 11 1019 87 10000 2.1 120 02:39 14.08.2019
3743 Clear 11 1019 87 10000 2.1 140 02:18 14.08.2019
3744 Clear 11 1019 87 10000 2.32 275.893 01:30 14.08.2019
3745 Clear 13 1019 76 10000 0.5 290 00:31 14.08.2019
3746 Clear 14 1019 87 10000 1 350 23:43 13.08.2019
3747 Clear 14 1019 76 10000 1 0 23:20 13.08.2019
3748 Clear 15 1019 67 10000 2.1 200 22:56 13.08.2019
3749 Clear 15 1019 67 10000 2.1 200 22:38 13.08.2019
3750 Clear 15 1019 63 10000 2.1 210 22:19 13.08.2019
3751 Clear 16 1019 55 10000 2.1 260 21:55 13.08.2019
3752 Clear 16 1019 55 10000 2.1 260 21:36 13.08.2019
3753 Clear 16 1018 55 10000 2.1 270 21:18 13.08.2019
3754 Clear 18 1018 52 10000 3.6 280 20:42 13.08.2019
3755 Clear 18 1018 52 10000 3.6 280 20:20 13.08.2019
3756 Clear 18 1018 45 10000 4.1 280 19:56 13.08.2019
3757 Clear 19 1018 45 10000 4.1 280 19:38 13.08.2019
3758 Clear 19 1018 45 10000 4.6 280 19:19 13.08.2019
3759 Clear 19 1018 45 10000 4.1 280 18:41 13.08.2019
3760 Clear 19 1018 45 10000 4.1 280 18:41 13.08.2019
3761 Clear 20 1018 42 10000 5.1 280 18:22 13.08.2019
3762 Clear 20 1018 48 10000 4.6 310 17:54 13.08.2019
3763 Clear 20 1018 49 10000 5.1 300 17:36 13.08.2019
3764 Clear 20 1018 49 10000 5.1 300 17:18 13.08.2019
3765 Clear 21 1018 49 10000 5.1 290 16:54 13.08.2019
3766 Clear 21 1018 49 10000 5.1 290 16:54 13.08.2019
3767 Clear 21 1018 45 10000 5.7 280 16:36 13.08.2019
3768 Clear 21 1018 45 10000 5.7 280 16:18 13.08.2019
3769 Clear 21 1018 43 10000 4.6 290 15:38 13.08.2019
3770 Clear 21 1019 45 10000 5.1 260 15:20 13.08.2019
3771 Clouds 21 1019 45 10000 5.7 260 14:48 13.08.2019
3772 Clouds 21 1019 49 10000 4.6 270 14:21 13.08.2019
3773 Clouds 20 1019 52 10000 6.2 270 13:59 13.08.2019
3774 Clouds 20 1019 52 10000 6.2 270 13:41 13.08.2019
3775 Clouds 20 1019 52 10000 6.2 250 13:21 13.08.2019
3776 Rain 19 1019 55 10000 7.2 290 12:57 13.08.2019
3777 Rain 19 1019 56 10000 4.6 280 12:39 13.08.2019
3778 Rain 19 1019 56 10000 4.6 280 12:21 13.08.2019
3779 Rain 18 1019 59 10000 5.1 260 11:42 13.08.2019
3780 Clouds 18 1019 63 10000 5.1 280 11:23 13.08.2019
3781 Clouds 18 1019 63 10000 5.1 260 10:58 13.08.2019
3782 Clouds 18 1019 63 10000 5.1 260 10:38 13.08.2019
3783 Clouds 18 1019 63 10000 5.1 260 10:38 13.08.2019
3784 Clouds 18 1019 68 10000 4.6 260 10:20 13.08.2019
3785 Clouds 18 1019 68 10000 4.6 260 10:20 13.08.2019
3786 Clouds 17 1019 68 10000 3.1 260 09:56 13.08.2019
3787 Clouds 17 1019 68 10000 3.1 260 09:38 13.08.2019
3788 Clouds 17 1019 77 10000 2.6 220 09:19 13.08.2019
3789 Clear 15 1019 77 10000 3.1 190 08:41 13.08.2019
3790 Clear 15 1019 82 10000 2.6 190 08:21 13.08.2019
3791 Clear 13 1018 87 10000 1.5 170 07:47 13.08.2019
3792 Mist 13 1018 82 10000 2.1 170 07:28 13.08.2019
3793 Clear 13 1018 87 10000 1.5 180 06:44 13.08.2019
3794 Clear 13 1018 87 10000 2.1 150 06:19 13.08.2019
3795 Clear 13 1018 100 10000 1.5 150 05:32 13.08.2019
3796 Clear 14 1018 100 10000 2.61 244.674 02:32 13.08.2019
3797 Clear 15 1018 93 10000 1 0 01:46 13.08.2019
3798 Rain 15 1018 87 10000 2.6 210 00:53 13.08.2019
3799 Rain 15 1018 87 10000 2.1 190 00:35 13.08.2019
3800 Rain 16 1017 87 10000 3.6 150 23:47 12.08.2019
3801 Rain 16 1017 82 10000 2.6 180 23:21 12.08.2019
3802 Mist 16 1017 82 10000 2.6 180 22:57 12.08.2019
3803 Mist 16 1017 82 10000 2.6 150 22:38 12.08.2019
3804 Mist 16 1017 82 10000 2.6 150 22:19 12.08.2019
3805 Clear 16 1017 72 10000 3.1 170 21:55 12.08.2019
3806 Clear 17 1017 72 10000 3.1 170 21:36 12.08.2019
3807 Clear 17 1016 72 10000 2.1 180 21:18 12.08.2019
3808 Clear 18 1016 68 10000 2.6 190 20:42 12.08.2019
3809 Clear 18 1016 68 10000 2.6 200 20:21 12.08.2019
3810 Clear 18 1016 68 10000 3.1 180 19:59 12.08.2019
3811 Clear 18 1016 68 10000 3.1 180 19:39 12.08.2019
3812 Clouds 19 1016 63 10000 3.1 190 19:21 12.08.2019
3813 Clouds 19 1016 68 10000 1.5 180 18:59 12.08.2019
3814 Clouds 19 1016 68 10000 1.5 180 18:40 12.08.2019
3815 Clouds 20 1016 63 10000 2.1 180 18:21 12.08.2019
3816 Clouds 20 1016 56 10000 2.1 220 17:56 12.08.2019
3817 Clouds 20 1016 56 10000 2.1 220 17:38 12.08.2019
3818 Clouds 20 1016 60 10000 2.1 180 17:20 12.08.2019
3819 Clouds 20 1017 68 10000 3.1 210 16:55 12.08.2019
3820 Clouds 20 1017 68 10000 3.1 210 16:36 12.08.2019
3821 Clouds 19 1016 72 10000 3.6 130 16:18 12.08.2019
3822 Clouds 19 1017 59 10000 1.5 120 15:42 12.08.2019
3823 -273 0 0 0 0 0 15:41 12.08.2019
3824 Clouds 19 1017 63 10000 1 0 15:21 12.08.2019
3825 Rain 19 1018 68 10000 2.1 250 14:56 12.08.2019
3826 Rain 19 1018 68 10000 2.1 250 14:56 12.08.2019
3827 Rain 18 1018 68 10000 2.1 250 14:38 12.08.2019
3828 -273 0 0 0 0 0 14:19 12.08.2019
3829 Clouds 18 1018 68 10000 2.1 240 13:43 12.08.2019
3830 Clouds 19 1018 68 10000 1.5 0 13:24 12.08.2019
3831 Clouds 18 1018 68 10000 0.5 0 12:58 12.08.2019
3832 Clouds 18 1018 68 10000 0.5 0 12:58 12.08.2019
3833 Rain 18 1019 72 10000 1.5 270 12:39 12.08.2019
3834 Rain 18 1019 72 10000 1.5 270 12:18 12.08.2019
3835 Clouds 18 1018 68 10000 1 0 11:41 12.08.2019
3836 Clouds 18 1018 68 10000 1 0 11:41 12.08.2019
3837 Clouds 18 1018 68 10000 1 0 11:41 12.08.2019
3838 -273 0 0 0 0 0 11:23 12.08.2019
3839 Rain 17 1018 77 10000 1 0 10:43 12.08.2019
3840 Rain 17 1018 77 10000 1 0 10:23 12.08.2019
3841 Rain 17 1018 77 10000 1 0 10:23 12.08.2019
3842 Clouds 16 1018 82 10000 1.5 260 09:56 12.08.2019
3843 Rain 16 1018 82 10000 1.5 260 09:38 12.08.2019
3844 Rain 16 1018 82 10000 1.5 260 09:38 12.08.2019
3845 Rain 16 1018 82 10000 3.1 300 09:19 12.08.2019
3846 Rain 15 1018 82 10000 2.6 270 08:57 12.08.2019
3847 Rain 15 1018 82 10000 2.6 270 08:38 12.08.2019
3848 Rain 15 1018 82 10000 2.6 270 08:38 12.08.2019
3849 Rain 15 1018 77 10000 2.1 280 08:19 12.08.2019
3850 Rain 15 1018 82 10000 1 0 07:49 12.08.2019
3851 Rain 14 1018 82 10000 1.5 300 07:27 12.08.2019
3852 Rain 15 1018 82 10000 2.6 290 06:47 12.08.2019
3853 Rain 15 1017 82 10000 3.6 270 05:38 12.08.2019
3854 Clouds 16 1017 82 10000 2.6 260 02:44 12.08.2019
3855 Clouds 16 1017 82 10000 4.1 280 01:54 12.08.2019
3856 Clear 16 1016 87 10000 4.1 290 01:20 12.08.2019
3857 Rain 17 1016 88 10000 3.6 280 00:57 12.08.2019
3858 Rain 17 1015 88 10000 4.1 280 00:38 12.08.2019
3859 Rain 17 1015 88 10000 4.1 280 00:19 12.08.2019
3860 Rain 18 1015 88 10000 4.1 270 23:42 11.08.2019
3861 Rain 18 1015 88 10000 4.1 270 23:42 11.08.2019
3862 Rain 18 1014 93 10000 1 120 23:21 11.08.2019
3863 Rain 18 1014 93 10000 2.1 280 22:59 11.08.2019
3864 Thunderstorm 19 1015 88 6000 4.6 270 22:40 11.08.2019
3865 Thunderstorm 19 1015 88 6000 4.6 270 22:19 11.08.2019
3866 Thunderstorm 19 1015 88 6000 4.6 270 22:19 11.08.2019
3867 Rain 20 1016 93 10000 3.6 310 21:59 11.08.2019
3868 Rain 21 1013 78 10000 1 0 21:40 11.08.2019
3869 Rain 22 1013 78 10000 1 0 21:20 11.08.2019
3870 Drizzle 23 1012 69 10000 3.1 100 20:56 11.08.2019
3871 Clouds 24 1012 69 10000 3.1 100 20:38 11.08.2019
3872 Rain 25 1012 57 10000 1 0 20:19 11.08.2019
3873 Clear 25 1012 50 10000 1.5 360 19:42 11.08.2019
3874 Clear 26 1011 44 10000 3.1 90 19:18 11.08.2019
3875 Clear 27 1011 44 10000 4.1 90 18:41 11.08.2019
3876 Clear 28 1012 39 10000 3.6 90 18:22 11.08.2019
3877 Clear 28 1013 39 10000 3.6 130 17:58 11.08.2019
3878 Clear 28 1013 39 10000 3.6 130 17:58 11.08.2019
3879 Clear 28 1013 39 10000 3.6 130 17:39 11.08.2019
3880 Clear 28 1013 37 10000 1.5 0 17:20 11.08.2019
3881 Clear 28 1014 39 10000 3.1 160 16:56 11.08.2019
3882 Clear 28 1014 42 10000 3.6 140 16:37 11.08.2019
3883 Clear 28 1014 42 10000 3.6 140 16:18 11.08.2019
3884 Clear 28 1015 39 10000 2.1 190 15:43 11.08.2019
3885 Clear 27 1015 39 10000 2.1 100 15:24 11.08.2019
3886 Clear 27 1015 41 10000 2.6 190 14:57 11.08.2019
3887 Clear 26 1016 36 10000 1.5 0 14:38 11.08.2019
3888 Clear 26 1016 36 10000 1.5 0 14:19 11.08.2019
3889 Clear 26 1016 41 10000 2.6 0 13:44 11.08.2019
3890 Rain 26 1017 44 10000 3.6 150 13:24 11.08.2019
3891 Clear 26 1017 50 10000 2.6 160 12:48 11.08.2019
3892 Clouds 25 1017 50 10000 3.1 150 12:23 11.08.2019
3893 Clouds 24 1018 50 10000 3.1 150 11:57 11.08.2019
3894 Clouds 24 1018 50 10000 3.1 150 11:38 11.08.2019
3895 Clouds 24 1018 50 10000 3.1 170 11:20 11.08.2019
3896 Clear 23 1018 60 10000 2.1 170 10:41 11.08.2019
3897 Clear 22 1018 68 10000 1.5 130 10:22 11.08.2019
3898 Clear 21 1019 73 10000 1.5 110 09:59 11.08.2019
3899 Clear 20 1019 73 10000 1.5 110 09:39 11.08.2019
3900 Clear 19 1019 77 10000 2.1 130 09:20 11.08.2019
3901 Mist 18 1019 88 10000 2.6 130 08:47 11.08.2019
3902 Mist 17 1019 93 10000 2.6 120 08:27 11.08.2019
3903 Fog 15 1019 93 10000 2.6 110 07:55 11.08.2019
3904 Fog 15 1019 93 10000 2.1 110 07:25 11.08.2019
3905 Fog 14 1019 93 10000 4.1 110 06:45 11.08.2019
3906 Fog 14 1019 93 10000 4.1 100 05:39 11.08.2019
3907 Clear 15 1019 93 10000 1.5 110 03:56 11.08.2019
3908 Clear 16 1019 88 10000 1.5 110 02:49 11.08.2019
3909 Clear 16 1019 88 10000 2.1 140 01:43 11.08.2019
3910 Clear 16 1019 93 10000 2.1 130 01:20 11.08.2019
3911 Clear 16 1019 93 10000 2.1 130 01:20 11.08.2019
3912 Clear 16 1019 93 10000 2.6 110 00:44 11.08.2019
3913 Clear 17 1019 82 10000 2.6 120 00:25 11.08.2019
3914 Clear 17 1019 88 10000 3.1 120 23:45 10.08.2019
3915 Clear 17 1018 77 10000 2.1 120 23:27 10.08.2019
3916 Clear 18 1018 72 10000 1.5 130 22:44 10.08.2019
3917 Clear 18 1018 64 10000 1 0 22:25 10.08.2019
3918 Clouds 19 1018 68 10000 1 240 21:58 10.08.2019
3919 Clouds 19 1018 60 10000 2.1 250 21:38 10.08.2019
3920 Clouds 20 1018 60 10000 2.1 250 21:20 10.08.2019
3921 Clouds 22 1017 56 10000 1.5 260 20:56 10.08.2019
3922 Clouds 22 1017 56 10000 1.5 260 20:37 10.08.2019
3923 Clear 22 1017 53 10000 2.6 260 20:18 10.08.2019
3924 Clouds 23 1017 57 10000 3.6 230 19:39 10.08.2019
3925 Clouds 23 1017 57 10000 3.6 230 19:21 10.08.2019
3926 Clouds 23 1016 57 10000 3.1 190 18:41 10.08.2019
3927 Clouds 24 1017 60 10000 3.6 170 18:23 10.08.2019
3928 Clouds 23 1017 68 10000 3.6 190 17:46 10.08.2019
3929 Clouds 23 1017 68 10000 5.1 200 17:25 10.08.2019
3930 Clouds 23 1017 68 10000 4.6 200 16:48 10.08.2019
3931 Clouds 23 1017 68 10000 4.6 190 16:29 10.08.2019
3932 Clouds 22 1017 68 10000 4.6 180 15:59 10.08.2019
3933 Rain 22 1017 68 10000 4.1 200 15:40 10.08.2019
3934 Rain 22 1017 68 10000 4.1 200 15:21 10.08.2019
3935 Rain 22 1017 73 10000 4.1 220 14:43 10.08.2019
3936 Rain 21 1017 73 10000 3.1 220 14:19 10.08.2019
3937 Rain 21 1017 72 10000 4.1 240 13:40 10.08.2019
3938 Rain 20 1017 72 10000 4.1 250 13:19 10.08.2019
3939 Rain 20 1017 77 10000 4.6 270 12:43 10.08.2019
3940 Rain 20 1017 73 10000 3.6 260 12:23 10.08.2019
3941 Rain 20 1016 73 10000 6.2 240 11:57 10.08.2019
3942 Rain 21 1016 78 10000 3.6 240 11:39 10.08.2019
3943 Rain 21 1016 78 10000 3.6 240 11:20 10.08.2019
3944 Rain 21 1016 78 10000 4.1 240 10:39 10.08.2019
3945 Rain 21 1016 94 10000 3.1 220 10:20 10.08.2019
3946 Rain 21 1016 94 10000 3.1 220 10:20 10.08.2019
3947 Rain 21 1015 94 10000 2.6 210 09:59 10.08.2019
3948 Rain 21 1015 94 10000 3.1 190 09:38 10.08.2019
3949 Rain 21 1015 94 10000 3.1 190 09:20 10.08.2019
3950 Rain 21 1014 94 10000 2.6 150 08:39 10.08.2019
3951 Rain 21 1014 94 10000 1.5 200 08:20 10.08.2019
3952 Rain 21 1014 94 10000 1.5 190 07:53 10.08.2019
3953 Clouds 21 1013 94 10000 2.1 150 07:27 10.08.2019
3954 Clouds 20 1013 94 10000 1.5 170 06:48 10.08.2019
3955 Clouds 20 1013 94 10000 2.1 170 06:21 10.08.2019
3956 Rain 20 1013 94 10000 2.1 150 05:24 10.08.2019
3957 Mist 20 1012 94 10000 1.5 150 04:21 10.08.2019
3958 Rain 20 1012 100 10000 3.1 150 02:54 10.08.2019
3959 Rain 20 1012 94 10000 2.1 110 01:59 10.08.2019
3960 Rain 20 1012 94 10000 2.1 110 01:40 10.08.2019
3961 Rain 20 1014 100 10000 2.6 200 01:20 10.08.2019
3962 Rain 20 1013 94 10000 3.1 160 00:44 10.08.2019
3963 Rain 20 1014 88 5000 3.6 0 00:22 10.08.2019
3964 Thunderstorm 21 1012 94 10000 6.2 340 23:43 09.08.2019
3965 Rain 22 1012 65 10000 4.1 170 23:23 09.08.2019
3966 Thunderstorm 23 1009 57 10000 4.1 130 22:57 09.08.2019
3967 Rain 24 1009 57 10000 4.1 130 22:38 09.08.2019
3968 Rain 24 1009 61 10000 4.6 100 22:19 09.08.2019
3969 Clear 24 1009 61 10000 4.1 100 21:41 09.08.2019
3970 Clear 25 1009 57 10000 4.1 100 21:23 09.08.2019
3971 Clear 26 1010 57 10000 3.6 110 20:59 09.08.2019
3972 Clear 27 1010 51 10000 3.6 100 20:40 09.08.2019
3973 Clear 27 1010 51 10000 3.6 100 20:20 09.08.2019
3974 Clear 28 1010 51 10000 2.6 120 19:56 09.08.2019
3975 Clear 28 1010 51 10000 2.6 120 19:38 09.08.2019
3976 Clear 28 1010 45 10000 3.1 150 19:18 09.08.2019
3977 Clear 29 1010 48 10000 3.1 160 18:39 09.08.2019
3978 Clear 29 1011 42 10000 2.6 190 18:21 09.08.2019
3979 Clear 30 1011 40 10000 3.6 200 17:46 09.08.2019
3980 Clear 30 1011 40 10000 3.1 190 17:26 09.08.2019
3981 Clear 30 1011 39 10000 4.6 190 16:59 09.08.2019
3982 Clear 30 1011 39 10000 4.6 190 16:39 09.08.2019
3983 Clear 30 1011 40 10000 4.1 210 16:20 09.08.2019
3984 Clear 29 1012 37 10000 4.1 160 15:56 09.08.2019
3985 Clear 29 1012 37 10000 4.1 160 15:37 09.08.2019
3986 Clear 29 1012 39 10000 4.6 190 15:19 09.08.2019
3987 Clear 29 1012 35 10000 3.1 160 14:44 09.08.2019
3988 -273 0 0 0 0 0 14:22 09.08.2019
3989 Drizzle 29 1012 37 10000 4.1 170 13:57 09.08.2019
3990 Clear 29 1012 37 10000 4.1 170 13:39 09.08.2019
3991 Clear 29 1013 42 10000 4.1 160 13:19 09.08.2019
3992 Clear 28 1013 42 10000 4.1 180 12:45 09.08.2019
3993 Clear 27 1013 44 10000 4.6 140 12:23 09.08.2019
3994 Clear 25 1013 54 10000 4.1 140 11:57 09.08.2019
3995 Clear 25 1013 53 10000 4.1 140 11:37 09.08.2019
3996 Clear 24 1013 53 10000 4.1 140 11:18 09.08.2019
3997 Clear 24 1013 57 10000 4.1 150 10:40 09.08.2019
3998 Clear 23 1013 60 10000 3.6 130 10:21 09.08.2019
3999 Clear 20 1014 68 10000 4.1 130 09:45 09.08.2019
4000 Clear 20 1014 68 10000 2.6 130 09:20 09.08.2019
4001 Clear 18 1014 77 10000 1.5 130 08:56 09.08.2019
4002 Clear 17 1014 77 10000 1.5 130 08:37 09.08.2019
4003 Clear 16 1014 77 10000 2.1 140 08:18 09.08.2019
4004 Clear 14 1014 87 10000 2.1 150 07:43 09.08.2019
4005 Clear 14 1014 87 10000 2.1 120 07:22 09.08.2019
4006 Clear 14 1014 93 10000 2.1 110 06:54 09.08.2019
4007 Clear 13 1014 93 10000 2.1 100 06:27 09.08.2019
4008 Clear 13 1015 93 10000 2.6 100 05:50 09.08.2019
4009 Clear 14 1015 93 10000 3.1 120 02:33 09.08.2019
4010 Clear 14 1015 93 10000 2.6 110 01:45 09.08.2019
4011 Clear 15 1015 82 10000 3.1 110 00:45 09.08.2019
4012 Clear 15 1015 82 10000 1.5 100 00:26 09.08.2019
4013 Clear 17 1015 87 10000 1.5 90 23:59 08.08.2019
4014 Clear 16 1015 87 10000 1.5 90 23:59 08.08.2019
4015 Clear 17 1015 87 10000 1.5 90 23:38 08.08.2019
4016 Clear 17 1014 82 10000 1.5 100 23:19 08.08.2019
4017 Clear 17 1014 72 10000 2.1 110 22:57 08.08.2019
4018 Clear 17 1014 72 10000 2.1 110 22:36 08.08.2019
4019 Clear 17 1014 72 10000 2.1 110 22:36 08.08.2019
4020 Clear 18 1014 68 10000 1.5 100 22:18 08.08.2019
4021 Clear 19 1014 64 10000 0.5 110 21:55 08.08.2019
4022 Clear 19 1014 68 10000 0.5 0 21:37 08.08.2019
4023 Clear 21 1014 68 10000 0.5 0 21:18 08.08.2019
4024 Clear 23 1014 56 10000 1 260 20:42 08.08.2019
4025 Clear 23 1014 47 10000 2.6 270 20:21 08.08.2019
4026 Clear 24 1014 44 10000 2.6 270 19:57 08.08.2019
4027 Clear 24 1014 44 10000 2.6 290 19:37 08.08.2019
4028 Clear 24 1014 44 10000 2.6 290 19:19 08.08.2019
4029 Clear 24 1014 44 10000 2.1 0 18:41 08.08.2019
4030 Clear 25 1014 44 10000 4.6 290 18:21 08.08.2019
4031 Clear 25 1014 47 10000 3.6 290 17:55 08.08.2019
4032 Clear 25 1014 47 10000 3.6 290 17:36 08.08.2019
4033 Clear 25 1014 50 10000 4.1 320 17:18 08.08.2019
4034 Clear 25 1014 41 10000 4.6 260 16:41 08.08.2019
4035 Clear 24 1014 44 10000 4.6 250 16:23 08.08.2019
4036 Clouds 25 1014 44 10000 4.1 240 15:57 08.08.2019
4037 Clouds 25 1014 44 10000 4.1 240 15:38 08.08.2019
4038 Clouds 24 1014 53 10000 4.1 260 15:20 08.08.2019
4039 Clouds 24 1014 53 10000 4.1 260 15:20 08.08.2019
4040 Clouds 24 1014 56 10000 3.6 270 14:40 08.08.2019
4041 Clouds 24 1014 56 10000 3.6 270 14:22 08.08.2019
4042 Clouds 23 1014 56 10000 4.1 260 13:56 08.08.2019
4043 Clouds 23 1014 56 10000 4.1 260 13:36 08.08.2019
4044 Clouds 23 1014 60 10000 4.6 230 13:18 08.08.2019
4045 Clouds 23 1014 64 10000 3.1 200 12:38 08.08.2019
4046 Clouds 22 1014 64 10000 3.1 200 12:19 08.08.2019
4047 Clouds 21 1014 73 10000 2.6 200 11:44 08.08.2019
4048 -273 0 0 0 0 0 11:26 08.08.2019
4049 Clouds 20 1014 77 10000 2.1 250 10:56 08.08.2019
4050 Clouds 20 1014 77 10000 2.1 250 10:38 08.08.2019
4051 Clouds 19 1014 77 10000 2.6 230 10:19 08.08.2019
4052 Clouds 18 1014 82 10000 1.5 210 09:42 08.08.2019
4053 Clouds 18 1014 82 10000 1.5 180 09:22 08.08.2019
4054 Mist 17 1014 88 10000 1.5 180 08:44 08.08.2019
4055 Mist 17 1014 88 10000 1.5 140 08:22 08.08.2019
4056 Mist 16 1013 93 10000 1.5 120 07:58 08.08.2019
4057 Mist 15 1013 93 10000 1.5 120 07:39 08.08.2019
4058 Mist 16 1014 100 10000 2.1 120 07:19 08.08.2019
4059 Mist 15 1014 93 10000 2.1 210 06:45 08.08.2019
4060 Fog 15 1014 100 10000 2.1 200 05:58 08.08.2019
4061 Fog 15 1013 93 10000 1.5 160 05:40 08.08.2019
4062 Fog 15 1013 93 10000 1.5 190 04:39 08.08.2019
4063 Mist 15 1013 93 10000 1.5 180 03:48 08.08.2019
4064 Clouds 16 1013 93 10000 1.5 130 01:59 08.08.2019
4065 Clouds 16 1013 100 10000 1.5 160 01:20 08.08.2019
4066 Clouds 16 1012 93 10000 1.5 320 00:25 08.08.2019
4067 Clouds 16 1012 93 10000 2.1 240 23:40 07.08.2019
4068 Clouds 16 1012 100 10000 0.5 0 23:19 07.08.2019
4069 Clouds 16 1012 100 10000 2.1 190 22:42 07.08.2019
4070 Clouds 16 1012 93 10000 2.1 200 22:21 07.08.2019
4071 Clouds 17 1011 93 10000 2.6 200 21:59 07.08.2019
4072 Clouds 17 1011 93 10000 2.6 200 21:40 07.08.2019
4073 Clouds 17 1012 100 10000 3.6 220 21:21 07.08.2019
4074 Rain 17 1012 100 10000 3.6 210 20:59 07.08.2019
4075 Rain 17 1011 100 10000 1.5 220 20:41 07.08.2019
4076 Rain 17 1012 100 10000 3.1 210 20:22 07.08.2019
4077 Rain 17 1010 93 10000 2.6 220 19:56 07.08.2019
4078 Rain 17 1010 93 10000 2.6 220 19:56 07.08.2019
4079 Rain 17 1011 93 10000 2.1 230 19:37 07.08.2019
4080 Rain 17 1011 93 10000 2.1 230 19:19 07.08.2019
4081 Rain 18 1011 93 10000 2.1 240 18:41 07.08.2019
4082 Rain 18 1010 88 10000 2.6 260 18:20 07.08.2019
4083 Rain 18 1010 88 10000 2.6 260 18:20 07.08.2019
4084 Rain 18 1010 88 10000 3.1 230 17:57 07.08.2019
4085 Rain 18 1010 88 10000 3.1 230 17:38 07.08.2019
4086 Rain 18 1010 93 10000 3.1 250 17:19 07.08.2019
4087 Rain 18 1010 93 10000 3.1 220 16:57 07.08.2019
4088 Rain 18 1010 93 10000 3.1 220 16:56 07.08.2019
4089 Rain 18 1010 93 10000 3.1 220 16:38 07.08.2019
4090 Rain 18 1010 93 9000 2.6 200 16:19 07.08.2019
4091 Rain 18 1010 93 10000 2.6 190 15:43 07.08.2019
4092 Rain 18 1011 93 10000 3.1 200 15:22 07.08.2019
4093 Rain 18 1010 93 10000 4.1 190 14:57 07.08.2019
4094 Rain 18 1010 93 10000 4.1 190 14:39 07.08.2019
4095 Rain 18 1010 93 10000 4.6 180 14:20 07.08.2019
4096 Rain 19 1010 93 6000 5.7 190 13:40 07.08.2019
4097 Rain 20 1011 93 7000 6.2 180 13:19 07.08.2019
4098 Rain 20 1010 77 10000 3.1 220 12:58 07.08.2019
4099 Rain 20 1010 77 10000 3.1 220 12:39 07.08.2019
4100 Rain 21 1010 77 10000 4.1 210 12:20 07.08.2019
4101 Clouds 21 1010 77 10000 4.1 230 11:58 07.08.2019
4102 Clouds 21 1010 77 10000 4.1 230 11:40 07.08.2019
4103 Rain 21 1010 77 10000 3.1 250 11:18 07.08.2019
4104 Clouds 21 1010 77 10000 3.1 230 10:41 07.08.2019
4105 Clouds 20 1009 82 10000 2.6 210 10:20 07.08.2019
4106 Rain 19 1009 93 10000 1 0 09:59 07.08.2019
4107 Rain 18 1009 93 9000 4.6 150 09:40 07.08.2019
4108 Rain 18 1009 93 9000 4.6 150 09:20 07.08.2019
4109 Rain 18 1010 100 9000 2.6 170 08:45 07.08.2019
4110 Rain 18 1010 93 9000 2.1 150 08:25 07.08.2019
4111 Rain 18 1010 100 10000 1.5 120 07:51 07.08.2019
4112 Rain 18 1010 93 10000 2.1 120 07:31 07.08.2019
4113 Fog 17 1010 100 10000 1.5 90 06:48 07.08.2019
4114 Fog 17 1010 100 10000 2.6 110 06:26 07.08.2019
4115 Fog 17 1009 100 10000 1 100 05:42 07.08.2019
4116 Rain 17 1010 100 10000 0.5 0 04:40 07.08.2019
4117 Rain 17 1010 93 10000 1 0 02:58 07.08.2019
4118 Rain 18 1010 93 10000 1 0 02:38 07.08.2019
4119 Rain 18 1011 93 10000 3.6 330 01:51 07.08.2019
4120 Rain 18 1011 93 2500 6.2 200 00:57 07.08.2019
4121 Rain 19 1011 88 10000 1 0 00:24 07.08.2019
4122 Rain 19 1010 82 10000 2.1 100 23:58 06.08.2019
4123 Rain 19 1010 77 10000 2.6 90 23:37 06.08.2019
4124 Rain 19 1010 77 10000 2.6 90 23:18 06.08.2019
4125 Drizzle 20 1011 77 10000 1 80 22:40 06.08.2019
4126 Rain 20 1011 73 10000 2.1 70 22:21 06.08.2019
4127 Fog 20 1010 73 10000 1.5 80 21:57 06.08.2019
4128 Fog 21 1010 73 10000 1.5 80 21:38 06.08.2019
4129 Fog 22 1010 68 10000 1 60 21:19 06.08.2019
4130 Clear 23 1011 60 10000 1 0 20:46 06.08.2019
4131 Clear 23 1011 57 10000 1.5 360 20:27 06.08.2019
4132 Clear 23 1011 57 10000 2.6 20 19:56 06.08.2019
4133 Rain 23 1011 57 10000 2.6 20 19:37 06.08.2019
4134 Rain 23 1011 60 10000 2.6 10 19:18 06.08.2019
4135 Clear 23 1011 60 10000 3.1 10 18:41 06.08.2019
4136 Clear 24 1011 57 10000 3.6 350 18:21 06.08.2019
4137 Rain 24 1011 60 10000 4.1 350 17:57 06.08.2019
4138 Rain 24 1011 60 10000 4.1 350 17:37 06.08.2019
4139 Rain 24 1012 60 10000 3.6 40 17:19 06.08.2019
4140 Clouds 24 1012 60 10000 4.1 340 16:44 06.08.2019
4141 Thunderstorm 24 1012 57 10000 5.1 10 16:25 06.08.2019
4142 Clouds 24 1012 60 10000 6.2 350 15:58 06.08.2019
4143 Clouds 24 1012 60 10000 6.2 350 15:40 06.08.2019
4144 Clouds 23 1012 64 10000 5.7 360 15:21 06.08.2019
4145 Rain 25 1013 60 10000 5.7 10 14:54 06.08.2019
4146 Clouds 25 1012 53 10000 4.1 330 14:36 06.08.2019
4147 Clouds 25 1012 53 10000 4.1 330 14:18 06.08.2019
4148 Clouds 25 1012 53 10000 4.1 330 14:18 06.08.2019
4149 Clouds 26 1013 47 10000 3.6 310 13:45 06.08.2019
4150 Clouds 25 1013 47 10000 2.6 340 13:26 06.08.2019
4151 Clouds 25 1013 47 10000 3.6 290 12:59 06.08.2019
4152 Rain 26 1013 47 10000 3.6 290 12:39 06.08.2019
4153 Rain 26 1013 50 10000 2.6 270 12:21 06.08.2019
4154 Drizzle 25 1013 50 10000 3.6 220 11:45 06.08.2019
4155 Clear 25 1013 53 10000 3.1 190 11:20 06.08.2019
4156 Clear 25 1013 53 10000 1.5 150 10:58 06.08.2019
4157 Clear 24 1013 53 10000 1.5 150 10:39 06.08.2019
4158 Clear 24 1013 53 10000 1.5 150 10:39 06.08.2019
4159 Clear 24 1013 50 10000 1.5 140 10:21 06.08.2019
4160 Haze 22 1013 53 10000 1.5 140 09:41 06.08.2019
4161 Haze 22 1013 60 10000 1.5 110 09:21 06.08.2019
4162 Haze 21 1013 64 10000 1.5 120 08:51 06.08.2019
4163 Haze 20 1013 64 10000 1 0 08:28 06.08.2019
4164 Clouds 18 1013 77 10000 2.1 110 07:59 06.08.2019
4165 Clouds 17 1013 82 10000 1.5 110 07:29 06.08.2019
4166 Mist 18 1013 82 10000 1 40 06:44 06.08.2019
4167 Mist 17 1013 82 10000 0.5 0 06:22 06.08.2019
4168 Clear 18 1013 77 10000 0.5 0 05:23 06.08.2019
4169 Mist 18 1013 72 10000 1.5 160 02:48 06.08.2019
4170 Mist 19 1013 77 10000 2.1 130 01:25 06.08.2019
4171 Mist 18 1012 77 10000 2.6 120 00:51 06.08.2019
4172 Mist 19 1012 77 10000 2.6 110 23:59 05.08.2019
4173 Mist 19 1012 73 10000 3.1 100 23:20 05.08.2019
4174 Clouds 20 1012 73 10000 3.6 110 22:42 05.08.2019
4175 Clouds 20 1012 73 10000 3.1 110 22:23 05.08.2019
4176 Haze 21 1012 68 10000 1.5 140 21:58 05.08.2019
4177 Haze 21 1012 68 10000 1.5 140 21:40 05.08.2019
4178 Haze 22 1012 68 10000 3.1 110 21:19 05.08.2019
4179 Haze 23 1012 64 10000 3.1 100 20:56 05.08.2019
4180 Haze 23 1012 57 10000 2.1 130 20:37 05.08.2019
4181 Haze 23 1012 57 10000 2.1 130 20:19 05.08.2019
4182 Haze 24 1012 57 10000 2.6 120 19:43 05.08.2019
4183 Haze 24 1012 53 10000 3.6 130 19:24 05.08.2019
4184 Haze 24 1012 53 10000 3.1 140 18:58 05.08.2019
4185 Haze 25 1012 53 10000 3.1 140 18:40 05.08.2019
4186 Haze 24 1012 57 10000 2.6 140 18:19 05.08.2019
4187 Haze 24 1013 61 10000 2.6 120 17:46 05.08.2019
4188 Haze 24 1013 69 10000 3.1 120 17:27 05.08.2019
4189 Haze 23 1013 73 10000 2.6 130 16:47 05.08.2019
4190 Drizzle 23 1013 78 10000 1.5 0 16:26 05.08.2019
4191 Haze 22 1014 83 10000 1.5 120 15:57 05.08.2019
4192 Mist 22 1014 83 10000 1.5 120 15:39 05.08.2019
4193 Mist 21 1014 88 10000 2.1 120 15:20 05.08.2019
4194 Rain 21 1014 88 10000 3.1 120 14:39 05.08.2019
4195 Rain 21 1014 82 10000 1.5 170 14:19 05.08.2019
4196 Rain 21 1014 82 10000 1 0 13:44 05.08.2019
4197 Rain 22 1015 77 10000 3.1 230 13:23 05.08.2019
4198 Rain 22 1015 60 10000 3.1 270 12:49 05.08.2019
4199 Rain 23 1016 82 10000 3.6 270 12:20 05.08.2019
4200 Rain 23 1014 53 10000 3.1 250 11:48 05.08.2019
4201 Rain 23 1014 53 10000 1.5 0 11:28 05.08.2019
4202 Clear 22 1014 53 10000 2.1 210 10:59 05.08.2019
4203 Clear 22 1014 53 10000 2.1 210 10:41 05.08.2019
4204 Clear 22 1014 53 10000 2.6 170 10:21 05.08.2019
4205 Clear 22 1014 56 10000 2.1 150 09:43 05.08.2019
4206 Clear 21 1014 64 10000 3.1 130 09:24 05.08.2019
4207 Clear 18 1014 68 10000 3.1 120 08:51 05.08.2019
4208 Clear 17 1014 72 10000 2.6 120 08:28 05.08.2019
4209 Clear 16 1014 77 10000 2.6 110 07:59 05.08.2019
4210 Clear 16 1014 77 10000 2.6 110 07:41 05.08.2019
4211 Clear 15 1014 77 10000 3.6 100 07:20 05.08.2019
4212 Clear 16 1015 77 10000 3.6 110 06:32 05.08.2019
4213 Clear 15 1015 77 10000 3.6 110 05:51 05.08.2019
4214 Clear 15 1015 77 10000 3.6 110 05:51 05.08.2019
4215 Clear 15 1015 77 10000 3.6 100 05:19 05.08.2019
4216 Clear 15 1015 77 10000 2.6 100 04:24 05.08.2019
4217 Clear 15 1015 77 10000 3.1 110 03:30 05.08.2019
4218 Clear 15 1015 77 10000 3.1 110 02:34 05.08.2019
4219 Clear 16 1015 72 10000 3.1 100 01:33 05.08.2019
4220 Clear 16 1015 72 10000 3.6 110 00:41 05.08.2019
4221 Clear 16 1015 68 10000 2.6 100 00:21 05.08.2019
4222 Clear 17 1015 68 10000 3.1 110 23:56 04.08.2019
4223 Clear 17 1015 68 10000 3.1 110 23:36 04.08.2019
4224 Clear 17 1015 68 10000 1 0 23:18 04.08.2019
4225 Clear 18 1015 82 10000 0.5 0 22:54 04.08.2019
4226 Clear 19 1015 63 10000 1 100 22:36 04.08.2019
4227 Clear 18 1015 82 10000 0.5 0 22:36 04.08.2019
4228 Clear 19 1015 63 10000 1 100 22:18 04.08.2019
4229 Clear 21 1015 60 10000 0.5 0 21:42 04.08.2019
4230 Clear 22 1015 53 10000 1 260 21:20 04.08.2019
4231 Clear 24 1015 47 10000 2.1 260 20:44 04.08.2019
4232 Clear 25 1015 36 10000 1 0 20:19 04.08.2019
4233 Clear 25 1015 36 10000 1.5 300 19:57 04.08.2019
4234 Clear 25 1015 36 10000 1.5 300 19:37 04.08.2019
4235 Clear 25 1015 36 10000 3.1 300 19:19 04.08.2019
4236 Clear 26 1015 36 10000 1.5 0 18:42 04.08.2019
4237 Clear 27 1015 36 10000 2.1 290 18:20 04.08.2019
4238 Clear 27 1015 36 10000 2.1 290 18:20 04.08.2019
4239 Clear 27 1015 39 10000 1.5 270 17:45 04.08.2019
4240 Clear 27 1015 36 10000 3.1 240 17:25 04.08.2019
4241 Clear 26 1016 34 10000 1.5 0 16:56 04.08.2019
4242 Clear 26 1016 34 10000 1.5 0 16:38 04.08.2019
4243 Clear 27 1016 34 10000 2.1 230 16:19 04.08.2019
4244 Clear 26 1016 41 10000 2.1 0 15:40 04.08.2019
4245 Clear 26 1016 41 10000 2.1 0 15:20 04.08.2019
4246 Clear 26 1017 41 10000 2.1 0 14:44 04.08.2019
4247 Clear 25 1017 44 10000 2.1 0 14:26 04.08.2019
4248 Clouds 24 1017 47 10000 2.1 90 13:47 04.08.2019
4249 Clouds 24 1017 47 10000 1.5 0 13:28 04.08.2019
4250 Drizzle 24 1017 50 10000 1.5 10 12:58 04.08.2019
4251 Rain 24 1017 50 10000 1.5 10 12:40 04.08.2019
4252 Rain 23 1018 49 10000 1 0 12:22 04.08.2019
4253 Clouds 23 1018 56 10000 1 0 11:49 04.08.2019
4254 Rain 22 1018 60 10000 1.5 0 11:23 04.08.2019
4255 Clouds 21 1018 68 10000 1 0 10:52 04.08.2019
4256 Clouds 21 1018 72 10000 1 0 10:24 04.08.2019
4257 Clear 19 1018 77 10000 1 0 09:55 04.08.2019
4258 Fog 18 1018 77 10000 0.5 0 09:37 04.08.2019
4259 Clear 17 1018 77 10000 0.5 0 09:18 04.08.2019
4260 Clear 15 1018 87 10000 0.5 0 08:38 04.08.2019
4261 Fog 14 1018 87 10000 1 0 08:18 04.08.2019
4262 Fog 13 1018 93 10000 0.5 0 07:44 04.08.2019
4263 Mist 12 1017 100 10000 1 0 06:46 04.08.2019
4264 Mist 12 1017 100 10000 1.5 100 06:23 04.08.2019
4265 Fog 13 1017 100 10000 0.5 0 03:38 04.08.2019
4266 Mist 14 1017 100 10000 1 0 01:56 04.08.2019
4267 Fog 15 1017 93 10000 2.6 120 01:33 04.08.2019
4268 Mist 15 1017 93 10000 1.5 40 00:43 04.08.2019
4269 Mist 16 1017 93 10000 0.5 0 00:25 04.08.2019
4270 Mist 16 1017 93 10000 1.5 90 23:56 03.08.2019
4271 Mist 16 1017 93 10000 1.5 90 23:37 03.08.2019
4272 Mist 17 1017 88 10000 1 0 23:18 03.08.2019
4273 Mist 17 1017 88 10000 1 0 22:41 03.08.2019
4274 Mist 17 1017 88 10000 0.5 360 22:20 03.08.2019
4275 Clouds 18 1017 88 10000 1 350 21:40 03.08.2019
4276 Clouds 18 1017 88 10000 1 350 21:40 03.08.2019
4277 Clouds 19 1016 77 10000 0.5 0 21:22 03.08.2019
4278 Rain 20 1016 64 10000 0.5 0 20:46 03.08.2019
4279 Rain 20 1016 64 10000 1 0 20:25 03.08.2019
4280 Rain 21 1016 68 10000 2.6 280 19:57 03.08.2019
4281 Rain 21 1016 68 10000 2.6 280 19:39 03.08.2019
4282 Rain 21 1016 64 10000 4.6 310 19:21 03.08.2019
4283 Rain 21 1015 60 10000 4.6 300 18:46 03.08.2019
4284 Rain 22 1015 60 10000 3.6 300 18:26 03.08.2019
4285 Clouds 22 1016 64 10000 4.6 280 17:46 03.08.2019
4286 Rain 22 1015 64 10000 4.6 280 17:20 03.08.2019
4287 Rain 22 1015 77 10000 1 0 16:40 03.08.2019
4288 Rain 22 1015 77 10000 1 0 16:21 03.08.2019
4289 Clouds 22 1015 73 10000 1.5 120 15:59 03.08.2019
4290 Rain 22 1015 77 10000 1 0 15:39 03.08.2019
4291 Rain 21 1015 77 10000 1 0 15:20 03.08.2019
4292 Rain 21 1016 88 10000 1 0 14:37 03.08.2019
4293 Rain 21 1016 88 10000 4.6 310 14:18 03.08.2019
4294 Rain 21 1016 88 10000 4.6 310 14:18 03.08.2019
4295 Rain 20 1015 72 10000 2.6 220 13:47 03.08.2019
4296 Rain 20 1015 77 10000 2.6 190 13:23 03.08.2019
4297 Clouds 20 1015 82 10000 2.6 250 12:56 03.08.2019
4298 Clouds 20 1015 82 10000 2.6 250 12:37 03.08.2019
4299 Clouds 19 1016 88 10000 3.6 240 12:19 03.08.2019
4300 Rain 19 1015 72 10000 2.6 290 11:40 03.08.2019
4301 Rain 19 1015 72 10000 4.1 300 11:22 03.08.2019
4302 Rain 18 1015 72 10000 1.5 230 10:39 03.08.2019
4303 Rain 18 1015 72 10000 1.5 230 10:20 03.08.2019
4304 Rain 17 1015 77 10000 1.5 240 09:38 03.08.2019
4305 Rain 17 1015 82 10000 1.5 220 09:18 03.08.2019
4306 Clouds 16 1014 93 10000 1 110 08:44 03.08.2019
4307 Clouds 15 1014 93 10000 1.5 100 07:40 03.08.2019
4308 Clouds 15 1014 100 10000 1.5 170 06:58 03.08.2019
4309 Rain 15 1014 93 10000 1 0 06:20 03.08.2019
4310 Rain 15 1014 93 10000 0.5 0 03:35 03.08.2019
4311 Clear 16 1014 87 10000 0.5 0 02:26 03.08.2019
4312 Clear 17 1014 77 10000 1 220 00:59 03.08.2019
4313 Rain 17 1014 77 10000 1 220 00:32 03.08.2019
4314 Clear 17 1015 77 10000 1 0 23:42 02.08.2019
4315 Clear 18 1014 72 10000 1.82 246.389 23:20 02.08.2019
4316 Clear 18 1014 77 10000 1 360 22:59 02.08.2019
4317 Drizzle 18 1015 77 10000 1.5 330 22:40 02.08.2019
4318 Drizzle 18 1015 77 10000 1.5 330 22:22 02.08.2019
4319 Clear 19 1015 64 10000 1.5 350 21:56 02.08.2019
4320 Clear 20 1015 64 10000 1.5 350 21:38 02.08.2019
4321 Clear 20 1014 60 10000 3.1 330 21:20 02.08.2019
4322 Clear 21 1015 56 10000 3.1 330 20:43 02.08.2019
4323 Clear 21 1014 52 10000 6.2 340 20:23 02.08.2019
4324 Clear 22 1014 41 10000 5.1 320 19:55 02.08.2019
4325 Rain 22 1013 41 10000 5.1 330 19:33 02.08.2019
4326 Clouds 24 1013 38 10000 4.1 300 18:57 02.08.2019
4327 Clouds 24 1013 38 10000 4.1 300 18:38 02.08.2019
4328 Clouds 24 1014 41 10000 3.1 300 18:18 02.08.2019
4329 Clear 25 1014 41 10000 4.6 310 17:39 02.08.2019
4330 Clear 25 1014 44 10000 4.6 320 17:20 02.08.2019
4331 Clear 25 1014 41 10000 4.6 310 16:40 02.08.2019
4332 Clear 25 1014 34 10000 3.6 290 16:21 02.08.2019
4333 Clear 25 1014 34 10000 5.1 310 15:57 02.08.2019
4334 Drizzle 25 1014 38 10000 4.6 320 15:37 02.08.2019
4335 Drizzle 25 1014 38 10000 4.6 320 15:18 02.08.2019
4336 Clear 25 1014 36 10000 2.6 290 14:43 02.08.2019
4337 Clear 25 1014 36 10000 4.1 280 14:18 02.08.2019
4338 Clear 25 1014 36 10000 3.1 330 13:46 02.08.2019
4339 Rain 25 1015 38 10000 3.6 310 13:21 02.08.2019
4340 Clear 25 1015 36 10000 2.1 0 12:44 02.08.2019
4341 Drizzle 24 1015 38 10000 2.1 310 12:20 02.08.2019
4342 Clear 23 1015 46 10000 2.6 300 11:42 02.08.2019
4343 Clear 23 1015 49 10000 2.1 280 11:23 02.08.2019
4344 Clear 22 1015 52 10000 1.5 0 10:48 02.08.2019
4345 Clear 21 1015 56 10000 1 0 10:24 02.08.2019
4346 Clear 20 1015 63 10000 1 0 09:58 02.08.2019
4347 Clear 18 1015 67 10000 0.5 0 09:40 02.08.2019
4348 Clear 18 1015 67 10000 0.5 0 09:22 02.08.2019
4349 Clear 16 1015 77 10000 0.5 0 08:41 02.08.2019
4350 Clear 16 1015 82 10000 0.5 0 08:20 02.08.2019
4351 Clear 14 1015 87 10000 1 30 07:45 02.08.2019
4352 Clouds 14 1015 87 0 0.5 30 07:26 02.08.2019
4353 Clear 14 1015 87 10000 1.5 90 06:37 02.08.2019
4354 Clear 13 1016 82 10000 1.5 100 05:47 02.08.2019
4355 Clear 13 1016 93 10000 0.5 0 03:42 02.08.2019
4356 Clear 13 1016 87 10000 1.5 110 03:23 02.08.2019
4357 Clear 13 1017 93 10000 1 10 01:41 02.08.2019
4358 Clear 14 1016 72 10000 2.1 120 00:32 02.08.2019
4359 Clear 16 1016 77 10000 1 10 23:45 01.08.2019
4360 Clear 16 1016 63 10000 0.5 0 23:26 01.08.2019
4361 Clear 17 1016 72 10000 0.5 60 22:46 01.08.2019
4362 Clear 17 1016 67 10000 0.5 20 22:25 01.08.2019
4363 Clear 20 1016 52 10000 1.5 10 21:59 01.08.2019
4364 Clear 20 1016 52 10000 1.5 10 21:41 01.08.2019
4365 Clear 21 1016 46 10000 1 0 21:21 01.08.2019
4366 Clear 22 1016 46 10000 2.1 330 20:46 01.08.2019
4367 Clear 23 1016 40 10000 3.1 300 20:23 01.08.2019
4368 Clear 24 1016 36 10000 3.1 310 19:58 01.08.2019
4369 Clear 24 1016 36 10000 3.6 340 19:37 01.08.2019
4370 Clear 24 1016 36 10000 3.6 340 19:18 01.08.2019
4371 Clear 25 1016 36 10000 2.6 340 18:43 01.08.2019
4372 Clear 25 1016 36 10000 2.6 340 18:43 01.08.2019
4373 Clear 25 1016 33 10000 3.6 320 18:24 01.08.2019
4374 Clear 25 1016 33 10000 2.6 290 17:47 01.08.2019
4375 Clear 25 1016 27 10000 3.6 290 17:29 01.08.2019
4376 Clear 25 1016 33 10000 3.1 0 16:45 01.08.2019
4377 Clear 25 1017 33 10000 4.1 270 16:23 01.08.2019
4378 Clear 25 1017 33 10000 2.1 0 15:54 01.08.2019
4379 Clear 25 1017 33 10000 2.1 0 15:36 01.08.2019
4380 Clear 25 1017 31 10000 3.1 240 15:18 01.08.2019
4381 Clear 24 1017 31 10000 1.5 0 14:41 01.08.2019
4382 Clear 25 1017 33 10000 2.1 0 14:19 01.08.2019
4383 Clear 24 1018 38 10000 2.6 360 13:56 01.08.2019
4384 Clear 24 1018 38 10000 2.6 360 13:38 01.08.2019
4385 Clear 24 1018 36 10000 2.1 260 13:20 01.08.2019
4386 Clear 24 1018 33 10000 2.1 0 12:42 01.08.2019
4387 Clear 23 1018 38 10000 1 0 12:23 01.08.2019
4388 Clear 23 1018 36 10000 2.1 0 11:43 01.08.2019
4389 Clouds 23 1018 43 10000 1 0 11:24 01.08.2019
4390 Clouds 22 1018 46 10000 1.5 230 10:46 01.08.2019
4391 Clouds 22 1018 52 10000 1 0 10:28 01.08.2019
4392 Clear 21 1019 56 10000 1 0 09:59 01.08.2019
4393 Clear 21 1019 56 10000 1 0 09:41 01.08.2019
4394 Clear 21 1019 56 10000 1 0 09:41 01.08.2019
4395 Clear 19 1019 59 10000 1 0 09:22 01.08.2019
4396 Clear 17 1019 72 10000 1 0 08:44 01.08.2019
4397 Clear 16 1019 72 10000 1 0 08:20 01.08.2019
4398 Clear 16 1019 87 10000 1 0 07:49 01.08.2019
4399 Clear 14 1019 100 10000 0.5 40 07:25 01.08.2019
4400 Fog 14 1019 93 10000 0.5 0 06:48 01.08.2019
4401 Clear 14 1018 93 10000 1.5 120 05:51 01.08.2019
4402 Clear 15 1018 87 10000 0.5 0 04:24 01.08.2019
4403 Clear 16 1018 82 10000 1 0 02:33 01.08.2019
4404 Clear 15 1018 72 10000 0.5 0 00:43 01.08.2019
4405 Clear 18 1018 68 10000 1 0 00:24 01.08.2019
4406 Clear 18 1018 72 10000 1.5 150 23:43 31.07.2019
4407 Clear 18 1018 60 10000 0.5 0 23:21 31.07.2019
4408 Clear 18 1018 72 10000 1 0 22:56 31.07.2019
4409 Clear 18 1018 72 10000 1 0 22:38 31.07.2019
4410 Clear 18 1018 64 10000 1.5 250 22:19 31.07.2019
4411 Clear 21 1017 53 10000 2.1 260 21:38 31.07.2019
4412 Clear 21 1017 53 10000 2.1 260 21:18 31.07.2019
4413 Clouds 23 1017 49 10000 2.1 260 20:43 31.07.2019
4414 Clouds 23 1017 56 10000 2.1 120 20:21 31.07.2019
4415 Clear 23 1016 68 10000 2.6 90 19:42 31.07.2019
4416 Clouds 23 1016 68 10000 3.6 110 19:23 31.07.2019
4417 Rain 24 1017 68 10000 3.6 100 18:53 31.07.2019
4418 Clouds 24 1017 64 10000 3.1 80 18:26 31.07.2019
4419 Clear 24 1017 57 10000 3.1 300 17:59 31.07.2019
4420 Clear 24 1017 57 10000 3.1 300 17:40 31.07.2019
4421 Clouds 24 1017 47 10000 4.1 300 17:40 31.07.2019
4422 Clouds 24 1017 47 10000 4.1 300 17:19 31.07.2019
4423 Clouds 24 1017 53 10000 3.6 240 16:43 31.07.2019
4424 Clouds 24 1017 60 10000 4.1 190 16:20 31.07.2019
4425 Rain 24 1017 64 10000 4.1 160 15:45 31.07.2019
4426 Rain 23 1017 64 10000 1.5 0 15:25 31.07.2019
4427 Drizzle 22 1017 68 10000 2.1 160 14:43 31.07.2019
4428 Drizzle 22 1018 73 10000 3.1 180 14:22 31.07.2019
4429 Rain 22 1018 88 10000 2.6 160 13:58 31.07.2019
4430 Rain 21 1018 88 10000 2.6 160 13:38 31.07.2019
4431 Rain 20 1018 88 10000 2.1 180 13:20 31.07.2019
4432 Rain 20 1018 88 10000 2.1 170 12:45 31.07.2019
4433 Rain 20 1018 88 10000 2.1 170 12:45 31.07.2019
4434 Rain 19 1018 88 0 1.5 170 12:27 31.07.2019
4435 Rain 18 1018 88 10000 0.5 0 11:58 31.07.2019
4436 Rain 18 1018 88 10000 0.5 0 11:38 31.07.2019
4437 Rain 18 1018 93 10000 1.5 310 11:19 31.07.2019
4438 Rain 17 1018 93 10000 3.1 280 10:41 31.07.2019
4439 Rain 17 1018 93 10000 3.1 280 10:20 31.07.2019
4440 Rain 17 1018 93 10000 1.5 250 09:44 31.07.2019
4441 Rain 17 1017 93 10000 1 0 09:24 31.07.2019
4442 Rain 17 1017 93 10000 1 0 08:56 31.07.2019
4443 Rain 17 1017 93 10000 1 0 08:37 31.07.2019
4444 Rain 17 1017 93 10000 1 0 08:19 31.07.2019
4445 Rain 16 1017 100 7000 1.5 250 07:34 31.07.2019
4446 Rain 16 1017 100 7000 1.5 250 07:34 31.07.2019
4447 Rain 17 1017 93 10000 1.5 300 06:31 31.07.2019
4448 Rain 18 1016 64 10000 2.6 250 04:50 31.07.2019
4449 Clear 18 1015 82 10000 0.5 0 01:32 31.07.2019
4450 Clear 20 1014 72 10000 3.1 100 23:58 30.07.2019
4451 Clear 20 1014 72 10000 3.1 100 23:39 30.07.2019
4452 Clear 20 1014 72 10000 1 0 23:18 30.07.2019
4453 Clear 20 1014 64 10000 1.5 110 22:45 30.07.2019
4454 Clear 21 1013 56 10000 0.5 120 22:25 30.07.2019
4455 Clear 24 1013 60 10000 0.5 230 21:39 30.07.2019
4456 Clear 24 1013 53 10000 1.5 240 21:20 30.07.2019
4457 Clear 25 1013 50 10000 1.5 250 20:59 30.07.2019
4458 Clear 25 1013 50 10000 1.5 250 20:41 30.07.2019
4459 Clear 26 1013 44 10000 1.5 300 20:23 30.07.2019
4460 Clear 26 1012 44 10000 1.5 290 19:56 30.07.2019
4461 Drizzle 27 1012 44 10000 3.1 260 19:36 30.07.2019
4462 Drizzle 26 1012 44 10000 2.1 340 18:48 30.07.2019
4463 Clear 28 1013 44 10000 2.6 290 18:27 30.07.2019
4464 Clear 27 1013 44 10000 2.6 240 17:59 30.07.2019
4465 Clear 27 1013 44 10000 2.6 240 17:41 30.07.2019
4466 Clear 27 1013 44 10000 2.6 270 17:19 30.07.2019
4467 Clear 27 1013 44 10000 2.1 0 16:46 30.07.2019
4468 Clear 27 1013 44 10000 2.1 290 16:20 30.07.2019
4469 Clear 27 1013 47 10000 1.5 0 15:44 30.07.2019
4470 Clouds 27 1013 50 10000 2.1 350 15:23 30.07.2019
4471 Clouds 26 1014 50 10000 1.5 0 14:59 30.07.2019
4472 Clouds 26 1014 50 10000 1.5 0 14:40 30.07.2019
4473 Clouds 26 1014 54 10000 1.5 320 14:18 30.07.2019
4474 Drizzle 26 1014 57 10000 1.5 0 13:41 30.07.2019
4475 Drizzle 25 1014 53 10000 2.1 150 13:23 30.07.2019
4476 Clouds 25 1014 60 10000 1 0 12:55 30.07.2019
4477 Clouds 25 1014 60 10000 1 0 12:37 30.07.2019
4478 Clouds 24 1014 60 10000 1.5 0 12:18 30.07.2019
4479 Clouds 24 1014 57 10000 2.1 0 11:38 30.07.2019
4480 Clouds 24 1014 60 10000 2.1 290 11:19 30.07.2019
4481 Clouds 23 1014 69 10000 1 0 10:42 30.07.2019
4482 Clouds 23 1014 69 10000 1 0 10:23 30.07.2019
4483 Clouds 22 1014 73 10000 0.5 0 09:49 30.07.2019
4484 Clouds 21 1014 77 10000 0.5 0 09:30 30.07.2019
4485 Clouds 20 1014 88 10000 1 0 08:47 30.07.2019
4486 Clouds 19 1014 93 10000 0.5 0 08:28 30.07.2019
4487 Mist 19 1014 88 10000 1 100 07:47 30.07.2019
4488 Mist 19 1014 88 10000 1 100 07:47 30.07.2019
4489 Mist 18 1013 93 10000 1 90 07:28 30.07.2019
4490 Mist 18 1013 93 10000 0.5 0 06:46 30.07.2019
4491 Mist 18 1013 93 10000 1.5 290 05:56 30.07.2019
4492 Mist 18 1013 93 10000 0.5 0 05:32 30.07.2019
4493 Clouds 19 1012 88 10000 2.6 270 01:40 30.07.2019
4494 Clouds 19 1013 88 10000 0.5 0 00:41 30.07.2019
4495 Clouds 19 1013 88 10000 1.5 270 00:20 30.07.2019
4496 Clouds 19 1012 82 10000 1.5 280 23:44 29.07.2019
4497 Clouds 20 1012 77 10000 1.5 290 23:25 29.07.2019
4498 Clouds 20 1012 83 10000 2.1 280 22:57 29.07.2019
4499 Clouds 20 1012 77 10000 1.5 310 22:38 29.07.2019
4500 Clouds 21 1012 77 10000 1.5 310 22:19 29.07.2019
4501 Clouds 21 1012 77 10000 1.5 310 22:19 29.07.2019
4502 Clouds 21 1012 77 10000 1.5 320 21:55 29.07.2019
4503 Clouds 21 1012 77 10000 1.5 320 21:37 29.07.2019
4504 Clouds 21 1012 77 10000 2.1 320 21:18 29.07.2019
4505 Clouds 22 1012 73 10000 2.6 310 20:43 29.07.2019
4506 Clouds 22 1011 73 10000 3.6 300 20:22 29.07.2019
4507 Clouds 22 1011 73 10000 3.6 300 19:54 29.07.2019
4508 Drizzle 22 1011 73 10000 3.6 280 19:36 29.07.2019
4509 Drizzle 23 1011 73 10000 3.6 280 19:18 29.07.2019
4510 Drizzle 23 1011 73 10000 3.6 280 19:18 29.07.2019
4511 Clouds 23 1011 69 10000 4.1 270 18:41 29.07.2019
4512 Clouds 23 1011 69 10000 3.6 270 18:21 29.07.2019
4513 Clouds 23 1011 73 10000 3.1 270 17:49 29.07.2019
4514 Clouds 23 1011 73 10000 3.6 270 17:31 29.07.2019
4515 Clouds 23 1011 73 10000 3.1 290 16:57 29.07.2019
4516 Clouds 22 1011 73 10000 3.1 290 16:38 29.07.2019
4517 Clouds 22 1011 73 10000 2.6 280 16:20 29.07.2019
4518 Clouds 22 1011 77 10000 2.6 320 15:49 29.07.2019
4519 Clouds 22 1012 82 8000 1.5 290 15:30 29.07.2019
4520 Drizzle 21 1012 88 3300 2.6 260 14:44 29.07.2019
4521 Drizzle 21 1012 93 5000 3.1 260 14:21 29.07.2019
4522 Clouds 20 1012 93 10000 3.6 270 13:55 29.07.2019
4523 Clouds 20 1011 93 10000 3.6 280 13:36 29.07.2019
4524 Clouds 19 1011 93 10000 3.6 280 13:18 29.07.2019
4525 Clouds 19 1011 93 8000 3.6 290 12:40 29.07.2019
4526 Drizzle 19 1012 93 7000 3.1 300 12:21 29.07.2019
4527 Mist 19 1011 88 8000 4.1 290 11:42 29.07.2019
4528 Mist 19 1011 88 8000 4.6 290 11:20 29.07.2019
4529 Clouds 18 1011 88 7000 4.1 290 10:44 29.07.2019
4530 Clouds 18 1010 93 6000 5.1 280 10:23 29.07.2019
4531 Rain 18 1010 93 4300 5.7 280 09:45 29.07.2019
4532 Rain 18 1010 93 5000 4.6 280 09:24 29.07.2019
4533 Drizzle 18 1010 88 10000 4.1 290 08:55 29.07.2019
4534 Drizzle 18 1010 88 10000 4.6 280 08:27 29.07.2019
4535 Mist 18 1010 88 10000 4.1 280 07:53 29.07.2019
4536 Mist 18 1009 88 10000 4.6 280 07:31 29.07.2019
4537 Rain 18 1009 88 10000 4.6 280 06:43 29.07.2019
4538 Drizzle 18 1008 93 10000 5.1 280 05:38 29.07.2019
4539 Rain 18 1009 100 10000 6.2 280 04:24 29.07.2019
4540 Rain 19 1007 93 10000 4.6 290 01:54 29.07.2019
4541 Clouds 19 1007 93 10000 4.6 290 01:35 29.07.2019
4542 Rain 19 1007 93 10000 4.6 300 00:59 29.07.2019
4543 Rain 20 1007 93 10000 3.1 290 00:30 29.07.2019
4544 Rain 19 1006 93 10000 3.6 290 23:45 28.07.2019
4545 Rain 19 1006 93 10000 4.1 290 23:26 28.07.2019
4546 Clouds 20 1006 88 10000 3.1 280 22:57 28.07.2019
4547 Rain 20 1006 88 10000 3.1 270 22:36 28.07.2019
4548 Rain 20 1006 88 10000 3.1 270 22:18 28.07.2019
4549 Rain 20 1005 88 10000 1 0 21:42 28.07.2019
4550 Rain 20 1005 88 10000 1 0 21:18 28.07.2019
4551 Clouds 20 1005 88 10000 1.5 320 20:43 28.07.2019
4552 Rain 21 1004 88 10000 2.6 320 20:24 28.07.2019
4553 Rain 21 1004 88 10000 2.1 340 19:41 28.07.2019
4554 Rain 21 1003 94 10000 3.1 300 19:21 28.07.2019
4555 Rain 22 1003 94 10000 2.1 310 18:46 28.07.2019
4556 Rain 22 1003 83 9000 2.1 20 18:28 28.07.2019
4557 Thunderstorm 22 1003 83 10000 4.1 360 17:57 28.07.2019
4558 Thunderstorm 22 1003 83 10000 4.1 360 17:38 28.07.2019
4559 Thunderstorm 22 1002 83 10000 5.1 300 17:19 28.07.2019
4560 Rain 23 1002 77 10000 4.6 300 16:45 28.07.2019
4561 Rain 24 1002 78 10000 7.2 250 16:25 28.07.2019
4562 Clouds 24 1001 73 10000 2.1 160 15:48 28.07.2019
4563 Rain 24 1001 78 10000 2.1 110 15:27 28.07.2019
4564 Rain 24 1001 83 10000 3.1 100 14:56 28.07.2019
4565 Thunderstorm 25 1001 57 10000 2.6 60 14:36 28.07.2019
4566 Thunderstorm 26 1001 57 10000 2.6 60 14:18 28.07.2019
4567 Thunderstorm 26 1001 57 10000 2.6 60 14:18 28.07.2019
4568 Thunderstorm 26 1001 57 10000 2.6 60 14:18 28.07.2019
4569 Thunderstorm 26 1001 57 10000 2.1 0 13:39 28.07.2019
4570 Thunderstorm 26 1000 61 10000 2.1 320 13:20 28.07.2019
4571 Clouds 25 1000 57 10000 4.1 320 12:45 28.07.2019
4572 Clouds 24 1001 61 10000 2.1 0 12:27 28.07.2019
4573 Rain 25 1000 61 10000 1.5 0 11:50 28.07.2019
4574 Clouds 25 1001 73 10000 2.6 310 11:29 28.07.2019
4575 Clouds 24 1000 64 10000 1 0 10:59 28.07.2019
4576 Clouds 24 1000 64 10000 1 0 10:38 28.07.2019
4577 Clouds 23 1000 73 10000 2.6 140 10:18 28.07.2019
4578 Clouds 22 1000 69 10000 2.1 0 09:40 28.07.2019
4579 Clouds 21 1000 69 10000 2.6 120 09:21 28.07.2019
4580 Clear 20 1000 73 10000 1 0 08:42 28.07.2019
4581 Clear 20 1000 88 10000 1 0 08:22 28.07.2019
4582 Mist 19 1000 93 10000 0.5 0 07:42 28.07.2019
4583 Mist 19 1000 93 10000 1 10 07:24 28.07.2019
4584 Mist 18 1000 93 10000 1 320 06:35 28.07.2019
4585 Clear 18 1000 88 10000 2.1 70 05:20 28.07.2019
4586 Rain 19 1000 82 10000 1 0 02:37 28.07.2019
4587 Rain 19 1001 82 10000 3.1 200 01:43 28.07.2019
4588 -273 0 0 0 0 0 00:56 28.07.2019
4589 Rain 19 1001 88 10000 2.6 20 00:37 28.07.2019
4590 Rain 21 1001 73 10000 2.6 40 23:53 27.07.2019
4591 Rain 21 1002 64 10000 2.6 90 23:28 27.07.2019
4592 Thunderstorm 21 1002 60 10000 4.1 120 22:46 27.07.2019
4593 Rain 21 1001 64 10000 6.2 130 22:28 27.07.2019
4594 Rain 22 1001 69 10000 2.1 100 21:59 27.07.2019
4595 Rain 22 1001 69 10000 2.1 100 21:37 27.07.2019
4596 Clouds 23 1001 73 10000 0.5 0 21:18 27.07.2019
4597 Clouds 24 1001 64 10000 1.5 30 20:44 27.07.2019
4598 Clouds 25 1001 64 10000 1.5 50 20:19 27.07.2019
4599 Clouds 25 1001 61 10000 1.5 70 19:41 27.07.2019
4600 Rain 25 1001 57 10000 1.5 60 19:22 27.07.2019
4601 Rain 25 1001 57 10000 1 0 18:48 27.07.2019
4602 Rain 25 1002 61 10000 1.5 40 18:30 27.07.2019
4603 Rain 25 1002 61 10000 1.5 360 17:51 27.07.2019
4604 Rain 25 1002 61 10000 1.5 360 17:32 27.07.2019
4605 Rain 25 1003 65 10000 1.5 10 16:56 27.07.2019
4606 Clouds 25 1003 61 10000 1.5 40 16:37 27.07.2019
4607 Clouds 25 1003 61 10000 1.5 40 16:18 27.07.2019
4608 Clouds 25 1004 61 10000 1.5 360 15:43 27.07.2019
4609 Drizzle 24 1004 64 10000 2.1 30 15:19 27.07.2019
4610 Clear 24 1005 64 10000 0.37 39.311 14:45 27.07.2019
4611 Rain 24 1005 78 10000 2.1 40 14:26 27.07.2019
4612 Rain 24 1005 60 10000 2.1 50 13:50 27.07.2019
4613 Rain 24 1005 57 10000 1.5 60 13:24 27.07.2019
4614 Rain 24 1005 57 10000 3.1 350 12:51 27.07.2019
4615 Clouds 24 1005 60 10000 3.1 10 12:32 27.07.2019
4616 Clouds 24 1005 60 10000 3.1 320 11:57 27.07.2019
4617 Clouds 24 1005 60 10000 3.1 320 11:38 27.07.2019
4618 Clouds 23 1005 60 10000 3.6 350 11:20 27.07.2019
4619 Rain 23 1006 64 10000 2.6 260 10:41 27.07.2019
4620 Rain 23 1005 64 10000 2.6 330 10:21 27.07.2019
4621 Thunderstorm 22 1006 60 10000 1.5 50 09:41 27.07.2019
4622 Thunderstorm 23 1006 60 10000 1 0 09:23 27.07.2019
4623 Thunderstorm 22 1006 56 10000 0.5 0 08:49 27.07.2019
4624 Thunderstorm 22 1006 56 10000 1.5 260 08:29 27.07.2019
4625 Thunderstorm 22 1005 53 10000 4.1 180 07:55 27.07.2019
4626 Clouds 21 1004 53 10000 1.5 110 07:29 27.07.2019
4627 Clouds 21 1004 49 10000 4.6 40 06:56 27.07.2019
4628 Clouds 21 1004 60 10000 3.1 30 06:31 27.07.2019
4629 Clear 21 1005 52 10000 2.1 40 05:52 27.07.2019
4630 Clear 21 1005 56 10000 1.5 60 05:24 27.07.2019
4631 Thunderstorm 21 1005 46 10000 1.5 80 04:31 27.07.2019
4632 Clear 23 1006 44 10000 2.1 80 02:58 27.07.2019
4633 Clear 23 1006 44 10000 2.1 80 02:32 27.07.2019
4634 Clear 23 1006 41 10000 3.1 90 01:47 27.07.2019
4635 Clear 25 1006 39 10000 3.6 70 01:00 27.07.2019
4636 Clear 26 1006 42 10000 3.6 70 00:32 27.07.2019
4637 Clear 26 1006 42 10000 3.6 70 23:53 26.07.2019
4638 Clear 27 1006 42 10000 3.6 70 23:33 26.07.2019
4639 Clear 27 1006 37 10000 3.1 60 22:56 26.07.2019
4640 Clear 27 1006 32 10000 3.6 50 22:38 26.07.2019
4641 Clear 27 1006 32 10000 3.6 50 22:20 26.07.2019
4642 Clear 29 1006 30 10000 3.1 30 21:48 26.07.2019
4643 Clear 30 1007 25 10000 4.1 30 21:19 26.07.2019
4644 Rain 31 1007 27 10000 2.1 60 20:42 26.07.2019
4645 Rain 32 1007 33 10000 1.5 70 20:23 26.07.2019
4646 Clear 33 1007 24 10000 2.6 0 19:43 26.07.2019
4647 Clouds 33 1006 23 10000 3.1 20 19:25 26.07.2019
4648 Rain 34 1006 23 10000 2.6 360 18:57 26.07.2019
4649 Clouds 34 1006 23 10000 2.6 360 18:37 26.07.2019
4650 Clouds 36 1007 20 10000 3.1 0 18:19 26.07.2019
4651 Clear 36 1007 19 10000 3.1 0 17:44 26.07.2019
4652 Clear 36 1007 19 10000 3.1 0 17:19 26.07.2019
4653 Clear 36 1008 19 10000 2.1 0 16:56 26.07.2019
4654 Clear 36 1008 19 10000 2.1 0 16:56 26.07.2019
4655 Clear 36 1008 19 10000 2.1 0 16:37 26.07.2019
4656 Clouds 36 1008 19 10000 2.6 240 16:19 26.07.2019
4657 Clear 35 1009 20 10000 3.1 210 15:45 26.07.2019
4658 Clear 36 1009 19 10000 3.1 180 15:26 26.07.2019
4659 Clear 36 1010 22 10000 3.6 70 14:59 26.07.2019
4660 Clear 36 1010 22 10000 3.6 70 14:41 26.07.2019
4661 Clear 35 1010 20 10000 2.1 90 14:21 26.07.2019
4662 Clear 35 1011 23 10000 3.1 110 13:40 26.07.2019
4663 Clear 35 1011 23 10000 3.1 110 13:22 26.07.2019
4664 Clear 35 1011 24 10000 2.6 0 12:47 26.07.2019
4665 Clear 33 1011 26 10000 2.1 0 12:20 26.07.2019
4666 Clear 32 1012 29 10000 2.1 40 11:40 26.07.2019
4667 Clear 32 1012 29 10000 1.5 0 11:20 26.07.2019
4668 Clear 31 1012 31 10000 1 0 10:55 26.07.2019
4669 Clear 30 1012 31 10000 1 0 10:37 26.07.2019
4670 Clear 28 1013 35 10000 2.1 140 09:55 26.07.2019
4671 Clear 28 1013 35 10000 2.1 140 09:37 26.07.2019
4672 Clear 25 1013 36 10000 3.6 110 08:44 26.07.2019
4673 Clear 23 1013 53 10000 1 0 08:23 26.07.2019
4674 Clear 21 1013 60 10000 1 0 07:59 26.07.2019
4675 Clear 22 1013 60 10000 1.5 70 07:29 26.07.2019
4676 Clear 20 1013 63 10000 0.5 50 06:53 26.07.2019
4677 Clear 19 1013 63 10000 1.5 120 05:23 26.07.2019
4678 Clear 20 1013 60 10000 1 0 04:28 26.07.2019
4679 Clear 22 1014 49 10000 0.5 330 03:18 26.07.2019
4680 Clear 22 1014 50 10000 2.1 100 01:43 26.07.2019
4681 Clear 24 1014 32 10000 3.1 80 00:45 26.07.2019
4682 Clear 27 1014 28 10000 3.6 70 23:57 25.07.2019
4683 Clear 27 1014 28 10000 4.1 60 23:25 25.07.2019
4684 Clear 27 1014 27 10000 2.6 50 22:58 25.07.2019
4685 Clear 26 1014 27 10000 2.6 50 22:39 25.07.2019
4686 Clear 27 1014 25 10000 3.1 50 22:20 25.07.2019
4687 Clear 29 1014 27 10000 3.1 40 21:44 25.07.2019
4688 Clear 31 1014 27 10000 2.6 40 21:22 25.07.2019
4689 Clear 33 1014 31 10000 1 50 20:48 25.07.2019
4690 Clear 34 1014 23 10000 1.5 50 20:23 25.07.2019
4691 Clear 35 1014 22 10000 2.1 80 19:44 25.07.2019
4692 Clear 35 1014 19 10000 2.1 100 19:26 25.07.2019
4693 Clear 36 1014 20 10000 1 0 18:58 25.07.2019
4694 Clear 36 1014 20 10000 1 0 18:39 25.07.2019
4695 Clear 37 1014 23 10000 2.6 30 18:20 25.07.2019
4696 Clear 37 1014 20 10000 2.6 70 17:44 25.07.2019
4697 Clear 37 1015 23 10000 3.6 10 17:24 25.07.2019
4698 Clear 37 1015 22 10000 2.1 0 16:44 25.07.2019
4699 Clear 37 1015 20 10000 2.6 0 16:26 25.07.2019
4700 Clear 37 1015 20 10000 2.1 0 15:56 25.07.2019
4701 Clear 36 1016 23 10000 2.6 30 15:21 25.07.2019
4702 Clear 36 1016 23 10000 1 0 14:58 25.07.2019
4703 Clear 36 1016 23 10000 1 0 14:40 25.07.2019
4704 Clear 36 1016 25 10000 1.5 0 14:20 25.07.2019
4705 Clear 36 1016 28 10000 2.6 240 13:41 25.07.2019
4706 Clear 36 1017 28 10000 2.6 240 13:23 25.07.2019
4707 Clear 34 1017 34 10000 1.5 220 12:39 25.07.2019
4708 Clear 34 1017 34 10000 1.5 220 12:21 25.07.2019
4709 Clear 32 1017 38 10000 1.5 0 11:41 25.07.2019
4710 Clear 32 1017 33 10000 1 0 11:23 25.07.2019
4711 Clear 32 1017 33 10000 1 0 11:23 25.07.2019
4712 Clear 31 1018 40 10000 1.5 350 10:45 25.07.2019
4713 Clear 31 1018 40 10000 1.5 90 10:25 25.07.2019
4714 Clear 28 1018 42 10000 2.1 100 09:47 25.07.2019
4715 Clear 26 1018 48 10000 1 0 09:28 25.07.2019
4716 Clear 24 1018 54 10000 1.5 90 08:53 25.07.2019
4717 Clear 24 1018 60 10000 1 0 08:33 25.07.2019
4718 Clear 21 1018 73 10000 0.5 0 07:41 25.07.2019
4719 Clear 21 1017 72 10000 1.5 130 06:50 25.07.2019
4720 Clear 19 1017 77 10000 1 0 06:31 25.07.2019
4721 Clear 20 1017 72 10000 1 110 05:36 25.07.2019
4722 Clear 20 1017 82 10000 0.5 100 04:50 25.07.2019
4723 Clear 20 1017 77 10000 0.5 0 03:24 25.07.2019
4724 Clear 23 1017 57 10000 3.1 100 01:21 25.07.2019
4725 Clear 23 1017 60 10000 1.5 110 00:34 25.07.2019
4726 Clear 24 1017 57 10000 1.5 130 23:56 24.07.2019
4727 Clear 25 1017 54 10000 2.1 90 23:38 24.07.2019
4728 Clear 25 1017 54 10000 2.1 90 23:20 24.07.2019
4729 Clear 26 1016 47 10000 1.5 80 22:44 24.07.2019
4730 Clear 27 1016 42 10000 2.1 70 22:22 24.07.2019
4731 Clear 28 1016 37 10000 2.1 70 21:55 24.07.2019
4732 Clear 29 1016 37 10000 2.1 70 21:37 24.07.2019
4733 Clear 31 1016 38 10000 2.1 70 21:18 24.07.2019
4734 Clear 32 1016 33 10000 1.5 70 20:45 24.07.2019
4735 Clear 33 1016 28 10000 2.6 80 20:26 24.07.2019
4736 Clear 34 1015 26 10000 1.5 40 19:58 24.07.2019
4737 Clear 34 1015 24 10000 1.5 320 19:39 24.07.2019
4738 Clear 34 1015 24 10000 1.5 320 19:19 24.07.2019
4739 Clear 34 1016 25 10000 1 0 18:43 24.07.2019
4740 Clear 35 1016 26 10000 2.6 110 18:24 24.07.2019
4741 Clear 36 1016 23 10000 1 0 17:47 24.07.2019
4742 Clear 36 1016 26 10000 2.6 240 17:21 24.07.2019
4743 Clear 36 1016 26 10000 1.5 0 16:44 24.07.2019
4744 Clear 36 1016 26 10000 2.6 60 16:23 24.07.2019
4745 Clear 36 1016 26 10000 1.5 0 15:59 24.07.2019
4746 Clear 35 1016 26 10000 1.5 0 15:37 24.07.2019
4747 Clear 35 1017 28 10000 2.1 0 15:19 24.07.2019
4748 Clear 35 1017 26 10000 3.6 130 14:44 24.07.2019
4749 Clear 35 1017 30 10000 3.6 160 14:20 24.07.2019
4750 Clear 34 1017 31 10000 3.1 140 13:40 24.07.2019
4751 Clear 34 1017 31 10000 3.1 140 13:19 24.07.2019
4752 Clear 33 1018 33 10000 2.1 0 12:52 24.07.2019
4753 Clear 33 1018 33 10000 2.1 0 12:34 24.07.2019
4754 Clear 31 1018 35 10000 1.5 0 11:41 24.07.2019
4755 Clear 30 1018 38 10000 1.5 0 11:21 24.07.2019
4756 Clear 30 1018 40 10000 1 0 10:49 24.07.2019
4757 Clear 29 1018 42 10000 1.5 120 10:27 24.07.2019
4758 Clear 28 1018 42 10000 1 0 09:59 24.07.2019
4759 Clear 27 1018 42 10000 1 0 09:41 24.07.2019
4760 Clear 25 1018 47 10000 2.1 120 09:21 24.07.2019
4761 Clear 24 1018 47 10000 1.5 110 08:42 24.07.2019
4762 Clear 21 1018 60 10000 1 0 07:52 24.07.2019
4763 Clear 22 1018 60 10000 1 120 07:31 24.07.2019
4764 Clear 19 1018 68 10000 1.5 100 06:56 24.07.2019
4765 Clear 18 1018 72 10000 1 0 06:28 24.07.2019
4766 Clear 19 1018 64 10000 0.5 250 04:56 24.07.2019
4767 Clear 20 1019 60 10000 3.1 100 01:48 24.07.2019
4768 Clear 22 1019 60 10000 2.6 100 00:57 24.07.2019
4769 Clear 22 1019 60 10000 3.1 100 00:30 24.07.2019
4770 Clear 22 1019 53 10000 2.6 100 23:47 23.07.2019
4771 Clear 23 1019 60 10000 2.6 110 23:26 23.07.2019
4772 Clear 24 1019 60 10000 0.5 0 22:56 23.07.2019
4773 Clear 24 1019 60 10000 0.5 0 22:36 23.07.2019
4774 Clear 24 1019 57 10000 1.5 40 22:18 23.07.2019
4775 Clear 27 1019 42 10000 2.1 70 21:44 23.07.2019
4776 Clear 29 1019 42 10000 1.5 70 21:25 23.07.2019
4777 Clear 31 1019 31 10000 1.5 90 20:49 23.07.2019
4778 Clear 31 1019 31 10000 2.1 80 20:29 23.07.2019
4779 Clear 31 1019 33 10000 1.5 60 19:43 23.07.2019
4780 Clear 32 1019 29 10000 1 0 19:24 23.07.2019
4781 Clear 32 1019 27 10000 2.1 0 18:56 23.07.2019
4782 Clear 32 1019 27 10000 2.1 0 18:38 23.07.2019
4783 Clear 33 1019 29 10000 2.1 350 18:19 23.07.2019
4784 Clear 33 1020 29 10000 1 0 17:42 23.07.2019
4785 Clear 33 1020 29 10000 2.1 220 17:20 23.07.2019
4786 Clear 33 1020 29 10000 2.1 260 16:42 23.07.2019
4787 Clear 33 1020 29 10000 2.1 0 16:24 23.07.2019
4788 Clear 33 1021 31 10000 1.5 0 15:48 23.07.2019
4789 Clear 33 1021 31 10000 1.5 0 15:48 23.07.2019
4790 Clear 32 1021 31 10000 2.1 220 15:29 23.07.2019
4791 Drizzle 32 1021 31 10000 2.6 0 14:54 23.07.2019
4792 Clear 31 1022 31 10000 1 0 14:36 23.07.2019
4793 Clear 31 1022 31 10000 1 0 14:18 23.07.2019
4794 Clear 31 1022 31 10000 2.6 160 13:42 23.07.2019
4795 Clear 31 1022 33 10000 1.5 0 13:23 23.07.2019
4796 Clear 30 1022 35 10000 3.1 0 12:54 23.07.2019
4797 Clear 30 1022 35 10000 3.1 0 12:36 23.07.2019
4798 Clear 28 1023 35 10000 2.6 140 12:18 23.07.2019
4799 Clear 28 1023 39 10000 2.1 130 11:41 23.07.2019
4800 Clear 27 1023 39 10000 2.6 80 11:20 23.07.2019
4801 Clear 27 1023 39 10000 2.1 130 10:43 23.07.2019
4802 Clear 26 1023 41 10000 1 0 10:22 23.07.2019
4803 Clear 24 1023 47 10000 1 0 09:42 23.07.2019
4804 Clear 23 1023 50 10000 1 0 09:22 23.07.2019
4805 Clear 21 1024 53 10000 0.5 0 08:44 23.07.2019
4806 Clear 20 1024 64 10000 1 0 08:20 23.07.2019
4807 Clear 18 1024 68 10000 1 130 07:57 23.07.2019
4808 Clear 18 1024 77 10000 0.5 0 07:37 23.07.2019
4809 Clear 16 1024 87 10000 1 0 06:50 23.07.2019
4810 Clear 17 1024 87 10000 1 0 06:50 23.07.2019
4811 Clear 15 1024 82 10000 2.1 100 06:31 23.07.2019
4812 Clear 16 1023 82 10000 1 30 03:55 23.07.2019
4813 Clear 17 1024 72 10000 0.5 0 01:35 23.07.2019
4814 Clear 19 1023 59 10000 0.5 0 00:32 23.07.2019
4815 Clear 20 1023 56 10000 0.5 0 23:56 22.07.2019
4816 Clear 20 1023 60 10000 0.5 350 23:38 22.07.2019
4817 Clear 20 1023 60 10000 0.5 350 23:18 22.07.2019
4818 Clear 21 1023 52 10000 1 0 22:44 22.07.2019
4819 Clear 22 1023 49 10000 1 360 22:22 22.07.2019
4820 Clear 25 1023 49 10000 1 0 21:43 22.07.2019
4821 Clear 25 1023 39 10000 1 0 21:23 22.07.2019
4822 Clear 27 1023 36 10000 2.6 320 20:53 22.07.2019
4823 Clear 27 1023 36 10000 2.6 320 20:33 22.07.2019
4824 Clear 28 1022 26 10000 3.6 340 19:58 22.07.2019
4825 Clear 28 1022 26 10000 3.6 340 19:40 22.07.2019
4826 Clear 28 1022 26 10000 4.1 310 19:20 22.07.2019
4827 Clear 29 1023 26 10000 4.1 310 18:46 22.07.2019
4828 Clear 29 1023 27 10000 5.1 300 18:27 22.07.2019
4829 Clear 29 1023 27 10000 3.6 330 17:55 22.07.2019
4830 Clear 29 1023 27 10000 3.6 330 17:37 22.07.2019
4831 Clear 29 1023 28 10000 4.1 290 17:18 22.07.2019
4832 Clear 29 1023 26 10000 4.1 280 16:39 22.07.2019
4833 Clear 29 1023 25 10000 5.1 270 16:20 22.07.2019
4834 Clear 29 1023 30 10000 5.7 320 15:44 22.07.2019
4835 Clear 29 1023 32 10000 4.1 310 15:20 22.07.2019
4836 Clear 29 1024 32 10000 7.7 300 14:44 22.07.2019
4837 Clear 29 1024 32 10000 5.1 260 14:24 22.07.2019
4838 Clear 28 1024 34 10000 4.6 260 13:51 22.07.2019
4839 Clouds 28 1024 37 10000 4.1 280 13:31 22.07.2019
4840 Clouds 28 1024 37 10000 4.6 290 12:51 22.07.2019
4841 Clouds 27 1024 39 10000 2.1 0 12:32 22.07.2019
4842 Clouds 26 1024 44 10000 1 0 11:56 22.07.2019
4843 Clouds 26 1024 44 10000 1 0 11:36 22.07.2019
4844 Clouds 26 1024 44 10000 1 0 11:36 22.07.2019
4845 Clear 25 1025 50 10000 1.5 280 11:18 22.07.2019
4846 Clear 25 1025 53 10000 1 0 10:37 22.07.2019
4847 Clear 24 1025 56 10000 0.5 0 10:18 22.07.2019
4848 Clear 22 1024 68 10000 1 0 09:39 22.07.2019
4849 Clear 20 1024 72 10000 0.5 0 09:20 22.07.2019
4850 Clear 18 1024 77 10000 1 0 08:38 22.07.2019
4851 Clear 17 1024 82 10000 1.5 100 08:20 22.07.2019
4852 Clear 17 1024 87 10000 2.6 100 07:52 22.07.2019
4853 Clear 16 1024 87 10000 2.1 90 07:27 22.07.2019
4854 Clear 14 1024 87 10000 3.1 100 05:30 22.07.2019
4855 Clear 15 1023 93 10000 2.6 110 03:45 22.07.2019
4856 Clear 17 1024 77 10000 1.5 140 01:28 22.07.2019
4857 Clear 18 1024 77 10000 1 0 00:49 22.07.2019
4858 Clear 18 1023 68 10000 1.5 130 00:21 22.07.2019
4859 Clear 19 1023 68 10000 1 0 23:49 21.07.2019
4860 Clear 20 1023 56 10000 0.5 300 22:59 21.07.2019
4861 Clear 21 1023 56 10000 0.5 300 22:40 21.07.2019
4862 Clear 21 1022 60 10000 1.5 280 22:21 21.07.2019
4863 Clear 22 1022 53 10000 2.1 290 21:49 21.07.2019
4864 Clear 23 1022 50 10000 2.1 290 21:26 21.07.2019
4865 Clear 25 1022 44 10000 3.1 300 20:59 21.07.2019
4866 Clear 25 1022 44 10000 3.1 300 20:41 21.07.2019
4867 Clear 25 1022 44 10000 4.1 290 20:22 21.07.2019
4868 Clear 26 1021 41 10000 5.1 290 19:52 21.07.2019
4869 Clear 26 1021 39 10000 4.6 280 19:29 21.07.2019
4870 Clouds 26 1021 36 10000 3.6 290 18:53 21.07.2019
4871 Clouds 26 1021 44 10000 3.1 220 18:34 21.07.2019
4872 Clouds 27 1021 47 10000 4.1 220 17:56 21.07.2019
4873 Clouds 27 1021 47 10000 4.1 220 17:38 21.07.2019
4874 Clouds 27 1021 54 10000 4.1 200 17:18 21.07.2019
4875 Clouds 27 1021 61 10000 3.1 230 16:41 21.07.2019
4876 Clouds 26 1021 64 10000 3.1 200 16:22 21.07.2019
4877 Clouds 25 1021 73 10000 3.6 200 15:41 21.07.2019
4878 Rain 26 1021 53 10000 3.6 270 15:21 21.07.2019
4879 Rain 26 1021 53 10000 3.6 270 15:21 21.07.2019
4880 Rain 25 1021 50 10000 3.1 260 14:51 21.07.2019
4881 Rain 25 1021 69 10000 3.6 250 14:25 21.07.2019
4882 Rain 25 1021 77 10000 7.7 250 13:53 21.07.2019
4883 Rain 24 1021 77 10000 7.7 250 13:34 21.07.2019
4884 Rain 25 1021 47 10000 4.1 250 12:57 21.07.2019
4885 Clouds 25 1021 53 10000 5.1 280 12:39 21.07.2019
4886 Clouds 24 1021 53 10000 5.1 280 12:20 21.07.2019
4887 Clouds 24 1021 64 10000 4.1 240 11:45 21.07.2019
4888 Clouds 24 1021 69 10000 3.6 210 11:25 21.07.2019
4889 Clouds 23 1020 73 10000 4.6 220 10:43 21.07.2019
4890 Clouds 22 1020 78 10000 4.1 220 10:24 21.07.2019
4891 Clouds 21 1020 83 10000 3.6 210 09:52 21.07.2019
4892 Clouds 20 1020 83 10000 3.6 210 09:32 21.07.2019
4893 Rain 19 1020 82 10000 1 0 08:49 21.07.2019
4894 Rain 19 1020 88 10000 3.1 200 08:28 21.07.2019
4895 Mist 18 1019 88 10000 2.1 210 07:40 21.07.2019
4896 Rain 18 1019 93 10000 2.1 210 06:59 21.07.2019
4897 Rain 18 1018 88 10000 1 0 05:54 21.07.2019
4898 Drizzle 20 1016 64 10000 1.5 170 02:59 21.07.2019
4899 Clear 21 1016 60 10000 1.5 160 01:50 21.07.2019
4900 Clear 21 1016 56 10000 1.5 170 00:42 21.07.2019
4901 Clear 23 1015 53 10000 1.5 140 00:19 21.07.2019
4902 Clouds 23 1015 50 10000 1.5 220 23:43 20.07.2019
4903 Clouds 23 1015 57 10000 2.1 180 23:21 20.07.2019
4904 Clouds 23 1015 53 10000 2.1 190 22:48 20.07.2019
4905 Clouds 23 1015 50 10000 2.1 230 22:23 20.07.2019
4906 Rain 25 1014 54 10000 2.1 270 21:57 20.07.2019
4907 Clouds 25 1014 54 10000 2.1 270 21:39 20.07.2019
4908 Clouds 26 1014 45 10000 1.5 240 21:20 20.07.2019
4909 Rain 28 1013 39 10000 3.1 220 20:41 20.07.2019
4910 Clear 28 1013 42 10000 3.6 210 20:19 20.07.2019
4911 Clear 29 1013 39 10000 4.6 200 19:45 20.07.2019
4912 Clear 29 1013 39 10000 4.6 200 19:45 20.07.2019
4913 Clear 30 1013 37 10000 4.6 200 19:20 20.07.2019
4914 Clouds 30 1013 37 10000 6.2 210 18:43 20.07.2019
4915 Clouds 30 1013 33 10000 4.6 240 18:20 20.07.2019
4916 Clear 31 1013 29 10000 4.6 210 17:54 20.07.2019
4917 Clear 31 1013 31 10000 4.6 190 17:25 20.07.2019
4918 Clear 31 1013 31 10000 3.6 220 16:44 20.07.2019
4919 Clear 31 1013 35 10000 4.6 200 16:26 20.07.2019
4920 Clear 31 1014 33 10000 3.6 250 15:58 20.07.2019
4921 Clear 31 1014 33 10000 3.6 250 15:38 20.07.2019
4922 Clear 31 1014 33 10000 3.6 230 15:20 20.07.2019
4923 Clear 30 1014 33 10000 5.1 200 14:47 20.07.2019
4924 Clear 30 1015 37 10000 3.6 220 14:28 20.07.2019
4925 Rain 30 1015 35 10000 3.6 240 13:39 20.07.2019
4926 Rain 30 1015 37 10000 4.1 200 13:21 20.07.2019
4927 Clear 29 1015 37 10000 2.1 170 12:57 20.07.2019
4928 Clear 28 1015 42 10000 2.6 160 12:26 20.07.2019
4929 Clear 27 1015 44 10000 3.1 140 11:57 20.07.2019
4930 Clear 26 1015 47 10000 3.6 150 11:27 20.07.2019
4931 Clear 25 1016 50 10000 2.6 150 10:58 20.07.2019
4932 Clear 25 1016 53 10000 2.1 120 10:37 20.07.2019
4933 Clear 25 1016 53 10000 2.1 120 10:18 20.07.2019
4934 Clear 24 1016 53 10000 2.1 120 10:18 20.07.2019
4935 Clear 23 1016 60 10000 2.1 140 09:45 20.07.2019
4936 Clear 21 1016 64 10000 2.1 130 09:22 20.07.2019
4937 Clear 19 1016 77 10000 2.1 140 08:45 20.07.2019
4938 Clear 18 1016 88 10000 1.5 110 08:20 20.07.2019
4939 Clear 16 1016 93 10000 2.6 110 07:21 20.07.2019
4940 Mist 15 1016 93 10000 2.1 120 06:41 20.07.2019
4941 Clear 16 1016 93 10000 2.1 90 04:31 20.07.2019
4942 Clear 16 1016 93 10000 2.1 90 03:40 20.07.2019
4943 Clear 17 1016 82 10000 2.6 110 01:21 20.07.2019
4944 Clear 17 1016 82 10000 2.6 110 00:47 20.07.2019
4945 Clouds 18 1016 77 0 2.1 100 00:21 20.07.2019
4946 Clear 18 1016 77 10000 2.1 100 23:45 19.07.2019
4947 Clear 18 1016 77 10000 1 90 23:26 19.07.2019
4948 Clear 19 1016 77 10000 1.5 90 22:50 19.07.2019
4949 Clear 20 1016 68 10000 1 100 22:26 19.07.2019
4950 Rain 21 1016 68 10000 1 60 21:53 19.07.2019
4951 Clear 21 1016 68 10000 1.5 20 21:34 19.07.2019
4952 Clear 22 1016 64 10000 2.1 20 20:59 19.07.2019
4953 Clear 22 1016 64 10000 2.1 20 20:40 19.07.2019
4954 Clear 22 1016 64 10000 3.1 360 20:22 19.07.2019
4955 Clear 23 1016 56 10000 4.1 360 19:35 19.07.2019
4956 Clear 24 1015 64 10000 5.1 330 18:46 19.07.2019
4957 Clear 24 1015 57 10000 3.6 360 18:25 19.07.2019
4958 Drizzle 24 1015 50 10000 2.6 330 17:56 19.07.2019
4959 Clouds 24 1015 53 10000 4.6 330 17:29 19.07.2019
4960 Clouds 25 1015 50 10000 3.6 280 16:58 19.07.2019
4961 Clouds 25 1015 50 10000 3.6 280 16:40 19.07.2019
4962 Clouds 25 1015 44 10000 1.5 0 16:18 19.07.2019
4963 Clouds 25 1015 47 10000 1 0 15:44 19.07.2019
4964 Clouds 25 1016 44 10000 1.5 300 15:25 19.07.2019
4965 Clouds 24 1016 47 10000 2.1 280 14:45 19.07.2019
4966 Clouds 24 1016 47 10000 2.1 280 14:45 19.07.2019
4967 Clouds 24 1016 50 10000 2.1 0 14:25 19.07.2019
4968 Clouds 24 1016 50 10000 2.1 360 13:57 19.07.2019
4969 Rain 23 1016 50 10000 2.1 360 13:38 19.07.2019
4970 Rain 23 1016 56 10000 1 0 13:20 19.07.2019
4971 Clear 22 1016 64 10000 1 240 12:44 19.07.2019
4972 Drizzle 21 1016 64 10000 1 0 12:25 19.07.2019
4973 Clouds 21 1016 64 10000 1 0 11:46 19.07.2019
4974 Rain 21 1016 68 10000 1 0 11:19 19.07.2019
4975 Rain 20 1016 72 10000 1.5 330 10:48 19.07.2019
4976 Rain 20 1016 68 10000 1.5 310 10:23 19.07.2019
4977 Clear 19 1016 72 10000 1.5 230 09:59 19.07.2019
4978 Clear 19 1016 72 10000 1.5 230 09:41 19.07.2019
4979 Clear 19 1016 72 10000 1.5 190 09:22 19.07.2019
4980 Clear 18 1016 77 10000 1.5 190 08:49 19.07.2019
4981 Clear 18 1015 72 10000 2.1 180 08:22 19.07.2019
4982 Clear 17 1015 88 10000 2.6 110 07:29 19.07.2019
4983 Clear 16 1015 82 10000 2.1 140 06:19 19.07.2019
4984 Clear 17 1015 77 10000 1 50 02:55 19.07.2019
4985 Rain 18 1014 63 10000 1.5 110 01:21 19.07.2019
4986 Rain 18 1014 59 10000 2.1 100 00:45 19.07.2019
4987 Clear 19 1014 55 10000 1 130 23:58 18.07.2019
4988 Clear 19 1014 55 10000 1 130 23:40 18.07.2019
4989 Clear 19 1014 49 10000 0.5 0 23:21 18.07.2019
4990 Clear 20 1014 49 10000 0.5 0 22:41 18.07.2019
4991 Clear 20 1013 46 10000 0.5 330 22:20 18.07.2019
4992 Clear 22 1013 43 10000 2.1 290 21:49 18.07.2019
4993 Clear 23 1013 43 10000 2.1 290 21:31 18.07.2019
4994 Clear 24 1012 41 10000 2.6 300 20:55 18.07.2019
4995 Clear 24 1012 36 10000 2.6 260 20:36 18.07.2019
4996 Clear 25 1012 36 10000 2.6 260 20:18 18.07.2019
4997 Clear 25 1012 29 10000 4.1 260 19:45 18.07.2019
4998 Clear 26 1012 31 10000 5.7 270 19:20 18.07.2019
4999 Clear 26 1012 30 10000 4.6 290 18:49 18.07.2019
5000 Clear 27 1012 26 10000 5.1 280 18:21 18.07.2019
5001 Clear 27 1012 30 10000 5.1 280 17:44 18.07.2019
5002 Clear 27 1012 30 10000 3.6 290 17:25 18.07.2019
5003 Clear 27 1012 32 10000 3.1 250 16:58 18.07.2019
5004 Clear 27 1012 32 10000 3.1 250 16:39 18.07.2019
5005 Clear 27 1012 30 10000 4.1 270 16:19 18.07.2019
5006 Clear 27 1012 32 10000 4.1 270 15:51 18.07.2019
5007 Clear 27 1012 32 10000 3.6 280 15:33 18.07.2019
5008 Clear 27 1012 32 10000 2.1 0 14:53 18.07.2019
5009 Clear 26 1012 36 10000 2.1 0 14:33 18.07.2019
5010 Clear 26 1013 39 10000 2.6 0 13:50 18.07.2019
5011 Clear 26 1013 38 10000 2.6 320 13:27 18.07.2019
5012 Clear 25 1013 41 10000 1.5 0 12:55 18.07.2019
5013 Clouds 25 1013 44 10000 1.5 230 12:36 18.07.2019
5014 Clouds 25 1013 44 10000 1.5 230 12:18 18.07.2019
5015 Clouds 25 1013 44 10000 1.5 230 12:18 18.07.2019
5016 Clouds 24 1013 44 10000 2.1 190 11:46 18.07.2019
5017 Clear 23 1013 49 10000 1.5 0 11:22 18.07.2019
5018 Clear 23 1013 53 10000 2.1 170 10:51 18.07.2019
5019 Clear 21 1013 63 10000 1 0 09:50 18.07.2019
5020 Clear 18 1013 63 10000 1.5 0 09:27 18.07.2019
5021 Clear 17 1013 72 10000 2.1 130 08:53 18.07.2019
5022 Clear 15 1013 77 10000 2.1 110 08:25 18.07.2019
5023 Clear 15 1013 87 10000 1.5 100 07:58 18.07.2019
5024 Clear 14 1013 87 10000 2.1 100 07:35 18.07.2019
5025 Clear 12 1013 87 10000 1.5 110 06:51 18.07.2019
5026 Clear 12 1013 87 10000 2.6 100 06:26 18.07.2019
5027 Clear 13 1013 87 10000 1 0 03:41 18.07.2019
5028 Clear 14 1013 87 10000 1 10 02:23 18.07.2019
5029 Clear 14 1013 82 10000 0.5 0 01:36 18.07.2019
5030 Clear 16 1013 72 10000 1 340 23:59 17.07.2019
5031 Clear 16 1012 67 10000 0.5 340 23:22 17.07.2019
5032 Clear 17 1012 63 10000 0.5 10 22:59 17.07.2019
5033 Clear 18 1012 63 10000 0.5 10 22:41 17.07.2019
5034 Clear 19 1012 59 10000 1 10 22:22 17.07.2019
5035 Clear 21 1012 52 10000 1.5 10 21:56 17.07.2019
5036 Clear 21 1012 52 10000 1.5 10 21:56 17.07.2019
5037 Clear 22 1012 49 10000 2.1 20 21:37 17.07.2019
5038 Clear 22 1012 49 10000 2.1 20 21:19 17.07.2019
5039 Clear 23 1012 38 10000 2.6 350 20:41 17.07.2019
5040 Clear 24 1012 36 10000 3.1 340 20:21 17.07.2019
5041 Clear 24 1012 36 10000 3.1 310 19:59 17.07.2019
5042 Clear 24 1012 33 10000 3.1 310 19:40 17.07.2019
5043 Clear 25 1012 33 10000 3.1 310 19:19 17.07.2019
5044 Clear 25 1012 33 10000 4.6 300 18:43 17.07.2019
5045 Clear 25 1012 34 10000 3.6 0 18:21 17.07.2019
5046 Clear 25 1012 34 10000 3.6 0 18:21 17.07.2019
5047 Clear 25 1013 31 10000 3.6 280 17:55 17.07.2019
5048 Clear 25 1013 31 10000 3.6 280 17:37 17.07.2019
5049 Clear 25 1013 34 10000 4.6 290 17:18 17.07.2019
5050 Clear 25 1013 36 10000 2.6 290 16:38 17.07.2019
5051 Clear 25 1013 34 10000 2.6 250 16:19 17.07.2019
5052 Clear 25 1013 34 10000 2.6 250 16:19 17.07.2019
5053 Clear 25 1013 34 10000 2.6 250 15:51 17.07.2019
5054 Clear 25 1013 38 10000 2.6 300 15:29 17.07.2019
5055 Clear 25 1013 36 10000 4.6 300 14:55 17.07.2019
5056 Clear 24 1014 41 10000 1 0 14:37 17.07.2019
5057 Clear 24 1014 41 10000 2.6 0 14:19 17.07.2019
5058 Clouds 24 1014 44 10000 3.1 0 13:45 17.07.2019
5059 Clouds 24 1014 44 10000 3.1 0 13:25 17.07.2019
5060 Clouds 23 1014 46 10000 2.1 0 12:43 17.07.2019
5061 Clouds 23 1014 46 10000 2.1 0 12:21 17.07.2019
5062 Clouds 22 1015 56 10000 2.1 0 11:56 17.07.2019
5063 Clouds 22 1014 53 10000 2.1 0 11:56 17.07.2019
5064 Clouds 22 1015 56 10000 2.1 0 11:37 17.07.2019
5065 Clouds 21 1015 56 10000 1 0 11:18 17.07.2019
5066 Clear 21 1015 60 10000 1.5 0 10:42 17.07.2019
5067 Clear 20 1015 64 10000 1 0 10:18 17.07.2019
5068 Clear 19 1015 68 10000 1 0 09:44 17.07.2019
5069 Clear 19 1015 68 10000 1 0 09:44 17.07.2019
5070 Clear 18 1015 68 10000 1 0 09:25 17.07.2019
5071 Clear 16 1015 77 10000 0.5 110 08:44 17.07.2019
5072 Clear 15 1015 77 10000 0.5 0 08:22 17.07.2019
5073 Clear 14 1015 77 10000 0.5 0 07:51 17.07.2019
5074 Clear 14 1015 77 10000 0.5 0 07:51 17.07.2019
5075 Clear 13 1015 87 10000 0.5 0 07:26 17.07.2019
5076 Clear 12 1015 87 10000 0.5 0 06:58 17.07.2019
5077 Clear 11 1016 100 10000 0.5 360 06:31 17.07.2019
5078 Clear 11 1016 100 10000 0.5 340 05:57 17.07.2019
5079 Clear 11 1016 93 10000 0.5 70 05:30 17.07.2019
5080 Clear 11 1016 93 10000 0.5 10 04:48 17.07.2019
5081 Clear 12 1016 93 10000 0.5 60 03:39 17.07.2019
5082 Clear 13 1016 87 10000 1 100 02:25 17.07.2019
5083 Clear 13 1016 82 10000 1 360 01:28 17.07.2019
5084 Clear 15 1016 82 10000 1 340 00:59 17.07.2019
5085 Clear 15 1016 77 10000 1.5 350 00:37 17.07.2019
5086 Clear 16 1016 77 10000 1.5 330 00:19 17.07.2019
5087 Clear 16 1016 67 10000 1 310 23:40 16.07.2019
5088 Clear 17 1016 55 10000 0.5 0 23:20 16.07.2019
5089 Clear 17 1016 63 10000 1 300 22:43 16.07.2019
5090 Clear 17 1016 63 10000 1 300 22:24 16.07.2019
5091 Clear 21 1016 49 10000 2.6 300 21:47 16.07.2019
5092 Clear 21 1016 49 10000 2.6 300 21:25 16.07.2019
5093 Clear 22 1015 43 10000 3.1 320 20:58 16.07.2019
5094 Clear 23 1015 43 10000 3.6 310 20:40 16.07.2019
5095 Clear 23 1015 38 10000 4.1 310 20:21 16.07.2019
5096 Clear 23 1015 38 10000 4.1 310 19:53 16.07.2019
5097 Clear 23 1015 41 10000 4.1 300 19:29 16.07.2019
5098 Clear 24 1016 41 10000 3.6 320 18:58 16.07.2019
5099 Clear 24 1016 38 10000 4.6 310 18:39 16.07.2019
5100 Clear 24 1016 41 10000 3.6 300 18:20 16.07.2019
5101 Clear 24 1016 41 10000 4.1 290 17:44 16.07.2019
5102 Clear 24 1016 41 10000 4.1 290 17:23 16.07.2019
5103 Clear 24 1016 41 10000 3.1 290 16:48 16.07.2019
5104 Clear 24 1016 41 10000 3.1 290 16:25 16.07.2019
5105 Clear 24 1016 43 10000 4.1 320 15:56 16.07.2019
5106 Clouds 24 1017 43 10000 3.1 310 15:37 16.07.2019
5107 Clouds 23 1017 43 10000 3.1 310 15:18 16.07.2019
5108 Clouds 23 1017 46 10000 3.1 0 14:43 16.07.2019
5109 Clouds 23 1017 46 10000 3.1 0 14:25 16.07.2019
5110 Clouds 22 1017 52 10000 2.6 310 13:46 16.07.2019
5111 Clouds 21 1017 52 10000 2.6 310 13:27 16.07.2019
5112 Clouds 20 1018 52 10000 1.5 0 12:56 16.07.2019
5113 Clouds 20 1018 55 10000 3.1 0 12:38 16.07.2019
5114 Clouds 19 1018 59 10000 3.1 280 12:19 16.07.2019
5115 Clouds 18 1018 63 10000 4.1 280 11:44 16.07.2019
5116 Clouds 18 1018 63 10000 4.1 280 11:24 16.07.2019
5117 Clouds 17 1018 67 10000 2.6 270 10:57 16.07.2019
5118 Clouds 16 1018 67 10000 3.6 350 10:38 16.07.2019
5119 Clouds 16 1018 72 10000 3.1 310 10:18 16.07.2019
5120 Clouds 15 1018 76 10000 1.5 320 09:42 16.07.2019
5121 Clouds 15 1018 76 10000 3.1 290 09:20 16.07.2019
5122 Clouds 14 1018 82 10000 3.1 310 08:46 16.07.2019
5123 Clouds 13 1018 87 10000 3.1 310 08:23 16.07.2019
5124 Clouds 12 1018 93 10000 2.6 310 07:50 16.07.2019
5125 Clouds 12 1018 93 10000 2.6 310 07:32 16.07.2019
5126 Clouds 11 1018 87 10000 2.6 300 06:57 16.07.2019
5127 Clear 11 1017 93 10000 1.5 290 06:35 16.07.2019
5128 Clear 10 1017 93 10000 2.6 290 05:44 16.07.2019
5129 Clear 11 1017 93 10000 2.6 290 05:24 16.07.2019
5130 Clear 11 1017 93 10000 2.6 300 04:23 16.07.2019
5131 Clear 12 1017 87 10000 2.6 320 03:34 16.07.2019
5132 Clear 13 1017 82 10000 3.1 330 02:41 16.07.2019
5133 Clear 13 1017 82 10000 3.1 320 02:18 16.07.2019
5134 Clear 15 1017 77 10000 2.6 330 00:59 16.07.2019
5135 Clear 16 1017 72 10000 3.6 330 00:22 16.07.2019
5136 Clear 16 1017 72 10000 3.6 330 23:55 15.07.2019
5137 Clear 16 1016 63 10000 4.1 330 23:37 15.07.2019
5138 Clear 18 1016 63 10000 4.1 320 22:56 15.07.2019
5139 Clear 18 1016 59 10000 4.1 320 22:37 15.07.2019
5140 Clear 18 1016 59 10000 4.1 320 22:19 15.07.2019
5141 Clear 20 1015 52 10000 4.1 310 21:42 15.07.2019
5142 Clear 21 1015 46 10000 4.6 310 21:21 15.07.2019
5143 Clear 22 1015 46 10000 4.6 310 20:58 15.07.2019
5144 Clear 22 1015 43 10000 4.6 320 20:39 15.07.2019
5145 Clear 23 1015 40 10000 4.6 320 20:21 15.07.2019
5146 Clear 23 1015 41 10000 4.1 300 19:45 15.07.2019
5147 Clear 24 1015 41 10000 4.1 300 19:24 15.07.2019
5148 Clear 24 1015 38 10000 5.1 310 18:57 15.07.2019
5149 Clear 24 1015 38 10000 4.1 300 18:38 15.07.2019
5150 Clear 24 1015 36 10000 4.1 310 18:19 15.07.2019
5151 Clear 24 1015 36 10000 4.1 310 17:55 15.07.2019
5152 Clear 24 1015 38 10000 4.1 290 17:37 15.07.2019
5153 Clear 24 1015 38 10000 4.1 290 17:18 15.07.2019
5154 Clear 24 1015 44 10000 3.6 320 16:39 15.07.2019
5155 Clear 24 1015 41 10000 3.6 330 16:20 15.07.2019
5156 Clouds 23 1015 49 10000 3.6 350 15:57 15.07.2019
5157 Clouds 24 1015 49 10000 3.6 350 15:37 15.07.2019
5158 Clouds 24 1015 49 10000 3.6 350 15:37 15.07.2019
5159 Clouds 23 1015 49 10000 3.6 350 15:19 15.07.2019
5160 Clouds 23 1016 49 10000 2.1 0 14:44 15.07.2019
5161 Clouds 23 1016 49 10000 2.1 0 14:25 15.07.2019
5162 Clouds 22 1016 53 10000 3.1 310 13:51 15.07.2019
5163 Clouds 23 1016 53 10000 3.1 310 13:25 15.07.2019
5164 Clouds 22 1016 53 10000 2.6 0 12:59 15.07.2019
5165 Clouds 21 1016 56 10000 3.1 310 12:41 15.07.2019
5166 Clouds 21 1016 56 10000 3.1 310 12:41 15.07.2019
5167 Clouds 21 1016 56 10000 3.1 310 12:20 15.07.2019
5168 Clouds 20 1016 56 10000 1 0 11:42 15.07.2019
5169 Clouds 20 1016 56 10000 1 0 11:24 15.07.2019
5170 Clouds 19 1017 82 10000 1.5 40 10:45 15.07.2019
5171 Clouds 19 1017 82 10000 1.5 40 10:27 15.07.2019
5172 Clear 17 1017 82 10000 3.1 340 09:48 15.07.2019
5173 Clear 16 1017 82 10000 3.1 340 09:28 15.07.2019
5174 Clear 15 1017 82 10000 2.6 350 08:59 15.07.2019
5175 Clear 15 1017 87 10000 2.1 350 08:41 15.07.2019
5176 Clear 15 1017 87 10000 2.1 350 08:23 15.07.2019
5177 Mist 14 1016 93 10000 1 0 07:38 15.07.2019
5178 Mist 13 1016 93 10000 1 0 07:18 15.07.2019
5179 Mist 13 1017 93 10000 1.5 330 06:39 15.07.2019
5180 Mist 12 1016 93 10000 2.6 350 05:44 15.07.2019
5181 Mist 12 1016 93 10000 2.6 350 05:26 15.07.2019
5182 Clouds 12 1016 93 10000 2.1 360 04:41 15.07.2019
5183 Clear 12 1017 93 10000 1.5 350 03:39 15.07.2019
5184 Clear 13 1017 87 10000 1.5 350 02:37 15.07.2019
5185 Clear 13 1017 77 10000 1.5 10 01:41 15.07.2019
5186 Clear 13 1017 77 10000 1.5 10 01:23 15.07.2019
5187 Rain 14 1017 72 10000 2.1 60 00:48 15.07.2019
5188 Drizzle 15 1016 77 10000 2.1 70 00:19 15.07.2019
5189 Drizzle 16 1016 77 10000 2.1 70 23:54 14.07.2019
5190 Drizzle 15 1016 72 10000 2.6 50 23:36 14.07.2019
5191 Clouds 16 1016 68 10000 3.6 40 23:18 14.07.2019
5192 Clouds 16 1017 59 10000 3.1 320 22:40 14.07.2019
5193 Clouds 17 1016 63 10000 2.6 20 22:21 14.07.2019
5194 Clouds 18 1016 63 10000 2.6 20 21:58 14.07.2019
5195 Clouds 18 1015 63 10000 2.6 20 21:39 14.07.2019
5196 Clouds 19 1015 60 10000 1.5 40 21:18 14.07.2019
5197 Clouds 19 1015 60 10000 1.5 40 21:18 14.07.2019
5198 Clouds 20 1015 60 10000 1.5 40 20:54 14.07.2019
5199 Clouds 20 1015 60 10000 2.1 30 20:36 14.07.2019
5200 Clouds 20 1015 60 10000 2.6 20 20:18 14.07.2019
5201 Clouds 20 1015 60 10000 2.1 40 19:41 14.07.2019
5202 Rain 21 1015 60 10000 2.1 60 19:22 14.07.2019
5203 Rain 21 1015 56 10000 3.1 70 18:45 14.07.2019
5204 Rain 21 1015 56 10000 3.1 70 18:27 14.07.2019
5205 Clouds 22 1015 49 10000 3.6 350 17:59 14.07.2019
5206 Clouds 21 1015 52 10000 4.1 340 17:39 14.07.2019
5207 Clouds 22 1015 52 10000 3.6 360 17:18 14.07.2019
5208 Clouds 22 1015 56 10000 4.1 40 16:46 14.07.2019
5209 Clouds 22 1015 56 10000 4.1 40 16:23 14.07.2019
5210 Clouds 22 1015 56 10000 4.1 40 16:23 14.07.2019
5211 Clouds 22 1016 49 10000 3.6 350 15:49 14.07.2019
5212 Clouds 22 1016 49 10000 3.6 350 15:27 14.07.2019
5213 Clouds 21 1016 53 10000 4.1 360 14:48 14.07.2019
5214 Clouds 21 1016 53 10000 4.1 360 14:21 14.07.2019
5215 Clouds 21 1016 60 10000 5.1 30 13:47 14.07.2019
5216 Clouds 21 1017 60 10000 5.7 340 13:25 14.07.2019
5217 Rain 20 1017 60 10000 5.7 340 12:58 14.07.2019
5218 Rain 20 1017 60 10000 3.6 340 12:40 14.07.2019
5219 Clouds 19 1017 60 10000 3.6 340 12:19 14.07.2019
5220 Clouds 19 1017 63 10000 4.6 350 11:51 14.07.2019
5221 Clouds 18 1017 68 10000 2.1 360 11:22 14.07.2019
5222 Clouds 18 1017 72 10000 3.1 340 10:49 14.07.2019
5223 Clouds 18 1017 72 10000 3.1 340 10:22 14.07.2019
5224 Clouds 17 1017 82 10000 2.6 330 09:50 14.07.2019
5225 Clouds 17 1017 82 10000 2.6 330 09:30 14.07.2019
5226 Clouds 16 1017 87 10000 3.1 340 08:57 14.07.2019
5227 Clouds 15 1016 87 10000 2.6 320 08:39 14.07.2019
5228 Mist 14 1017 93 10000 2.1 320 07:46 14.07.2019
5229 Mist 14 1017 93 10000 2.1 310 07:21 14.07.2019
5230 Clouds 14 1016 100 10000 2.6 290 05:47 14.07.2019
5231 Clouds 14 1017 100 10000 1 290 03:59 14.07.2019
5232 Clouds 14 1017 100 10000 2.1 290 03:41 14.07.2019
5233 Clear 14 1017 93 10000 2.1 280 03:23 14.07.2019
5234 Rain 14 1017 93 10000 1.5 310 02:24 14.07.2019
5235 Rain 14 1017 93 10000 1.5 310 02:24 14.07.2019
5236 Rain 15 1017 93 10000 2.6 300 01:54 14.07.2019
5237 Rain 15 1017 93 10000 2.6 300 01:30 14.07.2019
5238 Rain 15 1017 93 10000 2.1 300 00:41 14.07.2019
5239 Rain 15 1017 100 10000 2.6 290 00:20 14.07.2019
5240 Rain 15 1017 100 10000 2.6 290 23:58 13.07.2019
5241 Rain 16 1017 93 10000 2.1 290 23:40 13.07.2019
5242 Clouds 16 1017 93 10000 2.1 290 23:20 13.07.2019
5243 Clouds 16 1017 93 10000 3.6 290 22:42 13.07.2019
5244 Rain 16 1017 93 10000 3.6 290 22:22 13.07.2019
5245 Rain 16 1017 87 10000 3.6 290 21:48 13.07.2019
5246 Clouds 17 1017 87 10000 3.6 290 21:21 13.07.2019
5247 Drizzle 17 1016 87 10000 4.1 290 20:52 13.07.2019
5248 Clouds 17 1016 82 10000 4.6 290 20:33 13.07.2019
5249 Rain 17 1016 88 10000 4.1 280 19:51 13.07.2019
5250 Rain 17 1016 88 10000 4.1 280 19:30 13.07.2019
5251 Rain 18 1017 93 10000 4.6 320 18:48 13.07.2019
5252 Rain 17 1017 93 10000 4.6 320 18:28 13.07.2019
5253 Rain 18 1017 77 10000 4.6 290 17:58 13.07.2019
5254 Rain 19 1016 77 10000 4.1 310 17:37 13.07.2019
5255 Rain 19 1016 77 10000 4.1 310 17:18 13.07.2019
5256 Rain 19 1016 68 10000 6.7 300 16:42 13.07.2019
5257 Rain 19 1016 68 10000 6.7 300 16:24 13.07.2019
5258 Rain 18 1015 68 10000 6.7 290 15:46 13.07.2019
5259 Rain 18 1017 93 10000 3.1 310 15:24 13.07.2019
5260 Rain 18 1017 68 10000 6.7 290 14:47 13.07.2019
5261 Rain 18 1017 68 10000 6.7 290 14:27 13.07.2019
5262 Rain 18 1016 64 10000 6.7 280 13:58 13.07.2019
5263 Rain 18 1016 68 10000 7.2 280 13:39 13.07.2019
5264 Rain 18 1017 93 5000 3.6 290 13:18 13.07.2019
5265 Clouds 19 1016 72 10000 4.1 300 12:40 13.07.2019
5266 Clouds 18 1016 72 10000 4.1 300 12:22 13.07.2019
5267 Clouds 17 1016 77 10000 4.6 290 11:52 13.07.2019
5268 Drizzle 17 1016 87 10000 5.1 280 11:20 13.07.2019
5269 Rain 16 1015 82 10000 5.1 290 10:46 13.07.2019
5270 Drizzle 15 1015 82 10000 5.1 290 10:25 13.07.2019
5271 Drizzle 15 1015 87 10000 5.1 290 09:59 13.07.2019
5272 Drizzle 15 1017 100 10000 4.6 280 09:41 13.07.2019
5273 Clouds 15 1016 100 10000 2.6 290 09:18 13.07.2019
5274 Drizzle 14 1016 100 10000 4.1 280 08:41 13.07.2019
5275 Rain 14 1014 93 9000 3.6 290 08:22 13.07.2019
5276 Rain 14 1015 100 10000 2.6 290 07:30 13.07.2019
5277 Rain 14 1014 93 8000 3.1 290 06:49 13.07.2019
5278 Rain 14 1015 100 10000 3.6 280 05:59 13.07.2019
5279 Rain 14 1013 93 10000 4.6 280 05:29 13.07.2019
5280 Rain 14 1013 93 10000 3.6 270 04:24 13.07.2019
5281 Rain 14 1014 100 10000 4.1 290 03:57 13.07.2019
5282 Rain 14 1014 100 10000 5.1 280 03:38 13.07.2019
5283 Rain 15 1013 100 10000 4.6 290 01:58 13.07.2019
5284 Rain 15 1013 93 10000 4.6 270 01:39 13.07.2019
5285 Rain 15 1012 87 10000 3.6 250 01:19 13.07.2019
5286 Rain 15 1012 93 10000 2.1 240 00:51 13.07.2019
5287 Rain 15 1012 93 8000 4.6 250 00:19 13.07.2019
5288 Rain 15 1012 82 10000 7.7 300 23:46 12.07.2019
5289 Rain 15 1012 82 10000 7.7 300 23:28 12.07.2019
5290 Rain 16 1011 82 10000 1.5 250 22:46 12.07.2019
5291 Rain 17 1011 82 10000 1.5 250 22:24 12.07.2019
5292 Thunderstorm 17 1011 77 10000 3.1 250 21:43 12.07.2019
5293 Rain 18 1011 77 10000 3.1 250 21:22 12.07.2019
5294 -273 0 0 0 0 0 20:56 12.07.2019
5295 Rain 19 1011 88 10000 1.5 60 20:38 12.07.2019
5296 Thunderstorm 20 1011 68 10000 2.1 290 20:19 12.07.2019
5297 Thunderstorm 20 1011 68 10000 2.1 280 19:42 12.07.2019
5298 Thunderstorm 20 1011 68 10000 2.1 280 19:23 12.07.2019
5299 Clouds 21 1011 64 10000 2.1 170 18:44 12.07.2019
5300 Clouds 22 1011 64 10000 2.1 170 18:21 12.07.2019
5301 Clouds 22 1011 82 10000 2.1 150 17:51 12.07.2019
5302 Thunderstorm 21 1012 88 7000 3.6 260 17:28 12.07.2019
5303 Thunderstorm 22 1012 49 10000 4.1 270 16:48 12.07.2019
5304 Thunderstorm 23 1012 49 10000 4.1 270 16:22 12.07.2019
5305 Clouds 23 1012 49 10000 3.6 250 15:54 12.07.2019
5306 Clouds 23 1012 49 10000 3.6 250 15:36 12.07.2019
5307 Clouds 23 1012 49 10000 5.1 250 15:18 12.07.2019
5308 Clouds 23 1012 53 10000 4.6 280 14:43 12.07.2019
5309 Rain 22 1013 56 10000 4.6 250 14:20 12.07.2019
5310 Thunderstorm 22 1012 64 10000 7.2 260 13:43 12.07.2019
5311 Thunderstorm 21 1013 77 10000 6.7 250 13:20 12.07.2019
5312 Rain 21 1014 77 10000 7.7 240 12:41 12.07.2019
5313 Rain 21 1014 77 10000 7.7 240 12:21 12.07.2019
5314 Clouds 21 1013 64 10000 1.5 0 11:45 12.07.2019
5315 Clouds 20 1013 64 10000 1.5 0 11:24 12.07.2019
5316 Clouds 20 1013 68 10000 1.5 0 10:55 12.07.2019
5317 Clouds 20 1013 72 10000 1.5 0 10:37 12.07.2019
5318 Clouds 19 1013 72 10000 1.5 0 10:18 12.07.2019
5319 Clouds 18 1013 77 10000 2.1 220 09:46 12.07.2019
5320 Clouds 17 1013 82 10000 2.1 200 09:23 12.07.2019
5321 Clouds 15 1013 87 10000 2.6 180 08:42 12.07.2019
5322 Clouds 15 1013 87 10000 2.6 180 08:42 12.07.2019
5323 Clouds 15 1013 87 10000 2.6 180 08:20 12.07.2019
5324 Mist 14 1014 100 9000 2.6 130 07:47 12.07.2019
5325 Mist 14 1014 100 9000 2.6 130 07:27 12.07.2019
5326 Fog 13 1014 100 6000 2.1 100 06:29 12.07.2019
5327 Fog 13 1013 100 7000 2.1 120 05:50 12.07.2019
5328 Clouds 13 1014 100 9000 2.1 120 03:24 12.07.2019
5329 Rain 14 1015 93 10000 1.5 250 01:46 12.07.2019
5330 Rain 14 1015 93 10000 1.5 250 01:26 12.07.2019
5331 Rain 14 1015 93 10000 2.6 250 00:31 12.07.2019
5332 Rain 14 1015 93 10000 2.6 250 23:50 11.07.2019
5333 Rain 15 1016 93 10000 2.6 260 23:28 11.07.2019
5334 Rain 15 1015 93 10000 3.1 230 22:59 11.07.2019
5335 Rain 15 1016 100 10000 3.1 260 22:40 11.07.2019
5336 Rain 15 1015 93 10000 2.6 200 22:21 11.07.2019
5337 Rain 15 1015 93 10000 2.6 180 21:42 11.07.2019
5338 Rain 15 1015 93 10000 1.5 190 21:19 11.07.2019
5339 Rain 15 1015 93 10000 1.5 190 20:56 11.07.2019
5340 Rain 15 1015 87 10000 2.1 190 20:37 11.07.2019
5341 Rain 15 1015 87 10000 2.1 190 20:37 11.07.2019
5342 Rain 15 1015 87 10000 2.6 190 20:18 11.07.2019
5343 Rain 15 1015 87 10000 2.6 190 20:18 11.07.2019
5344 Rain 15 1015 93 10000 2.6 220 19:45 11.07.2019
5345 Rain 15 1015 93 10000 2.6 220 19:25 11.07.2019
5346 Rain 15 1015 93 9000 2.6 240 18:53 11.07.2019
5347 Rain 15 1016 93 10000 2.6 250 18:33 11.07.2019
5348 Rain 15 1015 87 10000 3.1 250 17:59 11.07.2019
5349 Rain 15 1016 100 10000 3.1 260 17:40 11.07.2019
5350 Rain 16 1015 87 10000 5.1 260 17:22 11.07.2019
5351 Rain 15 1015 82 10000 2.6 270 16:49 11.07.2019
5352 Rain 17 1016 93 10000 2.6 200 16:23 11.07.2019
5353 Drizzle 17 1015 72 10000 3.6 260 15:49 11.07.2019
5354 Drizzle 18 1015 72 10000 3.6 260 15:30 11.07.2019
5355 Drizzle 18 1015 68 10000 7.7 270 14:59 11.07.2019
5356 Rain 19 1016 72 10000 2.1 230 14:41 11.07.2019
5357 Drizzle 20 1015 49 10000 8.2 270 14:21 11.07.2019
5358 Drizzle 21 1014 37 10000 3.6 250 13:46 11.07.2019
5359 Drizzle 21 1014 37 10000 3.6 250 13:26 11.07.2019
5360 Clear 22 1015 37 10000 4.1 260 12:45 11.07.2019
5361 Clear 21 1015 37 10000 4.1 260 12:26 11.07.2019
5362 Clear 21 1015 40 10000 2.1 180 11:53 11.07.2019
5363 Clear 21 1015 40 10000 2.1 220 11:31 11.07.2019
5364 Clear 20 1015 49 10000 2.1 210 10:59 11.07.2019
5365 Clear 19 1015 52 10000 1.5 160 10:41 11.07.2019
5366 Clear 18 1015 52 10000 1.5 160 10:18 11.07.2019
5367 Clear 17 1015 59 10000 2.6 100 09:44 11.07.2019
5368 Clear 17 1015 59 10000 2.6 100 09:24 11.07.2019
5369 Clear 16 1015 67 10000 3.1 90 08:51 11.07.2019
5370 Clear 15 1015 72 10000 2.6 100 08:24 11.07.2019
5371 Rain 15 1016 72 10000 1 0 07:52 11.07.2019
5372 Rain 14 1015 76 10000 2.6 100 07:31 11.07.2019
5373 Clear 14 1016 76 10000 1.5 100 06:30 11.07.2019
5374 Rain 13 1016 71 10000 2.1 250 05:48 11.07.2019
5375 Rain 13 1016 71 10000 2.1 250 05:28 11.07.2019
5376 Rain 13 1016 87 10000 1 0 04:53 11.07.2019
5377 Clear 13 1017 62 10000 2.1 110 02:38 11.07.2019
5378 Clear 14 1017 62 10000 1 120 00:50 11.07.2019
5379 Clear 14 1017 51 10000 0.5 0 23:56 10.07.2019
5380 Clear 15 1017 58 10000 0.5 0 23:31 10.07.2019
5381 Clear 16 1017 63 10000 1.5 260 22:59 10.07.2019
5382 Clear 16 1017 45 10000 1 260 22:41 10.07.2019
5383 Clear 20 1017 42 10000 1.5 300 22:19 10.07.2019
5384 Clear 20 1017 40 10000 2.6 290 21:44 10.07.2019
5385 Clear 21 1017 35 10000 3.6 280 21:26 10.07.2019
5386 Clear 21 1017 33 10000 3.6 280 20:54 10.07.2019
5387 Clear 22 1017 33 10000 3.6 280 20:36 10.07.2019
5388 Clear 22 1017 31 10000 3.6 280 20:18 10.07.2019
5389 Clear 22 1017 31 10000 3.1 290 19:42 10.07.2019
5390 Clear 22 1017 31 10000 3.1 290 19:21 10.07.2019
5391 Clear 22 1017 31 10000 4.6 270 18:48 10.07.2019
5392 Clear 23 1017 31 10000 4.6 270 18:25 10.07.2019
5393 Clear 23 1017 31 10000 3.6 270 17:52 10.07.2019
5394 Clear 23 1017 31 10000 3.1 310 17:31 10.07.2019
5395 Clear 23 1018 31 10000 3.6 310 16:59 10.07.2019
5396 Clear 23 1018 33 10000 4.1 0 16:22 10.07.2019
5397 Clear 23 1018 33 10000 3.6 320 15:58 10.07.2019
5398 Clear 22 1018 33 10000 3.6 250 15:39 10.07.2019
5399 Clear 22 1019 35 10000 2.6 0 15:18 10.07.2019
5400 Clear 21 1019 40 10000 3.6 330 14:39 10.07.2019
5401 Clear 21 1019 40 10000 3.6 330 14:20 10.07.2019
5402 Clear 21 1019 37 10000 2.1 0 13:43 10.07.2019
5403 Clear 20 1020 40 10000 3.1 350 13:19 10.07.2019
5404 Clouds 20 1020 42 10000 3.1 0 12:43 10.07.2019
5405 Clouds 20 1020 42 10000 3.1 0 12:43 10.07.2019
5406 Clouds 18 1020 42 10000 3.1 0 12:22 10.07.2019
5407 Clouds 18 1020 45 10000 4.1 300 11:56 10.07.2019
5408 Clouds 18 1020 45 10000 4.1 300 11:56 10.07.2019
5409 Clouds 18 1020 42 10000 3.1 350 11:38 10.07.2019
5410 Clouds 18 1020 42 10000 3.1 350 11:20 10.07.2019
5411 Clouds 17 1020 55 10000 2.1 300 10:40 10.07.2019
5412 Clouds 17 1020 55 10000 2.1 300 10:19 10.07.2019
5413 Clouds 16 1020 58 10000 1 0 09:42 10.07.2019
5414 Clouds 15 1020 58 10000 1 0 09:20 10.07.2019
5415 Clear 14 1020 62 10000 0.5 0 08:49 10.07.2019
5416 Clear 13 1020 66 10000 0.5 0 08:28 10.07.2019
5417 Clear 10 1020 76 10000 1.5 110 07:53 10.07.2019
5418 Clear 9 1020 81 10000 1.5 100 07:28 10.07.2019
5419 Clear 8 1020 87 10000 1.5 100 06:41 10.07.2019
5420 Clear 7 1019 87 10000 2.1 100 05:42 10.07.2019
5421 Clear 7 1019 87 10000 0.5 350 04:34 10.07.2019
5422 Clear 9 1019 81 10000 1.5 340 02:40 10.07.2019
5423 Clear 10 1019 76 10000 1 0 00:44 10.07.2019
5424 Clear 12 1019 66 10000 1 0 23:57 09.07.2019
5425 Clear 12 1019 58 10000 0.5 0 23:37 09.07.2019
5426 Clear 13 1019 62 10000 1.5 340 23:19 09.07.2019
5427 Clear 14 1019 54 10000 2.6 330 22:40 09.07.2019
5428 Clear 14 1019 54 10000 2.6 330 22:21 09.07.2019
5429 Clear 15 1018 44 10000 4.1 340 21:47 09.07.2019
5430 Clear 16 1018 44 10000 4.1 340 21:27 09.07.2019
5431 Clear 17 1018 42 10000 5.1 330 20:57 09.07.2019
5432 Clear 17 1018 39 10000 5.1 330 20:39 09.07.2019
5433 Clear 17 1018 39 10000 5.1 330 20:21 09.07.2019
5434 Clear 18 1018 39 10000 5.7 340 19:39 09.07.2019
5435 Clear 18 1018 39 10000 6.2 310 19:19 09.07.2019
5436 Clear 18 1018 37 10000 6.7 330 18:40 09.07.2019
5437 Clear 19 1018 37 10000 6.7 330 18:22 09.07.2019
5438 Clear 19 1018 37 10000 5.7 310 17:44 09.07.2019
5439 Clear 19 1018 39 10000 5.1 300 17:22 09.07.2019
5440 Clear 19 1018 39 10000 5.1 300 16:58 09.07.2019
5441 Clear 19 1018 39 10000 5.1 320 16:40 09.07.2019
5442 Clear 19 1018 39 10000 5.7 320 16:22 09.07.2019
5443 Clouds 19 1018 39 10000 5.1 320 15:42 09.07.2019
5444 Clouds 19 1018 39 10000 5.1 320 15:23 09.07.2019
5445 Clouds 18 1018 51 10000 5.7 300 14:45 09.07.2019
5446 Clouds 18 1018 45 10000 3.1 350 14:23 09.07.2019
5447 Clouds 18 1018 45 10000 3.1 350 13:57 09.07.2019
5448 Clouds 18 1019 51 10000 4.6 320 13:38 09.07.2019
5449 Clouds 18 1019 51 10000 4.6 320 13:19 09.07.2019
5450 Clouds 18 1018 51 10000 4.6 290 12:39 09.07.2019
5451 Clouds 17 1018 51 10000 4.6 300 12:19 09.07.2019
5452 Clouds 17 1018 51 10000 4.6 300 11:56 09.07.2019
5453 Clouds 17 1019 51 10000 3.6 300 11:37 09.07.2019
5454 Clouds 17 1019 51 10000 3.6 300 11:19 09.07.2019
5455 Clouds 16 1019 55 10000 2.1 0 10:47 09.07.2019
5456 Clouds 16 1019 55 10000 2.1 0 10:25 09.07.2019
5457 Clouds 14 1019 71 10000 1.5 340 09:38 09.07.2019
5458 Clouds 14 1019 71 10000 2.6 350 09:20 09.07.2019
5459 Clouds 13 1019 76 10000 2.1 360 08:44 09.07.2019
5460 Clouds 11 1019 81 10000 2.1 340 08:19 09.07.2019
5461 Clouds 12 1019 76 0 1 0 03:49 05.07.2019
5462 Clouds 13 1019 76 0 1 0 03:24 05.07.2019
5463 Clear 13 1019 76 10000 1 80 02:52 05.07.2019
5464 Clear 13 1019 71 10000 1.5 90 02:26 05.07.2019
5465 Clear 13 1019 67 10000 0.5 340 01:36 05.07.2019
5466 Clear 14 1019 58 10000 0.5 0 00:52 05.07.2019
5467 Clear 15 1019 58 10000 1 120 00:31 05.07.2019
5468 Clear 16 1019 51 10000 0.5 0 23:44 04.07.2019
5469 Clear 18 1019 51 10000 0.5 0 23:19 04.07.2019
5470 Clear 18 1019 51 10000 0.5 0 23:19 04.07.2019
5471 Clear 18 1019 45 10000 1 350 22:42 04.07.2019
5472 Clear 17 1019 45 10000 1 350 22:23 04.07.2019
5473 Clear 22 1019 35 10000 2.6 320 21:45 04.07.2019
5474 Clear 22 1019 35 10000 2.6 320 21:26 04.07.2019
5475 Clear 23 1019 29 10000 3.6 330 20:59 04.07.2019
5476 Clear 24 1019 31 10000 3.1 330 20:38 04.07.2019
5477 Clear 25 1019 31 10000 3.1 330 20:20 04.07.2019
5478 Clear 25 1019 27 10000 2.6 0 19:42 04.07.2019
5479 Clear 25 1019 27 10000 2.6 0 19:22 04.07.2019
5480 Clear 25 1019 26 10000 1.5 0 18:56 04.07.2019
5481 Clear 25 1020 22 10000 3.1 0 18:36 04.07.2019
5482 Clear 25 1020 22 10000 2.6 350 18:18 04.07.2019
5483 Clear 26 1020 22 10000 2.6 280 17:42 04.07.2019
5484 Clear 25 1020 22 10000 2.6 280 17:19 04.07.2019
5485 Clear 25 1021 26 10000 2.6 230 15:57 04.07.2019
5486 Clear 25 1021 25 10000 3.6 310 15:39 04.07.2019
5487 Clear 25 1022 25 10000 2.6 0 15:18 04.07.2019
5488 Clear 24 1022 25 10000 2.6 0 14:41 04.07.2019
5489 Clear 24 1022 31 10000 2.6 0 14:20 04.07.2019
5490 Clear 24 1022 31 10000 2.6 0 13:58 04.07.2019
5491 Clear 24 1022 31 10000 3.6 0 13:39 04.07.2019
5492 Clear 24 1022 31 10000 3.6 0 13:20 04.07.2019
5493 Clear 22 1023 35 10000 2.1 0 12:40 04.07.2019
5494 Clear 22 1023 35 10000 2.1 0 12:21 04.07.2019
5495 Clear 21 1023 33 10000 2.1 30 11:57 04.07.2019
5496 Clear 21 1023 37 10000 2.6 30 11:37 04.07.2019
5497 Clear 20 1023 40 10000 2.6 20 11:18 04.07.2019
5498 Clear 20 1023 40 10000 2.6 30 10:39 04.07.2019
5499 Clear 19 1023 45 10000 2.6 30 10:18 04.07.2019
5500 Clear 18 1023 45 10000 2.6 20 09:39 04.07.2019
5501 Clear 16 1023 51 10000 2.1 40 09:20 04.07.2019
5502 Clear 16 1023 51 10000 2.1 40 08:55 04.07.2019
5503 Clear 15 1023 58 10000 2.1 340 08:19 04.07.2019
5504 Clear 14 1023 62 10000 2.1 350 07:43 04.07.2019
5505 Clear 14 1023 62 10000 2.1 350 07:21 04.07.2019
5506 Clear 11 1023 71 10000 2.6 360 06:38 04.07.2019
5507 Clear 11 1022 71 10000 2.1 350 05:50 04.07.2019
5508 Clear 11 1022 71 10000 2.1 350 05:31 04.07.2019
5509 Clear 14 1023 58 10000 2.6 350 02:41 04.07.2019
5510 Clear 13 1023 58 10000 2.1 350 01:28 04.07.2019
5511 Clear 14 1023 55 10000 2.6 350 00:52 04.07.2019
5512 Clear 17 1022 48 10000 3.6 350 23:55 03.07.2019
5513 Clear 18 1022 48 10000 3.6 350 23:21 03.07.2019
5514 Clear 19 1021 42 10000 4.1 340 22:58 03.07.2019
5515 Clear 19 1021 40 10000 4.1 330 22:39 03.07.2019
5516 Clear 21 1021 35 10000 3.6 340 22:21 03.07.2019
5517 Clear 21 1021 35 10000 3.6 340 21:56 03.07.2019
5518 Clear 22 1021 33 10000 3.6 350 21:37 03.07.2019
5519 Clear 23 1021 29 10000 3.6 350 20:57 03.07.2019
5520 Clear 23 1021 29 10000 3.6 350 20:39 03.07.2019
5521 Clear 23 1020 29 10000 3.6 20 20:19 03.07.2019
5522 Clear 24 1020 29 10000 3.1 340 19:48 03.07.2019
5523 Clear 24 1020 29 10000 3.1 340 19:29 03.07.2019
5524 Clear 24 1021 25 10000 4.1 330 18:46 03.07.2019
5525 Clear 24 1021 25 10000 4.1 330 18:24 03.07.2019
5526 Clear 24 1020 23 10000 3.6 0 17:54 03.07.2019
5527 Clear 25 1021 25 10000 3.6 360 17:20 03.07.2019
5528 Clear 25 1021 25 10000 3.6 360 16:59 03.07.2019
5529 Clear 25 1021 23 10000 3.1 0 16:40 03.07.2019
5530 Clear 24 1021 23 10000 3.1 0 16:19 03.07.2019
5531 Clear 24 1021 25 10000 2.1 0 15:47 03.07.2019
5532 Clear 24 1021 25 10000 2.1 0 15:28 03.07.2019
5533 Clear 24 1021 27 10000 3.6 0 14:51 03.07.2019
5534 Clear 23 1022 28 10000 2.6 0 14:23 03.07.2019
5535 Clear 23 1022 28 10000 2.6 0 13:50 03.07.2019
5536 Clear 23 1022 31 10000 4.6 330 13:31 03.07.2019
5537 Clear 22 1022 31 10000 4.6 320 12:54 03.07.2019
5538 Clear 21 1022 33 10000 3.6 340 12:21 03.07.2019
5539 Clear 21 1022 35 10000 3.1 0 11:58 03.07.2019
5540 Clouds 21 1022 37 10000 3.6 310 11:39 03.07.2019
5541 Clouds 21 1022 37 10000 2.6 0 11:20 03.07.2019
5542 Clear 20 1022 40 10000 2.6 0 10:41 03.07.2019
5543 Clear 21 1022 40 10000 2.6 0 10:22 03.07.2019
5544 Clear 18 1022 45 10000 1.5 0 09:42 03.07.2019
5545 Clear 17 1022 45 10000 1.5 0 09:21 03.07.2019
5546 Clear 17 1022 48 10000 1 0 08:53 03.07.2019
5547 Clear 16 1022 51 10000 1 0 08:32 03.07.2019
5548 Clear 15 1022 58 10000 1.5 360 07:53 03.07.2019
5549 Clear 14 1022 66 10000 1.5 360 07:35 03.07.2019
5550 Clear 12 1022 76 10000 0.5 330 06:48 03.07.2019
5551 Clear 12 1021 81 10000 1.5 350 05:44 03.07.2019
5552 Clear 12 1021 76 10000 0.5 320 05:19 03.07.2019
5553 Clear 12 1021 67 10000 2.1 340 03:30 03.07.2019
5554 Clear 15 1021 67 10000 1 10 02:37 03.07.2019
5555 Clear 15 1021 67 10000 2.1 350 01:22 03.07.2019
5556 Clear 15 1021 67 10000 1.5 350 00:56 03.07.2019
5557 Clear 15 1021 67 10000 1.5 350 00:36 03.07.2019
5558 Clear 17 1021 52 10000 2.1 360 23:46 02.07.2019
5559 Clear 18 1020 52 10000 2.6 10 23:21 02.07.2019
5560 Clear 16 1020 52 10000 2.6 10 22:59 02.07.2019
5561 Clear 19 1020 48 10000 3.6 360 22:40 02.07.2019
5562 Clear 20 1020 45 10000 3.1 360 22:22 02.07.2019
5563 Clear 21 1020 45 10000 3.1 360 21:56 02.07.2019
5564 Clear 22 1019 40 10000 3.1 350 21:37 02.07.2019
5565 Clear 22 1019 35 10000 3.6 350 21:18 02.07.2019
5566 Clear 23 1019 33 10000 4.1 350 20:41 02.07.2019
5567 Clear 23 1019 31 10000 4.1 320 20:23 02.07.2019
5568 Clear 24 1019 33 10000 5.1 340 19:45 02.07.2019
5569 Clear 24 1019 31 10000 4.6 350 19:25 02.07.2019
5570 Clear 25 1019 33 10000 5.1 320 18:59 02.07.2019
5571 Clear 25 1019 33 10000 5.1 320 18:41 02.07.2019
5572 Clear 25 1019 33 10000 5.1 320 18:41 02.07.2019
5573 Clear 25 1019 31 10000 5.7 340 18:18 02.07.2019
5574 Clear 25 1019 29 10000 5.7 340 17:37 02.07.2019
5575 Clear 25 1019 29 10000 5.1 320 17:19 02.07.2019
5576 Clear 25 1020 27 10000 4.1 320 16:45 02.07.2019
5577 Clear 25 1020 27 10000 4.1 320 16:26 02.07.2019
5578 Clear 25 1020 26 10000 4.6 310 15:42 02.07.2019
5579 Clear 25 1020 26 10000 4.6 310 15:42 02.07.2019
5580 Clear 25 1020 26 10000 4.6 310 15:23 02.07.2019
5581 Clear 24 1020 31 10000 5.1 310 14:49 02.07.2019
5582 Clear 25 1021 40 10000 4.1 340 14:28 02.07.2019
5583 Clear 25 1020 33 10000 5.1 290 13:45 02.07.2019
5584 Clear 24 1020 36 10000 4.6 330 13:20 02.07.2019
5585 Clear 24 1020 38 10000 3.6 320 12:45 02.07.2019
5586 Clear 23 1020 38 10000 3.6 320 12:25 02.07.2019
5587 Clear 23 1020 40 10000 3.6 320 11:56 02.07.2019
5588 Clear 22 1020 40 10000 3.6 320 11:37 02.07.2019
5589 Clear 22 1020 43 10000 2.6 330 11:18 02.07.2019
5590 Clear 22 1021 46 10000 3.1 320 10:44 02.07.2019
5591 Clear 21 1021 46 10000 3.1 320 10:23 02.07.2019
5592 Clear 21 1021 46 10000 3.1 320 10:23 02.07.2019
5593 Clear 20 1021 56 10000 3.6 10 09:44 02.07.2019
5594 Clear 19 1021 55 10000 3.6 340 09:21 02.07.2019
5595 Clear 19 1021 59 10000 3.6 340 08:42 02.07.2019
5596 Clear 18 1021 59 10000 3.6 340 08:20 02.07.2019
5597 Clear 18 1020 59 10000 4.1 340 07:53 02.07.2019
5598 Clear 18 1020 63 10000 3.6 320 07:21 02.07.2019
5599 Clear 18 1020 63 10000 3.6 320 07:21 02.07.2019
5600 Clear 17 1020 63 10000 3.1 320 06:47 02.07.2019
5601 Clear 17 1020 72 10000 2.6 320 05:58 02.07.2019
5602 Clear 18 1018 63 10000 3.1 320 03:53 02.07.2019
5603 Clouds 20 1018 49 10000 1.5 310 00:56 02.07.2019
5604 Clouds 22 1017 43 0 2.6 330 23:46 01.07.2019
5605 Clouds 22 1017 43 0 2.6 330 23:20 01.07.2019
5606 Clouds 23 1018 46 10000 3.6 360 22:45 01.07.2019
5607 Clear 24 1017 38 10000 4.1 330 22:26 01.07.2019
5608 Clear 25 1016 41 10000 5.1 320 21:47 01.07.2019
5609 Clear 25 1016 41 10000 5.1 320 21:26 01.07.2019
5610 Clear 26 1016 42 10000 4.6 300 20:51 01.07.2019
5611 Clear 26 1016 42 10000 5.1 300 20:22 01.07.2019
5612 Clear 26 1016 42 10000 5.1 300 19:58 01.07.2019
5613 Clear 26 1016 42 10000 5.1 300 19:39 01.07.2019
5614 Clear 26 1017 51 10000 3.1 300 19:21 01.07.2019
5615 Clear 27 1016 39 10000 5.7 290 18:51 01.07.2019
5616 Clear 27 1016 39 10000 6.2 270 18:29 01.07.2019
5617 Clear 27 1016 39 10000 6.2 270 18:29 01.07.2019
5618 Clear 28 1016 42 10000 7.2 270 17:57 01.07.2019
5619 Clear 29 1016 37 10000 6.2 260 17:39 01.07.2019
5620 Thunderstorm 30 1016 37 10000 6.2 260 17:19 01.07.2019
5621 Thunderstorm 30 1016 40 10000 8.2 290 16:44 01.07.2019
5622 Thunderstorm 30 1016 42 10000 7.7 280 16:24 01.07.2019
5623 Clear 31 1016 40 10000 8.7 290 15:46 01.07.2019
5624 Clear 31 1015 43 10000 5.7 290 15:26 01.07.2019
5625 Clear 31 1015 43 10000 7.7 300 14:45 01.07.2019
5626 Clear 31 1015 40 10000 7.7 280 14:24 01.07.2019
5627 Clear 31 1015 38 10000 5.1 260 13:55 01.07.2019
5628 Clear 31 1015 38 10000 5.1 260 13:37 01.07.2019
5629 Clear 31 1016 38 10000 5.1 230 13:18 01.07.2019
5630 Clear 30 1016 45 10000 4.1 250 12:39 01.07.2019
5631 Clear 30 1016 45 10000 4.1 250 12:39 01.07.2019
5632 Clear 30 1016 45 10000 4.1 250 12:39 01.07.2019
5633 Clear 30 1016 48 10000 3.1 260 12:20 01.07.2019
5634 Clouds 29 1017 54 10000 5.7 250 11:56 01.07.2019
5635 Clouds 29 1017 54 10000 5.7 250 11:56 01.07.2019
5636 Clouds 29 1017 54 10000 5.7 250 11:37 01.07.2019
5637 Clouds 29 1018 61 10000 6.2 300 11:18 01.07.2019
5638 Clear 28 1017 54 10000 3.1 300 10:41 01.07.2019
5639 Clear 28 1017 54 10000 3.1 300 10:20 01.07.2019
5640 Clear 27 1016 58 10000 2.1 310 09:41 01.07.2019
5641 Clouds 26 1016 65 10000 2.1 290 09:23 01.07.2019
5642 Clouds 24 1016 69 10000 2.1 280 08:39 01.07.2019
5643 Clouds 24 1016 65 10000 1.5 290 08:21 01.07.2019
5644 Clear 22 1015 68 10000 2.6 100 07:33 01.07.2019
5645 Clear 21 1015 73 10000 2.1 120 06:41 01.07.2019
5646 Clouds 20 1015 68 10000 2.1 110 04:31 01.07.2019
5647 Clear 23 1015 57 10000 4.6 100 00:53 01.07.2019
5648 Clear 23 1015 53 10000 3.6 110 00:31 01.07.2019
5649 Clear 25 1015 50 10000 2.1 120 23:58 30.06.2019
5650 Clear 25 1015 50 10000 2.1 140 23:24 30.06.2019
5651 Clear 25 1015 42 10000 1.5 120 22:54 30.06.2019
5652 Clear 26 1015 42 10000 0.5 0 22:23 30.06.2019
5653 Clear 28 1015 45 10000 1 250 21:57 30.06.2019
5654 Clear 28 1015 45 10000 1 250 21:38 30.06.2019
5655 Clear 32 1015 33 10000 2.1 260 21:18 30.06.2019
5656 Clear 33 1015 29 10000 3.1 270 20:41 30.06.2019
5657 Clear 33 1015 26 10000 4.1 270 20:22 30.06.2019
5658 Clear 34 1015 24 10000 3.6 250 19:48 30.06.2019
5659 Clear 34 1015 21 10000 3.6 260 19:25 30.06.2019
5660 Clear 34 1015 20 10000 5.1 270 18:47 30.06.2019
5661 Clear 35 1015 20 10000 5.7 240 18:22 30.06.2019
5662 Clear 35 1016 20 10000 5.1 260 17:40 30.06.2019
5663 Clear 35 1015 20 10000 5.1 280 17:19 30.06.2019
5664 Clear 36 1015 22 10000 5.7 270 16:52 30.06.2019
5665 Clear 36 1016 20 10000 5.7 250 16:32 30.06.2019
5666 Clear 36 1016 22 10000 4.1 230 15:55 30.06.2019
5667 Clear 36 1016 23 10000 4.1 260 15:36 30.06.2019
5668 Clear 35 1016 23 10000 4.1 260 15:18 30.06.2019
5669 Clear 34 1016 23 10000 3.1 0 14:43 30.06.2019
5670 Clear 34 1016 24 10000 1.5 0 14:22 30.06.2019
5671 Clear 34 1016 24 10000 2.1 280 13:42 30.06.2019
5672 Clear 33 1016 26 10000 1 0 13:20 30.06.2019
5673 Clear 32 1017 25 10000 2.1 0 12:45 30.06.2019
5674 Clear 31 1017 27 10000 2.6 220 12:24 30.06.2019
5675 Clear 29 1017 27 10000 2.1 190 11:47 30.06.2019
5676 Clear 29 1017 32 10000 2.6 170 11:22 30.06.2019
5677 Clear 27 1017 34 10000 2.6 160 10:56 30.06.2019
5678 Clear 27 1017 34 10000 2.6 160 10:37 30.06.2019
5679 Clear 27 1017 36 10000 3.1 170 10:18 30.06.2019
5680 Clear 27 1017 36 10000 3.1 170 10:18 30.06.2019
5681 Haze 24 1017 36 10000 3.6 140 09:43 30.06.2019
5682 Haze 24 1017 38 10000 4.1 170 09:22 30.06.2019
5683 Clear 22 1017 46 10000 3.1 140 08:57 30.06.2019
5684 Clear 21 1017 49 10000 2.6 140 08:29 30.06.2019
5685 Clear 19 1017 60 10000 1 0 07:56 30.06.2019
5686 Clear 18 1017 68 10000 1.5 110 07:28 30.06.2019
5687 Clear 16 1017 72 10000 2.1 120 06:40 30.06.2019
5688 Clear 14 1017 77 10000 3.1 110 05:33 30.06.2019
5689 Mist 16 1018 63 10000 2.1 120 02:52 30.06.2019
5690 Clear 18 1018 59 10000 2.1 110 01:28 30.06.2019
5691 Clear 20 1018 52 10000 3.6 100 00:30 30.06.2019
5692 Clear 21 1018 52 10000 3.6 110 23:55 29.06.2019
5693 Clear 22 1018 41 10000 3.1 90 23:24 29.06.2019
5694 Clear 23 1018 38 10000 3.1 100 22:57 29.06.2019
5695 Clear 23 1018 38 10000 3.1 100 22:37 29.06.2019
5696 Clear 23 1018 34 10000 2.6 140 22:18 29.06.2019
5697 Clear 26 1018 36 10000 2.6 160 21:41 29.06.2019
5698 Clear 28 1018 26 10000 2.6 90 21:22 29.06.2019
5699 Clear 30 1018 25 10000 2.1 80 20:41 29.06.2019
5700 Clear 29 1018 23 10000 2.6 80 20:22 29.06.2019
5701 Clear 31 1018 21 10000 3.6 80 19:48 29.06.2019
5702 Clear 31 1018 21 10000 3.1 60 19:23 29.06.2019
5703 Clear 31 1018 21 10000 2.6 60 18:51 29.06.2019
5704 Clear 32 1018 21 10000 2.6 0 18:26 29.06.2019
5705 Clear 31 1019 21 10000 3.6 70 17:42 29.06.2019
5706 Clear 32 1019 19 10000 2.6 120 17:22 29.06.2019
5707 Clear 32 1019 21 10000 2.6 0 16:57 29.06.2019
5708 Clear 32 1019 21 10000 2.6 0 16:36 29.06.2019
5709 Clear 32 1019 19 10000 3.1 90 15:48 29.06.2019
5710 Clear 31 1020 22 10000 3.1 160 15:24 29.06.2019
5711 Clear 30 1020 20 10000 2.1 0 14:44 29.06.2019
5712 Clear 30 1020 23 10000 1.5 0 14:25 29.06.2019
5713 Clear 30 1020 25 10000 2.1 260 13:46 29.06.2019
5714 Clear 30 1021 27 10000 2.1 140 13:26 29.06.2019
5715 Clear 28 1021 28 10000 2.6 0 12:51 29.06.2019
5716 Clear 27 1021 34 10000 2.1 0 12:33 29.06.2019
5717 Clear 26 1021 36 10000 2.6 0 11:54 29.06.2019
5718 Clear 25 1021 39 10000 2.1 0 11:32 29.06.2019
5719 Clear 25 1022 41 10000 2.1 130 10:56 29.06.2019
5720 Clear 24 1022 41 10000 2.1 130 10:36 29.06.2019
5721 Clear 24 1022 41 10000 2.1 130 10:36 29.06.2019
5722 Haze 22 1022 46 10000 2.1 100 09:59 29.06.2019
5723 Haze 22 1022 46 10000 2.1 100 09:38 29.06.2019
5724 Clear 19 1022 52 10000 2.6 100 08:42 29.06.2019
5725 Clear 17 1022 59 10000 0.5 0 07:46 29.06.2019
5726 Clear 16 1022 67 10000 1.5 30 07:21 29.06.2019
5727 Clear 14 1022 82 10000 1 0 06:44 29.06.2019
5728 Clear 12 1022 81 10000 1 340 06:21 29.06.2019
5729 Clear 15 1023 71 10000 1.5 10 02:37 29.06.2019
5730 Clear 16 1022 48 10000 1 0 00:57 29.06.2019
5731 Clear 17 1022 45 10000 3.6 70 00:23 29.06.2019
5732 Clear 19 1022 43 10000 3.1 80 23:27 28.06.2019
5733 Clear 20 1022 43 10000 3.1 50 22:57 28.06.2019
5734 Clear 19 1022 43 10000 3.1 50 22:36 28.06.2019
5735 Rain 24 1022 43 10000 2.1 30 21:48 28.06.2019
5736 Clear 24 1021 36 10000 2.1 20 21:24 28.06.2019
5737 Clear 26 1021 32 10000 2.1 20 20:48 28.06.2019
5738 Clear 26 1021 32 10000 3.1 10 20:27 28.06.2019
5739 Clear 27 1021 26 10000 3.1 350 19:53 28.06.2019
5740 Clear 27 1021 26 10000 3.1 350 19:28 28.06.2019
5741 Clear 28 1021 26 10000 4.1 350 18:57 28.06.2019
5742 Clear 28 1021 26 10000 4.1 350 18:38 28.06.2019
5743 Clear 28 1021 26 10000 4.1 360 18:20 28.06.2019
5744 Clear 28 1022 28 10000 3.6 340 17:30 28.06.2019
5745 Clear 28 1022 28 10000 3.1 360 16:51 28.06.2019
5746 Clear 28 1022 24 10000 4.1 10 16:27 28.06.2019
5747 Clear 28 1022 28 10000 3.1 360 15:48 28.06.2019
5748 Clear 27 1022 30 10000 3.1 340 15:24 28.06.2019
5749 Clear 27 1022 34 10000 3.6 310 14:56 28.06.2019
5750 Clear 26 1023 31 10000 3.6 320 14:37 28.06.2019
5751 Clear 26 1023 31 10000 3.6 320 14:18 28.06.2019
5752 Drizzle 26 1023 34 10000 3.6 310 13:42 28.06.2019
5753 Drizzle 25 1023 38 10000 3.6 300 13:20 28.06.2019
5754 Haze 24 1023 38 10000 3.1 340 12:47 28.06.2019
5755 Haze 23 1023 46 10000 3.1 350 11:56 28.06.2019
5756 Haze 23 1023 49 10000 1.5 0 11:26 28.06.2019
5757 Haze 22 1024 49 10000 2.1 0 10:46 28.06.2019
5758 Haze 21 1024 52 10000 1.5 0 10:22 28.06.2019
5759 Haze 21 1024 56 10000 2.1 350 09:49 28.06.2019
5760 Haze 19 1024 56 10000 2.1 10 09:30 28.06.2019
5761 Haze 18 1024 59 10000 2.1 360 08:48 28.06.2019
5762 Haze 18 1024 63 10000 1.5 350 08:26 28.06.2019
5763 Haze 17 1024 63 10000 1.5 320 07:49 28.06.2019
5764 Haze 16 1024 67 10000 1 0 07:31 28.06.2019
5765 Mist 14 1024 76 10000 1.5 350 06:31 28.06.2019
5766 Haze 16 1023 55 10000 1.5 320 01:39 28.06.2019
5767 Haze 18 1023 55 10000 1.5 350 00:42 28.06.2019
5768 Haze 20 1023 42 10000 2.1 340 23:51 27.06.2019
5769 Haze 21 1023 37 10000 2.1 350 23:28 27.06.2019
5770 Haze 20 1023 33 10000 3.1 330 22:56 27.06.2019
5771 Haze 20 1023 33 10000 3.1 330 22:37 27.06.2019
5772 Haze 21 1023 28 10000 3.1 330 22:18 27.06.2019
5773 Clear 25 1022 27 10000 3.6 320 21:48 27.06.2019
5774 Clear 25 1022 21 10000 6.2 320 21:29 27.06.2019
5775 Clear 26 1022 21 10000 5.1 320 20:57 27.06.2019
5776 Clear 27 1022 21 10000 5.1 320 20:39 27.06.2019
5777 Clear 27 1022 20 10000 6.2 320 20:19 27.06.2019
5778 Haze 29 1022 20 10000 7.2 320 19:44 27.06.2019
5779 Haze 29 1022 18 10000 7.2 310 19:25 27.06.2019
5780 Haze 30 1022 19 10000 6.7 320 18:43 27.06.2019
5781 Haze 30 1022 22 10000 6.7 300 18:21 27.06.2019
5782 Haze 30 1022 20 10000 6.7 310 17:44 27.06.2019
5783 Haze 30 1022 20 10000 6.2 310 17:22 27.06.2019
5784 Haze 30 1022 20 10000 6.2 310 17:22 27.06.2019
5785 Haze 30 1022 25 10000 6.2 320 16:40 27.06.2019
5786 Haze 30 1022 29 10000 6.2 310 16:20 27.06.2019
5787 Haze 30 1022 31 10000 6.7 290 15:55 27.06.2019
5788 Haze 30 1023 31 10000 6.2 300 15:36 27.06.2019
5789 Haze 30 1022 31 10000 6.7 290 15:36 27.06.2019
5790 Haze 30 1023 40 10000 4.6 320 14:58 27.06.2019
5791 Haze 30 1023 40 10000 4.6 320 14:39 27.06.2019
5792 Haze 30 1023 42 10000 4.6 330 14:19 27.06.2019
5793 Haze 30 1023 40 10000 4.6 320 13:43 27.06.2019
5794 Haze 30 1023 40 10000 4.1 340 13:25 27.06.2019
5795 Haze 29 1023 45 10000 5.1 340 12:49 27.06.2019
5796 Haze 29 1023 45 10000 5.1 340 12:49 27.06.2019
5797 Haze 29 1023 51 10000 5.1 330 12:28 27.06.2019
5798 Haze 28 1023 54 10000 4.1 340 11:47 27.06.2019
5799 Haze 28 1023 54 10000 4.1 340 11:24 27.06.2019
5800 Haze 27 1024 54 10000 4.6 350 10:58 27.06.2019
5801 Haze 26 1024 54 10000 4.6 350 10:40 27.06.2019
5802 Haze 26 1024 57 10000 4.1 330 10:19 27.06.2019
5803 Haze 25 1024 57 10000 2.1 330 09:40 27.06.2019
5804 Haze 25 1024 61 10000 1.5 10 09:20 27.06.2019
5805 Haze 24 1024 65 10000 2.6 10 08:48 27.06.2019
5806 Haze 24 1023 69 10000 2.1 350 08:27 27.06.2019
5807 Haze 23 1023 73 10000 2.1 360 07:45 27.06.2019
5808 Mist 22 1023 83 10000 1.5 350 06:57 27.06.2019
5809 Mist 21 1023 88 10000 0.5 0 06:30 27.06.2019
5810 Mist 21 1023 88 10000 1.5 340 03:51 27.06.2019
5811 Clear 22 1022 83 10000 1 0 02:42 27.06.2019
5812 Clear 22 1022 73 10000 1.5 110 01:26 27.06.2019
5813 Clear 23 1022 78 10000 1.5 100 00:49 27.06.2019
5814 Clear 24 1022 78 10000 0.5 0 00:26 27.06.2019
5815 Clear 24 1022 78 10000 0.5 0 00:26 27.06.2019
5816 Clear 25 1022 69 10000 1 60 23:48 26.06.2019
5817 Clear 25 1022 69 10000 0.5 20 23:23 26.06.2019
5818 Haze 26 1022 57 10000 0.5 40 22:57 26.06.2019
5819 Haze 26 1022 57 10000 0.5 40 22:39 26.06.2019
5820 Haze 27 1022 54 10000 0.5 0 22:19 26.06.2019
5821 Clear 29 1022 51 10000 1 0 21:42 26.06.2019
5822 Clear 31 1022 48 10000 2.1 300 21:20 26.06.2019
5823 Clear 32 1022 43 10000 3.1 290 20:55 26.06.2019
5824 Clear 33 1022 43 10000 3.1 290 20:37 26.06.2019
5825 Clear 33 1022 41 10000 3.6 280 20:18 26.06.2019
5826 Clear 34 1022 38 10000 4.6 280 19:41 26.06.2019
5827 Clear 34 1022 32 10000 4.1 280 19:22 26.06.2019
5828 Clear 34 1022 32 10000 4.1 280 18:45 26.06.2019
5829 Clear 35 1022 32 10000 4.1 280 18:22 26.06.2019
5830 Clear 35 1022 32 10000 4.1 270 17:57 26.06.2019
5831 Clear 35 1022 30 10000 3.6 270 17:28 26.06.2019
5832 Clear 35 1022 32 10000 3.6 310 16:57 26.06.2019
5833 Clear 35 1022 30 10000 3.6 310 16:39 26.06.2019
5834 Clear 35 1022 30 10000 3.6 310 16:19 26.06.2019
5835 Clear 35 1023 34 10000 4.1 270 15:30 26.06.2019
5836 Clear 35 1023 32 10000 2.6 0 14:58 26.06.2019
5837 -273 0 0 0 0 0 14:38 26.06.2019
5838 Clear 35 1023 34 10000 3.1 280 14:37 26.06.2019
5839 Clear 35 1023 34 10000 3.1 280 14:19 26.06.2019
5840 Clear 34 1023 34 10000 2.1 0 13:41 26.06.2019
5841 Clear 34 1023 36 10000 2.6 270 13:19 26.06.2019
5842 Clear 33 1023 38 10000 1.5 0 12:41 26.06.2019
5843 Clear 33 1023 38 10000 1.5 0 12:41 26.06.2019
5844 Clear 33 1024 36 10000 2.6 250 12:21 26.06.2019
5845 Clear 31 1024 43 10000 1.5 0 11:42 26.06.2019
5846 Clear 31 1024 43 10000 1.5 0 11:19 26.06.2019
5847 Clear 30 1024 48 10000 1 0 10:41 26.06.2019
5848 Clear 30 1024 51 10000 1.5 0 10:21 26.06.2019
5849 Clear 27 1023 54 10000 2.1 100 09:37 26.06.2019
5850 Clear 26 1023 54 10000 2.1 100 09:18 26.06.2019
5851 Haze 24 1023 61 10000 2.1 120 08:39 26.06.2019
5852 Haze 23 1023 69 10000 2.1 120 08:19 26.06.2019
5853 Clear 22 1023 73 10000 1.5 100 07:43 26.06.2019
5854 Clear 19 1023 82 10000 1.5 130 06:34 26.06.2019
5855 Clear 19 1022 77 10000 2.1 100 03:52 26.06.2019
5856 Clear 22 1022 60 10000 3.1 100 00:45 26.06.2019
5857 Clear 22 1022 60 10000 3.1 100 00:19 26.06.2019
5858 Clear 23 1022 57 10000 2.6 100 23:39 25.06.2019
5859 Clear 23 1022 57 10000 2.6 100 23:20 25.06.2019
5860 Mist 24 1021 54 10000 2.6 100 22:43 25.06.2019
5861 Mist 24 1021 51 10000 3.1 100 22:24 25.06.2019
5862 Clear 27 1021 48 10000 2.6 110 21:51 25.06.2019
5863 Clear 28 1021 45 10000 2.6 100 21:28 25.06.2019
5864 Clear 31 1021 42 10000 3.1 100 20:59 25.06.2019
5865 Clear 31 1021 42 10000 3.1 100 20:37 25.06.2019
5866 Clear 31 1021 42 10000 3.1 100 20:37 25.06.2019
5867 Clear 32 1021 40 10000 3.6 100 20:19 25.06.2019
5868 Clear 32 1021 35 10000 3.6 100 19:45 25.06.2019
5869 Clear 32 1021 33 10000 3.1 120 19:22 25.06.2019
5870 Clear 33 1021 31 10000 3.6 120 18:43 25.06.2019
5871 Clear 33 1021 31 10000 3.1 130 18:25 25.06.2019
5872 Clear 33 1021 31 10000 3.1 130 18:25 25.06.2019
5873 Clear 33 1021 30 10000 2.6 130 17:49 25.06.2019
5874 -273 0 0 0 0 0 17:49 25.06.2019
5875 -273 0 0 0 0 0 17:28 25.06.2019
5876 Clear 33 1021 33 10000 3.6 110 17:28 25.06.2019
5877 Clear 33 1021 31 10000 2.6 120 16:55 25.06.2019
5878 Clear 33 1021 31 10000 2.6 120 16:55 25.06.2019
5879 Clear 33 1021 31 10000 2.6 120 16:37 25.06.2019
5880 Clear 33 1021 31 10000 2.6 140 16:18 25.06.2019
5881 Clear 33 1021 31 10000 2.1 0 15:39 25.06.2019
5882 Clear 32 1021 33 10000 2.1 0 15:20 25.06.2019
5883 Clear 32 1021 33 10000 2.1 0 15:20 25.06.2019
5884 Clear 32 1021 35 10000 2.6 0 14:50 25.06.2019
5885 Clear 32 1021 38 10000 2.6 80 14:31 25.06.2019
5886 Rain 31 1021 38 10000 2.1 0 13:43 25.06.2019
5887 Rain 31 1021 40 10000 3.1 130 13:24 25.06.2019
5888 Rain 30 1021 40 10000 3.1 150 12:43 25.06.2019
5889 Rain 29 1021 40 10000 3.1 140 12:24 25.06.2019
5890 Clear 28 1021 45 10000 3.6 140 11:46 25.06.2019
5891 Clear 28 1021 48 10000 4.1 130 11:25 25.06.2019
5892 Rain 27 1021 47 10000 4.6 130 10:58 25.06.2019
5893 Rain 27 1021 47 10000 4.6 130 10:57 25.06.2019
5894 Clear 26 1021 50 10000 5.1 130 10:37 25.06.2019
5895 Clear 26 1021 50 10000 5.1 130 10:18 25.06.2019
5896 Clear 25 1021 53 10000 4.6 120 09:39 25.06.2019
5897 Clear 23 1021 57 10000 3.6 110 09:21 25.06.2019
5898 Clear 23 1021 60 10000 4.6 100 08:52 25.06.2019
5899 Clear 22 1021 64 10000 3.1 100 08:31 25.06.2019
5900 Clear 22 1021 68 10000 2.1 100 07:44 25.06.2019
5901 Clear 20 1021 68 10000 1.5 120 07:25 25.06.2019
5902 Clear 20 1021 77 10000 2.1 90 06:44 25.06.2019
5903 Clear 16 1021 82 10000 0.5 0 05:56 25.06.2019
5904 Clear 18 1021 72 10000 2.1 100 02:43 25.06.2019
5905 Clear 20 1021 68 10000 2.6 90 00:39 25.06.2019
5906 Clear 20 1021 68 10000 2.1 90 00:19 25.06.2019
5907 Clear 21 1021 64 10000 2.1 80 23:51 24.06.2019
5908 Clear 22 1021 64 10000 2.6 80 23:32 24.06.2019
5909 Clear 22 1021 64 10000 2.1 80 22:46 24.06.2019
5910 Clear 23 1021 60 10000 2.6 100 22:20 24.06.2019
5911 Clear 25 1021 50 10000 3.6 130 21:54 24.06.2019
5912 Clear 25 1020 54 10000 3.1 130 21:36 24.06.2019
5913 Clear 26 1020 54 10000 3.1 130 21:18 24.06.2019
5914 Clear 27 1020 39 10000 3.1 90 20:42 24.06.2019
5915 Clear 28 1020 37 10000 3.1 80 20:22 24.06.2019
5916 Clear 28 1020 37 10000 3.6 80 19:48 24.06.2019
5917 Clear 29 1020 37 10000 4.1 90 19:26 24.06.2019
5918 Clear 29 1020 35 10000 3.6 80 18:54 24.06.2019
5919 Clear 29 1020 35 10000 4.1 70 18:31 24.06.2019
5920 Clear 29 1020 35 10000 4.6 110 17:59 24.06.2019
5921 Clear 30 1020 35 10000 4.6 110 17:37 24.06.2019
5922 Clear 29 1020 33 10000 3.1 100 16:56 24.06.2019
5923 Clear 30 1020 33 10000 3.1 100 16:37 24.06.2019
5924 Clear 30 1021 33 10000 3.1 0 16:19 24.06.2019
5925 Clear 29 1021 37 10000 4.1 100 15:40 24.06.2019
5926 Clear 29 1021 35 10000 3.6 90 15:21 24.06.2019
5927 Clear 29 1021 37 10000 4.1 120 14:35 24.06.2019
5928 Clear 29 1021 42 10000 4.6 90 13:56 24.06.2019
5929 Clouds 28 1021 42 10000 5.7 90 13:32 24.06.2019
5930 Clouds 28 1021 45 10000 3.6 90 12:46 24.06.2019
5931 Clouds 27 1022 44 10000 6.2 110 12:26 24.06.2019
5932 Clouds 26 1022 47 10000 5.7 100 11:59 24.06.2019
5933 Clouds 26 1022 47 10000 5.7 100 11:40 24.06.2019
5934 Clear 25 1022 47 10000 5.1 100 11:21 24.06.2019
5935 Clear 25 1022 50 10000 5.7 120 10:50 24.06.2019
5936 Clear 25 1022 57 10000 4.1 90 10:28 24.06.2019
5937 Clear 24 1022 60 10000 4.6 90 09:49 24.06.2019
5938 Clear 22 1022 60 10000 3.1 80 09:23 24.06.2019
5939 Clear 21 1022 64 10000 3.6 100 08:53 24.06.2019
5940 Clear 21 1022 68 10000 4.1 90 08:32 24.06.2019
5941 Clear 20 1022 68 10000 4.1 90 07:47 24.06.2019
5942 Clear 18 1022 72 10000 4.1 90 07:26 24.06.2019
5943 Clear 17 1022 77 10000 3.1 90 06:49 24.06.2019
5944 Clear 16 1021 82 10000 1.5 70 06:21 24.06.2019
5945 Clear 16 1021 88 10000 2.1 70 05:27 24.06.2019
5946 Mist 16 1021 88 10000 2.1 90 04:25 24.06.2019
5947 Clear 16 1021 88 10000 2.6 110 03:30 24.06.2019
5948 Clear 17 1021 82 10000 2.6 100 02:33 24.06.2019
5949 Clear 18 1021 77 10000 1.5 80 01:54 24.06.2019
5950 Clear 18 1021 77 10000 1.5 80 01:26 24.06.2019
5951 Clear 18 1021 72 10000 2.1 80 00:41 24.06.2019
5952 Clear 19 1021 72 10000 2.6 80 00:19 24.06.2019
5953 Clear 20 1020 72 10000 3.1 90 23:44 23.06.2019
5954 Clear 20 1020 68 10000 2.6 80 23:23 23.06.2019
5955 Clear 21 1020 68 10000 3.1 80 22:43 23.06.2019
5956 Clear 21 1020 64 10000 2.6 80 22:21 23.06.2019
5957 Clear 22 1020 64 10000 3.1 90 21:56 23.06.2019
5958 Clear 22 1019 60 10000 3.6 100 21:36 23.06.2019
5959 Clear 23 1019 60 10000 3.6 100 21:18 23.06.2019
5960 Clouds 24 1019 57 10000 4.1 100 20:41 23.06.2019
5961 Clouds 24 1019 50 10000 5.7 90 20:22 23.06.2019
5962 Rain 24 1019 50 10000 4.1 80 19:44 23.06.2019
5963 Clear 25 1019 47 10000 3.6 80 19:21 23.06.2019
5964 Clouds 25 1019 50 10000 4.1 100 18:54 23.06.2019
5965 Rain 26 1019 50 10000 3.6 70 18:24 23.06.2019
5966 Clear 25 1019 50 10000 3.6 80 17:51 23.06.2019
5967 Rain 26 1018 44 10000 4.6 80 17:26 23.06.2019
5968 Rain 26 1019 44 10000 6.2 120 16:55 23.06.2019
5969 Clear 26 1019 44 10000 6.2 120 16:37 23.06.2019
5970 Clouds 26 1019 50 10000 5.1 100 16:18 23.06.2019
5971 Clouds 25 1019 50 10000 6.7 120 15:40 23.06.2019
5972 Clouds 26 1019 51 10000 6.2 110 15:21 23.06.2019
5973 Rain 25 1019 50 10000 5.1 90 14:41 23.06.2019
5974 Rain 26 1019 50 10000 6.7 110 14:22 23.06.2019
5975 Clouds 26 1019 50 10000 6.2 110 13:58 23.06.2019
5976 Rain 25 1019 50 10000 6.2 110 13:39 23.06.2019
5977 Rain 25 1019 50 10000 5.1 90 13:19 23.06.2019
5978 Rain 25 1019 53 10000 6.2 100 12:43 23.06.2019
5979 Rain 24 1019 53 10000 5.7 100 12:22 23.06.2019
5980 Rain 24 1019 53 10000 4.6 100 11:55 23.06.2019
5981 Rain 24 1019 53 10000 4.6 100 11:36 23.06.2019
5982 Rain 24 1019 56 10000 4.6 70 11:18 23.06.2019
5983 Clouds 23 1019 56 10000 3.6 40 10:41 23.06.2019
5984 Clear 23 1019 60 10000 4.6 50 10:18 23.06.2019
5985 Clear 21 1019 60 10000 5.1 50 09:39 23.06.2019
5986 Clear 20 1019 60 10000 4.1 60 09:20 23.06.2019
5987 Clear 20 1019 60 10000 4.1 70 08:42 23.06.2019
5988 Clear 20 1019 60 10000 4.1 70 08:24 23.06.2019
5989 Clear 18 1018 72 10000 2.6 10 07:52 23.06.2019
5990 Clear 18 1018 77 10000 2.1 360 07:20 23.06.2019
5991 Clear 18 1018 77 10000 2.1 360 06:54 23.06.2019
5992 Clear 16 1018 93 10000 1 0 05:54 23.06.2019
5993 Mist 17 1017 82 10000 1.5 80 03:41 23.06.2019
5994 Drizzle 18 1017 72 10000 3.1 140 01:52 23.06.2019
5995 Mist 18 1017 68 10000 5.1 100 01:33 23.06.2019
5996 Rain 18 1017 72 10000 2.6 40 00:34 23.06.2019
5997 Clouds 19 1017 72 10000 2.6 30 23:53 22.06.2019
5998 Clouds 19 1017 68 10000 2.6 30 23:27 22.06.2019
5999 Rain 19 1017 68 10000 2.1 40 22:49 22.06.2019
6000 Rain 19 1017 64 10000 2.6 40 22:29 22.06.2019
6001 Clouds 20 1016 64 10000 3.1 50 21:59 22.06.2019
6002 Clouds 20 1016 64 10000 3.1 50 21:37 22.06.2019
6003 Clouds 21 1016 64 10000 3.6 60 21:18 22.06.2019
6004 Clouds 21 1016 68 10000 4.1 40 20:48 22.06.2019
6005 Clouds 21 1016 64 10000 3.6 40 20:25 22.06.2019
6006 Clouds 21 1016 64 10000 4.6 30 19:46 22.06.2019
6007 Clouds 21 1016 64 10000 4.1 40 19:22 22.06.2019
6008 Rain 21 1016 64 10000 4.6 60 18:48 22.06.2019
6009 Rain 22 1016 64 10000 4.6 50 18:30 22.06.2019
6010 Clouds 22 1016 60 10000 3.6 60 17:56 22.06.2019
6011 Rain 22 1016 64 10000 3.6 60 17:33 22.06.2019
6012 Rain 22 1017 64 10000 3.6 70 16:50 22.06.2019
6013 Rain 23 1017 64 10000 5.7 90 16:24 22.06.2019
6014 Thunderstorm 23 1017 83 10000 8.2 120 15:56 22.06.2019
6015 Rain 23 1017 60 10000 5.1 90 15:37 22.06.2019
6016 Rain 23 1017 57 10000 6.2 70 15:19 22.06.2019
6017 Rain 23 1017 57 10000 5.7 90 14:35 22.06.2019
6018 Rain 24 1017 57 10000 5.1 90 13:59 22.06.2019
6019 Rain 24 1017 57 10000 5.1 90 13:40 22.06.2019
6020 Rain 24 1018 64 10000 5.7 100 13:19 22.06.2019
6021 Drizzle 24 1018 57 10000 4.1 80 12:50 22.06.2019
6022 Drizzle 24 1018 60 10000 3.1 70 12:31 22.06.2019
6023 Rain 23 1018 64 10000 2.1 70 11:57 22.06.2019
6024 Clouds 23 1018 64 10000 3.1 90 11:31 22.06.2019
6025 Rain 22 1018 64 10000 4.6 90 10:49 22.06.2019
6026 Rain 21 1018 64 10000 4.1 60 10:21 22.06.2019
6027 Rain 21 1018 64 10000 3.1 50 09:46 22.06.2019
6028 Clear 20 1018 64 10000 1.5 0 09:18 22.06.2019
6029 Clear 19 1018 68 10000 0.5 0 08:41 22.06.2019
6030 Clear 18 1019 77 10000 1 0 08:19 22.06.2019
6031 Clear 16 1019 87 10000 1 0 07:30 22.06.2019
6032 Clear 15 1019 87 10000 1 0 06:47 22.06.2019
6033 Mist 14 1019 93 10000 0.5 0 04:53 22.06.2019
6034 Clear 15 1019 87 10000 2.1 17.268 02:32 22.06.2019
6035 Clear 16 1019 77 10000 1 130 00:59 22.06.2019
6036 Clear 16 1019 87 10000 1 0 00:35 22.06.2019
6037 Clear 17 1019 82 10000 1 30 23:59 21.06.2019
6038 Clear 17 1019 82 10000 1 30 23:37 21.06.2019
6039 Clear 18 1019 77 10000 1 320 23:19 21.06.2019
6040 Clear 18 1019 72 10000 1 20 22:41 21.06.2019
6041 Clear 19 1019 64 10000 1.5 350 22:22 21.06.2019
6042 Clear 21 1018 56 10000 2.1 350 21:40 21.06.2019
6043 Clear 22 1018 53 10000 2.1 350 21:22 21.06.2019
6044 Clear 23 1018 49 10000 3.6 320 20:53 21.06.2019
6045 Clear 23 1018 49 10000 3.6 320 20:53 21.06.2019
6046 Clear 23 1017 47 10000 3.6 300 20:27 21.06.2019
6047 Clear 24 1017 44 10000 4.1 300 19:55 21.06.2019
6048 Clear 24 1017 44 10000 4.6 300 19:23 21.06.2019
6049 Clear 24 1017 41 10000 4.1 310 18:43 21.06.2019
6050 Clear 24 1017 41 10000 4.1 310 18:43 21.06.2019
6051 Clear 24 1017 41 10000 3.6 330 18:25 21.06.2019
6052 Clear 24 1017 41 10000 2.6 310 17:41 21.06.2019
6053 Clear 24 1017 41 10000 1.5 230 17:23 21.06.2019
6054 Clear 24 1017 44 10000 2.6 280 16:38 21.06.2019
6055 Clouds 24 1018 47 10000 3.1 310 16:19 21.06.2019
6056 Clouds 25 1018 44 10000 2.1 0 15:39 21.06.2019
6057 Clouds 24 1018 47 10000 3.1 280 15:19 21.06.2019
6058 Clouds 24 1018 50 10000 3.1 290 14:45 21.06.2019
6059 Clouds 23 1018 50 10000 1.5 240 14:25 21.06.2019
6060 Clouds 23 1018 53 10000 2.1 260 13:44 21.06.2019
6061 Clouds 23 1018 56 10000 1.5 0 13:25 21.06.2019
6062 Haze 23 1019 60 10000 1 0 12:54 21.06.2019
6063 Rain 22 1019 64 10000 2.1 330 12:23 21.06.2019
6064 Clouds 22 1019 68 10000 1 0 11:58 21.06.2019
6065 Clouds 21 1019 68 10000 1 0 11:40 21.06.2019
6066 Clouds 21 1019 68 10000 1 0 11:40 21.06.2019
6067 Clouds 21 1019 68 10000 1.5 60 11:22 21.06.2019
6068 Clouds 21 1019 68 10000 1.5 60 11:22 21.06.2019
6069 Clouds 20 1018 77 10000 1 0 10:47 21.06.2019
6070 Clouds 20 1018 77 10000 1 0 10:21 21.06.2019
6071 Clouds 19 1018 77 10000 1 0 10:21 21.06.2019
6072 Clouds 19 1018 88 10000 1.5 340 09:55 21.06.2019
6073 Mist 18 1018 88 10000 1.5 340 09:36 21.06.2019
6074 Rain 18 1018 88 10000 1 0 09:18 21.06.2019
6075 Rain 16 1018 88 10000 2.1 290 08:41 21.06.2019
6076 Rain 16 1018 93 10000 1.5 290 08:20 21.06.2019
6077 Drizzle 15 1017 100 10000 1.5 310 07:46 21.06.2019
6078 Fog 15 1017 100 10000 1 320 07:22 21.06.2019
6079 Fog 15 1017 93 10000 0.5 70 06:38 21.06.2019
6080 Fog 14 1017 93 10000 1 0 06:18 21.06.2019
6081 Fog 14 1016 100 10000 0.5 0 04:53 21.06.2019
6082 Mist 14 1016 100 10000 2.1 120 03:49 21.06.2019
6083 Mist 14 1016 93 10000 3.1 100 03:30 21.06.2019
6084 Mist 14 1016 100 10000 2.6 100 02:42 21.06.2019
6085 Mist 15 1016 100 10000 2.6 100 01:32 21.06.2019
6086 Mist 15 1016 100 10000 3.1 100 00:46 21.06.2019
6087 Clear 16 1016 100 10000 2.1 110 23:59 20.06.2019
6088 Clear 16 1016 100 10000 2.1 110 23:40 20.06.2019
6089 Clear 17 1015 93 10000 2.1 110 23:20 20.06.2019
6090 Clear 16 1015 93 10000 2.6 110 22:44 20.06.2019
6091 Clear 17 1015 93 10000 3.1 100 22:23 20.06.2019
6092 Clear 17 1015 93 10000 2.6 100 21:56 20.06.2019
6093 Clear 17 1015 93 10000 2.6 100 21:38 20.06.2019
6094 Clear 19 1015 88 10000 2.1 160 21:19 20.06.2019
6095 Clear 20 1015 82 10000 2.6 180 20:42 20.06.2019
6096 Clouds 20 1014 77 10000 2.6 200 20:23 20.06.2019
6097 Rain 19 1014 88 10000 2.1 120 19:46 20.06.2019
6098 Rain 19 1014 88 10000 2.6 130 19:19 20.06.2019
6099 Clouds 19 1014 88 10000 2.1 130 18:58 20.06.2019
6100 Clouds 20 1014 88 10000 2.1 130 18:40 20.06.2019
6101 Rain 21 1014 82 10000 2.6 200 18:21 20.06.2019
6102 Rain 21 1014 88 10000 4.1 210 17:48 20.06.2019
6103 Rain 22 1014 82 10000 6.2 240 17:29 20.06.2019
6104 Rain 23 1013 60 10000 4.6 260 16:44 20.06.2019
6105 Rain 24 1013 53 10000 2.1 260 16:20 20.06.2019
6106 Rain 24 1013 60 10000 1 0 15:57 20.06.2019
6107 Rain 24 1013 60 10000 1 0 15:38 20.06.2019
6108 Rain 24 1013 57 10000 2.1 260 15:19 20.06.2019
6109 Rain 24 1014 57 10000 2.1 300 14:44 20.06.2019
6110 Clouds 24 1014 57 10000 2.6 260 14:22 20.06.2019
6111 Clouds 24 1014 56 10000 3.1 280 13:40 20.06.2019
6112 Clouds 24 1014 60 10000 3.1 290 13:19 20.06.2019
6113 Clouds 24 1014 60 10000 2.6 300 12:46 20.06.2019
6114 Clouds 23 1014 68 10000 3.1 270 12:23 20.06.2019
6115 Clouds 22 1014 68 10000 3.1 250 11:46 20.06.2019
6116 Clouds 22 1014 77 10000 1.5 0 11:27 20.06.2019
6117 Rain 21 1014 77 10000 3.6 220 10:54 20.06.2019
6118 Rain 21 1013 88 10000 1.5 0 10:36 20.06.2019
6119 Rain 20 1013 88 10000 1.5 0 10:18 20.06.2019
6120 Rain 19 1013 82 10000 1 0 09:40 20.06.2019
6121 Drizzle 19 1014 77 10000 3.1 260 09:21 20.06.2019
6122 Drizzle 18 1014 88 10000 3.6 230 08:45 20.06.2019
6123 Clouds 18 1013 88 10000 1.5 230 08:27 20.06.2019
6124 Rain 18 1013 88 10000 1.5 210 07:53 20.06.2019
6125 Rain 17 1013 93 10000 2.6 230 07:28 20.06.2019
6126 Rain 17 1013 100 10000 1 0 06:27 20.06.2019
6127 Rain 17 1014 93 7000 4.1 190 04:54 20.06.2019
6128 Thunderstorm 18 1010 77 10000 3.1 120 02:55 20.06.2019
6129 Clear 20 1010 68 10000 1.5 130 00:34 20.06.2019
6130 Clear 21 1010 68 10000 1 0 23:58 19.06.2019
6131 Clear 21 1010 68 10000 1 0 23:39 19.06.2019
6132 Clear 21 1010 56 10000 0.5 0 23:21 19.06.2019
6133 Haze 22 1010 47 10000 1.5 200 22:45 19.06.2019
6134 Clear 21 1010 44 10000 2.1 210 22:18 19.06.2019
6135 Clear 25 1009 42 10000 1.5 200 21:46 19.06.2019
6136 Clear 26 1009 44 10000 2.6 190 21:25 19.06.2019
6137 Clear 27 1009 44 10000 1.5 190 20:43 19.06.2019
6138 Clear 27 1009 37 10000 2.1 220 20:22 19.06.2019
6139 Clear 27 1009 37 10000 2.1 220 20:22 19.06.2019
6140 Clear 28 1009 35 10000 2.1 230 19:58 19.06.2019
6141 Clear 29 1009 35 10000 2.1 230 19:39 19.06.2019
6142 Clear 29 1009 30 10000 3.6 230 19:20 19.06.2019
6143 Clear 30 1009 31 10000 2.1 220 18:47 19.06.2019
6144 Clear 30 1009 35 10000 2.6 0 18:20 19.06.2019
6145 Clear 30 1009 33 10000 3.6 230 17:37 19.06.2019
6146 Clear 30 1010 29 10000 3.6 280 16:59 19.06.2019
6147 Clear 30 1010 29 10000 3.6 280 16:39 19.06.2019
6148 Clear 30 1010 25 10000 4.1 230 16:21 19.06.2019
6149 Clear 30 1010 27 10000 3.1 0 15:48 19.06.2019
6150 Clear 30 1011 30 10000 3.1 230 15:27 19.06.2019
6151 Clear 30 1011 30 10000 4.6 0 14:50 19.06.2019
6152 Clear 30 1011 35 10000 3.1 0 14:31 19.06.2019
6153 Clear 30 1011 33 10000 3.6 220 13:59 19.06.2019
6154 Clear 29 1011 33 10000 3.6 220 13:40 19.06.2019
6155 Clear 30 1011 32 10000 4.1 210 13:21 19.06.2019
6156 Clear 29 1011 37 10000 2.6 120 12:43 19.06.2019
6157 Clear 28 1012 39 10000 2.6 120 12:21 19.06.2019
6158 Clear 27 1012 44 10000 3.1 120 11:45 19.06.2019
6159 Clear 27 1012 44 10000 3.1 120 11:25 19.06.2019
6160 Clear 26 1012 47 10000 3.1 120 10:57 19.06.2019
6161 Clear 25 1012 50 10000 2.1 120 10:38 19.06.2019
6162 Clear 25 1012 50 10000 2.1 120 10:19 19.06.2019
6163 Clear 23 1012 53 10000 2.6 130 09:39 19.06.2019
6164 Clear 21 1012 53 10000 2.6 130 09:19 19.06.2019
6165 Clear 21 1012 60 10000 2.6 120 08:48 19.06.2019
6166 Clear 21 1012 68 10000 2.6 120 08:28 19.06.2019
6167 Clear 19 1013 77 10000 2.1 100 07:47 19.06.2019
6168 Clear 19 1013 77 10000 3.1 110 07:23 19.06.2019
6169 Clear 18 1012 77 10000 3.1 100 06:52 19.06.2019
6170 Clear 17 1012 82 10000 4.1 100 06:26 19.06.2019
6171 Clear 17 1012 77 10000 3.6 100 05:49 19.06.2019
6172 Clear 17 1013 77 10000 3.6 110 04:19 19.06.2019
6173 Clear 18 1013 77 10000 3.6 110 03:27 19.06.2019
6174 Clear 18 1013 82 10000 2.6 100 01:49 19.06.2019
6175 Clear 18 1013 77 10000 2.6 100 01:18 19.06.2019
6176 Clear 19 1013 77 10000 3.1 100 00:43 19.06.2019
6177 Clear 19 1013 77 10000 2.1 100 00:20 19.06.2019
6178 Clear 20 1013 68 10000 1.5 90 23:46 18.06.2019
6179 Clear 20 1013 64 10000 2.6 60 23:26 18.06.2019
6180 Clear 21 1013 73 10000 1 0 22:45 18.06.2019
6181 Clear 21 1013 60 10000 0.5 0 22:24 18.06.2019
6182 Clear 23 1013 69 10000 2.1 310 21:56 18.06.2019
6183 Clear 23 1013 69 10000 2.1 310 21:38 18.06.2019
6184 Clear 24 1013 53 10000 1 30 21:19 18.06.2019
6185 Clear 26 1013 54 10000 1 10 20:42 18.06.2019
6186 Clear 26 1013 37 10000 1 0 20:24 18.06.2019
6187 Clear 28 1013 37 10000 1 0 19:41 18.06.2019
6188 Clear 28 1013 37 10000 2.1 20 19:23 18.06.2019
6189 Clear 28 1013 37 10000 2.1 360 18:57 18.06.2019
6190 Clear 28 1013 37 10000 2.6 340 18:37 18.06.2019
6191 Clear 28 1013 37 10000 2.6 340 18:18 18.06.2019
6192 Clear 29 1014 33 10000 2.1 0 17:38 18.06.2019
6193 Clear 29 1014 35 10000 1.5 0 17:19 18.06.2019
6194 Clear 29 1014 35 10000 1.5 0 16:43 18.06.2019
6195 Clear 29 1014 32 10000 1.5 0 16:24 18.06.2019
6196 Clear 28 1014 35 10000 3.1 180 15:43 18.06.2019
6197 Clear 28 1015 39 10000 3.1 140 15:24 18.06.2019
6198 Clear 28 1015 39 10000 1.5 0 14:58 18.06.2019
6199 Clear 28 1015 39 10000 1.5 0 14:40 18.06.2019
6200 Clear 28 1015 44 10000 1.5 120 14:20 18.06.2019
6201 Clear 28 1016 39 10000 2.1 0 13:52 18.06.2019
6202 Clear 28 1016 44 10000 2.6 0 13:31 18.06.2019
6203 Clear 27 1016 44 10000 3.6 0 12:48 18.06.2019
6204 Clouds 26 1016 47 10000 4.1 110 12:29 18.06.2019
6205 Clouds 25 1017 50 10000 1.5 0 11:58 18.06.2019
6206 Clouds 25 1017 50 10000 1.5 0 11:39 18.06.2019
6207 Clouds 25 1017 53 10000 2.6 90 11:20 18.06.2019
6208 Clouds 24 1017 50 10000 2.1 110 10:43 18.06.2019
6209 Clear 23 1017 53 10000 1.5 100 10:23 18.06.2019
6210 Clear 23 1017 56 10000 2.6 100 09:54 18.06.2019
6211 Clear 21 1017 60 10000 3.6 110 09:25 18.06.2019
6212 Clear 20 1017 60 10000 3.1 100 08:58 18.06.2019
6213 Clear 19 1017 64 10000 2.1 120 08:39 18.06.2019
6214 Clear 19 1017 64 10000 2.1 120 08:21 18.06.2019
6215 Clear 16 1017 82 10000 0.5 0 07:27 18.06.2019
6216 Clear 16 1017 93 10000 1 0 06:59 18.06.2019
6217 Clear 14 1017 87 10000 0.5 0 05:28 18.06.2019
6218 Clear 14 1017 72 10000 2.1 110 04:22 18.06.2019
6219 Clear 16 1018 72 10000 2.1 100 02:50 18.06.2019
6220 Clear 16 1018 63 10000 3.6 90 01:49 18.06.2019
6221 Clear 15 1018 68 10000 2.6 90 01:24 18.06.2019
6222 Clear 16 1018 68 10000 1.5 100 00:40 18.06.2019
6223 Clear 16 1018 68 10000 1 80 00:22 18.06.2019
6224 Clear 18 1018 72 10000 1.5 70 23:38 17.06.2019
6225 Clear 18 1018 60 10000 1.5 80 23:19 17.06.2019
6226 Clear 19 1018 64 10000 2.6 60 22:41 17.06.2019
6227 Clear 19 1018 64 10000 2.6 60 22:21 17.06.2019
6228 Clear 19 1018 64 10000 2.6 60 22:21 17.06.2019
6229 Clear 21 1018 60 10000 2.1 60 21:55 17.06.2019
6230 Clear 22 1018 49 10000 2.6 70 21:36 17.06.2019
6231 Clear 22 1018 49 10000 2.6 70 21:18 17.06.2019
6232 Clear 24 1018 44 10000 3.1 90 20:36 17.06.2019
6233 Clear 24 1018 44 10000 3.1 90 20:18 17.06.2019
6234 Clear 25 1018 44 10000 3.6 100 19:41 17.06.2019
6235 Clear 25 1018 44 10000 2.6 80 19:21 17.06.2019
6236 Clear 25 1018 44 10000 5.1 90 18:55 17.06.2019
6237 Clear 25 1018 44 10000 2.6 40 18:36 17.06.2019
6238 Clear 25 1018 41 10000 3.1 70 18:18 17.06.2019
6239 Clear 26 1018 41 10000 3.1 70 17:41 17.06.2019
6240 Clear 25 1018 41 10000 3.1 70 17:23 17.06.2019
6241 Clear 25 1019 44 10000 4.1 110 16:43 17.06.2019
6242 Clear 25 1019 44 10000 4.1 110 16:25 17.06.2019
6243 Clear 25 1019 44 10000 4.1 80 15:55 17.06.2019
6244 Clear 25 1019 44 10000 2.6 0 15:37 17.06.2019
6245 Clear 25 1020 47 10000 2.6 0 15:18 17.06.2019
6246 Clouds 25 1020 44 10000 3.1 110 14:42 17.06.2019
6247 Clouds 25 1020 44 10000 3.1 110 14:23 17.06.2019
6248 Clouds 25 1020 53 10000 3.1 0 13:49 17.06.2019
6249 Clouds 24 1020 53 10000 3.1 0 13:23 17.06.2019
6250 Clouds 24 1021 60 10000 2.1 0 12:50 17.06.2019
6251 Clouds 23 1021 60 10000 2.1 0 12:31 17.06.2019
6252 Clouds 22 1021 72 10000 2.1 280 11:48 17.06.2019
6253 Clouds 21 1021 72 10000 2.1 280 11:26 17.06.2019
6254 Clouds 20 1022 100 10000 2.1 40 10:58 17.06.2019
6255 Mist 20 1022 88 10000 1.5 0 10:40 17.06.2019
6256 Mist 18 1022 93 10000 1 0 10:21 17.06.2019
6257 Mist 18 1022 93 10000 1 0 09:51 17.06.2019
6258 Mist 16 1022 100 3200 3.1 70 09:27 17.06.2019
6259 Fog 14 1023 100 10000 2.1 70 08:41 17.06.2019
6260 Fog 14 1022 100 300 1 0 08:23 17.06.2019
6261 Fog 13 1023 100 400 1.57 44.072 07:42 17.06.2019
6262 Fog 13 1022 100 150 1 0 07:24 17.06.2019
6263 Fog 13 1023 100 0 1.57 44.072 06:35 17.06.2019
6264 Fog 12 1022 100 150 1 0 05:46 17.06.2019
6265 Fog 12 1022 100 2000 1.5 280 04:41 17.06.2019
6266 Fog 12 1023 100 600 1.5 240 03:47 17.06.2019
6267 Fog 13 1022 100 800 0.5 90 02:59 17.06.2019
6268 Fog 13 1023 100 8000 0.56 341.792 02:40 17.06.2019
6269 Fog 13 1023 100 800 0.56 341.792 01:47 17.06.2019
6270 Fog 13 1022 100 800 1 110 01:25 17.06.2019
6271 Fog 14 1023 100 600 0.75 10.216 00:44 17.06.2019
6272 Fog 14 1022 100 10000 1 350 00:21 17.06.2019
6273 Fog 15 1023 100 10000 1 340 23:43 16.06.2019
6274 Fog 15 1023 100 10000 1 340 23:22 16.06.2019
6275 Fog 15 1023 93 10000 0.5 0 22:57 16.06.2019
6276 Clouds 15 1022 88 10000 0.5 290 22:39 16.06.2019
6277 Clear 16 1022 88 10000 1 0 22:18 16.06.2019
6278 Clouds 17 1022 88 10000 1.5 310 21:41 16.06.2019
6279 Clouds 17 1022 88 10000 1.5 310 21:23 16.06.2019
6280 Clouds 17 1022 88 10000 2.1 340 20:59 16.06.2019
6281 Clouds 17 1022 82 10000 2.1 310 20:37 16.06.2019
6282 Clouds 18 1022 82 10000 1.5 340 20:18 16.06.2019
6283 Clouds 18 1022 82 10000 1.5 340 20:18 16.06.2019
6284 Clouds 18 1022 82 10000 2.1 330 19:43 16.06.2019
6285 Rain 18 1022 77 10000 2.1 330 19:22 16.06.2019
6286 Rain 18 1022 77 10000 2.1 330 18:59 16.06.2019
6287 Rain 18 1022 82 10000 2.1 340 18:40 16.06.2019
6288 Rain 18 1023 100 10000 2.01 313.812 18:20 16.06.2019
6289 Rain 18 1022 77 10000 2.1 320 17:48 16.06.2019
6290 Rain 19 1022 77 10000 2.1 320 17:23 16.06.2019
6291 Rain 18 1022 88 10000 2.1 320 16:57 16.06.2019
6292 Rain 18 1023 100 4400 3.6 250 16:39 16.06.2019
6293 Rain 18 1022 88 10000 2.6 320 16:21 16.06.2019
6294 Clouds 18 1022 88 10000 2.6 310 15:44 16.06.2019
6295 Clouds 18 1022 88 10000 2.6 310 15:24 16.06.2019
6296 Rain 17 1022 93 10000 1 0 14:45 16.06.2019
6297 Rain 17 1022 100 10000 1.5 30 14:24 16.06.2019
6298 Rain 17 1022 93 7000 1.5 120 13:56 16.06.2019
6299 Rain 17 1022 93 7000 1.5 120 13:38 16.06.2019
6300 Rain 17 1023 100 10000 1.5 350 13:20 16.06.2019
6301 Rain 17 1022 100 10000 2.6 320 12:41 16.06.2019
6302 Rain 17 1022 93 10000 2.6 300 12:20 16.06.2019
6303 Rain 17 1021 87 10000 5.1 300 11:46 16.06.2019
6304 Rain 17 1021 87 10000 5.1 300 11:21 16.06.2019
6305 Rain 16 1022 100 10000 2.6 300 10:56 16.06.2019
6306 Rain 16 1021 93 10000 3.6 290 10:38 16.06.2019
6307 Rain 16 1021 100 5000 2.6 290 10:18 16.06.2019
6308 Rain 16 1020 93 10000 4.1 290 09:39 16.06.2019
6309 Rain 16 1020 93 10000 4.1 290 09:21 16.06.2019
6310 Rain 16 1021 100 10000 3.1 260 08:41 16.06.2019
6311 Rain 16 1020 93 10000 1.5 260 08:19 16.06.2019
6312 Rain 16 1020 100 8000 3.6 250 07:44 16.06.2019
6313 Rain 16 1019 93 10000 1.5 250 07:19 16.06.2019
6314 Rain 16 1019 100 10000 3.6 240 06:43 16.06.2019
6315 Rain 16 1019 93 10000 2.6 280 05:51 16.06.2019
6316 Rain 16 1019 100 10000 2.1 290 04:55 16.06.2019
6317 Rain 17 1019 100 10000 1.5 300 03:57 16.06.2019
6318 Rain 17 1019 100 8000 2.66 279.601 03:32 16.06.2019
6319 Rain 17 1019 100 10000 3.6 260 02:33 16.06.2019
6320 Rain 18 1017 72 10000 3.1 240 01:47 16.06.2019
6321 -273 0 0 0 0 0 01:27 16.06.2019
6322 Drizzle 18 1016 72 10000 1.5 360 00:40 16.06.2019
6323 Clouds 19 1016 72 10000 1.5 340 00:21 16.06.2019
6324 Clouds 19 1016 72 10000 1.5 10 23:45 15.06.2019
6325 Clouds 19 1016 72 10000 1.5 10 23:25 15.06.2019
6326 Clouds 19 1016 64 10000 1 0 22:50 15.06.2019
6327 Clouds 18 1016 60 10000 2.6 330 22:27 15.06.2019
6328 Clouds 21 1015 56 10000 4.1 300 21:57 15.06.2019
6329 Drizzle 21 1015 56 10000 4.6 290 21:39 15.06.2019
6330 Clouds 22 1015 53 10000 4.6 300 21:18 15.06.2019
6331 Clouds 23 1015 50 10000 3.1 290 20:42 15.06.2019
6332 Clouds 23 1015 50 10000 3.1 290 20:22 15.06.2019
6333 Clouds 23 1015 50 10000 4.1 290 19:43 15.06.2019
6334 Clouds 24 1015 50 10000 4.1 290 19:24 15.06.2019
6335 Clouds 23 1015 50 10000 3.1 280 18:41 15.06.2019
6336 Clouds 24 1015 50 10000 3.1 280 18:21 15.06.2019
6337 Clouds 24 1016 50 10000 5.7 290 17:43 15.06.2019
6338 Rain 24 1016 50 10000 5.1 280 17:25 15.06.2019
6339 Drizzle 24 1016 50 10000 5.1 280 16:48 15.06.2019
6340 Drizzle 24 1016 50 10000 5.7 280 16:20 15.06.2019
6341 Drizzle 24 1016 49 10000 6.2 260 15:44 15.06.2019
6342 Drizzle 24 1016 49 10000 6.2 260 15:44 15.06.2019
6343 Drizzle 24 1016 49 10000 6.2 260 15:24 15.06.2019
6344 Drizzle 24 1016 53 10000 7.2 290 14:44 15.06.2019
6345 Clouds 24 1016 53 10000 7.2 290 14:19 15.06.2019
6346 Clouds 24 1016 53 10000 7.2 290 13:58 15.06.2019
6347 Clouds 24 1015 53 10000 8.2 280 13:40 15.06.2019
6348 Rain 24 1015 53 10000 8.2 280 13:19 15.06.2019
6349 Drizzle 24 1015 50 10000 7.2 290 12:51 15.06.2019
6350 Drizzle 24 1015 50 10000 7.2 290 12:26 15.06.2019
6351 Drizzle 24 1015 53 10000 7.7 280 11:52 15.06.2019
6352 Drizzle 24 1014 56 10000 7.2 280 11:32 15.06.2019
6353 Clouds 23 1014 60 10000 8.2 270 10:49 15.06.2019
6354 Clouds 23 1014 60 10000 8.2 270 10:27 15.06.2019
6355 Clear 23 1013 53 10000 7.7 250 09:59 15.06.2019
6356 Drizzle 23 1013 56 10000 7.7 250 09:39 15.06.2019
6357 Haze 23 1013 56 10000 7.7 250 09:20 15.06.2019
6358 Rain 22 1011 64 10000 2.1 200 08:46 15.06.2019
6359 Rain 22 1011 64 10000 2.1 200 08:27 15.06.2019
6360 Clear 19 1010 82 10000 2.1 120 07:41 15.06.2019
6361 Haze 19 1010 82 10000 2.1 120 07:21 15.06.2019
6362 Haze 19 1010 82 10000 2.1 120 07:20 15.06.2019
6363 Haze 18 1009 82 10000 1.5 100 06:38 15.06.2019
6364 Haze 18 1009 82 10000 1.5 100 05:46 15.06.2019
6365 Clear 17 1009 82 10000 2.6 100 05:19 15.06.2019
6366 Clear 18 1009 82 10000 3.6 100 04:34 15.06.2019
6367 Haze 18 1010 82 10000 1.5 140 03:38 15.06.2019
6368 Haze 19 1010 77 10000 1.5 260 02:47 15.06.2019
6369 Haze 19 1010 77 10000 1 300 01:59 15.06.2019
6370 Haze 20 1010 77 10000 0.5 0 01:28 15.06.2019
6371 Haze 21 1011 68 10000 1.5 320 00:44 15.06.2019
6372 Haze 21 1011 68 10000 1.5 320 00:26 15.06.2019
6373 Haze 22 1011 64 10000 1.5 330 23:52 14.06.2019
6374 Clear 22 1011 60 10000 3.1 360 23:23 14.06.2019
6375 Clear 22 1013 64 10000 4.6 340 22:42 14.06.2019
6376 Clear 23 1013 57 10000 4.1 330 22:22 14.06.2019
6377 Clear 24 1013 57 10000 4.1 330 21:49 14.06.2019
6378 Clear 24 1013 57 10000 4.1 330 21:30 14.06.2019
6379 Clear 25 1013 54 10000 5.7 340 20:58 14.06.2019
6380 Clear 26 1014 57 10000 5.1 320 20:39 14.06.2019
6381 Clear 26 1014 51 10000 5.1 320 20:18 14.06.2019
6382 Clear 26 1013 48 10000 5.7 320 19:42 14.06.2019
6383 Clear 26 1013 48 10000 5.7 320 19:22 14.06.2019
6384 Clear 26 1014 37 10000 2.1 30 18:55 14.06.2019
6385 Clear 26 1014 37 10000 2.1 30 18:55 14.06.2019
6386 Clear 26 1014 33 10000 2.1 90 18:37 14.06.2019
6387 Clear 29 1014 29 10000 2.1 0 18:18 14.06.2019
6388 Clear 28 1015 27 10000 2.1 90 17:45 14.06.2019
6389 Clear 28 1015 27 10000 2.1 90 17:23 14.06.2019
6390 Clear 28 1015 31 10000 2.1 80 16:53 14.06.2019
6391 Clear 30 1015 31 10000 3.1 150 16:27 14.06.2019
6392 Clear 29 1016 31 10000 2.1 0 15:59 14.06.2019
6393 Clear 30 1016 33 10000 2.6 0 15:39 14.06.2019
6394 Clear 30 1016 33 10000 3.6 140 15:20 14.06.2019
6395 Clear 30 1016 33 10000 4.1 150 14:48 14.06.2019
6396 -273 0 0 0 0 0 14:48 14.06.2019
6397 Clear 29 1016 33 10000 4.1 150 14:29 14.06.2019
6398 Clear 29 1016 33 10000 4.1 150 14:29 14.06.2019
6399 Clear 30 1017 37 10000 5.7 150 13:47 14.06.2019
6400 Clear 29 1017 37 10000 5.7 150 13:28 14.06.2019
6401 Clear 29 1017 39 10000 6.2 130 12:59 14.06.2019
6402 Clear 28 1017 39 10000 6.2 130 12:59 14.06.2019
6403 Clear 28 1017 39 10000 6.2 130 12:59 14.06.2019
6404 Clear 29 1017 45 10000 7.2 140 12:39 14.06.2019
6405 Clear 27 1017 45 10000 7.7 130 12:21 14.06.2019
6406 Clear 27 1017 44 10000 7.2 120 11:42 14.06.2019
6407 Clear 25 1017 44 10000 7.2 120 11:23 14.06.2019
6408 Clear 25 1017 41 10000 4.1 90 10:48 14.06.2019
6409 Clear 24 1017 41 10000 4.1 90 10:22 14.06.2019
6410 Clear 23 1017 47 10000 4.6 100 09:55 14.06.2019
6411 Clear 22 1017 49 10000 2.6 120 09:34 14.06.2019
6412 Clear 20 1017 60 10000 1.5 120 08:49 14.06.2019
6413 Clear 17 1017 72 10000 2.1 140 08:21 14.06.2019
6414 Clear 17 1017 72 10000 2.1 140 08:21 14.06.2019
6415 Clear 16 1017 72 10000 2.1 140 07:58 14.06.2019
6416 Clear 15 1017 77 10000 2.6 150 07:39 14.06.2019
6417 Clear 15 1018 82 10000 1.5 110 07:18 14.06.2019
6418 Clear 11 1018 93 10000 2.6 110 06:20 14.06.2019
6419 Clear 11 1017 93 10000 1.5 110 05:47 14.06.2019
6420 Clear 12 1017 93 10000 2.41 108.871 04:54 14.06.2019
6421 Clear 12 1017 87 10000 1.5 90 04:27 14.06.2019
6422 Clear 13 1017 87 10000 1.5 90 03:41 14.06.2019
6423 Clear 13 1017 87 10000 2.6 110 03:21 14.06.2019
6424 Clear 13 1017 87 10000 2.1 100 02:36 14.06.2019
6425 Clear 14 1017 82 10000 2.6 110 01:51 14.06.2019
6426 Clear 15 1017 82 10000 1 10 00:40 14.06.2019
6427 Clear 16 1017 77 10000 0.5 350 00:21 14.06.2019
6428 Clear 16 1016 77 10000 1.5 360 23:49 13.06.2019
6429 Clear 16 1016 77 10000 1.5 360 23:25 13.06.2019
6430 Clear 18 1016 59 10000 0.5 0 22:41 13.06.2019
6431 Clear 21 1015 52 10000 0.5 0 22:22 13.06.2019
6432 Clear 21 1015 52 10000 0.5 0 21:59 13.06.2019
6433 Clear 22 1015 49 10000 1.5 330 21:37 13.06.2019
6434 Clear 22 1015 41 10000 2.1 340 21:18 13.06.2019
6435 Clear 22 1015 41 10000 2.1 340 21:18 13.06.2019
6436 Clear 23 1014 36 10000 1.5 290 20:44 13.06.2019
6437 Clear 24 1014 36 10000 2.6 290 20:20 13.06.2019
6438 Clear 24 1014 36 10000 1.5 300 19:43 13.06.2019
6439 Clear 24 1014 36 10000 1.5 300 19:25 13.06.2019
6440 Clear 24 1014 33 10000 1.5 0 18:59 13.06.2019
6441 Clear 24 1014 36 10000 3.1 310 18:41 13.06.2019
6442 Clear 24 1014 38 10000 1.5 0 18:22 13.06.2019
6443 Clear 24 1014 36 10000 2.6 0 17:45 13.06.2019
6444 Clear 24 1014 36 10000 2.6 0 17:22 13.06.2019
6445 Clear 24 1014 38 10000 4.1 260 16:59 13.06.2019
6446 Clear 24 1014 38 10000 3.1 340 16:40 13.06.2019
6447 Clear 24 1014 38 10000 3.1 340 16:20 13.06.2019
6448 Clear 23 1014 41 10000 2.1 0 15:41 13.06.2019
6449 Haze 23 1014 41 10000 2.1 0 15:22 13.06.2019
6450 Haze 24 1015 46 10000 2.6 0 14:50 13.06.2019
6451 Haze 23 1015 40 10000 2.1 210 14:31 13.06.2019
6452 -273 0 0 0 0 0 13:57 13.06.2019
6453 Clouds 23 1015 43 10000 2.1 0 13:57 13.06.2019
6454 Clouds 23 1015 49 10000 1.5 0 13:39 13.06.2019
6455 Clouds 23 1015 53 10000 2.6 310 13:20 13.06.2019
6456 Clouds 22 1016 52 10000 2.1 0 12:41 13.06.2019
6457 Clouds 21 1016 52 10000 2.1 0 12:21 13.06.2019
6458 Clouds 20 1016 60 0 1.5 310 11:45 13.06.2019
6459 Clouds 20 1016 60 0 1.5 310 11:26 13.06.2019
6460 Clouds 19 1016 63 10000 1 0 10:49 13.06.2019
6461 Clouds 18 1016 68 10000 1 0 10:31 13.06.2019
6462 Clouds 18 1016 67 10000 1.5 0 09:55 13.06.2019
6463 Clouds 18 1016 67 10000 1.5 0 09:55 13.06.2019
6464 Clouds 18 1016 67 10000 1.5 0 09:55 13.06.2019
6465 Clouds 16 1016 77 10000 1.5 40 09:36 13.06.2019
6466 Mist 15 1016 100 10000 0.72 117.568 09:18 13.06.2019
6467 Mist 15 1016 82 10000 1 0 08:43 13.06.2019
6468 Mist 14 1016 82 10000 1 0 08:22 13.06.2019
6469 Mist 13 1016 93 10000 1 0 07:41 13.06.2019
6470 Fog 13 1016 93 10000 1 0 07:22 13.06.2019
6471 Fog 12 1016 100 200 1.5 220 06:45 13.06.2019
6472 Fog 12 1015 100 7000 1 0 06:22 13.06.2019
6473 Fog 12 1016 100 200 1.5 220 05:52 13.06.2019
6474 Fog 12 1015 100 10000 1 0 05:34 13.06.2019
6475 Rain 13 1016 100 1600 0.86 267.938 03:50 13.06.2019
6476 Rain 13 1016 100 8000 2.01 239.364 02:22 13.06.2019
6477 Rain 13 1015 100 10000 1.5 90 00:44 13.06.2019
6478 Rain 14 1015 100 10000 1 80 23:38 12.06.2019
6479 Rain 14 1015 100 10000 1.5 100 23:20 12.06.2019
6480 Rain 14 1015 100 10000 2.1 130 22:41 12.06.2019
6481 Rain 14 1013 93 10000 1 0 22:22 12.06.2019
6482 Rain 14 1013 93 10000 1 0 21:47 12.06.2019
6483 Rain 15 1013 93 10000 1 0 21:29 12.06.2019
6484 Rain 15 1013 77 10000 2.1 260 20:50 12.06.2019
6485 Rain 15 1013 77 10000 2.1 260 20:31 12.06.2019
6486 Rain 16 1013 93 10000 1.5 30 19:59 12.06.2019
6487 Rain 16 1013 82 10000 2.1 280 19:41 12.06.2019
6488 Rain 16 1012 87 10000 3.1 320 19:22 12.06.2019
6489 Rain 16 1012 87 10000 3.1 320 18:51 12.06.2019
6490 Rain 15 1013 87 10000 3.1 270 18:29 12.06.2019
6491 Rain 15 1013 87 10000 3.1 270 18:29 12.06.2019
6492 Rain 16 1012 77 10000 4.6 310 17:58 12.06.2019
6493 Rain 16 1013 93 10000 3.1 270 17:39 12.06.2019
6494 Rain 16 1012 77 10000 5.7 280 17:18 12.06.2019
6495 Rain 16 1013 93 10000 4.6 280 16:40 12.06.2019
6496 Rain 16 1013 93 10000 5.1 270 16:22 12.06.2019
6497 Rain 16 1012 87 10000 5.1 300 15:47 12.06.2019
6498 Rain 16 1012 87 10000 5.1 300 15:29 12.06.2019
6499 Rain 17 1011 72 10000 7.2 270 14:42 12.06.2019
6500 Drizzle 18 1012 82 10000 6.2 280 14:22 12.06.2019
6501 -273 0 0 0 0 0 13:42 12.06.2019
6502 Rain 20 1008 64 10000 5.1 240 13:20 12.06.2019
6503 Rain 22 1010 93 10000 9.3 260 12:56 12.06.2019
6504 Rain 22 1010 93 10000 9.3 260 12:38 12.06.2019
6505 Clouds 22 1009 88 10000 7.2 270 12:19 12.06.2019
6506 Clouds 22 1009 88 10000 7.2 270 12:19 12.06.2019
6507 Clouds 22 1008 83 10000 4.6 250 11:45 12.06.2019
6508 Clouds 22 1008 82 10000 2.6 220 11:27 12.06.2019
6509 Clouds 23 1007 82 10000 1 0 10:50 12.06.2019
6510 Clouds 20 1007 93 10000 4.3 255.663 10:26 12.06.2019
6511 Clouds 19 1007 93 10000 4.3 255.663 09:45 12.06.2019
6512 Clouds 18 1007 93 10000 1.5 290 09:23 12.06.2019
6513 Clouds 18 1007 93 10000 1.5 290 08:55 12.06.2019
6514 Clouds 18 1007 88 10000 0.5 0 08:21 12.06.2019
6515 Mist 17 1008 100 10000 1.5 50 07:45 12.06.2019
6516 Fog 16 1008 93 10000 0.5 0 06:54 12.06.2019
6517 Mist 15 1008 93 10000 1.5 260 05:27 12.06.2019
6518 Mist 15 1009 93 10000 1 0 04:34 12.06.2019
6519 Mist 17 1009 88 10000 1.5 240 01:32 12.06.2019
6520 Rain 17 1008 88 10000 1.5 290 00:40 12.06.2019
6521 Rain 18 1008 82 10000 3.1 270 23:48 11.06.2019
6522 Rain 18 1008 82 10000 3.1 270 23:29 11.06.2019
6523 Rain 19 1010 77 10000 3.1 280 22:44 11.06.2019
6524 Thunderstorm 20 1009 72 10000 3.1 260 22:20 11.06.2019
6525 Thunderstorm 20 1009 72 10000 3.1 260 21:57 11.06.2019
6526 Thunderstorm 20 1009 72 10000 4.1 300 21:38 11.06.2019
6527 Rain 20 1009 72 10000 5.1 310 21:20 11.06.2019
6528 Clouds 21 1009 68 10000 4.6 310 20:48 11.06.2019
6529 Clouds 21 1009 68 10000 4.6 310 20:26 11.06.2019
6530 Clouds 21 1009 68 10000 4.6 310 20:26 11.06.2019
6531 Clouds 22 1009 68 10000 6.2 300 19:55 11.06.2019
6532 Rain 22 1009 68 10000 6.2 300 19:34 11.06.2019
6533 Clouds 23 1008 64 10000 6.2 320 18:58 11.06.2019
6534 Clouds 23 1008 60 10000 6.2 310 18:23 11.06.2019
6535 Clouds 23 1009 60 10000 6.2 310 17:54 11.06.2019
6536 -273 0 0 0 0 0 17:36 11.06.2019
6537 Clouds 23 1009 60 10000 5.7 350 17:18 11.06.2019
6538 Clouds 23 1009 64 10000 4.6 350 16:41 11.06.2019
6539 Clouds 23 1010 64 10000 5.7 350 16:23 11.06.2019
6540 Clouds 22 1010 64 10000 3.6 340 15:42 11.06.2019
6541 Clouds 23 1010 64 10000 3.6 340 15:24 11.06.2019
6542 Clouds 22 1010 64 10000 3.1 350 14:54 11.06.2019
6543 Clouds 23 1010 64 10000 4.1 350 14:23 11.06.2019
6544 Clouds 22 1010 68 10000 2.6 310 13:56 11.06.2019
6545 Clouds 21 1011 68 10000 3.1 350 13:36 11.06.2019
6546 Clouds 22 1012 77 10000 3.6 350 13:18 11.06.2019
6547 Clouds 21 1011 72 10000 3.1 310 12:40 11.06.2019
6548 Clouds 20 1011 72 10000 2.1 320 12:21 11.06.2019
6549 Clouds 19 1012 87 10000 2.1 20 11:40 11.06.2019
6550 Clouds 18 1011 72 10000 2.1 270 11:20 11.06.2019
6551 Clouds 19 1011 72 10000 2.1 340 10:47 11.06.2019
6552 Clouds 18 1011 72 10000 2.1 340 10:26 11.06.2019
6553 Clouds 16 1011 93 10000 3.1 10 09:50 11.06.2019
6554 Clouds 16 1011 93 10000 3.1 10 09:25 11.06.2019
6555 Clouds 15 1012 93 10000 2.1 350 08:47 11.06.2019
6556 Clouds 15 1012 93 10000 2.1 350 08:29 11.06.2019
6557 Rain 15 1013 93 10000 3.6 270 07:55 11.06.2019
6558 Rain 15 1013 93 10000 3.6 270 07:29 11.06.2019
6559 Clouds 15 1012 87 10000 4.6 270 06:50 11.06.2019
6560 Clouds 15 1011 93 8000 2.6 290 04:56 11.06.2019
6561 Clouds 15 1010 100 8000 2.1 290 03:43 11.06.2019
6562 Clouds 15 1012 93 9000 2.6 310 01:41 11.06.2019
6563 Mist 15 1012 100 1800 2.1 310 00:48 11.06.2019
6564 Mist 15 1011 100 800 6.02 290.615 23:50 10.06.2019
6565 Mist 16 1011 100 800 6.02 290.615 23:32 10.06.2019
6566 Clouds 16 1011 100 9000 2.1 280 22:58 10.06.2019
6567 Clouds 16 1011 100 9000 1.5 270 22:40 10.06.2019
6568 Rain 16 1011 100 9000 1.5 270 22:22 10.06.2019
6569 Rain 17 1012 100 9000 3.1 300 21:41 10.06.2019
6570 Rain 17 1012 100 9000 3.1 300 21:22 10.06.2019
6571 Rain 18 1012 93 10000 2.6 300 20:47 10.06.2019
6572 Rain 18 1012 93 10000 2.6 300 20:25 10.06.2019
6573 Rain 18 1012 93 10000 2.6 20 19:57 10.06.2019
6574 Rain 18 1012 93 10000 2.6 20 19:57 10.06.2019
6575 Rain 19 1013 88 10000 3.1 10 19:38 10.06.2019
6576 Rain 19 1012 100 10000 3.6 40 19:20 10.06.2019
6577 Rain 20 1013 72 10000 5.1 300 18:55 10.06.2019
6578 Rain 20 1013 72 10000 5.1 300 18:37 10.06.2019
6579 Rain 21 1012 64 10000 5.7 310 18:18 10.06.2019
6580 Rain 22 1012 60 10000 5.1 300 17:40 10.06.2019
6581 Rain 22 1012 60 10000 5.1 300 17:40 10.06.2019
6582 Rain 22 1012 60 10000 5.1 300 17:21 10.06.2019
6583 Drizzle 24 1013 77 10000 3.1 290 16:45 10.06.2019
6584 Drizzle 23 1013 77 10000 3.1 290 16:27 10.06.2019
6585 Rain 23 1013 56 10000 2.6 0 15:43 10.06.2019
6586 Clouds 23 1013 53 10000 1.5 0 15:24 10.06.2019
6587 Clouds 23 1013 53 10000 1.5 0 14:59 10.06.2019
6588 Haze 23 1014 60 10000 2.1 330 14:38 10.06.2019
6589 Haze 23 1014 72 3600 1.48 21.249 14:20 10.06.2019
6590 Rain 22 1015 72 9000 1.48 21.249 13:43 10.06.2019
6591 Clouds 21 1015 77 10000 2.1 340 13:22 10.06.2019
6592 Rain 21 1014 68 10000 2.6 330 13:22 10.06.2019
6593 Rain 21 1015 72 10000 3.1 300 12:45 10.06.2019
6594 Rain 20 1015 72 10000 3.1 300 12:26 10.06.2019
6595 Rain 19 1016 88 10000 3.1 280 11:46 10.06.2019
6596 Rain 20 1016 88 10000 3.1 280 11:46 10.06.2019
6597 Rain 19 1016 88 10000 3.1 280 11:28 10.06.2019
6598 Haze 19 1016 72 10000 2.6 280 10:46 10.06.2019
6599 Haze 19 1016 72 10000 2.6 280 10:22 10.06.2019
6600 Clear 18 1016 72 10000 2.6 280 09:58 10.06.2019
6601 Drizzle 18 1016 87 10000 1.5 270 09:39 10.06.2019
6602 Clear 18 1015 77 10000 1.5 250 09:19 10.06.2019
6603 Clear 17 1015 87 10000 1 0 08:45 10.06.2019
6604 Clear 16 1015 87 10000 1 0 08:25 10.06.2019
6605 Clear 15 1016 93 10000 0.5 0 07:21 10.06.2019
6606 Clear 14 1016 87 10000 1 0 04:30 10.06.2019
6607 Clouds 17 1017 77 10000 2.6 100 01:59 10.06.2019
6608 Clouds 17 1017 77 10000 1 50 01:26 10.06.2019
6609 Clouds 17 1018 72 10000 1 0 00:58 10.06.2019
6610 Clouds 18 1018 72 10000 1.5 120 00:20 10.06.2019
6611 Clouds 18 1018 72 10000 1 50 23:43 09.06.2019
6612 Clouds 18 1019 72 10000 1.5 90 23:20 09.06.2019
6613 Clouds 18 1019 68 10000 1 80 22:45 09.06.2019
6614 Clouds 18 1019 68 10000 1 80 22:25 09.06.2019
6615 Clouds 19 1019 64 10000 1 290 21:45 09.06.2019
6616 Clouds 20 1019 64 10000 1.5 40 21:26 09.06.2019
6617 Clouds 21 1019 60 10000 2.1 340 20:45 09.06.2019
6618 Clouds 21 1019 60 10000 2.1 340 20:23 09.06.2019
6619 Rain 21 1020 53 10000 6.2 260 19:48 09.06.2019
6620 Rain 22 1019 49 10000 5.1 230 19:19 09.06.2019
6621 Rain 22 1019 49 10000 5.1 230 19:19 09.06.2019
6622 Rain 23 1019 49 10000 5.1 230 18:59 09.06.2019
6623 Clouds 23 1021 64 10000 3.1 250 18:41 09.06.2019
6624 Clouds 23 1021 64 10000 3.1 250 18:23 09.06.2019
6625 Clear 25 1019 41 10000 4.1 170 17:47 09.06.2019
6626 Clear 25 1019 41 10000 4.1 170 17:27 09.06.2019
6627 Clear 25 1019 39 10000 3.1 140 16:54 09.06.2019
6628 Clear 26 1019 36 10000 4.1 120 16:36 09.06.2019
6629 Clear 26 1019 36 10000 4.1 120 16:36 09.06.2019
6630 Clear 26 1019 36 10000 2.6 120 16:18 09.06.2019
6631 Clear 26 1020 36 10000 4.1 120 15:44 09.06.2019
6632 Clear 26 1020 36 10000 4.1 120 15:24 09.06.2019
6633 Clear 26 1021 34 10000 4.6 140 14:45 09.06.2019
6634 Drizzle 26 1021 34 10000 4.6 140 14:22 09.06.2019
6635 Clear 26 1021 27 10000 3.1 150 13:52 09.06.2019
6636 Clear 25 1022 27 10000 3.1 110 13:26 09.06.2019
6637 Clear 24 1022 31 10000 3.6 70 12:42 09.06.2019
6638 Clear 23 1022 31 10000 3.6 70 12:23 09.06.2019
6639 Clear 22 1023 37 10000 3.6 80 11:40 09.06.2019
6640 Haze 21 1023 37 10000 3.6 80 11:21 09.06.2019
6641 Haze 20 1024 42 10000 1.5 0 10:46 09.06.2019
6642 Haze 20 1024 42 10000 1.5 0 10:23 09.06.2019
6643 Haze 18 1024 55 10000 1 0 09:41 09.06.2019
6644 Clear 14 1024 55 10000 1 0 09:23 09.06.2019
6645 Clear 15 1024 58 10000 1 0 08:55 09.06.2019
6646 Clear 13 1025 66 10000 1 0 08:36 09.06.2019
6647 Clear 11 1025 81 10000 0.5 0 07:28 09.06.2019
6648 Clear 8 1025 87 10000 1 110 06:30 09.06.2019
6649 Clear 8 1025 87 10000 1 110 06:30 09.06.2019
6650 Clear 8 1025 87 10000 1 350 05:28 09.06.2019
6651 Clear 8 1025 87 10000 1 350 05:28 09.06.2019
6652 Haze 9 1025 76 10000 0.5 0 01:46 09.06.2019
6653 Haze 10 1025 71 10000 1 100 01:22 09.06.2019
6654 Haze 11 1025 71 10000 1 100 00:59 09.06.2019
6655 Haze 12 1025 71 10000 1 0 23:56 08.06.2019
6656 Haze 12 1025 66 10000 1 0 23:38 08.06.2019
6657 Haze 13 1024 58 10000 1.5 30 23:19 08.06.2019
6658 Haze 14 1024 54 10000 1.5 10 22:42 08.06.2019
6659 Haze 16 1024 54 10000 1.5 10 22:23 08.06.2019
6660 Haze 18 1024 48 10000 2.1 10 21:52 08.06.2019
6661 Haze 18 1023 42 10000 3.1 320 21:29 08.06.2019
6662 Clear 20 1023 37 10000 2.6 320 20:59 08.06.2019
6663 Clear 20 1023 32 10000 4.1 320 20:40 08.06.2019
6664 Haze 20 1023 32 10000 2.6 320 20:20 08.06.2019
6665 Haze 21 1023 32 10000 3.1 310 19:41 08.06.2019
6666 Haze 21 1023 30 10000 3.6 0 19:20 08.06.2019
6667 Haze 21 1023 28 10000 3.1 0 18:57 08.06.2019
6668 Haze 21 1023 28 10000 3.1 0 18:36 08.06.2019
6669 Haze 21 1023 30 10000 6.2 280 17:59 08.06.2019
6670 Clear 21 1024 30 10000 6.2 270 17:39 08.06.2019
6671 Clear 21 1024 30 10000 3.6 250 17:18 08.06.2019
6672 Clear 21 1024 30 10000 5.7 260 16:44 08.06.2019
6673 Clear 20 1024 30 10000 5.1 220 16:18 08.06.2019
6674 Clear 20 1024 32 10000 5.1 250 15:38 08.06.2019
6675 Clear 20 1024 32 10000 5.7 240 14:54 08.06.2019
6676 Clear 20 1024 35 10000 6.7 200 14:32 08.06.2019
6677 Clear 20 1024 34 10000 6.7 240 13:59 08.06.2019
6678 Clear 19 1024 37 10000 6.2 230 13:24 08.06.2019
6679 Clear 18 1024 45 10000 5.7 240 12:45 08.06.2019
6680 Clouds 17 1024 44 10000 6.2 230 12:20 08.06.2019
6681 Clouds 16 1024 51 10000 5.7 220 11:44 08.06.2019
6682 Clouds 16 1024 51 10000 5.7 220 11:22 08.06.2019
6683 Clouds 15 1023 67 10000 4.6 190 10:44 08.06.2019
6684 Clouds 15 1023 67 10000 4.6 190 10:22 08.06.2019
6685 Clouds 14 1023 71 10000 2.6 180 09:48 08.06.2019
6686 Rain 14 1023 71 10000 3.1 210 09:21 08.06.2019
6687 Rain 13 1022 71 10000 3.1 210 08:29 08.06.2019
6688 Rain 13 1022 81 10000 2.1 210 07:47 08.06.2019
6689 Drizzle 13 1021 81 10000 3.6 200 06:48 08.06.2019
6690 Clouds 13 1021 81 10000 2.6 210 05:42 08.06.2019
6691 Clear 13 1019 76 10000 0.5 0 02:57 08.06.2019
6692 Rain 14 1018 71 10000 5.1 310 00:59 08.06.2019
6693 Rain 14 1018 67 10000 6.2 300 00:25 08.06.2019
6694 Rain 15 1017 87 10000 4.6 290 23:41 07.06.2019
6695 Rain 15 1016 72 10000 9.8 290 23:19 07.06.2019
6696 Drizzle 18 1016 72 10000 10.3 270 22:36 07.06.2019
6697 Rain 21 1010 47 10000 1.5 120 21:58 07.06.2019
6698 Rain 22 1010 47 10000 3.1 130 21:40 07.06.2019
6699 Rain 24 1010 60 10000 1.5 180 21:21 07.06.2019
6700 Rain 25 1010 60 10000 1.5 180 20:53 07.06.2019
6701 Clear 25 1009 41 10000 5.1 110 20:35 07.06.2019
6702 Clear 26 1008 39 10000 6.7 110 19:46 07.06.2019
6703 Clear 27 1009 37 10000 5.7 120 19:20 07.06.2019
6704 Clear 27 1009 37 10000 5.7 110 18:47 07.06.2019
6705 Clear 27 1009 37 10000 5.7